<?xml version="1.0" encoding="UTF-8"?>
<gpx version="1.1" creator="https://www.youtrack.es" xsi:schemaLocation="http://www.topografix.com/GPX/1/1 http://www.topografix.com/GPX/1/1/gpx.xsd http://www.garmin.com/xmlschemas/GpxExtensions/v3 http://www.garmin.com/xmlschemas/GpxExtensionsv3.xsd http://www.garmin.com/xmlschemas/TrackPointExtension/v1 http://www.garmin.com/xmlschemas/TrackPointExtensionv1.xsd" xmlns:gpxtpx="http://www.garmin.com/xmlschemas/TrackPointExtension/v1" xmlns:gpxx="http://www.garmin.com/xmlschemas/GpxExtensions/v3" xmlns:xsi="http://www.w3.org/2001/XMLSchema-instance">
  <metadata>
    <link href="https://www.youtrack.es">
      <text>YouTrack.es</text>
    </link>
    <time>2026-05-08T01:09:47Z</time>
  </metadata>
  <trk>
    <src>https://www.youtrack.es</src>
    <link href="https://www.youtrack.es/ruta/21599-sa-pobla-lluc-i-una-bona-panxada">
      <text>YouTrack.es</text>
    </link>
    <trkseg>
      <trkpt lat="39.7748320363462" lon="3.0163736175745726">
        <ele>24.2</ele>
        <time>2021-04-29T07:03:03.000Z</time>
      </trkpt>
      <trkpt lat="39.774878807365894" lon="3.0163429398089647">
        <ele>24</ele>
        <time>2021-04-29T07:03:04.000Z</time>
      </trkpt>
      <trkpt lat="39.77516823448241" lon="3.0161345656961203">
        <ele>23.8</ele>
        <time>2021-04-29T07:03:10.000Z</time>
      </trkpt>
      <trkpt lat="39.77563586086035" lon="3.015817226842046">
        <ele>23.4</ele>
        <time>2021-04-29T07:03:19.000Z</time>
      </trkpt>
      <trkpt lat="39.77584155276418" lon="3.015659647062421">
        <ele>23.2</ele>
        <time>2021-04-29T07:03:23.000Z</time>
      </trkpt>
      <trkpt lat="39.775944063439965" lon="3.015579264611006">
        <ele>23.2</ele>
        <time>2021-04-29T07:03:25.000Z</time>
      </trkpt>
      <trkpt lat="39.77614958770573" lon="3.0154173262417316">
        <ele>23</ele>
        <time>2021-04-29T07:03:29.000Z</time>
      </trkpt>
      <trkpt lat="39.7762013040483" lon="3.0153773445636034">
        <ele>23</ele>
        <time>2021-04-29T07:03:30.000Z</time>
      </trkpt>
      <trkpt lat="39.77668225765228" lon="3.01500485278666">
        <ele>23</ele>
        <time>2021-04-29T07:03:39.000Z</time>
      </trkpt>
      <trkpt lat="39.776849057525396" lon="3.014878872781992">
        <ele>22.8</ele>
        <time>2021-04-29T07:03:42.000Z</time>
      </trkpt>
      <trkpt lat="39.77701962925494" lon="3.0147573351860046">
        <ele>22.6</ele>
        <time>2021-04-29T07:03:45.000Z</time>
      </trkpt>
      <trkpt lat="39.77741994895041" lon="3.0144757870584726">
        <ele>22.2</ele>
        <time>2021-04-29T07:03:52.000Z</time>
      </trkpt>
      <trkpt lat="39.77753578685224" lon="3.0143985897302628">
        <ele>22</ele>
        <time>2021-04-29T07:03:54.000Z</time>
      </trkpt>
      <trkpt lat="39.77771113626659" lon="3.014284512028098">
        <ele>22</ele>
        <time>2021-04-29T07:03:57.000Z</time>
      </trkpt>
      <trkpt lat="39.77800718508661" lon="3.0140859447419643">
        <ele>22</ele>
        <time>2021-04-29T07:04:02.000Z</time>
      </trkpt>
      <trkpt lat="39.778186893090606" lon="3.0139643233269453">
        <ele>21.8</ele>
        <time>2021-04-29T07:04:05.000Z</time>
      </trkpt>
      <trkpt lat="39.77836735546589" lon="3.013841947540641">
        <ele>21.6</ele>
        <time>2021-04-29T07:04:08.000Z</time>
      </trkpt>
      <trkpt lat="39.77879106067121" lon="3.0135440547019243">
        <ele>21.4</ele>
        <time>2021-04-29T07:04:15.000Z</time>
      </trkpt>
      <trkpt lat="39.778850404545665" lon="3.013500804081559">
        <ele>21.4</ele>
        <time>2021-04-29T07:04:16.000Z</time>
      </trkpt>
      <trkpt lat="39.77931199595332" lon="3.013129737228155">
        <ele>21</ele>
        <time>2021-04-29T07:04:24.000Z</time>
      </trkpt>
      <trkpt lat="39.77942540310323" lon="3.0130367819219828">
        <ele>21</ele>
        <time>2021-04-29T07:04:26.000Z</time>
      </trkpt>
      <trkpt lat="39.779782220721245" lon="3.012793455272913">
        <ele>21</ele>
        <time>2021-04-29T07:04:32.000Z</time>
      </trkpt>
      <trkpt lat="39.779964946210384" lon="3.0126745998859406">
        <ele>20.8</ele>
        <time>2021-04-29T07:04:35.000Z</time>
      </trkpt>
      <trkpt lat="39.780428633093834" lon="3.0123342107981443">
        <ele>20.6</ele>
        <time>2021-04-29T07:04:43.000Z</time>
      </trkpt>
      <trkpt lat="39.780534747987986" lon="3.012126926332712">
        <ele>20.4</ele>
        <time>2021-04-29T07:04:46.000Z</time>
      </trkpt>
      <trkpt lat="39.78055838495493" lon="3.012051237747073">
        <ele>20.4</ele>
        <time>2021-04-29T07:04:47.000Z</time>
      </trkpt>
      <trkpt lat="39.78069425560534" lon="3.0116266943514347">
        <ele>20.4</ele>
        <time>2021-04-29T07:04:53.000Z</time>
      </trkpt>
      <trkpt lat="39.78076055645943" lon="3.011427288874984">
        <ele>20.4</ele>
        <time>2021-04-29T07:04:56.000Z</time>
      </trkpt>
      <trkpt lat="39.78081051260233" lon="3.0112347565591335">
        <ele>20.4</ele>
        <time>2021-04-29T07:04:59.000Z</time>
      </trkpt>
      <trkpt lat="39.780836664140224" lon="3.0111013166606426">
        <ele>20.6</ele>
        <time>2021-04-29T07:05:01.000Z</time>
      </trkpt>
      <trkpt lat="39.780873376876116" lon="3.0105906911194324">
        <ele>21.2</ele>
        <time>2021-04-29T07:05:08.000Z</time>
      </trkpt>
      <trkpt lat="39.7809502389282" lon="3.0100037902593613">
        <ele>21.6</ele>
        <time>2021-04-29T07:05:16.000Z</time>
      </trkpt>
      <trkpt lat="39.781025340780616" lon="3.00963431596756">
        <ele>21.4</ele>
        <time>2021-04-29T07:05:21.000Z</time>
      </trkpt>
      <trkpt lat="39.78107772767544" lon="3.0093542765825987">
        <ele>21.4</ele>
        <time>2021-04-29T07:05:25.000Z</time>
      </trkpt>
      <trkpt lat="39.781160624697804" lon="3.008848764002323">
        <ele>21.2</ele>
        <time>2021-04-29T07:05:32.000Z</time>
      </trkpt>
      <trkpt lat="39.78120890446007" lon="3.0085636116564274">
        <ele>21.2</ele>
        <time>2021-04-29T07:05:36.000Z</time>
      </trkpt>
      <trkpt lat="39.78122734464705" lon="3.00841910764575">
        <ele>21.2</ele>
        <time>2021-04-29T07:05:38.000Z</time>
      </trkpt>
      <trkpt lat="39.78119155392051" lon="3.0082122422754765">
        <ele>21.2</ele>
        <time>2021-04-29T07:05:41.000Z</time>
      </trkpt>
      <trkpt lat="39.781132377684116" lon="3.00809808075428">
        <ele>21.4</ele>
        <time>2021-04-29T07:05:43.000Z</time>
      </trkpt>
      <trkpt lat="39.78104428388178" lon="3.0079378187656403">
        <ele>21.4</ele>
        <time>2021-04-29T07:05:46.000Z</time>
      </trkpt>
      <trkpt lat="39.78102944791317" lon="3.0078823305666447">
        <ele>21.6</ele>
        <time>2021-04-29T07:05:47.000Z</time>
      </trkpt>
      <trkpt lat="39.78106372989714" lon="3.0077154468744993">
        <ele>21.6</ele>
        <time>2021-04-29T07:05:50.000Z</time>
      </trkpt>
      <trkpt lat="39.781197253614664" lon="3.007345972582698">
        <ele>22.2</ele>
        <time>2021-04-29T07:05:56.000Z</time>
      </trkpt>
      <trkpt lat="39.781220722943544" lon="3.0072830244898796">
        <ele>22.6</ele>
        <time>2021-04-29T07:05:57.000Z</time>
      </trkpt>
      <trkpt lat="39.78124503046274" lon="3.007220411673188">
        <ele>22.6</ele>
        <time>2021-04-29T07:05:58.000Z</time>
      </trkpt>
      <trkpt lat="39.781501265242696" lon="3.0065712332725525">
        <ele>23</ele>
        <time>2021-04-29T07:06:08.000Z</time>
      </trkpt>
      <trkpt lat="39.78152750059962" lon="3.00650417804718">
        <ele>23</ele>
        <time>2021-04-29T07:06:09.000Z</time>
      </trkpt>
      <trkpt lat="39.781655576080084" lon="3.0061677284538746">
        <ele>23</ele>
        <time>2021-04-29T07:06:14.000Z</time>
      </trkpt>
      <trkpt lat="39.781808545812964" lon="3.005758775398135">
        <ele>23</ele>
        <time>2021-04-29T07:06:20.000Z</time>
      </trkpt>
      <trkpt lat="39.7818342782557" lon="3.005691133439541">
        <ele>23</ele>
        <time>2021-04-29T07:06:21.000Z</time>
      </trkpt>
      <trkpt lat="39.78189035318792" lon="3.005560375750065">
        <ele>23</ele>
        <time>2021-04-29T07:06:23.000Z</time>
      </trkpt>
      <trkpt lat="39.781974172219634" lon="3.005459289997816">
        <ele>23.2</ele>
        <time>2021-04-29T07:06:25.000Z</time>
      </trkpt>
      <trkpt lat="39.7820745036006" lon="3.0053987726569176">
        <ele>23.2</ele>
        <time>2021-04-29T07:06:27.000Z</time>
      </trkpt>
      <trkpt lat="39.7821746673435" lon="3.005348229780793">
        <ele>23.4</ele>
        <time>2021-04-29T07:06:29.000Z</time>
      </trkpt>
      <trkpt lat="39.78232428431511" lon="3.005236079916358">
        <ele>23.6</ele>
        <time>2021-04-29T07:06:32.000Z</time>
      </trkpt>
      <trkpt lat="39.782425705343485" lon="3.0051478184759617">
        <ele>23.6</ele>
        <time>2021-04-29T07:06:34.000Z</time>
      </trkpt>
      <trkpt lat="39.782631481066346" lon="3.004962746053934">
        <ele>24.6</ele>
        <time>2021-04-29T07:06:38.000Z</time>
      </trkpt>
      <trkpt lat="39.783100448548794" lon="3.004547255113721">
        <ele>24.4</ele>
        <time>2021-04-29T07:06:47.000Z</time>
      </trkpt>
      <trkpt lat="39.783558854833245" lon="3.004142912104726">
        <ele>24.4</ele>
        <time>2021-04-29T07:06:56.000Z</time>
      </trkpt>
      <trkpt lat="39.783607637509704" lon="3.0040973983705044">
        <ele>24.4</ele>
        <time>2021-04-29T07:06:57.000Z</time>
      </trkpt>
      <trkpt lat="39.78384895250201" lon="3.00388022325933">
        <ele>24.6</ele>
        <time>2021-04-29T07:07:02.000Z</time>
      </trkpt>
      <trkpt lat="39.783896477892995" lon="3.0038379784673452">
        <ele>24.6</ele>
        <time>2021-04-29T07:07:03.000Z</time>
      </trkpt>
      <trkpt lat="39.78408725000918" lon="3.003663718700409">
        <ele>25</ele>
        <time>2021-04-29T07:07:07.000Z</time>
      </trkpt>
      <trkpt lat="39.78450031019747" lon="3.003289047628641">
        <ele>25.2</ele>
        <time>2021-04-29T07:07:16.000Z</time>
      </trkpt>
      <trkpt lat="39.78471513837576" lon="3.0030995327979326">
        <ele>26.2</ele>
        <time>2021-04-29T07:07:21.000Z</time>
      </trkpt>
      <trkpt lat="39.78478940203786" lon="3.003036081790924">
        <ele>26.4</ele>
        <time>2021-04-29T07:07:23.000Z</time>
      </trkpt>
      <trkpt lat="39.78484614752233" lon="3.0029629915952682">
        <ele>26.4</ele>
        <time>2021-04-29T07:07:26.000Z</time>
      </trkpt>
      <trkpt lat="39.784855116158724" lon="3.002927452325821">
        <ele>26.4</ele>
        <time>2021-04-29T07:07:27.000Z</time>
      </trkpt>
      <trkpt lat="39.78484715335071" lon="3.0028370954096317">
        <ele>26.4</ele>
        <time>2021-04-29T07:07:29.000Z</time>
      </trkpt>
      <trkpt lat="39.78482670150697" lon="3.0027882289141417">
        <ele>26.6</ele>
        <time>2021-04-29T07:07:30.000Z</time>
      </trkpt>
      <trkpt lat="39.78477540425956" lon="3.0026869755238295">
        <ele>26.6</ele>
        <time>2021-04-29T07:07:32.000Z</time>
      </trkpt>
      <trkpt lat="39.78471966460347" lon="3.0025848001241684">
        <ele>26.6</ele>
        <time>2021-04-29T07:07:34.000Z</time>
      </trkpt>
      <trkpt lat="39.78466392494738" lon="3.002488575875759">
        <ele>26.6</ele>
        <time>2021-04-29T07:07:36.000Z</time>
      </trkpt>
      <trkpt lat="39.78460961021483" lon="3.002392267808318">
        <ele>26.6</ele>
        <time>2021-04-29T07:07:38.000Z</time>
      </trkpt>
      <trkpt lat="39.78434122167528" lon="3.0019453447312117">
        <ele>26.6</ele>
        <time>2021-04-29T07:07:47.000Z</time>
      </trkpt>
      <trkpt lat="39.78420912288129" lon="3.0017404071986675">
        <ele>27.2</ele>
        <time>2021-04-29T07:07:51.000Z</time>
      </trkpt>
      <trkpt lat="39.783999575302005" lon="3.001428935676813">
        <ele>27.6</ele>
        <time>2021-04-29T07:07:57.000Z</time>
      </trkpt>
      <trkpt lat="39.78379279375076" lon="3.0011284444481134">
        <ele>28.2</ele>
        <time>2021-04-29T07:08:03.000Z</time>
      </trkpt>
      <trkpt lat="39.78358659893274" lon="3.000829294323921">
        <ele>28.8</ele>
        <time>2021-04-29T07:08:09.000Z</time>
      </trkpt>
      <trkpt lat="39.78355122730136" lon="3.0007779970765114">
        <ele>29</ele>
        <time>2021-04-29T07:08:10.000Z</time>
      </trkpt>
      <trkpt lat="39.78320924565196" lon="3.0002993904054165">
        <ele>29.2</ele>
        <time>2021-04-29T07:08:19.000Z</time>
      </trkpt>
      <trkpt lat="39.78289157152176" lon="2.99985783174634">
        <ele>29.2</ele>
        <time>2021-04-29T07:08:27.000Z</time>
      </trkpt>
      <trkpt lat="39.78281009942293" lon="2.999749705195427">
        <ele>29.2</ele>
        <time>2021-04-29T07:08:29.000Z</time>
      </trkpt>
      <trkpt lat="39.78244883939624" lon="2.9992383252829313">
        <ele>29</ele>
        <time>2021-04-29T07:08:38.000Z</time>
      </trkpt>
      <trkpt lat="39.782367618754506" lon="2.9991204757243395">
        <ele>29</ele>
        <time>2021-04-29T07:08:40.000Z</time>
      </trkpt>
      <trkpt lat="39.78197358548641" lon="2.9986180644482374">
        <ele>28.6</ele>
        <time>2021-04-29T07:08:49.000Z</time>
      </trkpt>
      <trkpt lat="39.78157997131348" lon="2.99814909696579">
        <ele>28.2</ele>
        <time>2021-04-29T07:08:58.000Z</time>
      </trkpt>
      <trkpt lat="39.78115065023303" lon="2.9976303409785032">
        <ele>28.2</ele>
        <time>2021-04-29T07:09:08.000Z</time>
      </trkpt>
      <trkpt lat="39.78110773488879" lon="2.9975790437310934">
        <ele>28.2</ele>
        <time>2021-04-29T07:09:09.000Z</time>
      </trkpt>
      <trkpt lat="39.78094009682536" lon="2.997375363484025">
        <ele>28.2</ele>
        <time>2021-04-29T07:09:13.000Z</time>
      </trkpt>
      <trkpt lat="39.780790731310844" lon="2.9971993435174227">
        <ele>28.2</ele>
        <time>2021-04-29T07:09:17.000Z</time>
      </trkpt>
      <trkpt lat="39.780698865652084" lon="2.997103538364172">
        <ele>28.2</ele>
        <time>2021-04-29T07:09:20.000Z</time>
      </trkpt>
      <trkpt lat="39.78061278350651" lon="2.9970249999314547">
        <ele>28.4</ele>
        <time>2021-04-29T07:09:23.000Z</time>
      </trkpt>
      <trkpt lat="39.78053189814091" lon="2.9969664942473173">
        <ele>29</ele>
        <time>2021-04-29T07:09:26.000Z</time>
      </trkpt>
      <trkpt lat="39.78050524368882" lon="2.9969487246125937">
        <ele>29.6</ele>
        <time>2021-04-29T07:09:27.000Z</time>
      </trkpt>
      <trkpt lat="39.78043173439801" lon="2.9968963377177715">
        <ele>30.8</ele>
        <time>2021-04-29T07:09:30.000Z</time>
      </trkpt>
      <trkpt lat="39.78035604581237" lon="2.996850237250328">
        <ele>31.8</ele>
        <time>2021-04-29T07:09:33.000Z</time>
      </trkpt>
      <trkpt lat="39.78027750737965" lon="2.9968021251261234">
        <ele>33.2</ele>
        <time>2021-04-29T07:09:36.000Z</time>
      </trkpt>
      <trkpt lat="39.780219588428736" lon="2.9967676755040884">
        <ele>33.8</ele>
        <time>2021-04-29T07:09:38.000Z</time>
      </trkpt>
      <trkpt lat="39.7801349312067" lon="2.996715120971203">
        <ele>34.2</ele>
        <time>2021-04-29T07:09:41.000Z</time>
      </trkpt>
      <trkpt lat="39.78007759898901" lon="2.996657034382224">
        <ele>35</ele>
        <time>2021-04-29T07:09:44.000Z</time>
      </trkpt>
      <trkpt lat="39.780058320611715" lon="2.996505657210946">
        <ele>35.2</ele>
        <time>2021-04-29T07:09:48.000Z</time>
      </trkpt>
      <trkpt lat="39.78007072582841" lon="2.996469447389245">
        <ele>35.2</ele>
        <time>2021-04-29T07:09:49.000Z</time>
      </trkpt>
      <trkpt lat="39.78012956678867" lon="2.9963909927755594">
        <ele>35.4</ele>
        <time>2021-04-29T07:09:52.000Z</time>
      </trkpt>
      <trkpt lat="39.780228389427066" lon="2.9963541124016047">
        <ele>35.4</ele>
        <time>2021-04-29T07:09:55.000Z</time>
      </trkpt>
      <trkpt lat="39.78026753291488" lon="2.9963671043515205">
        <ele>35.4</ele>
        <time>2021-04-29T07:09:56.000Z</time>
      </trkpt>
      <trkpt lat="39.78040306828916" lon="2.996414713561535">
        <ele>36.2</ele>
        <time>2021-04-29T07:09:59.000Z</time>
      </trkpt>
      <trkpt lat="39.78045227006078" lon="2.9964195750653744">
        <ele>36.2</ele>
        <time>2021-04-29T07:10:00.000Z</time>
      </trkpt>
      <trkpt lat="39.78050222620368" lon="2.996416725218296">
        <ele>36.4</ele>
        <time>2021-04-29T07:10:01.000Z</time>
      </trkpt>
      <trkpt lat="39.78069702163339" lon="2.996325781568885">
        <ele>36.6</ele>
        <time>2021-04-29T07:10:05.000Z</time>
      </trkpt>
      <trkpt lat="39.780814284458756" lon="2.9961769189685583">
        <ele>36.8</ele>
        <time>2021-04-29T07:10:08.000Z</time>
      </trkpt>
      <trkpt lat="39.78084429167211" lon="2.9961171559989452">
        <ele>36.8</ele>
        <time>2021-04-29T07:10:09.000Z</time>
      </trkpt>
      <trkpt lat="39.78089693002403" lon="2.9958402179181576">
        <ele>36.6</ele>
        <time>2021-04-29T07:10:13.000Z</time>
      </trkpt>
      <trkpt lat="39.780866000801325" lon="2.9956299997866154">
        <ele>36.4</ele>
        <time>2021-04-29T07:10:16.000Z</time>
      </trkpt>
      <trkpt lat="39.78084932081401" lon="2.9955630283802748">
        <ele>36.4</ele>
        <time>2021-04-29T07:10:17.000Z</time>
      </trkpt>
      <trkpt lat="39.78082476183772" lon="2.99542841501534">
        <ele>36.2</ele>
        <time>2021-04-29T07:10:19.000Z</time>
      </trkpt>
      <trkpt lat="39.7808292042464" lon="2.99529355019331">
        <ele>36</ele>
        <time>2021-04-29T07:10:21.000Z</time>
      </trkpt>
      <trkpt lat="39.78089693002403" lon="2.9949537478387356">
        <ele>35.8</ele>
        <time>2021-04-29T07:10:26.000Z</time>
      </trkpt>
      <trkpt lat="39.780922746285796" lon="2.9948845971375704">
        <ele>35.6</ele>
        <time>2021-04-29T07:10:27.000Z</time>
      </trkpt>
      <trkpt lat="39.78103179484606" lon="2.9946696013212204">
        <ele>35.4</ele>
        <time>2021-04-29T07:10:30.000Z</time>
      </trkpt>
      <trkpt lat="39.78111142292619" lon="2.994507746770978">
        <ele>35.2</ele>
        <time>2021-04-29T07:10:32.000Z</time>
      </trkpt>
      <trkpt lat="39.78123891167343" lon="2.9942422080785036">
        <ele>35.2</ele>
        <time>2021-04-29T07:10:35.000Z</time>
      </trkpt>
      <trkpt lat="39.78137260302901" lon="2.9939742386341095">
        <ele>34.4</ele>
        <time>2021-04-29T07:10:38.000Z</time>
      </trkpt>
      <trkpt lat="39.781416272744536" lon="2.9938874021172523">
        <ele>32.8</ele>
        <time>2021-04-29T07:10:39.000Z</time>
      </trkpt>
      <trkpt lat="39.78145860135555" lon="2.9938013199716806">
        <ele>32</ele>
        <time>2021-04-29T07:10:40.000Z</time>
      </trkpt>
      <trkpt lat="39.78149891830981" lon="2.9937162436544895">
        <ele>31.4</ele>
        <time>2021-04-29T07:10:41.000Z</time>
      </trkpt>
      <trkpt lat="39.781577875837684" lon="2.993551706895232">
        <ele>30.2</ele>
        <time>2021-04-29T07:10:43.000Z</time>
      </trkpt>
      <trkpt lat="39.78177250362933" lon="2.9931658040732145">
        <ele>29.8</ele>
        <time>2021-04-29T07:10:48.000Z</time>
      </trkpt>
      <trkpt lat="39.78201834484935" lon="2.992673786357045">
        <ele>30</ele>
        <time>2021-04-29T07:10:55.000Z</time>
      </trkpt>
      <trkpt lat="39.78221984580159" lon="2.9922692757099867">
        <ele>30.2</ele>
        <time>2021-04-29T07:11:01.000Z</time>
      </trkpt>
      <trkpt lat="39.78238035924733" lon="2.9919371008872986">
        <ele>30.4</ele>
        <time>2021-04-29T07:11:06.000Z</time>
      </trkpt>
      <trkpt lat="39.78240307420492" lon="2.991865770891309">
        <ele>30.4</ele>
        <time>2021-04-29T07:11:07.000Z</time>
      </trkpt>
      <trkpt lat="39.782409109175205" lon="2.9917163215577602">
        <ele>30.6</ele>
        <time>2021-04-29T07:11:09.000Z</time>
      </trkpt>
      <trkpt lat="39.782370552420616" lon="2.9915752541273832">
        <ele>30.6</ele>
        <time>2021-04-29T07:11:11.000Z</time>
      </trkpt>
      <trkpt lat="39.78235370479524" lon="2.9915079474449158">
        <ele>30.6</ele>
        <time>2021-04-29T07:11:12.000Z</time>
      </trkpt>
      <trkpt lat="39.7823401261121" lon="2.9914413951337337">
        <ele>30.6</ele>
        <time>2021-04-29T07:11:13.000Z</time>
      </trkpt>
      <trkpt lat="39.7822832968086" lon="2.990876454859972">
        <ele>30.8</ele>
        <time>2021-04-29T07:11:21.000Z</time>
      </trkpt>
      <trkpt lat="39.78227390907705" lon="2.990418551489711">
        <ele>31.2</ele>
        <time>2021-04-29T07:11:27.000Z</time>
      </trkpt>
      <trkpt lat="39.782274747267365" lon="2.990343449637294">
        <ele>31.4</ele>
        <time>2021-04-29T07:11:28.000Z</time>
      </trkpt>
      <trkpt lat="39.78227608837187" lon="2.990269437432289">
        <ele>31.6</ele>
        <time>2021-04-29T07:11:29.000Z</time>
      </trkpt>
      <trkpt lat="39.78226418606937" lon="2.989977076649666">
        <ele>32.2</ele>
        <time>2021-04-29T07:11:33.000Z</time>
      </trkpt>
      <trkpt lat="39.78221967816353" lon="2.989851264283061">
        <ele>32.4</ele>
        <time>2021-04-29T07:11:35.000Z</time>
      </trkpt>
      <trkpt lat="39.78213342837989" lon="2.98976082354784">
        <ele>32.4</ele>
        <time>2021-04-29T07:11:37.000Z</time>
      </trkpt>
      <trkpt lat="39.78208506479859" lon="2.9897229373455048">
        <ele>32.4</ele>
        <time>2021-04-29T07:11:38.000Z</time>
      </trkpt>
      <trkpt lat="39.78203586302698" lon="2.9896864760667086">
        <ele>32.6</ele>
        <time>2021-04-29T07:11:39.000Z</time>
      </trkpt>
      <trkpt lat="39.78159707039595" lon="2.989363605156541">
        <ele>32.8</ele>
        <time>2021-04-29T07:11:48.000Z</time>
      </trkpt>
      <trkpt lat="39.7812988422811" lon="2.98913880251348">
        <ele>33</ele>
        <time>2021-04-29T07:11:54.000Z</time>
      </trkpt>
      <trkpt lat="39.7810123488307" lon="2.9889193642884493">
        <ele>33.2</ele>
        <time>2021-04-29T07:12:00.000Z</time>
      </trkpt>
      <trkpt lat="39.78092526085675" lon="2.988850548863411">
        <ele>33.2</ele>
        <time>2021-04-29T07:12:02.000Z</time>
      </trkpt>
      <trkpt lat="39.780758041888475" lon="2.988730436190963">
        <ele>33.2</ele>
        <time>2021-04-29T07:12:06.000Z</time>
      </trkpt>
      <trkpt lat="39.78068344295025" lon="2.988653238862753">
        <ele>33.2</ele>
        <time>2021-04-29T07:12:08.000Z</time>
      </trkpt>
      <trkpt lat="39.78061404079199" lon="2.9884322080761194">
        <ele>33.4</ele>
        <time>2021-04-29T07:12:12.000Z</time>
      </trkpt>
      <trkpt lat="39.780646059662104" lon="2.988233808428049">
        <ele>33.4</ele>
        <time>2021-04-29T07:12:15.000Z</time>
      </trkpt>
      <trkpt lat="39.780661650002" lon="2.9881685972213745">
        <ele>33.4</ele>
        <time>2021-04-29T07:12:16.000Z</time>
      </trkpt>
      <trkpt lat="39.78075745515525" lon="2.9877622425556183">
        <ele>33.6</ele>
        <time>2021-04-29T07:12:22.000Z</time>
      </trkpt>
      <trkpt lat="39.78080556727946" lon="2.9875489231199026">
        <ele>33.6</ele>
        <time>2021-04-29T07:12:25.000Z</time>
      </trkpt>
      <trkpt lat="39.78095015510917" lon="2.9869098868221045">
        <ele>34</ele>
        <time>2021-04-29T07:12:34.000Z</time>
      </trkpt>
      <trkpt lat="39.78112231940031" lon="2.986192060634494">
        <ele>34.4</ele>
        <time>2021-04-29T07:12:44.000Z</time>
      </trkpt>
      <trkpt lat="39.78115685284138" lon="2.9860469698905945">
        <ele>34.6</ele>
        <time>2021-04-29T07:12:46.000Z</time>
      </trkpt>
      <trkpt lat="39.781238827854395" lon="2.9856829438358545">
        <ele>34.8</ele>
        <time>2021-04-29T07:12:51.000Z</time>
      </trkpt>
      <trkpt lat="39.7813178692013" lon="2.9853191692382097">
        <ele>35</ele>
        <time>2021-04-29T07:12:56.000Z</time>
      </trkpt>
      <trkpt lat="39.78135198354721" lon="2.98517600633204">
        <ele>35</ele>
        <time>2021-04-29T07:12:58.000Z</time>
      </trkpt>
      <trkpt lat="39.78151861578226" lon="2.9844503849744797">
        <ele>35.6</ele>
        <time>2021-04-29T07:13:08.000Z</time>
      </trkpt>
      <trkpt lat="39.78158340789378" lon="2.9841606225818396">
        <ele>35.8</ele>
        <time>2021-04-29T07:13:12.000Z</time>
      </trkpt>
      <trkpt lat="39.78175029158592" lon="2.9834405332803726">
        <ele>36</ele>
        <time>2021-04-29T07:13:22.000Z</time>
      </trkpt>
      <trkpt lat="39.78178448975086" lon="2.9832853004336357">
        <ele>36.2</ele>
        <time>2021-04-29T07:13:24.000Z</time>
      </trkpt>
      <trkpt lat="39.78187610395253" lon="2.982890261337161">
        <ele>36.8</ele>
        <time>2021-04-29T07:13:29.000Z</time>
      </trkpt>
      <trkpt lat="39.7820052690804" lon="2.9823347087949514">
        <ele>37.2</ele>
        <time>2021-04-29T07:13:36.000Z</time>
      </trkpt>
      <trkpt lat="39.782169135287404" lon="2.9816464707255363">
        <ele>37.2</ele>
        <time>2021-04-29T07:13:45.000Z</time>
      </trkpt>
      <trkpt lat="39.782220432534814" lon="2.98141504637897">
        <ele>37.6</ele>
        <time>2021-04-29T07:13:48.000Z</time>
      </trkpt>
      <trkpt lat="39.78232185356319" lon="2.9809561371803284">
        <ele>38</ele>
        <time>2021-04-29T07:13:54.000Z</time>
      </trkpt>
      <trkpt lat="39.782356303185225" lon="2.9808050114661455">
        <ele>38.4</ele>
        <time>2021-04-29T07:13:56.000Z</time>
      </trkpt>
      <trkpt lat="39.782494604587555" lon="2.980472417548299">
        <ele>38.8</ele>
        <time>2021-04-29T07:14:01.000Z</time>
      </trkpt>
      <trkpt lat="39.78260197676718" lon="2.9802994150668383">
        <ele>39</ele>
        <time>2021-04-29T07:14:04.000Z</time>
      </trkpt>
      <trkpt lat="39.78278906084597" lon="2.980013256892562">
        <ele>39.6</ele>
        <time>2021-04-29T07:14:09.000Z</time>
      </trkpt>
      <trkpt lat="39.782867850735784" lon="2.9799003526568413">
        <ele>39.8</ele>
        <time>2021-04-29T07:14:11.000Z</time>
      </trkpt>
      <trkpt lat="39.78294521570206" lon="2.9797845985740423">
        <ele>40</ele>
        <time>2021-04-29T07:14:13.000Z</time>
      </trkpt>
      <trkpt lat="39.78316373191774" lon="2.9794499929994345">
        <ele>40.6</ele>
        <time>2021-04-29T07:14:19.000Z</time>
      </trkpt>
      <trkpt lat="39.78339582681656" lon="2.9790992103517056">
        <ele>41.2</ele>
        <time>2021-04-29T07:14:25.000Z</time>
      </trkpt>
      <trkpt lat="39.78347101248801" lon="2.9789790976792574">
        <ele>41.2</ele>
        <time>2021-04-29T07:14:27.000Z</time>
      </trkpt>
      <trkpt lat="39.783628759905696" lon="2.978756222873926">
        <ele>41.2</ele>
        <time>2021-04-29T07:14:31.000Z</time>
      </trkpt>
      <trkpt lat="39.78367083705962" lon="2.9786933586001396">
        <ele>41.4</ele>
        <time>2021-04-29T07:14:32.000Z</time>
      </trkpt>
      <trkpt lat="39.783953223377466" lon="2.978274766355753">
        <ele>42</ele>
        <time>2021-04-29T07:14:39.000Z</time>
      </trkpt>
      <trkpt lat="39.78403503075242" lon="2.9781473614275455">
        <ele>42.2</ele>
        <time>2021-04-29T07:14:41.000Z</time>
      </trkpt>
      <trkpt lat="39.78420166298747" lon="2.9778920486569405">
        <ele>42.4</ele>
        <time>2021-04-29T07:14:45.000Z</time>
      </trkpt>
      <trkpt lat="39.784485725685954" lon="2.9774565249681473">
        <ele>42.6</ele>
        <time>2021-04-29T07:14:52.000Z</time>
      </trkpt>
      <trkpt lat="39.78460860438645" lon="2.977267177775502">
        <ele>42.8</ele>
        <time>2021-04-29T07:14:55.000Z</time>
      </trkpt>
      <trkpt lat="39.78479049168527" lon="2.976935589686036">
        <ele>43.2</ele>
        <time>2021-04-29T07:15:00.000Z</time>
      </trkpt>
      <trkpt lat="39.78485536761582" lon="2.976798377931118">
        <ele>43.2</ele>
        <time>2021-04-29T07:15:02.000Z</time>
      </trkpt>
      <trkpt lat="39.78491420857608" lon="2.976659657433629">
        <ele>43.4</ele>
        <time>2021-04-29T07:15:04.000Z</time>
      </trkpt>
      <trkpt lat="39.784985622391105" lon="2.9764342680573463">
        <ele>43.4</ele>
        <time>2021-04-29T07:15:07.000Z</time>
      </trkpt>
      <trkpt lat="39.785077488049865" lon="2.976134279742837">
        <ele>43.6</ele>
        <time>2021-04-29T07:15:11.000Z</time>
      </trkpt>
      <trkpt lat="39.7851912304759" lon="2.9757520649582148">
        <ele>43.8</ele>
        <time>2021-04-29T07:15:16.000Z</time>
      </trkpt>
      <trkpt lat="39.78541200980544" lon="2.9752373322844505">
        <ele>44</ele>
        <time>2021-04-29T07:15:23.000Z</time>
      </trkpt>
      <trkpt lat="39.785528434440494" lon="2.9750225879251957">
        <ele>44</ele>
        <time>2021-04-29T07:15:26.000Z</time>
      </trkpt>
      <trkpt lat="39.785803109407425" lon="2.9745029099285603">
        <ele>43.8</ele>
        <time>2021-04-29T07:15:33.000Z</time>
      </trkpt>
      <trkpt lat="39.786111898720264" lon="2.973916092887521">
        <ele>43.8</ele>
        <time>2021-04-29T07:15:41.000Z</time>
      </trkpt>
      <trkpt lat="39.78622656315565" lon="2.973704282194376">
        <ele>43.8</ele>
        <time>2021-04-29T07:15:44.000Z</time>
      </trkpt>
      <trkpt lat="39.78630317375064" lon="2.973562879487872">
        <ele>43.8</ele>
        <time>2021-04-29T07:15:46.000Z</time>
      </trkpt>
      <trkpt lat="39.78642479516566" lon="2.9733297787606716">
        <ele>43.8</ele>
        <time>2021-04-29T07:15:49.000Z</time>
      </trkpt>
      <trkpt lat="39.78650693781674" lon="2.9731774795800447">
        <ele>43.8</ele>
        <time>2021-04-29T07:15:51.000Z</time>
      </trkpt>
      <trkpt lat="39.78658908046782" lon="2.973026018589735">
        <ele>44</ele>
        <time>2021-04-29T07:15:53.000Z</time>
      </trkpt>
      <trkpt lat="39.78670483455062" lon="2.972796857357025">
        <ele>44.2</ele>
        <time>2021-04-29T07:15:56.000Z</time>
      </trkpt>
      <trkpt lat="39.786744229495525" lon="2.9727195762097836">
        <ele>44.2</ele>
        <time>2021-04-29T07:15:57.000Z</time>
      </trkpt>
      <trkpt lat="39.786784211173654" lon="2.9726433008909225">
        <ele>44.2</ele>
        <time>2021-04-29T07:15:58.000Z</time>
      </trkpt>
      <trkpt lat="39.786822935566306" lon="2.972570126876235">
        <ele>44.2</ele>
        <time>2021-04-29T07:15:59.000Z</time>
      </trkpt>
      <trkpt lat="39.78690424002707" lon="2.9724238626658916">
        <ele>44.2</ele>
        <time>2021-04-29T07:16:01.000Z</time>
      </trkpt>
      <trkpt lat="39.7870235145092" lon="2.9722030833363533">
        <ele>44.2</ele>
        <time>2021-04-29T07:16:04.000Z</time>
      </trkpt>
      <trkpt lat="39.787101382389665" lon="2.9720607586205006">
        <ele>44.2</ele>
        <time>2021-04-29T07:16:06.000Z</time>
      </trkpt>
      <trkpt lat="39.787141447886825" lon="2.9719892609864473">
        <ele>44.2</ele>
        <time>2021-04-29T07:16:07.000Z</time>
      </trkpt>
      <trkpt lat="39.78725745342672" lon="2.9717720858752728">
        <ele>44.2</ele>
        <time>2021-04-29T07:16:10.000Z</time>
      </trkpt>
      <trkpt lat="39.78744168765843" lon="2.971413843333721">
        <ele>44.2</ele>
        <time>2021-04-29T07:16:15.000Z</time>
      </trkpt>
      <trkpt lat="39.78765467181802" lon="2.970905564725399">
        <ele>44.4</ele>
        <time>2021-04-29T07:16:22.000Z</time>
      </trkpt>
      <trkpt lat="39.78779565542936" lon="2.9703964479267597">
        <ele>45.2</ele>
        <time>2021-04-29T07:16:29.000Z</time>
      </trkpt>
      <trkpt lat="39.78781602345407" lon="2.970325453206897">
        <ele>45.4</ele>
        <time>2021-04-29T07:16:30.000Z</time>
      </trkpt>
      <trkpt lat="39.78789866901934" lon="2.9699604213237762">
        <ele>46.4</ele>
        <time>2021-04-29T07:16:35.000Z</time>
      </trkpt>
      <trkpt lat="39.78790705092251" lon="2.9698867443948984">
        <ele>46.6</ele>
        <time>2021-04-29T07:16:36.000Z</time>
      </trkpt>
      <trkpt lat="39.78796765208244" lon="2.969524981454015">
        <ele>47.4</ele>
        <time>2021-04-29T07:16:41.000Z</time>
      </trkpt>
      <trkpt lat="39.78799195960164" lon="2.969464212656021">
        <ele>47.6</ele>
        <time>2021-04-29T07:16:42.000Z</time>
      </trkpt>
      <trkpt lat="39.78802464902401" lon="2.969404198229313">
        <ele>47.6</ele>
        <time>2021-04-29T07:16:43.000Z</time>
      </trkpt>
      <trkpt lat="39.788100086152554" lon="2.9692915454506874">
        <ele>47.8</ele>
        <time>2021-04-29T07:16:45.000Z</time>
      </trkpt>
      <trkpt lat="39.788342574611306" lon="2.968960627913475">
        <ele>48.8</ele>
        <time>2021-04-29T07:16:51.000Z</time>
      </trkpt>
      <trkpt lat="39.7885672096163" lon="2.968687629327178">
        <ele>49.4</ele>
        <time>2021-04-29T07:16:56.000Z</time>
      </trkpt>
      <trkpt lat="39.788741301745176" lon="2.968471460044384">
        <ele>49.6</ele>
        <time>2021-04-29T07:17:00.000Z</time>
      </trkpt>
      <trkpt lat="39.78882981464267" lon="2.968364590778947">
        <ele>49.8</ele>
        <time>2021-04-29T07:17:02.000Z</time>
      </trkpt>
      <trkpt lat="39.78901606053114" lon="2.968149008229375">
        <ele>50</ele>
        <time>2021-04-29T07:17:06.000Z</time>
      </trkpt>
      <trkpt lat="39.78920892812312" lon="2.967936275526881">
        <ele>50.2</ele>
        <time>2021-04-29T07:17:10.000Z</time>
      </trkpt>
      <trkpt lat="39.78944789618254" lon="2.967659253627062">
        <ele>50.6</ele>
        <time>2021-04-29T07:17:15.000Z</time>
      </trkpt>
      <trkpt lat="39.78969876654446" lon="2.9673709999769926">
        <ele>50.8</ele>
        <time>2021-04-29T07:17:20.000Z</time>
      </trkpt>
      <trkpt lat="39.79015164077282" lon="2.9668338038027287">
        <ele>50.8</ele>
        <time>2021-04-29T07:17:29.000Z</time>
      </trkpt>
      <trkpt lat="39.79020159691572" lon="2.966773035004735">
        <ele>50.8</ele>
        <time>2021-04-29T07:17:30.000Z</time>
      </trkpt>
      <trkpt lat="39.79060862213373" lon="2.9662998765707016">
        <ele>50.8</ele>
        <time>2021-04-29T07:17:38.000Z</time>
      </trkpt>
      <trkpt lat="39.79065941646695" lon="2.966241119429469">
        <ele>50.8</ele>
        <time>2021-04-29T07:17:39.000Z</time>
      </trkpt>
      <trkpt lat="39.79110893793404" lon="2.9657356068491936">
        <ele>50.8</ele>
        <time>2021-04-29T07:17:48.000Z</time>
      </trkpt>
      <trkpt lat="39.79115813970566" lon="2.9656843934208155">
        <ele>50.8</ele>
        <time>2021-04-29T07:17:49.000Z</time>
      </trkpt>
      <trkpt lat="39.7914064116776" lon="2.9654178488999605">
        <ele>51</ele>
        <time>2021-04-29T07:17:54.000Z</time>
      </trkpt>
      <trkpt lat="39.79185928590596" lon="2.9649389907717705">
        <ele>51.2</ele>
        <time>2021-04-29T07:18:03.000Z</time>
      </trkpt>
      <trkpt lat="39.791956935077906" lon="2.9648382402956486">
        <ele>51.2</ele>
        <time>2021-04-29T07:18:05.000Z</time>
      </trkpt>
      <trkpt lat="39.79210462421179" lon="2.964691137894988">
        <ele>51.4</ele>
        <time>2021-04-29T07:18:08.000Z</time>
      </trkpt>
      <trkpt lat="39.79235004633665" lon="2.9644818417727947">
        <ele>51.8</ele>
        <time>2021-04-29T07:18:13.000Z</time>
      </trkpt>
      <trkpt lat="39.79244392365217" lon="2.9644145350903273">
        <ele>51.8</ele>
        <time>2021-04-29T07:18:15.000Z</time>
      </trkpt>
      <trkpt lat="39.79248382151127" lon="2.9643750563263893">
        <ele>52</ele>
        <time>2021-04-29T07:18:16.000Z</time>
      </trkpt>
      <trkpt lat="39.79251458309591" lon="2.9642753954976797">
        <ele>52.2</ele>
        <time>2021-04-29T07:18:18.000Z</time>
      </trkpt>
      <trkpt lat="39.79241877794266" lon="2.9641302209347486">
        <ele>52.8</ele>
        <time>2021-04-29T07:18:21.000Z</time>
      </trkpt>
      <trkpt lat="39.792376616969705" lon="2.9640878085047007">
        <ele>53</ele>
        <time>2021-04-29T07:18:22.000Z</time>
      </trkpt>
      <trkpt lat="39.79233286343515" lon="2.964049419388175">
        <ele>53</ele>
        <time>2021-04-29T07:18:23.000Z</time>
      </trkpt>
      <trkpt lat="39.79213513433933" lon="2.963943975046277">
        <ele>53.2</ele>
        <time>2021-04-29T07:18:27.000Z</time>
      </trkpt>
      <trkpt lat="39.792086435481906" lon="2.9639143869280815">
        <ele>53.2</ele>
        <time>2021-04-29T07:18:28.000Z</time>
      </trkpt>
      <trkpt lat="39.791976884007454" lon="2.963778181001544">
        <ele>53.2</ele>
        <time>2021-04-29T07:18:31.000Z</time>
      </trkpt>
      <trkpt lat="39.79191167280078" lon="2.9636599961668253">
        <ele>53.2</ele>
        <time>2021-04-29T07:18:33.000Z</time>
      </trkpt>
      <trkpt lat="39.79178795590997" lon="2.963424799963832">
        <ele>53.2</ele>
        <time>2021-04-29T07:18:37.000Z</time>
      </trkpt>
      <trkpt lat="39.791679829359055" lon="2.9632791224867105">
        <ele>53.6</ele>
        <time>2021-04-29T07:18:40.000Z</time>
      </trkpt>
      <trkpt lat="39.79159760288894" lon="2.9632114805281162">
        <ele>53.8</ele>
        <time>2021-04-29T07:18:42.000Z</time>
      </trkpt>
      <trkpt lat="39.791457038372755" lon="2.9631154239177704">
        <ele>54</ele>
        <time>2021-04-29T07:18:45.000Z</time>
      </trkpt>
      <trkpt lat="39.79122159071267" lon="2.962952395901084">
        <ele>54.8</ele>
        <time>2021-04-29T07:18:50.000Z</time>
      </trkpt>
      <trkpt lat="39.791128635406494" lon="2.9628736060112715">
        <ele>55</ele>
        <time>2021-04-29T07:18:52.000Z</time>
      </trkpt>
      <trkpt lat="39.790838873013854" lon="2.9626144375652075">
        <ele>56</ele>
        <time>2021-04-29T07:18:58.000Z</time>
      </trkpt>
      <trkpt lat="39.79063938371837" lon="2.9624448716640472">
        <ele>56</ele>
        <time>2021-04-29T07:19:02.000Z</time>
      </trkpt>
      <trkpt lat="39.79054014198482" lon="2.962368428707123">
        <ele>56</ele>
        <time>2021-04-29T07:19:04.000Z</time>
      </trkpt>
      <trkpt lat="39.790440732613206" lon="2.962302966043353">
        <ele>56.2</ele>
        <time>2021-04-29T07:19:06.000Z</time>
      </trkpt>
      <trkpt lat="39.79029279202223" lon="2.962211351841688">
        <ele>56.2</ele>
        <time>2021-04-29T07:19:09.000Z</time>
      </trkpt>
      <trkpt lat="39.79012934491038" lon="2.962177572771907">
        <ele>56.2</ele>
        <time>2021-04-29T07:19:12.000Z</time>
      </trkpt>
      <trkpt lat="39.790011662989855" lon="2.9621738847345114">
        <ele>56.2</ele>
        <time>2021-04-29T07:19:14.000Z</time>
      </trkpt>
      <trkpt lat="39.78976707905531" lon="2.962110098451376">
        <ele>56.4</ele>
        <time>2021-04-29T07:19:19.000Z</time>
      </trkpt>
      <trkpt lat="39.78960195556283" lon="2.962038768455386">
        <ele>57.4</ele>
        <time>2021-04-29T07:19:23.000Z</time>
      </trkpt>
      <trkpt lat="39.78943859227002" lon="2.9619591403752565">
        <ele>58.2</ele>
        <time>2021-04-29T07:19:27.000Z</time>
      </trkpt>
      <trkpt lat="39.78935795836151" lon="2.961917817592621">
        <ele>58.4</ele>
        <time>2021-04-29T07:19:29.000Z</time>
      </trkpt>
      <trkpt lat="39.789238683879375" lon="2.9618623293936253">
        <ele>59.4</ele>
        <time>2021-04-29T07:19:32.000Z</time>
      </trkpt>
      <trkpt lat="39.789159474894404" lon="2.9618246108293533">
        <ele>59.8</ele>
        <time>2021-04-29T07:19:34.000Z</time>
      </trkpt>
      <trkpt lat="39.788911789655685" lon="2.9616846330463886">
        <ele>60.2</ele>
        <time>2021-04-29T07:19:40.000Z</time>
      </trkpt>
      <trkpt lat="39.788830233737826" lon="2.9616310726851225">
        <ele>60.6</ele>
        <time>2021-04-29T07:19:42.000Z</time>
      </trkpt>
      <trkpt lat="39.78875337168574" lon="2.961578769609332">
        <ele>61.2</ele>
        <time>2021-04-29T07:19:44.000Z</time>
      </trkpt>
      <trkpt lat="39.78867885656655" lon="2.9615324176847935">
        <ele>61.8</ele>
        <time>2021-04-29T07:19:46.000Z</time>
      </trkpt>
      <trkpt lat="39.78846604004502" lon="2.961384477093816">
        <ele>62.2</ele>
        <time>2021-04-29T07:19:52.000Z</time>
      </trkpt>
      <trkpt lat="39.788367887958884" lon="2.9613132309168577">
        <ele>62.6</ele>
        <time>2021-04-29T07:19:55.000Z</time>
      </trkpt>
      <trkpt lat="39.78827493265271" lon="2.9612302500754595">
        <ele>62.8</ele>
        <time>2021-04-29T07:19:58.000Z</time>
      </trkpt>
      <trkpt lat="39.78821533732116" lon="2.9611724987626076">
        <ele>63.2</ele>
        <time>2021-04-29T07:20:00.000Z</time>
      </trkpt>
      <trkpt lat="39.78807418607175" lon="2.961025144904852">
        <ele>64</ele>
        <time>2021-04-29T07:20:05.000Z</time>
      </trkpt>
      <trkpt lat="39.787989193573594" lon="2.960941744968295">
        <ele>64.4</ele>
        <time>2021-04-29T07:20:08.000Z</time>
      </trkpt>
      <trkpt lat="39.78790688328445" lon="2.960857506841421">
        <ele>65</ele>
        <time>2021-04-29T07:20:11.000Z</time>
      </trkpt>
      <trkpt lat="39.78774670511484" lon="2.9606848396360874">
        <ele>66.2</ele>
        <time>2021-04-29T07:20:17.000Z</time>
      </trkpt>
      <trkpt lat="39.78772273287177" lon="2.960652569308877">
        <ele>66.4</ele>
        <time>2021-04-29T07:20:18.000Z</time>
      </trkpt>
      <trkpt lat="39.787658443674445" lon="2.960554249584675">
        <ele>67</ele>
        <time>2021-04-29T07:20:21.000Z</time>
      </trkpt>
      <trkpt lat="39.78763950057328" lon="2.960522398352623">
        <ele>67.4</ele>
        <time>2021-04-29T07:20:22.000Z</time>
      </trkpt>
      <trkpt lat="39.78756615892053" lon="2.960391053929925">
        <ele>68.4</ele>
        <time>2021-04-29T07:20:26.000Z</time>
      </trkpt>
      <trkpt lat="39.787492314353585" lon="2.960259122774005">
        <ele>69.8</ele>
        <time>2021-04-29T07:20:30.000Z</time>
      </trkpt>
      <trkpt lat="39.787428779527545" lon="2.9601414408534765">
        <ele>71.4</ele>
        <time>2021-04-29T07:20:34.000Z</time>
      </trkpt>
      <trkpt lat="39.787392066791654" lon="2.9600136168301105">
        <ele>72.4</ele>
        <time>2021-04-29T07:20:38.000Z</time>
      </trkpt>
      <trkpt lat="39.787374045699835" lon="2.9599552787840366">
        <ele>73</ele>
        <time>2021-04-29T07:20:40.000Z</time>
      </trkpt>
      <trkpt lat="39.787356443703175" lon="2.9598917439579964">
        <ele>73.6</ele>
        <time>2021-04-29T07:20:42.000Z</time>
      </trkpt>
      <trkpt lat="39.78732786141336" lon="2.959781102836132">
        <ele>74.2</ele>
        <time>2021-04-29T07:20:46.000Z</time>
      </trkpt>
      <trkpt lat="39.78732048533857" lon="2.95975461602211">
        <ele>74.6</ele>
        <time>2021-04-29T07:20:47.000Z</time>
      </trkpt>
      <trkpt lat="39.78729751892388" lon="2.9596445616334677">
        <ele>75.2</ele>
        <time>2021-04-29T07:20:51.000Z</time>
      </trkpt>
      <trkpt lat="39.787274887785316" lon="2.9595454037189484">
        <ele>75.8</ele>
        <time>2021-04-29T07:20:54.000Z</time>
      </trkpt>
      <trkpt lat="39.787214789539576" lon="2.9593651089817286">
        <ele>76.4</ele>
        <time>2021-04-29T07:20:59.000Z</time>
      </trkpt>
      <trkpt lat="39.787138011306524" lon="2.959218341857195">
        <ele>76.8</ele>
        <time>2021-04-29T07:21:03.000Z</time>
      </trkpt>
      <trkpt lat="39.78706190362573" lon="2.95909496024251">
        <ele>77</ele>
        <time>2021-04-29T07:21:06.000Z</time>
      </trkpt>
      <trkpt lat="39.78694866411388" lon="2.958911480382085">
        <ele>77</ele>
        <time>2021-04-29T07:21:10.000Z</time>
      </trkpt>
      <trkpt lat="39.786820504814386" lon="2.9587946366518736">
        <ele>77</ele>
        <time>2021-04-29T07:21:13.000Z</time>
      </trkpt>
      <trkpt lat="39.78676937520504" lon="2.958766473457217">
        <ele>77</ele>
        <time>2021-04-29T07:21:14.000Z</time>
      </trkpt>
      <trkpt lat="39.78666342794895" lon="2.9587180260568857">
        <ele>77</ele>
        <time>2021-04-29T07:21:16.000Z</time>
      </trkpt>
      <trkpt lat="39.78655396029353" lon="2.9586730990558863">
        <ele>77</ele>
        <time>2021-04-29T07:21:18.000Z</time>
      </trkpt>
      <trkpt lat="39.78639202192426" lon="2.958605205640197">
        <ele>76.4</ele>
        <time>2021-04-29T07:21:21.000Z</time>
      </trkpt>
      <trkpt lat="39.78623075410724" lon="2.9585396591573954">
        <ele>76</ele>
        <time>2021-04-29T07:21:24.000Z</time>
      </trkpt>
      <trkpt lat="39.78617920540273" lon="2.9585178662091494">
        <ele>75.8</ele>
        <time>2021-04-29T07:21:25.000Z</time>
      </trkpt>
      <trkpt lat="39.786077700555325" lon="2.958474112674594">
        <ele>75.6</ele>
        <time>2021-04-29T07:21:27.000Z</time>
      </trkpt>
      <trkpt lat="39.785925736650825" lon="2.9584082309156656">
        <ele>75.6</ele>
        <time>2021-04-29T07:21:30.000Z</time>
      </trkpt>
      <trkpt lat="39.78555207140744" lon="2.958268756046891">
        <ele>75.6</ele>
        <time>2021-04-29T07:21:38.000Z</time>
      </trkpt>
      <trkpt lat="39.78542374446988" lon="2.958221649751067">
        <ele>75.8</ele>
        <time>2021-04-29T07:21:41.000Z</time>
      </trkpt>
      <trkpt lat="39.78518075309694" lon="2.958133891224861">
        <ele>76.6</ele>
        <time>2021-04-29T07:21:47.000Z</time>
      </trkpt>
      <trkpt lat="39.78510464541614" lon="2.958107152953744">
        <ele>77.2</ele>
        <time>2021-04-29T07:21:49.000Z</time>
      </trkpt>
      <trkpt lat="39.78492024354637" lon="2.958040600642562">
        <ele>78.4</ele>
        <time>2021-04-29T07:21:54.000Z</time>
      </trkpt>
      <trkpt lat="39.78484405204654" lon="2.9580142814666033">
        <ele>78.6</ele>
        <time>2021-04-29T07:21:56.000Z</time>
      </trkpt>
      <trkpt lat="39.78469703346491" lon="2.9579515010118484">
        <ele>79.4</ele>
        <time>2021-04-29T07:22:00.000Z</time>
      </trkpt>
      <trkpt lat="39.78459443897009" lon="2.9579144529998302">
        <ele>80.6</ele>
        <time>2021-04-29T07:22:03.000Z</time>
      </trkpt>
      <trkpt lat="39.78456166572869" lon="2.9579020477831364">
        <ele>80.6</ele>
        <time>2021-04-29T07:22:04.000Z</time>
      </trkpt>
      <trkpt lat="39.78446611203253" lon="2.9578624852001667">
        <ele>81.6</ele>
        <time>2021-04-29T07:22:07.000Z</time>
      </trkpt>
      <trkpt lat="39.78429486975074" lon="2.9577975254505873">
        <ele>82.6</ele>
        <time>2021-04-29T07:22:13.000Z</time>
      </trkpt>
      <trkpt lat="39.78426720947027" lon="2.957785204052925">
        <ele>83</ele>
        <time>2021-04-29T07:22:14.000Z</time>
      </trkpt>
      <trkpt lat="39.784134440124035" lon="2.957738768309355">
        <ele>83.8</ele>
        <time>2021-04-29T07:22:18.000Z</time>
      </trkpt>
      <trkpt lat="39.78406495414674" lon="2.9577121138572693">
        <ele>84</ele>
        <time>2021-04-29T07:22:20.000Z</time>
      </trkpt>
      <trkpt lat="39.78383772075176" lon="2.957572555169463">
        <ele>84.8</ele>
        <time>2021-04-29T07:22:27.000Z</time>
      </trkpt>
      <trkpt lat="39.7838116530329" lon="2.9575465712696314">
        <ele>85</ele>
        <time>2021-04-29T07:22:28.000Z</time>
      </trkpt>
      <trkpt lat="39.78366572409868" lon="2.9574027378112078">
        <ele>86</ele>
        <time>2021-04-29T07:22:34.000Z</time>
      </trkpt>
      <trkpt lat="39.78362012654543" lon="2.9573577269911766">
        <ele>86.4</ele>
        <time>2021-04-29T07:22:36.000Z</time>
      </trkpt>
      <trkpt lat="39.783536810427904" lon="2.957281619310379">
        <ele>86.8</ele>
        <time>2021-04-29T07:22:40.000Z</time>
      </trkpt>
      <trkpt lat="39.78351325727999" lon="2.957264017313719">
        <ele>87.2</ele>
        <time>2021-04-29T07:22:41.000Z</time>
      </trkpt>
      <trkpt lat="39.783468497917056" lon="2.957226801663637">
        <ele>87.6</ele>
        <time>2021-04-29T07:22:43.000Z</time>
      </trkpt>
      <trkpt lat="39.78340337052941" lon="2.957169385626912">
        <ele>88.2</ele>
        <time>2021-04-29T07:22:46.000Z</time>
      </trkpt>
      <trkpt lat="39.78331963531673" lon="2.9570944514125586">
        <ele>89.2</ele>
        <time>2021-04-29T07:22:50.000Z</time>
      </trkpt>
      <trkpt lat="39.78327873162925" lon="2.95705983415246">
        <ele>89.6</ele>
        <time>2021-04-29T07:22:52.000Z</time>
      </trkpt>
      <trkpt lat="39.7832400072366" lon="2.9570194333791733">
        <ele>90</ele>
        <time>2021-04-29T07:22:54.000Z</time>
      </trkpt>
      <trkpt lat="39.783121990039945" lon="2.9569161683321">
        <ele>91.2</ele>
        <time>2021-04-29T07:23:00.000Z</time>
      </trkpt>
      <trkpt lat="39.78310472331941" lon="2.9568986501544714">
        <ele>91.4</ele>
        <time>2021-04-29T07:23:01.000Z</time>
      </trkpt>
      <trkpt lat="39.783035488799214" lon="2.9568153340369463">
        <ele>92.2</ele>
        <time>2021-04-29T07:23:05.000Z</time>
      </trkpt>
      <trkpt lat="39.782980754971504" lon="2.9567688144743443">
        <ele>92.8</ele>
        <time>2021-04-29T07:23:08.000Z</time>
      </trkpt>
      <trkpt lat="39.78290087543428" lon="2.9567139130085707">
        <ele>93.6</ele>
        <time>2021-04-29T07:23:12.000Z</time>
      </trkpt>
      <trkpt lat="39.78281194344163" lon="2.956678457558155">
        <ele>94.4</ele>
        <time>2021-04-29T07:23:16.000Z</time>
      </trkpt>
      <trkpt lat="39.7827616520226" lon="2.956660268828273">
        <ele>94.6</ele>
        <time>2021-04-29T07:23:18.000Z</time>
      </trkpt>
      <trkpt lat="39.782613292336464" lon="2.9566326923668385">
        <ele>95.8</ele>
        <time>2021-04-29T07:23:23.000Z</time>
      </trkpt>
      <trkpt lat="39.78248957544565" lon="2.9566315189003944">
        <ele>96.2</ele>
        <time>2021-04-29T07:23:27.000Z</time>
      </trkpt>
      <trkpt lat="39.78242704644799" lon="2.9566358774900436">
        <ele>96.6</ele>
        <time>2021-04-29T07:23:29.000Z</time>
      </trkpt>
      <trkpt lat="39.78239620104432" lon="2.9566374700516462">
        <ele>96.8</ele>
        <time>2021-04-29T07:23:30.000Z</time>
      </trkpt>
      <trkpt lat="39.782307017594576" lon="2.9566409066319466">
        <ele>97.6</ele>
        <time>2021-04-29T07:23:33.000Z</time>
      </trkpt>
      <trkpt lat="39.7822780162096" lon="2.956643421202898">
        <ele>97.6</ele>
        <time>2021-04-29T07:23:34.000Z</time>
      </trkpt>
      <trkpt lat="39.78221699595451" lon="2.956645181402564">
        <ele>98</ele>
        <time>2021-04-29T07:23:36.000Z</time>
      </trkpt>
      <trkpt lat="39.78203837759793" lon="2.9566471092402935">
        <ele>98.8</ele>
        <time>2021-04-29T07:23:42.000Z</time>
      </trkpt>
      <trkpt lat="39.78200828656554" lon="2.9566467739641666">
        <ele>99</ele>
        <time>2021-04-29T07:23:43.000Z</time>
      </trkpt>
      <trkpt lat="39.781837379559875" lon="2.9566409904509783">
        <ele>99.8</ele>
        <time>2021-04-29T07:23:49.000Z</time>
      </trkpt>
      <trkpt lat="39.78175699710846" lon="2.9566427506506443">
        <ele>100.4</ele>
        <time>2021-04-29T07:23:52.000Z</time>
      </trkpt>
      <trkpt lat="39.78159623220563" lon="2.9566349554806948">
        <ele>101</ele>
        <time>2021-04-29T07:23:58.000Z</time>
      </trkpt>
      <trkpt lat="39.781508557498455" lon="2.956635542213917">
        <ele>101.4</ele>
        <time>2021-04-29T07:24:01.000Z</time>
      </trkpt>
      <trkpt lat="39.78132910095155" lon="2.956640487536788">
        <ele>102.8</ele>
        <time>2021-04-29T07:24:07.000Z</time>
      </trkpt>
      <trkpt lat="39.781209575012326" lon="2.9566450975835323">
        <ele>103.8</ele>
        <time>2021-04-29T07:24:11.000Z</time>
      </trkpt>
      <trkpt lat="39.781031711027026" lon="2.9566553235054016">
        <ele>105</ele>
        <time>2021-04-29T07:24:17.000Z</time>
      </trkpt>
      <trkpt lat="39.78100120089948" lon="2.9566574189811945">
        <ele>105</ele>
        <time>2021-04-29T07:24:18.000Z</time>
      </trkpt>
      <trkpt lat="39.78084772825241" lon="2.956666639074683">
        <ele>106</ele>
        <time>2021-04-29T07:24:23.000Z</time>
      </trkpt>
      <trkpt lat="39.78069869801402" lon="2.956669321283698">
        <ele>107</ele>
        <time>2021-04-29T07:24:28.000Z</time>
      </trkpt>
      <trkpt lat="39.780669109895825" lon="2.956669069826603">
        <ele>107.2</ele>
        <time>2021-04-29T07:24:29.000Z</time>
      </trkpt>
      <trkpt lat="39.780525444075465" lon="2.9566653817892075">
        <ele>107.4</ele>
        <time>2021-04-29T07:24:34.000Z</time>
      </trkpt>
      <trkpt lat="39.78043919429183" lon="2.9566501267254353">
        <ele>107.6</ele>
        <time>2021-04-29T07:24:37.000Z</time>
      </trkpt>
      <trkpt lat="39.7803130466491" lon="2.956575695425272">
        <ele>108.2</ele>
        <time>2021-04-29T07:24:42.000Z</time>
      </trkpt>
      <trkpt lat="39.780267449095845" lon="2.9565428383648396">
        <ele>108.8</ele>
        <time>2021-04-29T07:24:44.000Z</time>
      </trkpt>
      <trkpt lat="39.78022084571421" lon="2.9565053712576628">
        <ele>109.4</ele>
        <time>2021-04-29T07:24:46.000Z</time>
      </trkpt>
      <trkpt lat="39.78012680076063" lon="2.956444602459669">
        <ele>110.2</ele>
        <time>2021-04-29T07:24:50.000Z</time>
      </trkpt>
      <trkpt lat="39.780102744698524" lon="2.9564351309090853">
        <ele>110.4</ele>
        <time>2021-04-29T07:24:51.000Z</time>
      </trkpt>
      <trkpt lat="39.77993410080671" lon="2.956455247476697">
        <ele>111.6</ele>
        <time>2021-04-29T07:24:58.000Z</time>
      </trkpt>
      <trkpt lat="39.77981172502041" lon="2.956537054851651">
        <ele>112.8</ele>
        <time>2021-04-29T07:25:04.000Z</time>
      </trkpt>
      <trkpt lat="39.77977132424712" lon="2.9565637931227684">
        <ele>113</ele>
        <time>2021-04-29T07:25:06.000Z</time>
      </trkpt>
      <trkpt lat="39.77967484854162" lon="2.956643672659993">
        <ele>113.6</ele>
        <time>2021-04-29T07:25:11.000Z</time>
      </trkpt>
      <trkpt lat="39.779654648154974" lon="2.956660520285368">
        <ele>114</ele>
        <time>2021-04-29T07:25:12.000Z</time>
      </trkpt>
      <trkpt lat="39.779615672305226" lon="2.956698825582862">
        <ele>114.4</ele>
        <time>2021-04-29T07:25:14.000Z</time>
      </trkpt>
      <trkpt lat="39.77956127375364" lon="2.956760097295046">
        <ele>115.2</ele>
        <time>2021-04-29T07:25:17.000Z</time>
      </trkpt>
      <trkpt lat="39.7795046120882" lon="2.9568678047508">
        <ele>116.2</ele>
        <time>2021-04-29T07:25:21.000Z</time>
      </trkpt>
      <trkpt lat="39.77949044667184" lon="2.956895465031266">
        <ele>116.4</ele>
        <time>2021-04-29T07:25:22.000Z</time>
      </trkpt>
      <trkpt lat="39.77940612472594" lon="2.957066958770156">
        <ele>117.4</ele>
        <time>2021-04-29T07:25:28.000Z</time>
      </trkpt>
      <trkpt lat="39.77939447388053" lon="2.957097804173827">
        <ele>117.6</ele>
        <time>2021-04-29T07:25:29.000Z</time>
      </trkpt>
      <trkpt lat="39.77936471812427" lon="2.957149436697364">
        <ele>118</ele>
        <time>2021-04-29T07:25:31.000Z</time>
      </trkpt>
      <trkpt lat="39.779311744496226" lon="2.9571677930653095">
        <ele>118.4</ele>
        <time>2021-04-29T07:25:33.000Z</time>
      </trkpt>
      <trkpt lat="39.77928601205349" lon="2.957161171361804">
        <ele>118.6</ele>
        <time>2021-04-29T07:25:34.000Z</time>
      </trkpt>
      <trkpt lat="39.77921769954264" lon="2.9571062698960304">
        <ele>119</ele>
        <time>2021-04-29T07:25:37.000Z</time>
      </trkpt>
      <trkpt lat="39.77919481694698" lon="2.957086069509387">
        <ele>119</ele>
        <time>2021-04-29T07:25:38.000Z</time>
      </trkpt>
      <trkpt lat="39.77902910672128" lon="2.9569636937230825">
        <ele>119.6</ele>
        <time>2021-04-29T07:25:44.000Z</time>
      </trkpt>
      <trkpt lat="39.77900102734566" lon="2.9569392185658216">
        <ele>119.8</ele>
        <time>2021-04-29T07:25:45.000Z</time>
      </trkpt>
      <trkpt lat="39.77883741259575" lon="2.9567855782806873">
        <ele>120.4</ele>
        <time>2021-04-29T07:25:51.000Z</time>
      </trkpt>
      <trkpt lat="39.77880505844951" lon="2.956762695685029">
        <ele>120.4</ele>
        <time>2021-04-29T07:25:52.000Z</time>
      </trkpt>
      <trkpt lat="39.77869978174567" lon="2.956677284091711">
        <ele>120.4</ele>
        <time>2021-04-29T07:25:55.000Z</time>
      </trkpt>
      <trkpt lat="39.778620740398765" lon="2.9566155932843685">
        <ele>120.4</ele>
        <time>2021-04-29T07:25:57.000Z</time>
      </trkpt>
      <trkpt lat="39.778535747900605" lon="2.9565425869077444">
        <ele>120.2</ele>
        <time>2021-04-29T07:25:59.000Z</time>
      </trkpt>
      <trkpt lat="39.77833651006222" lon="2.9563643038272858">
        <ele>119</ele>
        <time>2021-04-29T07:26:03.000Z</time>
      </trkpt>
      <trkpt lat="39.778242129832506" lon="2.9562757909297943">
        <ele>118.6</ele>
        <time>2021-04-29T07:26:05.000Z</time>
      </trkpt>
      <trkpt lat="39.77817256003618" lon="2.9561985936015844">
        <ele>118</ele>
        <time>2021-04-29T07:26:07.000Z</time>
      </trkpt>
      <trkpt lat="39.7781371884048" lon="2.9561255872249603">
        <ele>117.2</ele>
        <time>2021-04-29T07:26:09.000Z</time>
      </trkpt>
      <trkpt lat="39.778183959424496" lon="2.95599021948874">
        <ele>115.8</ele>
        <time>2021-04-29T07:26:12.000Z</time>
      </trkpt>
      <trkpt lat="39.77820860221982" lon="2.955941604450345">
        <ele>115.2</ele>
        <time>2021-04-29T07:26:13.000Z</time>
      </trkpt>
      <trkpt lat="39.77822897024453" lon="2.955887960270047">
        <ele>114.8</ele>
        <time>2021-04-29T07:26:14.000Z</time>
      </trkpt>
      <trkpt lat="39.7782442253083" lon="2.9557712841778994">
        <ele>114.4</ele>
        <time>2021-04-29T07:26:16.000Z</time>
      </trkpt>
      <trkpt lat="39.77824179455638" lon="2.95570925809443">
        <ele>114.2</ele>
        <time>2021-04-29T07:26:17.000Z</time>
      </trkpt>
      <trkpt lat="39.778141463175416" lon="2.955464841797948">
        <ele>114</ele>
        <time>2021-04-29T07:26:21.000Z</time>
      </trkpt>
      <trkpt lat="39.77804004214704" lon="2.9553928412497044">
        <ele>113.8</ele>
        <time>2021-04-29T07:26:23.000Z</time>
      </trkpt>
      <trkpt lat="39.777988996356726" lon="2.9553579725325108">
        <ele>113.6</ele>
        <time>2021-04-29T07:26:24.000Z</time>
      </trkpt>
      <trkpt lat="39.77783787064254" lon="2.955251270905137">
        <ele>112.4</ele>
        <time>2021-04-29T07:26:27.000Z</time>
      </trkpt>
      <trkpt lat="39.77778892032802" lon="2.9552149772644043">
        <ele>112</ele>
        <time>2021-04-29T07:26:28.000Z</time>
      </trkpt>
      <trkpt lat="39.77774357423186" lon="2.955174408853054">
        <ele>111.8</ele>
        <time>2021-04-29T07:26:29.000Z</time>
      </trkpt>
      <trkpt lat="39.777687499299645" lon="2.9550677072256804">
        <ele>111.6</ele>
        <time>2021-04-29T07:26:31.000Z</time>
      </trkpt>
      <trkpt lat="39.777700155973434" lon="2.954847849905491">
        <ele>111.4</ele>
        <time>2021-04-29T07:26:35.000Z</time>
      </trkpt>
      <trkpt lat="39.77773175574839" lon="2.9547139909118414">
        <ele>111.6</ele>
        <time>2021-04-29T07:26:38.000Z</time>
      </trkpt>
      <trkpt lat="39.77775279432535" lon="2.95462547801435">
        <ele>112</ele>
        <time>2021-04-29T07:26:40.000Z</time>
      </trkpt>
      <trkpt lat="39.777763187885284" lon="2.9545841552317142">
        <ele>112.2</ele>
        <time>2021-04-29T07:26:41.000Z</time>
      </trkpt>
      <trkpt lat="39.77777567692101" lon="2.9545437544584274">
        <ele>112.4</ele>
        <time>2021-04-29T07:26:42.000Z</time>
      </trkpt>
      <trkpt lat="39.777788668870926" lon="2.9545028507709503">
        <ele>113</ele>
        <time>2021-04-29T07:26:43.000Z</time>
      </trkpt>
      <trkpt lat="39.777811635285616" lon="2.9544127453118563">
        <ele>113.8</ele>
        <time>2021-04-29T07:26:45.000Z</time>
      </trkpt>
      <trkpt lat="39.77785471826792" lon="2.9542480409145355">
        <ele>114.6</ele>
        <time>2021-04-29T07:26:49.000Z</time>
      </trkpt>
      <trkpt lat="39.7778660338372" lon="2.954207556322217">
        <ele>114.8</ele>
        <time>2021-04-29T07:26:50.000Z</time>
      </trkpt>
      <trkpt lat="39.777896124869585" lon="2.9540872760117054">
        <ele>115.6</ele>
        <time>2021-04-29T07:26:53.000Z</time>
      </trkpt>
      <trkpt lat="39.77791867218912" lon="2.9540133476257324">
        <ele>115.8</ele>
        <time>2021-04-29T07:26:55.000Z</time>
      </trkpt>
      <trkpt lat="39.7779299877584" lon="2.9539788980036974">
        <ele>116</ele>
        <time>2021-04-29T07:26:56.000Z</time>
      </trkpt>
      <trkpt lat="39.777966449037194" lon="2.9538283590227365">
        <ele>117.2</ele>
        <time>2021-04-29T07:27:00.000Z</time>
      </trkpt>
      <trkpt lat="39.77799503132701" lon="2.9537141136825085">
        <ele>118</ele>
        <time>2021-04-29T07:27:03.000Z</time>
      </trkpt>
      <trkpt lat="39.77800223976374" lon="2.953673377633095">
        <ele>118.4</ele>
        <time>2021-04-29T07:27:04.000Z</time>
      </trkpt>
      <trkpt lat="39.77800726890564" lon="2.953454190865159">
        <ele>119.2</ele>
        <time>2021-04-29T07:27:09.000Z</time>
      </trkpt>
      <trkpt lat="39.77800198830664" lon="2.9534086771309376">
        <ele>119.4</ele>
        <time>2021-04-29T07:27:10.000Z</time>
      </trkpt>
      <trkpt lat="39.777971813455224" lon="2.9531781747937202">
        <ele>120.4</ele>
        <time>2021-04-29T07:27:15.000Z</time>
      </trkpt>
      <trkpt lat="39.77794960141182" lon="2.9530382808297873">
        <ele>121</ele>
        <time>2021-04-29T07:27:18.000Z</time>
      </trkpt>
      <trkpt lat="39.777922024950385" lon="2.952838037163019">
        <ele>121.4</ele>
        <time>2021-04-29T07:27:22.000Z</time>
      </trkpt>
      <trkpt lat="39.77789729833603" lon="2.9526371229439974">
        <ele>122.2</ele>
        <time>2021-04-29T07:27:26.000Z</time>
      </trkpt>
      <trkpt lat="39.7778710629791" lon="2.9524220433086157">
        <ele>122.6</ele>
        <time>2021-04-29T07:27:30.000Z</time>
      </trkpt>
      <trkpt lat="39.777846839278936" lon="2.9522425029426813">
        <ele>122.8</ele>
        <time>2021-04-29T07:27:33.000Z</time>
      </trkpt>
      <trkpt lat="39.77781758643687" lon="2.952049048617482">
        <ele>122.8</ele>
        <time>2021-04-29T07:27:36.000Z</time>
      </trkpt>
      <trkpt lat="39.77779629640281" lon="2.95191602781415">
        <ele>122.8</ele>
        <time>2021-04-29T07:27:38.000Z</time>
      </trkpt>
      <trkpt lat="39.77775665000081" lon="2.9516483936458826">
        <ele>122.8</ele>
        <time>2021-04-29T07:27:42.000Z</time>
      </trkpt>
      <trkpt lat="39.77772815153003" lon="2.951352261006832">
        <ele>122.6</ele>
        <time>2021-04-29T07:27:46.000Z</time>
      </trkpt>
      <trkpt lat="39.777711890637875" lon="2.951103737577796">
        <ele>122.6</ele>
        <time>2021-04-29T07:27:49.000Z</time>
      </trkpt>
      <trkpt lat="39.777665035799146" lon="2.950444919988513">
        <ele>121.4</ele>
        <time>2021-04-29T07:27:57.000Z</time>
      </trkpt>
      <trkpt lat="39.77765489369631" lon="2.9502969793975353">
        <ele>121.2</ele>
        <time>2021-04-29T07:27:59.000Z</time>
      </trkpt>
      <trkpt lat="39.77760468609631" lon="2.9497635550796986">
        <ele>121.2</ele>
        <time>2021-04-29T07:28:07.000Z</time>
      </trkpt>
      <trkpt lat="39.77758347988129" lon="2.9495527502149343">
        <ele>122.4</ele>
        <time>2021-04-29T07:28:10.000Z</time>
      </trkpt>
      <trkpt lat="39.77755573578179" lon="2.9492428712546825">
        <ele>123</ele>
        <time>2021-04-29T07:28:14.000Z</time>
      </trkpt>
      <trkpt lat="39.7774706594646" lon="2.9486738238483667">
        <ele>122.8</ele>
        <time>2021-04-29T07:28:21.000Z</time>
      </trkpt>
      <trkpt lat="39.77726614102721" lon="2.948017604649067">
        <ele>122</ele>
        <time>2021-04-29T07:28:29.000Z</time>
      </trkpt>
      <trkpt lat="39.77723655290902" lon="2.947940742596984">
        <ele>121.6</ele>
        <time>2021-04-29T07:28:30.000Z</time>
      </trkpt>
      <trkpt lat="39.777174443006516" lon="2.947791460901499">
        <ele>121.4</ele>
        <time>2021-04-29T07:28:32.000Z</time>
      </trkpt>
      <trkpt lat="39.7770438529551" lon="2.947508990764618">
        <ele>121.4</ele>
        <time>2021-04-29T07:28:36.000Z</time>
      </trkpt>
      <trkpt lat="39.7769835870713" lon="2.947380328550935">
        <ele>121.4</ele>
        <time>2021-04-29T07:28:38.000Z</time>
      </trkpt>
      <trkpt lat="39.77688048966229" lon="2.9471456352621317">
        <ele>121.4</ele>
        <time>2021-04-29T07:28:42.000Z</time>
      </trkpt>
      <trkpt lat="39.776835311204195" lon="2.947032479569316">
        <ele>121.4</ele>
        <time>2021-04-29T07:28:44.000Z</time>
      </trkpt>
      <trkpt lat="39.776775212958455" lon="2.9468535259366035">
        <ele>122.2</ele>
        <time>2021-04-29T07:28:47.000Z</time>
      </trkpt>
      <trkpt lat="39.77675828151405" lon="2.9467907454818487">
        <ele>122.6</ele>
        <time>2021-04-29T07:28:48.000Z</time>
      </trkpt>
      <trkpt lat="39.776714611798525" lon="2.946596536785364">
        <ele>123.8</ele>
        <time>2021-04-29T07:28:51.000Z</time>
      </trkpt>
      <trkpt lat="39.77670178748667" lon="2.9465296491980553">
        <ele>124</ele>
        <time>2021-04-29T07:28:52.000Z</time>
      </trkpt>
      <trkpt lat="39.776611011475325" lon="2.9460292495787144">
        <ele>124.4</ele>
        <time>2021-04-29T07:28:59.000Z</time>
      </trkpt>
      <trkpt lat="39.77661620825529" lon="2.9459547344595194">
        <ele>124.4</ele>
        <time>2021-04-29T07:29:00.000Z</time>
      </trkpt>
      <trkpt lat="39.77671913802624" lon="2.945794304832816">
        <ele>124.4</ele>
        <time>2021-04-29T07:29:03.000Z</time>
      </trkpt>
      <trkpt lat="39.776768926531076" lon="2.945757508277893">
        <ele>124.4</ele>
        <time>2021-04-29T07:29:04.000Z</time>
      </trkpt>
      <trkpt lat="39.77698719128966" lon="2.945610573515296">
        <ele>124.2</ele>
        <time>2021-04-29T07:29:08.000Z</time>
      </trkpt>
      <trkpt lat="39.777042511850595" lon="2.9455695021897554">
        <ele>124.2</ele>
        <time>2021-04-29T07:29:09.000Z</time>
      </trkpt>
      <trkpt lat="39.7771751973778" lon="2.945386106148362">
        <ele>124.2</ele>
        <time>2021-04-29T07:29:12.000Z</time>
      </trkpt>
      <trkpt lat="39.77724996395409" lon="2.9451177176088095">
        <ele>124</ele>
        <time>2021-04-29T07:29:15.000Z</time>
      </trkpt>
      <trkpt lat="39.777272092178464" lon="2.9450195655226707">
        <ele>124</ele>
        <time>2021-04-29T07:29:16.000Z</time>
      </trkpt>
      <trkpt lat="39.777347864583135" lon="2.9447077587246895">
        <ele>123.4</ele>
        <time>2021-04-29T07:29:19.000Z</time>
      </trkpt>
      <trkpt lat="39.77740201167762" lon="2.9444919247180223">
        <ele>123.2</ele>
        <time>2021-04-29T07:29:21.000Z</time>
      </trkpt>
      <trkpt lat="39.777455320581794" lon="2.944272067397833">
        <ele>122.4</ele>
        <time>2021-04-29T07:29:23.000Z</time>
      </trkpt>
      <trkpt lat="39.77750896476209" lon="2.944052377715707">
        <ele>121.2</ele>
        <time>2021-04-29T07:29:25.000Z</time>
      </trkpt>
      <trkpt lat="39.77756981737912" lon="2.943835537880659">
        <ele>120</ele>
        <time>2021-04-29T07:29:27.000Z</time>
      </trkpt>
      <trkpt lat="39.77767408825457" lon="2.943514594808221">
        <ele>118.8</ele>
        <time>2021-04-29T07:29:30.000Z</time>
      </trkpt>
      <trkpt lat="39.777716835960746" lon="2.943412670865655">
        <ele>118.4</ele>
        <time>2021-04-29T07:29:31.000Z</time>
      </trkpt>
      <trkpt lat="39.777838960289955" lon="2.9431050550192595">
        <ele>117.8</ele>
        <time>2021-04-29T07:29:34.000Z</time>
      </trkpt>
      <trkpt lat="39.77792227640748" lon="2.942777071148157">
        <ele>116.6</ele>
        <time>2021-04-29T07:29:37.000Z</time>
      </trkpt>
      <trkpt lat="39.77794968523085" lon="2.942551262676716">
        <ele>116.2</ele>
        <time>2021-04-29T07:29:39.000Z</time>
      </trkpt>
      <trkpt lat="39.77794909849763" lon="2.9423226043581963">
        <ele>115.8</ele>
        <time>2021-04-29T07:29:41.000Z</time>
      </trkpt>
      <trkpt lat="39.777945913374424" lon="2.942207856103778">
        <ele>115.6</ele>
        <time>2021-04-29T07:29:42.000Z</time>
      </trkpt>
      <trkpt lat="39.77791691198945" lon="2.9415311850607395">
        <ele>114.4</ele>
        <time>2021-04-29T07:29:48.000Z</time>
      </trkpt>
      <trkpt lat="39.777911296114326" lon="2.9414204601198435">
        <ele>114.4</ele>
        <time>2021-04-29T07:29:49.000Z</time>
      </trkpt>
      <trkpt lat="39.777900064364076" lon="2.941088452935219">
        <ele>113.8</ele>
        <time>2021-04-29T07:29:52.000Z</time>
      </trkpt>
      <trkpt lat="39.77788422256708" lon="2.940638680011034">
        <ele>113.4</ele>
        <time>2021-04-29T07:29:56.000Z</time>
      </trkpt>
      <trkpt lat="39.777879947796464" lon="2.9405272845178843">
        <ele>113.4</ele>
        <time>2021-04-29T07:29:57.000Z</time>
      </trkpt>
      <trkpt lat="39.77785907685757" lon="2.9399803653359413">
        <ele>112.4</ele>
        <time>2021-04-29T07:30:02.000Z</time>
      </trkpt>
      <trkpt lat="39.77783761918545" lon="2.939445935189724">
        <ele>111.4</ele>
        <time>2021-04-29T07:30:07.000Z</time>
      </trkpt>
      <trkpt lat="39.77783250622451" lon="2.9393406584858894">
        <ele>111.2</ele>
        <time>2021-04-29T07:30:08.000Z</time>
      </trkpt>
      <trkpt lat="39.77781331166625" lon="2.9386271070688963">
        <ele>110.8</ele>
        <time>2021-04-29T07:30:15.000Z</time>
      </trkpt>
      <trkpt lat="39.77781222201884" lon="2.93852711096406">
        <ele>110.8</ele>
        <time>2021-04-29T07:30:16.000Z</time>
      </trkpt>
      <trkpt lat="39.77781146764755" lon="2.9377625975757837">
        <ele>110.8</ele>
        <time>2021-04-29T07:30:24.000Z</time>
      </trkpt>
      <trkpt lat="39.77780970744789" lon="2.937576100230217">
        <ele>111</ele>
        <time>2021-04-29T07:30:26.000Z</time>
      </trkpt>
      <trkpt lat="39.777787579223514" lon="2.936941673979163">
        <ele>111.2</ele>
        <time>2021-04-29T07:30:33.000Z</time>
      </trkpt>
      <trkpt lat="39.77775757201016" lon="2.9361970257014036">
        <ele>111.6</ele>
        <time>2021-04-29T07:30:42.000Z</time>
      </trkpt>
      <trkpt lat="39.77774625644088" lon="2.935766950249672">
        <ele>111.8</ele>
        <time>2021-04-29T07:30:48.000Z</time>
      </trkpt>
      <trkpt lat="39.77774533443153" lon="2.9356368631124496">
        <ele>112.4</ele>
        <time>2021-04-29T07:30:50.000Z</time>
      </trkpt>
      <trkpt lat="39.7777346894145" lon="2.9353222902864218">
        <ele>113.6</ele>
        <time>2021-04-29T07:30:55.000Z</time>
      </trkpt>
      <trkpt lat="39.77773133665323" lon="2.935128416866064">
        <ele>114.6</ele>
        <time>2021-04-29T07:30:58.000Z</time>
      </trkpt>
      <trkpt lat="39.777727480977774" lon="2.9350635409355164">
        <ele>114.8</ele>
        <time>2021-04-29T07:30:59.000Z</time>
      </trkpt>
      <trkpt lat="39.777711890637875" lon="2.9348005168139935">
        <ele>115.6</ele>
        <time>2021-04-29T07:31:03.000Z</time>
      </trkpt>
      <trkpt lat="39.777671908959746" lon="2.934530870988965">
        <ele>116</ele>
        <time>2021-04-29T07:31:07.000Z</time>
      </trkpt>
      <trkpt lat="39.77752539329231" lon="2.933992585167289">
        <ele>116.4</ele>
        <time>2021-04-29T07:31:15.000Z</time>
      </trkpt>
      <trkpt lat="39.7773443441838" lon="2.9333053529262543">
        <ele>116.4</ele>
        <time>2021-04-29T07:31:25.000Z</time>
      </trkpt>
      <trkpt lat="39.77733118459582" lon="2.9332351963967085">
        <ele>116.4</ele>
        <time>2021-04-29T07:31:26.000Z</time>
      </trkpt>
      <trkpt lat="39.777294639497995" lon="2.9330267384648323">
        <ele>116.6</ele>
        <time>2021-04-29T07:31:29.000Z</time>
      </trkpt>
      <trkpt lat="39.77725532837212" lon="2.932815933600068">
        <ele>116.8</ele>
        <time>2021-04-29T07:31:32.000Z</time>
      </trkpt>
      <trkpt lat="39.77721576578915" lon="2.9325979202985764">
        <ele>116.8</ele>
        <time>2021-04-29T07:31:35.000Z</time>
      </trkpt>
      <trkpt lat="39.77712809108198" lon="2.932160384953022">
        <ele>117</ele>
        <time>2021-04-29T07:31:41.000Z</time>
      </trkpt>
      <trkpt lat="39.777116775512695" lon="2.9320875462144613">
        <ele>117</ele>
        <time>2021-04-29T07:31:42.000Z</time>
      </trkpt>
      <trkpt lat="39.777112416923046" lon="2.932011941447854">
        <ele>117</ele>
        <time>2021-04-29T07:31:43.000Z</time>
      </trkpt>
      <trkpt lat="39.777139239013195" lon="2.9317796789109707">
        <ele>117</ele>
        <time>2021-04-29T07:31:46.000Z</time>
      </trkpt>
      <trkpt lat="39.77720361202955" lon="2.931488072499633">
        <ele>117</ele>
        <time>2021-04-29T07:31:50.000Z</time>
      </trkpt>
      <trkpt lat="39.77723135612905" lon="2.9313509445637465">
        <ele>117.2</ele>
        <time>2021-04-29T07:31:52.000Z</time>
      </trkpt>
      <trkpt lat="39.77727125398815" lon="2.9311538860201836">
        <ele>117.8</ele>
        <time>2021-04-29T07:31:55.000Z</time>
      </trkpt>
      <trkpt lat="39.77734384126961" lon="2.9308549873530865">
        <ele>118</ele>
        <time>2021-04-29T07:32:00.000Z</time>
      </trkpt>
      <trkpt lat="39.777392372488976" lon="2.9306867625564337">
        <ele>119</ele>
        <time>2021-04-29T07:32:03.000Z</time>
      </trkpt>
      <trkpt lat="39.77749957703054" lon="2.9303352255374193">
        <ele>120</ele>
        <time>2021-04-29T07:32:09.000Z</time>
      </trkpt>
      <trkpt lat="39.777518352493644" lon="2.930273786187172">
        <ele>120.2</ele>
        <time>2021-04-29T07:32:10.000Z</time>
      </trkpt>
      <trkpt lat="39.777702083811164" lon="2.9297434631735086">
        <ele>121.2</ele>
        <time>2021-04-29T07:32:19.000Z</time>
      </trkpt>
      <trkpt lat="39.77771423757076" lon="2.929685041308403">
        <ele>121.2</ele>
        <time>2021-04-29T07:32:20.000Z</time>
      </trkpt>
      <trkpt lat="39.77771474048495" lon="2.9295632522553205">
        <ele>121.4</ele>
        <time>2021-04-29T07:32:22.000Z</time>
      </trkpt>
      <trkpt lat="39.777701161801815" lon="2.9294386133551598">
        <ele>121.6</ele>
        <time>2021-04-29T07:32:24.000Z</time>
      </trkpt>
      <trkpt lat="39.77768079377711" lon="2.9293226916342974">
        <ele>121.6</ele>
        <time>2021-04-29T07:32:26.000Z</time>
      </trkpt>
      <trkpt lat="39.77761885151267" lon="2.9290926083922386">
        <ele>121.8</ele>
        <time>2021-04-29T07:32:30.000Z</time>
      </trkpt>
      <trkpt lat="39.77746454067528" lon="2.9285639617592096">
        <ele>122</ele>
        <time>2021-04-29T07:32:39.000Z</time>
      </trkpt>
      <trkpt lat="39.77735071443021" lon="2.9282089043408632">
        <ele>122.2</ele>
        <time>2021-04-29T07:32:46.000Z</time>
      </trkpt>
      <trkpt lat="39.777335627004504" lon="2.928158277645707">
        <ele>122.4</ele>
        <time>2021-04-29T07:32:47.000Z</time>
      </trkpt>
      <trkpt lat="39.77723579853773" lon="2.9278359096497297">
        <ele>122.6</ele>
        <time>2021-04-29T07:32:53.000Z</time>
      </trkpt>
      <trkpt lat="39.77718743495643" lon="2.9276616498827934">
        <ele>122.6</ele>
        <time>2021-04-29T07:32:56.000Z</time>
      </trkpt>
      <trkpt lat="39.777128426358104" lon="2.9274889826774597">
        <ele>122.6</ele>
        <time>2021-04-29T07:32:59.000Z</time>
      </trkpt>
      <trkpt lat="39.777089953422546" lon="2.927377335727215">
        <ele>122.6</ele>
        <time>2021-04-29T07:33:01.000Z</time>
      </trkpt>
      <trkpt lat="39.77704846300185" lon="2.9272475000470877">
        <ele>122.4</ele>
        <time>2021-04-29T07:33:04.000Z</time>
      </trkpt>
      <trkpt lat="39.777042511850595" lon="2.9272245336323977">
        <ele>122.4</ele>
        <time>2021-04-29T07:33:05.000Z</time>
      </trkpt>
      <trkpt lat="39.77703429758549" lon="2.9271883238106966">
        <ele>122.4</ele>
        <time>2021-04-29T07:33:07.000Z</time>
      </trkpt>
      <trkpt lat="39.77702616713941" lon="2.927170302718878">
        <ele>122.4</ele>
        <time>2021-04-29T07:33:09.000Z</time>
      </trkpt>
      <trkpt lat="39.77701719850302" lon="2.927163764834404">
        <ele>122.4</ele>
        <time>2021-04-29T07:33:11.000Z</time>
      </trkpt>
      <trkpt lat="39.776996495202184" lon="2.9271759185940027">
        <ele>122.4</ele>
        <time>2021-04-29T07:33:13.000Z</time>
      </trkpt>
      <trkpt lat="39.776964811608195" lon="2.9272107873111963">
        <ele>122.4</ele>
        <time>2021-04-29T07:33:15.000Z</time>
      </trkpt>
      <trkpt lat="39.77688141167164" lon="2.927277088165283">
        <ele>122.6</ele>
        <time>2021-04-29T07:33:18.000Z</time>
      </trkpt>
      <trkpt lat="39.7768107522279" lon="2.927339281886816">
        <ele>122.6</ele>
        <time>2021-04-29T07:33:20.000Z</time>
      </trkpt>
      <trkpt lat="39.776730705052614" lon="2.927407678216696">
        <ele>122.6</ele>
        <time>2021-04-29T07:33:22.000Z</time>
      </trkpt>
      <trkpt lat="39.77659433148801" lon="2.927511027082801">
        <ele>122.6</ele>
        <time>2021-04-29T07:33:25.000Z</time>
      </trkpt>
      <trkpt lat="39.77654957212508" lon="2.9275479912757874">
        <ele>122.6</ele>
        <time>2021-04-29T07:33:26.000Z</time>
      </trkpt>
      <trkpt lat="39.77650850079954" lon="2.9275924153625965">
        <ele>122.6</ele>
        <time>2021-04-29T07:33:27.000Z</time>
      </trkpt>
      <trkpt lat="39.77632342837751" lon="2.9278668388724327">
        <ele>122.4</ele>
        <time>2021-04-29T07:33:32.000Z</time>
      </trkpt>
      <trkpt lat="39.77624975144863" lon="2.9279844369739294">
        <ele>122.2</ele>
        <time>2021-04-29T07:33:34.000Z</time>
      </trkpt>
      <trkpt lat="39.77597499266267" lon="2.928469078615308">
        <ele>122.2</ele>
        <time>2021-04-29T07:33:42.000Z</time>
      </trkpt>
      <trkpt lat="39.77591590024531" lon="2.928591286763549">
        <ele>122.2</ele>
        <time>2021-04-29T07:33:44.000Z</time>
      </trkpt>
      <trkpt lat="39.77588413283229" lon="2.9286479484289885">
        <ele>122.2</ele>
        <time>2021-04-29T07:33:45.000Z</time>
      </trkpt>
      <trkpt lat="39.77572252973914" lon="2.928838888183236">
        <ele>122.4</ele>
        <time>2021-04-29T07:33:49.000Z</time>
      </trkpt>
      <trkpt lat="39.775441316887736" lon="2.9290829692035913">
        <ele>123.2</ele>
        <time>2021-04-29T07:33:55.000Z</time>
      </trkpt>
      <trkpt lat="39.77539328858256" lon="2.929121609777212">
        <ele>123.4</ele>
        <time>2021-04-29T07:33:56.000Z</time>
      </trkpt>
      <trkpt lat="39.77534408681095" lon="2.929158741608262">
        <ele>123.4</ele>
        <time>2021-04-29T07:33:57.000Z</time>
      </trkpt>
      <trkpt lat="39.774910155683756" lon="2.9294713027775288">
        <ele>123.4</ele>
        <time>2021-04-29T07:34:05.000Z</time>
      </trkpt>
      <trkpt lat="39.774562641978264" lon="2.929666768759489">
        <ele>123.2</ele>
        <time>2021-04-29T07:34:11.000Z</time>
      </trkpt>
      <trkpt lat="39.77449977770448" lon="2.9296907410025597">
        <ele>123</ele>
        <time>2021-04-29T07:34:12.000Z</time>
      </trkpt>
      <trkpt lat="39.7741256095469" lon="2.929787803441286">
        <ele>122.4</ele>
        <time>2021-04-29T07:34:18.000Z</time>
      </trkpt>
      <trkpt lat="39.77406341582537" lon="2.9298029746860266">
        <ele>122.4</ele>
        <time>2021-04-29T07:34:19.000Z</time>
      </trkpt>
      <trkpt lat="39.773773066699505" lon="2.929913867264986">
        <ele>122.4</ele>
        <time>2021-04-29T07:34:24.000Z</time>
      </trkpt>
      <trkpt lat="39.77372629567981" lon="2.9299515020102262">
        <ele>122.4</ele>
        <time>2021-04-29T07:34:25.000Z</time>
      </trkpt>
      <trkpt lat="39.773567793890834" lon="2.9301116801798344">
        <ele>122.4</ele>
        <time>2021-04-29T07:34:29.000Z</time>
      </trkpt>
      <trkpt lat="39.773532170802355" lon="2.930147470906377">
        <ele>122.4</ele>
        <time>2021-04-29T07:34:30.000Z</time>
      </trkpt>
      <trkpt lat="39.77349822409451" lon="2.9301840160042048">
        <ele>122.8</ele>
        <time>2021-04-29T07:34:31.000Z</time>
      </trkpt>
      <trkpt lat="39.77339898236096" lon="2.930285604670644">
        <ele>123.6</ele>
        <time>2021-04-29T07:34:34.000Z</time>
      </trkpt>
      <trkpt lat="39.773335698992014" lon="2.9303439427167177">
        <ele>124.6</ele>
        <time>2021-04-29T07:34:36.000Z</time>
      </trkpt>
      <trkpt lat="39.7733036801219" lon="2.930367076769471">
        <ele>125</ele>
        <time>2021-04-29T07:34:37.000Z</time>
      </trkpt>
      <trkpt lat="39.773271745070815" lon="2.9303866904228926">
        <ele>125.2</ele>
        <time>2021-04-29T07:34:38.000Z</time>
      </trkpt>
      <trkpt lat="39.77315900847316" lon="2.9304603673517704">
        <ele>126</ele>
        <time>2021-04-29T07:34:41.000Z</time>
      </trkpt>
      <trkpt lat="39.77311760187149" lon="2.9304881952703">
        <ele>126.2</ele>
        <time>2021-04-29T07:34:42.000Z</time>
      </trkpt>
      <trkpt lat="39.7730272449553" lon="2.9305475391447544">
        <ele>127.6</ele>
        <time>2021-04-29T07:34:44.000Z</time>
      </trkpt>
      <trkpt lat="39.77298181504011" lon="2.9305788036435843">
        <ele>127.8</ele>
        <time>2021-04-29T07:34:45.000Z</time>
      </trkpt>
      <trkpt lat="39.77252969518304" lon="2.930877199396491">
        <ele>128</ele>
        <time>2021-04-29T07:34:54.000Z</time>
      </trkpt>
      <trkpt lat="39.772324757650495" lon="2.931013572961092">
        <ele>128</ele>
        <time>2021-04-29T07:34:58.000Z</time>
      </trkpt>
      <trkpt lat="39.77217363193631" lon="2.931090435013175">
        <ele>128</ele>
        <time>2021-04-29T07:35:01.000Z</time>
      </trkpt>
      <trkpt lat="39.772121496498585" lon="2.931106276810169">
        <ele>128</ele>
        <time>2021-04-29T07:35:02.000Z</time>
      </trkpt>
      <trkpt lat="39.771696953102946" lon="2.9311884194612503">
        <ele>128.2</ele>
        <time>2021-04-29T07:35:10.000Z</time>
      </trkpt>
      <trkpt lat="39.771541049703956" lon="2.9311963822692633">
        <ele>128.6</ele>
        <time>2021-04-29T07:35:13.000Z</time>
      </trkpt>
      <trkpt lat="39.77135228924453" lon="2.9311939515173435">
        <ele>129</ele>
        <time>2021-04-29T07:35:17.000Z</time>
      </trkpt>
      <trkpt lat="39.77130870334804" lon="2.9311910178512335">
        <ele>129</ele>
        <time>2021-04-29T07:35:18.000Z</time>
      </trkpt>
      <trkpt lat="39.771263441070914" lon="2.931194454431534">
        <ele>129</ele>
        <time>2021-04-29T07:35:19.000Z</time>
      </trkpt>
      <trkpt lat="39.77112002670765" lon="2.9312196001410484">
        <ele>129.6</ele>
        <time>2021-04-29T07:35:22.000Z</time>
      </trkpt>
      <trkpt lat="39.77103000506759" lon="2.931231167167425">
        <ele>130.2</ele>
        <time>2021-04-29T07:35:24.000Z</time>
      </trkpt>
      <trkpt lat="39.77090519852936" lon="2.9312407225370407">
        <ele>130.6</ele>
        <time>2021-04-29T07:35:27.000Z</time>
      </trkpt>
      <trkpt lat="39.77086077444255" lon="2.931242985650897">
        <ele>130.8</ele>
        <time>2021-04-29T07:35:28.000Z</time>
      </trkpt>
      <trkpt lat="39.770772848278284" lon="2.931252708658576">
        <ele>131</ele>
        <time>2021-04-29T07:35:30.000Z</time>
      </trkpt>
      <trkpt lat="39.77060881443322" lon="2.9312745854258537">
        <ele>131.8</ele>
        <time>2021-04-29T07:35:34.000Z</time>
      </trkpt>
      <trkpt lat="39.770447965711355" lon="2.931297132745385">
        <ele>132.6</ele>
        <time>2021-04-29T07:35:38.000Z</time>
      </trkpt>
      <trkpt lat="39.77036624215543" lon="2.9313079454004765">
        <ele>133</ele>
        <time>2021-04-29T07:35:40.000Z</time>
      </trkpt>
      <trkpt lat="39.770246632397175" lon="2.931326301768422">
        <ele>134</ele>
        <time>2021-04-29T07:35:43.000Z</time>
      </trkpt>
      <trkpt lat="39.77005963213742" lon="2.9313721507787704">
        <ele>135.2</ele>
        <time>2021-04-29T07:35:48.000Z</time>
      </trkpt>
      <trkpt lat="39.769847486168146" lon="2.931495951488614">
        <ele>136.2</ele>
        <time>2021-04-29T07:35:54.000Z</time>
      </trkpt>
      <trkpt lat="39.769804989919066" lon="2.9315267130732536">
        <ele>136.4</ele>
        <time>2021-04-29T07:35:55.000Z</time>
      </trkpt>
      <trkpt lat="39.7696961928159" lon="2.931609945371747">
        <ele>137</ele>
        <time>2021-04-29T07:35:58.000Z</time>
      </trkpt>
      <trkpt lat="39.769595777615905" lon="2.931700386106968">
        <ele>137.2</ele>
        <time>2021-04-29T07:36:01.000Z</time>
      </trkpt>
      <trkpt lat="39.769557639956474" lon="2.9317293036729097">
        <ele>137.2</ele>
        <time>2021-04-29T07:36:02.000Z</time>
      </trkpt>
      <trkpt lat="39.76941078901291" lon="2.931856792420149">
        <ele>137.4</ele>
        <time>2021-04-29T07:36:06.000Z</time>
      </trkpt>
      <trkpt lat="39.769293777644634" lon="2.931953938677907">
        <ele>137.8</ele>
        <time>2021-04-29T07:36:09.000Z</time>
      </trkpt>
      <trkpt lat="39.76913418620825" lon="2.9320567846298218">
        <ele>138.4</ele>
        <time>2021-04-29T07:36:13.000Z</time>
      </trkpt>
      <trkpt lat="39.76897015236318" lon="2.9321416094899178">
        <ele>138.6</ele>
        <time>2021-04-29T07:36:17.000Z</time>
      </trkpt>
      <trkpt lat="39.76870737969875" lon="2.9323398414999247">
        <ele>139.2</ele>
        <time>2021-04-29T07:36:24.000Z</time>
      </trkpt>
      <trkpt lat="39.768634624779224" lon="2.9324108362197876">
        <ele>139.4</ele>
        <time>2021-04-29T07:36:26.000Z</time>
      </trkpt>
      <trkpt lat="39.768479224294424" lon="2.932551484555006">
        <ele>140</ele>
        <time>2021-04-29T07:36:30.000Z</time>
      </trkpt>
      <trkpt lat="39.76816473528743" lon="2.93277645483613">
        <ele>140.2</ele>
        <time>2021-04-29T07:36:37.000Z</time>
      </trkpt>
      <trkpt lat="39.76811695843935" lon="2.93280771933496">
        <ele>140.2</ele>
        <time>2021-04-29T07:36:38.000Z</time>
      </trkpt>
      <trkpt lat="39.768066918477416" lon="2.9328417498618364">
        <ele>140.2</ele>
        <time>2021-04-29T07:36:39.000Z</time>
      </trkpt>
      <trkpt lat="39.76795954629779" lon="2.9329088050872087">
        <ele>140.2</ele>
        <time>2021-04-29T07:36:41.000Z</time>
      </trkpt>
      <trkpt lat="39.767784951254725" lon="2.9330142494291067">
        <ele>139.6</ele>
        <time>2021-04-29T07:36:44.000Z</time>
      </trkpt>
      <trkpt lat="39.76772418245673" lon="2.9330496210604906">
        <ele>139.4</ele>
        <time>2021-04-29T07:36:45.000Z</time>
      </trkpt>
      <trkpt lat="39.76760960184038" lon="2.9331173468381166">
        <ele>139</ele>
        <time>2021-04-29T07:36:47.000Z</time>
      </trkpt>
      <trkpt lat="39.76750172674656" lon="2.9331753496080637">
        <ele>138.8</ele>
        <time>2021-04-29T07:36:49.000Z</time>
      </trkpt>
      <trkpt lat="39.767443807795644" lon="2.933208290487528">
        <ele>138.2</ele>
        <time>2021-04-29T07:36:50.000Z</time>
      </trkpt>
      <trkpt lat="39.76733224466443" lon="2.933271573856473">
        <ele>137.2</ele>
        <time>2021-04-29T07:36:52.000Z</time>
      </trkpt>
      <trkpt lat="39.76722286082804" lon="2.933313651010394">
        <ele>135.8</ele>
        <time>2021-04-29T07:36:54.000Z</time>
      </trkpt>
      <trkpt lat="39.767164606601" lon="2.9333306662738323">
        <ele>135.2</ele>
        <time>2021-04-29T07:36:55.000Z</time>
      </trkpt>
      <trkpt lat="39.76710350252688" lon="2.9333494417369366">
        <ele>134.6</ele>
        <time>2021-04-29T07:36:56.000Z</time>
      </trkpt>
      <trkpt lat="39.76689194329083" lon="2.933440553024411">
        <ele>133.2</ele>
        <time>2021-04-29T07:36:59.000Z</time>
      </trkpt>
      <trkpt lat="39.76682254113257" lon="2.933472152799368">
        <ele>132.8</ele>
        <time>2021-04-29T07:37:00.000Z</time>
      </trkpt>
      <trkpt lat="39.76669077761471" lon="2.9335692152380943">
        <ele>131.8</ele>
        <time>2021-04-29T07:37:02.000Z</time>
      </trkpt>
      <trkpt lat="39.76657586172223" lon="2.933666529133916">
        <ele>131.2</ele>
        <time>2021-04-29T07:37:04.000Z</time>
      </trkpt>
      <trkpt lat="39.76651995442808" lon="2.933709444478154">
        <ele>131</ele>
        <time>2021-04-29T07:37:05.000Z</time>
      </trkpt>
      <trkpt lat="39.76642297580838" lon="2.933786390349269">
        <ele>131</ele>
        <time>2021-04-29T07:37:07.000Z</time>
      </trkpt>
      <trkpt lat="39.766382575035095" lon="2.9338138829916716">
        <ele>131</ele>
        <time>2021-04-29T07:37:08.000Z</time>
      </trkpt>
      <trkpt lat="39.766310742124915" lon="2.9338592290878296">
        <ele>131</ele>
        <time>2021-04-29T07:37:10.000Z</time>
      </trkpt>
      <trkpt lat="39.766094824299216" lon="2.9340541921555996">
        <ele>133</ele>
        <time>2021-04-29T07:37:16.000Z</time>
      </trkpt>
      <trkpt lat="39.766020476818085" lon="2.9341360833495855">
        <ele>133.6</ele>
        <time>2021-04-29T07:37:18.000Z</time>
      </trkpt>
      <trkpt lat="39.765987787395716" lon="2.934175729751587">
        <ele>133.8</ele>
        <time>2021-04-29T07:37:19.000Z</time>
      </trkpt>
      <trkpt lat="39.7659351490438" lon="2.934259967878461">
        <ele>134</ele>
        <time>2021-04-29T07:37:21.000Z</time>
      </trkpt>
      <trkpt lat="39.765891479328275" lon="2.9343468882143497">
        <ele>134.2</ele>
        <time>2021-04-29T07:37:23.000Z</time>
      </trkpt>
      <trkpt lat="39.765773797407746" lon="2.934555849060416">
        <ele>135</ele>
        <time>2021-04-29T07:37:29.000Z</time>
      </trkpt>
      <trkpt lat="39.76575091481209" lon="2.9345795698463917">
        <ele>135</ele>
        <time>2021-04-29T07:37:30.000Z</time>
      </trkpt>
      <trkpt lat="39.76562988013029" lon="2.9346906300634146">
        <ele>136.2</ele>
        <time>2021-04-29T07:37:35.000Z</time>
      </trkpt>
      <trkpt lat="39.76560791954398" lon="2.934712003916502">
        <ele>136.4</ele>
        <time>2021-04-29T07:37:36.000Z</time>
      </trkpt>
      <trkpt lat="39.76555896922946" lon="2.934756511822343">
        <ele>136.4</ele>
        <time>2021-04-29T07:37:38.000Z</time>
      </trkpt>
      <trkpt lat="39.76551747880876" lon="2.934794146567583">
        <ele>137</ele>
        <time>2021-04-29T07:37:40.000Z</time>
      </trkpt>
      <trkpt lat="39.7654945962131" lon="2.9348116647452116">
        <ele>137.2</ele>
        <time>2021-04-29T07:37:41.000Z</time>
      </trkpt>
      <trkpt lat="39.765451261773705" lon="2.9348512273281813">
        <ele>137.8</ele>
        <time>2021-04-29T07:37:43.000Z</time>
      </trkpt>
      <trkpt lat="39.765430893749" lon="2.9348744451999664">
        <ele>138.2</ele>
        <time>2021-04-29T07:37:44.000Z</time>
      </trkpt>
      <trkpt lat="39.76535998284817" lon="2.9349374771118164">
        <ele>138.8</ele>
        <time>2021-04-29T07:37:47.000Z</time>
      </trkpt>
      <trkpt lat="39.76531656458974" lon="2.934972932562232">
        <ele>139</ele>
        <time>2021-04-29T07:37:49.000Z</time>
      </trkpt>
      <trkpt lat="39.765296364203095" lon="2.9349895287305117">
        <ele>139.6</ele>
        <time>2021-04-29T07:37:50.000Z</time>
      </trkpt>
      <trkpt lat="39.76525688543916" lon="2.9350172728300095">
        <ele>140.2</ele>
        <time>2021-04-29T07:37:52.000Z</time>
      </trkpt>
      <trkpt lat="39.765223106369376" lon="2.935050129890442">
        <ele>141</ele>
        <time>2021-04-29T07:37:54.000Z</time>
      </trkpt>
      <trkpt lat="39.765171809121966" lon="2.935085166245699">
        <ele>142.2</ele>
        <time>2021-04-29T07:37:57.000Z</time>
      </trkpt>
      <trkpt lat="39.765071142464876" lon="2.9351650457829237">
        <ele>143.6</ele>
        <time>2021-04-29T07:38:03.000Z</time>
      </trkpt>
      <trkpt lat="39.76502940058708" lon="2.935235369950533">
        <ele>144.2</ele>
        <time>2021-04-29T07:38:06.000Z</time>
      </trkpt>
      <trkpt lat="39.76501800119877" lon="2.9352413211017847">
        <ele>144.2</ele>
        <time>2021-04-29T07:38:07.000Z</time>
      </trkpt>
      <trkpt lat="39.76500878110528" lon="2.9352301731705666">
        <ele>144.6</ele>
        <time>2021-04-29T07:38:08.000Z</time>
      </trkpt>
      <trkpt lat="39.76500391960144" lon="2.9352060332894325">
        <ele>144.6</ele>
        <time>2021-04-29T07:38:09.000Z</time>
      </trkpt>
      <trkpt lat="39.76500324904919" lon="2.9351483657956123">
        <ele>144.8</ele>
        <time>2021-04-29T07:38:11.000Z</time>
      </trkpt>
      <trkpt lat="39.765002159401774" lon="2.9350777063518763">
        <ele>144.8</ele>
        <time>2021-04-29T07:38:13.000Z</time>
      </trkpt>
      <trkpt lat="39.76500182412565" lon="2.9348791390657425">
        <ele>144.8</ele>
        <time>2021-04-29T07:38:17.000Z</time>
      </trkpt>
      <trkpt lat="39.76499067619443" lon="2.934755338355899">
        <ele>144.4</ele>
        <time>2021-04-29T07:38:19.000Z</time>
      </trkpt>
      <trkpt lat="39.764974331483245" lon="2.9346217308193445">
        <ele>143.8</ele>
        <time>2021-04-29T07:38:21.000Z</time>
      </trkpt>
      <trkpt lat="39.76495061069727" lon="2.9345321282744408">
        <ele>143.6</ele>
        <time>2021-04-29T07:38:22.000Z</time>
      </trkpt>
      <trkpt lat="39.76493049412966" lon="2.9344541765749454">
        <ele>143.4</ele>
        <time>2021-04-29T07:38:23.000Z</time>
      </trkpt>
      <trkpt lat="39.76489822380245" lon="2.9343180544674397">
        <ele>143.2</ele>
        <time>2021-04-29T07:38:25.000Z</time>
      </trkpt>
      <trkpt lat="39.7648817114532" lon="2.934249322861433">
        <ele>143.2</ele>
        <time>2021-04-29T07:38:26.000Z</time>
      </trkpt>
      <trkpt lat="39.76484885439277" lon="2.9341084230691195">
        <ele>142.6</ele>
        <time>2021-04-29T07:38:28.000Z</time>
      </trkpt>
      <trkpt lat="39.76481474004686" lon="2.933980179950595">
        <ele>142.2</ele>
        <time>2021-04-29T07:38:30.000Z</time>
      </trkpt>
      <trkpt lat="39.76477861404419" lon="2.9338801000267267">
        <ele>142.2</ele>
        <time>2021-04-29T07:38:32.000Z</time>
      </trkpt>
      <trkpt lat="39.76469345390797" lon="2.933563683182001">
        <ele>142.8</ele>
        <time>2021-04-29T07:38:39.000Z</time>
      </trkpt>
      <trkpt lat="39.76466587744653" lon="2.9334567300975323">
        <ele>143.6</ele>
        <time>2021-04-29T07:38:41.000Z</time>
      </trkpt>
      <trkpt lat="39.764640061184764" lon="2.9333433229476213">
        <ele>144.2</ele>
        <time>2021-04-29T07:38:43.000Z</time>
      </trkpt>
      <trkpt lat="39.7646261472255" lon="2.933234442025423">
        <ele>144.6</ele>
        <time>2021-04-29T07:38:45.000Z</time>
      </trkpt>
      <trkpt lat="39.76459898985922" lon="2.933133691549301">
        <ele>145</ele>
        <time>2021-04-29T07:38:47.000Z</time>
      </trkpt>
      <trkpt lat="39.76457141339779" lon="2.9330245591700077">
        <ele>145.4</ele>
        <time>2021-04-29T07:38:49.000Z</time>
      </trkpt>
      <trkpt lat="39.76454752497375" lon="2.9329171869903803">
        <ele>145.8</ele>
        <time>2021-04-29T07:38:51.000Z</time>
      </trkpt>
      <trkpt lat="39.76455255411565" lon="2.9327306896448135">
        <ele>147.2</ele>
        <time>2021-04-29T07:38:55.000Z</time>
      </trkpt>
      <trkpt lat="39.76463209837675" lon="2.9325428511947393">
        <ele>148.4</ele>
        <time>2021-04-29T07:39:00.000Z</time>
      </trkpt>
      <trkpt lat="39.76469362154603" lon="2.932439250871539">
        <ele>149.6</ele>
        <time>2021-04-29T07:39:03.000Z</time>
      </trkpt>
      <trkpt lat="39.764818428084254" lon="2.9322553519159555">
        <ele>150.6</ele>
        <time>2021-04-29T07:39:09.000Z</time>
      </trkpt>
      <trkpt lat="39.76488263346255" lon="2.9321763943880796">
        <ele>151</ele>
        <time>2021-04-29T07:39:12.000Z</time>
      </trkpt>
      <trkpt lat="39.764940552413464" lon="2.9320869594812393">
        <ele>151.8</ele>
        <time>2021-04-29T07:39:15.000Z</time>
      </trkpt>
      <trkpt lat="39.76495882496238" lon="2.9320471454411745">
        <ele>152.2</ele>
        <time>2021-04-29T07:39:16.000Z</time>
      </trkpt>
      <trkpt lat="39.76501515135169" lon="2.9318939242511988">
        <ele>152.8</ele>
        <time>2021-04-29T07:39:20.000Z</time>
      </trkpt>
      <trkpt lat="39.76503753103316" lon="2.9318301379680634">
        <ele>153.2</ele>
        <time>2021-04-29T07:39:22.000Z</time>
      </trkpt>
      <trkpt lat="39.76508597843349" lon="2.931628217920661">
        <ele>154</ele>
        <time>2021-04-29T07:39:27.000Z</time>
      </trkpt>
      <trkpt lat="39.7651285585016" lon="2.931419424712658">
        <ele>154.4</ele>
        <time>2021-04-29T07:39:32.000Z</time>
      </trkpt>
      <trkpt lat="39.76516216993332" lon="2.931211804971099">
        <ele>155.6</ele>
        <time>2021-04-29T07:39:37.000Z</time>
      </trkpt>
      <trkpt lat="39.76517382077873" lon="2.9311259742826223">
        <ele>155.8</ele>
        <time>2021-04-29T07:39:39.000Z</time>
      </trkpt>
      <trkpt lat="39.765183459967375" lon="2.9309569112956524">
        <ele>156.6</ele>
        <time>2021-04-29T07:39:43.000Z</time>
      </trkpt>
      <trkpt lat="39.76517281495035" lon="2.9307845793664455">
        <ele>157.8</ele>
        <time>2021-04-29T07:39:47.000Z</time>
      </trkpt>
      <trkpt lat="39.76509461179376" lon="2.9304500576108694">
        <ele>158.6</ele>
        <time>2021-04-29T07:39:54.000Z</time>
      </trkpt>
      <trkpt lat="39.76506259292364" lon="2.930352156981826">
        <ele>159</ele>
        <time>2021-04-29T07:39:56.000Z</time>
      </trkpt>
      <trkpt lat="39.76491649635136" lon="2.929972540587187">
        <ele>159.6</ele>
        <time>2021-04-29T07:40:04.000Z</time>
      </trkpt>
      <trkpt lat="39.764847764745355" lon="2.92978847399354">
        <ele>159.8</ele>
        <time>2021-04-29T07:40:08.000Z</time>
      </trkpt>
      <trkpt lat="39.76480317302048" lon="2.9296533577144146">
        <ele>160</ele>
        <time>2021-04-29T07:40:11.000Z</time>
      </trkpt>
      <trkpt lat="39.764762772247195" lon="2.929530143737793">
        <ele>160.4</ele>
        <time>2021-04-29T07:40:14.000Z</time>
      </trkpt>
      <trkpt lat="39.76470577530563" lon="2.9293332528322935">
        <ele>161</ele>
        <time>2021-04-29T07:40:19.000Z</time>
      </trkpt>
      <trkpt lat="39.76469370536506" lon="2.929293941706419">
        <ele>161</ele>
        <time>2021-04-29T07:40:20.000Z</time>
      </trkpt>
      <trkpt lat="39.76464559324086" lon="2.9291347693651915">
        <ele>162</ele>
        <time>2021-04-29T07:40:24.000Z</time>
      </trkpt>
      <trkpt lat="39.7646348644048" lon="2.9290958773344755">
        <ele>162.2</ele>
        <time>2021-04-29T07:40:25.000Z</time>
      </trkpt>
      <trkpt lat="39.76459069177508" lon="2.9289408959448338">
        <ele>163.4</ele>
        <time>2021-04-29T07:40:29.000Z</time>
      </trkpt>
      <trkpt lat="39.76456018164754" lon="2.9288192745298147">
        <ele>164</ele>
        <time>2021-04-29T07:40:32.000Z</time>
      </trkpt>
      <trkpt lat="39.76453478448093" lon="2.9287366289645433">
        <ele>164.4</ele>
        <time>2021-04-29T07:40:34.000Z</time>
      </trkpt>
      <trkpt lat="39.76446898654103" lon="2.9285168554633856">
        <ele>165.2</ele>
        <time>2021-04-29T07:40:39.000Z</time>
      </trkpt>
      <trkpt lat="39.76437510922551" lon="2.9282456170767546">
        <ele>165.4</ele>
        <time>2021-04-29T07:40:45.000Z</time>
      </trkpt>
      <trkpt lat="39.7643618658185" lon="2.9282002709805965">
        <ele>165.4</ele>
        <time>2021-04-29T07:40:46.000Z</time>
      </trkpt>
      <trkpt lat="39.764349376782775" lon="2.928155092522502">
        <ele>165.8</ele>
        <time>2021-04-29T07:40:47.000Z</time>
      </trkpt>
      <trkpt lat="39.76432213559747" lon="2.9280689265578985">
        <ele>166.6</ele>
        <time>2021-04-29T07:40:49.000Z</time>
      </trkpt>
      <trkpt lat="39.764253152534366" lon="2.927868263795972">
        <ele>167.6</ele>
        <time>2021-04-29T07:40:54.000Z</time>
      </trkpt>
      <trkpt lat="39.76422783918679" lon="2.9277891386300325">
        <ele>167.8</ele>
        <time>2021-04-29T07:40:56.000Z</time>
      </trkpt>
      <trkpt lat="39.76415868848562" lon="2.9275797586888075">
        <ele>168.8</ele>
        <time>2021-04-29T07:41:01.000Z</time>
      </trkpt>
      <trkpt lat="39.764117281883955" lon="2.927457131445408">
        <ele>169.4</ele>
        <time>2021-04-29T07:41:04.000Z</time>
      </trkpt>
      <trkpt lat="39.7640785574913" lon="2.927341377362609">
        <ele>170</ele>
        <time>2021-04-29T07:41:07.000Z</time>
      </trkpt>
      <trkpt lat="39.76400513201952" lon="2.9271165747195482">
        <ele>171</ele>
        <time>2021-04-29T07:41:13.000Z</time>
      </trkpt>
      <trkpt lat="39.763979986310005" lon="2.92704239487648">
        <ele>171.6</ele>
        <time>2021-04-29T07:41:15.000Z</time>
      </trkpt>
      <trkpt lat="39.763955092057586" lon="2.926970897242427">
        <ele>172</ele>
        <time>2021-04-29T07:41:17.000Z</time>
      </trkpt>
      <trkpt lat="39.76389608345926" lon="2.926779370754957">
        <ele>173.2</ele>
        <time>2021-04-29T07:41:22.000Z</time>
      </trkpt>
      <trkpt lat="39.76386783644557" lon="2.9266570787876844">
        <ele>173.6</ele>
        <time>2021-04-29T07:41:25.000Z</time>
      </trkpt>
      <trkpt lat="39.76384629495442" lon="2.9264848306775093">
        <ele>174.2</ele>
        <time>2021-04-29T07:41:29.000Z</time>
      </trkpt>
      <trkpt lat="39.76384151726961" lon="2.926308559253812">
        <ele>174.6</ele>
        <time>2021-04-29T07:41:33.000Z</time>
      </trkpt>
      <trkpt lat="39.76386305876076" lon="2.9261162783950567">
        <ele>174.8</ele>
        <time>2021-04-29T07:41:37.000Z</time>
      </trkpt>
      <trkpt lat="39.76388870738447" lon="2.926021311432123">
        <ele>175.2</ele>
        <time>2021-04-29T07:41:39.000Z</time>
      </trkpt>
      <trkpt lat="39.76390630938113" lon="2.9259799886494875">
        <ele>175.4</ele>
        <time>2021-04-29T07:41:40.000Z</time>
      </trkpt>
      <trkpt lat="39.76399063132703" lon="2.9258345626294613">
        <ele>175.6</ele>
        <time>2021-04-29T07:41:44.000Z</time>
      </trkpt>
      <trkpt lat="39.76415868848562" lon="2.925578663125634">
        <ele>176.2</ele>
        <time>2021-04-29T07:41:50.000Z</time>
      </trkpt>
      <trkpt lat="39.76424502208829" lon="2.9254187364131212">
        <ele>176.4</ele>
        <time>2021-04-29T07:41:53.000Z</time>
      </trkpt>
      <trkpt lat="39.764340156689286" lon="2.925260066986084">
        <ele>176.4</ele>
        <time>2021-04-29T07:41:56.000Z</time>
      </trkpt>
      <trkpt lat="39.764379719272256" lon="2.9252130445092916">
        <ele>176.4</ele>
        <time>2021-04-29T07:41:57.000Z</time>
      </trkpt>
      <trkpt lat="39.76461684331298" lon="2.9247545544058084">
        <ele>176.4</ele>
        <time>2021-04-29T07:42:04.000Z</time>
      </trkpt>
      <trkpt lat="39.76468029431999" lon="2.9246167559176683">
        <ele>176.2</ele>
        <time>2021-04-29T07:42:06.000Z</time>
      </trkpt>
      <trkpt lat="39.76472874172032" lon="2.9244812205433846">
        <ele>176.2</ele>
        <time>2021-04-29T07:42:08.000Z</time>
      </trkpt>
      <trkpt lat="39.76475455798209" lon="2.9243357945233583">
        <ele>176.2</ele>
        <time>2021-04-29T07:42:10.000Z</time>
      </trkpt>
      <trkpt lat="39.76475371979177" lon="2.924122055992484">
        <ele>176.2</ele>
        <time>2021-04-29T07:42:13.000Z</time>
      </trkpt>
      <trkpt lat="39.76474307477474" lon="2.9239932261407375">
        <ele>176.2</ele>
        <time>2021-04-29T07:42:15.000Z</time>
      </trkpt>
      <trkpt lat="39.76473066955805" lon="2.9238588642328978">
        <ele>176.2</ele>
        <time>2021-04-29T07:42:17.000Z</time>
      </trkpt>
      <trkpt lat="39.76472496986389" lon="2.923670941963792">
        <ele>176.6</ele>
        <time>2021-04-29T07:42:20.000Z</time>
      </trkpt>
      <trkpt lat="39.764726059511304" lon="2.923606401309371">
        <ele>176.8</ele>
        <time>2021-04-29T07:42:21.000Z</time>
      </trkpt>
      <trkpt lat="39.76472991518676" lon="2.9235447105020285">
        <ele>177</ele>
        <time>2021-04-29T07:42:22.000Z</time>
      </trkpt>
      <trkpt lat="39.76474978029728" lon="2.923426106572151">
        <ele>177.4</ele>
        <time>2021-04-29T07:42:24.000Z</time>
      </trkpt>
      <trkpt lat="39.76477811113" lon="2.9233141243457794">
        <ele>177.6</ele>
        <time>2021-04-29T07:42:26.000Z</time>
      </trkpt>
      <trkpt lat="39.76485061459243" lon="2.92297700420022">
        <ele>178.8</ele>
        <time>2021-04-29T07:42:31.000Z</time>
      </trkpt>
      <trkpt lat="39.7648576553911" lon="2.9229091107845306">
        <ele>179</ele>
        <time>2021-04-29T07:42:32.000Z</time>
      </trkpt>
      <trkpt lat="39.76484508253634" lon="2.922695456072688">
        <ele>179.8</ele>
        <time>2021-04-29T07:42:35.000Z</time>
      </trkpt>
      <trkpt lat="39.76483250968158" lon="2.922625718638301">
        <ele>180</ele>
        <time>2021-04-29T07:42:36.000Z</time>
      </trkpt>
      <trkpt lat="39.76479319855571" lon="2.922497307881713">
        <ele>180.2</ele>
        <time>2021-04-29T07:42:38.000Z</time>
      </trkpt>
      <trkpt lat="39.76471608504653" lon="2.9222574178129435">
        <ele>180.4</ele>
        <time>2021-04-29T07:42:42.000Z</time>
      </trkpt>
      <trkpt lat="39.76469018496573" lon="2.922122720628977">
        <ele>180.4</ele>
        <time>2021-04-29T07:42:44.000Z</time>
      </trkpt>
      <trkpt lat="39.76468683220446" lon="2.9219005163758993">
        <ele>180.6</ele>
        <time>2021-04-29T07:42:47.000Z</time>
      </trkpt>
      <trkpt lat="39.76470535621047" lon="2.9217410925775766">
        <ele>181</ele>
        <time>2021-04-29T07:42:49.000Z</time>
      </trkpt>
      <trkpt lat="39.76473083719611" lon="2.9213945008814335">
        <ele>181.2</ele>
        <time>2021-04-29T07:42:53.000Z</time>
      </trkpt>
      <trkpt lat="39.76468331180513" lon="2.9208549577742815">
        <ele>181.2</ele>
        <time>2021-04-29T07:42:59.000Z</time>
      </trkpt>
      <trkpt lat="39.764578035101295" lon="2.920253472402692">
        <ele>180.4</ele>
        <time>2021-04-29T07:43:06.000Z</time>
      </trkpt>
      <trkpt lat="39.76451810449362" lon="2.920094719156623">
        <ele>180.2</ele>
        <time>2021-04-29T07:43:08.000Z</time>
      </trkpt>
      <trkpt lat="39.76439539343119" lon="2.9198748618364334">
        <ele>180</ele>
        <time>2021-04-29T07:43:11.000Z</time>
      </trkpt>
      <trkpt lat="39.76423529908061" lon="2.9196700919419527">
        <ele>179.8</ele>
        <time>2021-04-29T07:43:14.000Z</time>
      </trkpt>
      <trkpt lat="39.76410076953471" lon="2.919545117765665">
        <ele>179.6</ele>
        <time>2021-04-29T07:43:16.000Z</time>
      </trkpt>
      <trkpt lat="39.76395810954273" lon="2.919419975951314">
        <ele>179.2</ele>
        <time>2021-04-29T07:43:18.000Z</time>
      </trkpt>
      <trkpt lat="39.76381586864591" lon="2.919273544102907">
        <ele>178.6</ele>
        <time>2021-04-29T07:43:20.000Z</time>
      </trkpt>
      <trkpt lat="39.76375292055309" lon="2.9191806726157665">
        <ele>178.2</ele>
        <time>2021-04-29T07:43:21.000Z</time>
      </trkpt>
      <trkpt lat="39.76364102214575" lon="2.9188196640461683">
        <ele>177.2</ele>
        <time>2021-04-29T07:43:24.000Z</time>
      </trkpt>
      <trkpt lat="39.76362165994942" lon="2.9186867270618677">
        <ele>176.6</ele>
        <time>2021-04-29T07:43:25.000Z</time>
      </trkpt>
      <trkpt lat="39.76358788087964" lon="2.918416829779744">
        <ele>175.6</ele>
        <time>2021-04-29T07:43:27.000Z</time>
      </trkpt>
      <trkpt lat="39.76355770602822" lon="2.918136203661561">
        <ele>174.2</ele>
        <time>2021-04-29T07:43:29.000Z</time>
      </trkpt>
      <trkpt lat="39.76352535188198" lon="2.917845770716667">
        <ele>172.6</ele>
        <time>2021-04-29T07:43:31.000Z</time>
      </trkpt>
      <trkpt lat="39.76351252757013" lon="2.9175482131540775">
        <ele>171.2</ele>
        <time>2021-04-29T07:43:33.000Z</time>
      </trkpt>
      <trkpt lat="39.76352929137647" lon="2.91725124232471">
        <ele>169.8</ele>
        <time>2021-04-29T07:43:35.000Z</time>
      </trkpt>
      <trkpt lat="39.76354639045894" lon="2.917105732485652">
        <ele>169.2</ele>
        <time>2021-04-29T07:43:36.000Z</time>
      </trkpt>
      <trkpt lat="39.763579247519374" lon="2.91696734726429">
        <ele>168.6</ele>
        <time>2021-04-29T07:43:37.000Z</time>
      </trkpt>
      <trkpt lat="39.763633562251925" lon="2.9168420378118753">
        <ele>168</ele>
        <time>2021-04-29T07:43:38.000Z</time>
      </trkpt>
      <trkpt lat="39.76370430551469" lon="2.9167289659380913">
        <ele>167.2</ele>
        <time>2021-04-29T07:43:39.000Z</time>
      </trkpt>
      <trkpt lat="39.763836739584804" lon="2.9164921771734953">
        <ele>165.6</ele>
        <time>2021-04-29T07:43:41.000Z</time>
      </trkpt>
      <trkpt lat="39.76388216949999" lon="2.9163551330566406">
        <ele>164.4</ele>
        <time>2021-04-29T07:43:42.000Z</time>
      </trkpt>
      <trkpt lat="39.763921899721026" lon="2.9160496965050697">
        <ele>163.4</ele>
        <time>2021-04-29T07:43:44.000Z</time>
      </trkpt>
      <trkpt lat="39.763916535303" lon="2.915888261049986">
        <ele>163</ele>
        <time>2021-04-29T07:43:45.000Z</time>
      </trkpt>
      <trkpt lat="39.763860711827874" lon="2.91556597687304">
        <ele>162.4</ele>
        <time>2021-04-29T07:43:47.000Z</time>
      </trkpt>
      <trkpt lat="39.763819221407175" lon="2.915406972169876">
        <ele>162.2</ele>
        <time>2021-04-29T07:43:48.000Z</time>
      </trkpt>
      <trkpt lat="39.76377513259649" lon="2.9152484703809023">
        <ele>161.8</ele>
        <time>2021-04-29T07:43:49.000Z</time>
      </trkpt>
      <trkpt lat="39.763634065166116" lon="2.914769444614649">
        <ele>160.4</ele>
        <time>2021-04-29T07:43:52.000Z</time>
      </trkpt>
      <trkpt lat="39.763533314689994" lon="2.91444456204772">
        <ele>158.8</ele>
        <time>2021-04-29T07:43:54.000Z</time>
      </trkpt>
      <trkpt lat="39.76348000578582" lon="2.9142788518220186">
        <ele>157.6</ele>
        <time>2021-04-29T07:43:55.000Z</time>
      </trkpt>
      <trkpt lat="39.76337104104459" lon="2.913930919021368">
        <ele>155</ele>
        <time>2021-04-29T07:43:57.000Z</time>
      </trkpt>
      <trkpt lat="39.7633137088269" lon="2.913750121369958">
        <ele>153</ele>
        <time>2021-04-29T07:43:58.000Z</time>
      </trkpt>
      <trkpt lat="39.76325545459986" lon="2.913570748642087">
        <ele>151.2</ele>
        <time>2021-04-29T07:43:59.000Z</time>
      </trkpt>
      <trkpt lat="39.76319803856313" lon="2.913394309580326">
        <ele>149.6</ele>
        <time>2021-04-29T07:44:00.000Z</time>
      </trkpt>
      <trkpt lat="39.7631392814219" lon="2.9132224805653095">
        <ele>148.2</ele>
        <time>2021-04-29T07:44:01.000Z</time>
      </trkpt>
      <trkpt lat="39.763079853728414" lon="2.913054758682847">
        <ele>147</ele>
        <time>2021-04-29T07:44:02.000Z</time>
      </trkpt>
      <trkpt lat="39.76302285678685" lon="2.9128906410187483">
        <ele>145.6</ele>
        <time>2021-04-29T07:44:03.000Z</time>
      </trkpt>
      <trkpt lat="39.76296812295914" lon="2.912732558324933">
        <ele>144.6</ele>
        <time>2021-04-29T07:44:04.000Z</time>
      </trkpt>
      <trkpt lat="39.76291581988335" lon="2.9125816840678453">
        <ele>143.8</ele>
        <time>2021-04-29T07:44:05.000Z</time>
      </trkpt>
      <trkpt lat="39.76286502555013" lon="2.9124388564378023">
        <ele>142.6</ele>
        <time>2021-04-29T07:44:06.000Z</time>
      </trkpt>
      <trkpt lat="39.76281783543527" lon="2.912301644682884">
        <ele>140.4</ele>
        <time>2021-04-29T07:44:07.000Z</time>
      </trkpt>
      <trkpt lat="39.76277433335781" lon="2.912172731012106">
        <ele>138.6</ele>
        <time>2021-04-29T07:44:08.000Z</time>
      </trkpt>
      <trkpt lat="39.762729071080685" lon="2.912055803462863">
        <ele>137.6</ele>
        <time>2021-04-29T07:44:09.000Z</time>
      </trkpt>
      <trkpt lat="39.76267567835748" lon="2.9119522031396627">
        <ele>136.8</ele>
        <time>2021-04-29T07:44:10.000Z</time>
      </trkpt>
      <trkpt lat="39.76254282519221" lon="2.911800742149353">
        <ele>136.6</ele>
        <time>2021-04-29T07:44:12.000Z</time>
      </trkpt>
      <trkpt lat="39.76229731924832" lon="2.9117116425186396">
        <ele>136.6</ele>
        <time>2021-04-29T07:44:15.000Z</time>
      </trkpt>
      <trkpt lat="39.76221274584532" lon="2.9117014165967703">
        <ele>136.4</ele>
        <time>2021-04-29T07:44:16.000Z</time>
      </trkpt>
      <trkpt lat="39.76171117275953" lon="2.911683563143015">
        <ele>136.2</ele>
        <time>2021-04-29T07:44:22.000Z</time>
      </trkpt>
      <trkpt lat="39.76131579838693" lon="2.911671996116638">
        <ele>136.2</ele>
        <time>2021-04-29T07:44:27.000Z</time>
      </trkpt>
      <trkpt lat="39.76120490580797" lon="2.91166378185153">
        <ele>135.8</ele>
        <time>2021-04-29T07:44:29.000Z</time>
      </trkpt>
      <trkpt lat="39.76116660051048" lon="2.9116429947316647">
        <ele>135.4</ele>
        <time>2021-04-29T07:44:30.000Z</time>
      </trkpt>
      <trkpt lat="39.761164924129844" lon="2.911529168486595">
        <ele>135</ele>
        <time>2021-04-29T07:44:33.000Z</time>
      </trkpt>
      <trkpt lat="39.7612240165472" lon="2.9114757757633924">
        <ele>135</ele>
        <time>2021-04-29T07:44:35.000Z</time>
      </trkpt>
      <trkpt lat="39.761293502524495" lon="2.911412576213479">
        <ele>135</ele>
        <time>2021-04-29T07:44:37.000Z</time>
      </trkpt>
      <trkpt lat="39.76137346588075" lon="2.9113399889320135">
        <ele>135</ele>
        <time>2021-04-29T07:44:39.000Z</time>
      </trkpt>
      <trkpt lat="39.76145301014185" lon="2.911264803260565">
        <ele>135.2</ele>
        <time>2021-04-29T07:44:41.000Z</time>
      </trkpt>
      <trkpt lat="39.761523166671395" lon="2.911184588447213">
        <ele>135.4</ele>
        <time>2021-04-29T07:44:43.000Z</time>
      </trkpt>
      <trkpt lat="39.76155602373183" lon="2.911149300634861">
        <ele>135.6</ele>
        <time>2021-04-29T07:44:44.000Z</time>
      </trkpt>
      <trkpt lat="39.761651158332825" lon="2.9110369831323624">
        <ele>135.8</ele>
        <time>2021-04-29T07:44:47.000Z</time>
      </trkpt>
      <trkpt lat="39.76176138035953" lon="2.9108768049627542">
        <ele>136.4</ele>
        <time>2021-04-29T07:44:51.000Z</time>
      </trkpt>
      <trkpt lat="39.76179021410644" lon="2.910838918760419">
        <ele>136.6</ele>
        <time>2021-04-29T07:44:52.000Z</time>
      </trkpt>
      <trkpt lat="39.76192717440426" lon="2.9106293711811304">
        <ele>137.6</ele>
        <time>2021-04-29T07:44:57.000Z</time>
      </trkpt>
      <trkpt lat="39.76197587326169" lon="2.9105396009981632">
        <ele>138</ele>
        <time>2021-04-29T07:44:59.000Z</time>
      </trkpt>
      <trkpt lat="39.76206321269274" lon="2.9103413689881563">
        <ele>138.4</ele>
        <time>2021-04-29T07:45:03.000Z</time>
      </trkpt>
      <trkpt lat="39.76211794652045" lon="2.910177167505026">
        <ele>139</ele>
        <time>2021-04-29T07:45:06.000Z</time>
      </trkpt>
      <trkpt lat="39.76215943694115" lon="2.9100049193948507">
        <ele>139.2</ele>
        <time>2021-04-29T07:45:09.000Z</time>
      </trkpt>
      <trkpt lat="39.76215315051377" lon="2.909813979640603">
        <ele>139.6</ele>
        <time>2021-04-29T07:45:12.000Z</time>
      </trkpt>
      <trkpt lat="39.76211710833013" lon="2.909685652703047">
        <ele>139.6</ele>
        <time>2021-04-29T07:45:14.000Z</time>
      </trkpt>
      <trkpt lat="39.762025410309434" lon="2.909438470378518">
        <ele>139.8</ele>
        <time>2021-04-29T07:45:18.000Z</time>
      </trkpt>
      <trkpt lat="39.76188836619258" lon="2.9089928045868874">
        <ele>139.8</ele>
        <time>2021-04-29T07:45:25.000Z</time>
      </trkpt>
      <trkpt lat="39.76188752800226" lon="2.9085851088166237">
        <ele>139.8</ele>
        <time>2021-04-29T07:45:31.000Z</time>
      </trkpt>
      <trkpt lat="39.761923821642995" lon="2.9083896428346634">
        <ele>139.8</ele>
        <time>2021-04-29T07:45:34.000Z</time>
      </trkpt>
      <trkpt lat="39.7619772143662" lon="2.908276403322816">
        <ele>140</ele>
        <time>2021-04-29T07:45:36.000Z</time>
      </trkpt>
      <trkpt lat="39.76205357350409" lon="2.9081887286156416">
        <ele>140.2</ele>
        <time>2021-04-29T07:45:38.000Z</time>
      </trkpt>
      <trkpt lat="39.762216014787555" lon="2.908042799681425">
        <ele>140.4</ele>
        <time>2021-04-29T07:45:42.000Z</time>
      </trkpt>
      <trkpt lat="39.76232875138521" lon="2.907943222671747">
        <ele>140.8</ele>
        <time>2021-04-29T07:45:45.000Z</time>
      </trkpt>
      <trkpt lat="39.76243620738387" lon="2.9078475013375282">
        <ele>141.2</ele>
        <time>2021-04-29T07:45:48.000Z</time>
      </trkpt>
      <trkpt lat="39.762541903182864" lon="2.907758066430688">
        <ele>141.8</ele>
        <time>2021-04-29T07:45:51.000Z</time>
      </trkpt>
      <trkpt lat="39.7626175917685" lon="2.9076972138136625">
        <ele>142.2</ele>
        <time>2021-04-29T07:45:53.000Z</time>
      </trkpt>
      <trkpt lat="39.76265606470406" lon="2.9076698888093233">
        <ele>142.4</ele>
        <time>2021-04-29T07:45:54.000Z</time>
      </trkpt>
      <trkpt lat="39.762816578149796" lon="2.9075706470757723">
        <ele>143</ele>
        <time>2021-04-29T07:45:58.000Z</time>
      </trkpt>
      <trkpt lat="39.76289838552475" lon="2.9075196851044893">
        <ele>143.2</ele>
        <time>2021-04-29T07:46:00.000Z</time>
      </trkpt>
      <trkpt lat="39.76318513043225" lon="2.907343665137887">
        <ele>144</ele>
        <time>2021-04-29T07:46:07.000Z</time>
      </trkpt>
      <trkpt lat="39.76326584815979" lon="2.907290607690811">
        <ele>144.4</ele>
        <time>2021-04-29T07:46:09.000Z</time>
      </trkpt>
      <trkpt lat="39.76355762220919" lon="2.90711123496294">
        <ele>145.2</ele>
        <time>2021-04-29T07:46:16.000Z</time>
      </trkpt>
      <trkpt lat="39.76363867521286" lon="2.9070649668574333">
        <ele>145.4</ele>
        <time>2021-04-29T07:46:18.000Z</time>
      </trkpt>
      <trkpt lat="39.76372232660651" lon="2.907019956037402">
        <ele>145.6</ele>
        <time>2021-04-29T07:46:20.000Z</time>
      </trkpt>
      <trkpt lat="39.763933047652245" lon="2.9069165233522654">
        <ele>146.2</ele>
        <time>2021-04-29T07:46:25.000Z</time>
      </trkpt>
      <trkpt lat="39.76401678286493" lon="2.906876541674137">
        <ele>146.6</ele>
        <time>2021-04-29T07:46:27.000Z</time>
      </trkpt>
      <trkpt lat="39.76418098434806" lon="2.9068089835345745">
        <ele>147</ele>
        <time>2021-04-29T07:46:31.000Z</time>
      </trkpt>
      <trkpt lat="39.76426036097109" lon="2.906771767884493">
        <ele>147.2</ele>
        <time>2021-04-29T07:46:33.000Z</time>
      </trkpt>
      <trkpt lat="39.76441752165556" lon="2.906688619405031">
        <ele>147.6</ele>
        <time>2021-04-29T07:46:37.000Z</time>
      </trkpt>
      <trkpt lat="39.764576107263565" lon="2.906597424298525">
        <ele>148</ele>
        <time>2021-04-29T07:46:41.000Z</time>
      </trkpt>
      <trkpt lat="39.76469957269728" lon="2.9065203946083784">
        <ele>148.8</ele>
        <time>2021-04-29T07:46:44.000Z</time>
      </trkpt>
      <trkpt lat="39.76488992571831" lon="2.9063991084694862">
        <ele>149.4</ele>
        <time>2021-04-29T07:46:49.000Z</time>
      </trkpt>
      <trkpt lat="39.76500106975436" lon="2.906323168426752">
        <ele>149.6</ele>
        <time>2021-04-29T07:46:52.000Z</time>
      </trkpt>
      <trkpt lat="39.76510073058307" lon="2.906231554225087">
        <ele>149.8</ele>
        <time>2021-04-29T07:46:55.000Z</time>
      </trkpt>
      <trkpt lat="39.765160996466875" lon="2.906159218400717">
        <ele>150.2</ele>
        <time>2021-04-29T07:46:57.000Z</time>
      </trkpt>
      <trkpt lat="39.765355456620455" lon="2.9058736469596624">
        <ele>150.8</ele>
        <time>2021-04-29T07:47:04.000Z</time>
      </trkpt>
      <trkpt lat="39.765446903184056" lon="2.905770130455494">
        <ele>151.2</ele>
        <time>2021-04-29T07:47:07.000Z</time>
      </trkpt>
      <trkpt lat="39.76554857566953" lon="2.9056842997670174">
        <ele>151.6</ele>
        <time>2021-04-29T07:47:10.000Z</time>
      </trkpt>
      <trkpt lat="39.76569970138371" lon="2.9055985528975725">
        <ele>151.8</ele>
        <time>2021-04-29T07:47:14.000Z</time>
      </trkpt>
      <trkpt lat="39.76574135944247" lon="2.9055796936154366">
        <ele>152</ele>
        <time>2021-04-29T07:47:15.000Z</time>
      </trkpt>
      <trkpt lat="39.765989715233445" lon="2.9054600838571787">
        <ele>152.6</ele>
        <time>2021-04-29T07:47:21.000Z</time>
      </trkpt>
      <trkpt lat="39.76603112183511" lon="2.9054369498044252">
        <ele>152.8</ele>
        <time>2021-04-29T07:47:22.000Z</time>
      </trkpt>
      <trkpt lat="39.76615274325013" lon="2.9053606744855642">
        <ele>153</ele>
        <time>2021-04-29T07:47:25.000Z</time>
      </trkpt>
      <trkpt lat="39.76642331108451" lon="2.905144253745675">
        <ele>154.2</ele>
        <time>2021-04-29T07:47:32.000Z</time>
      </trkpt>
      <trkpt lat="39.76670393720269" lon="2.9048940539360046">
        <ele>155.2</ele>
        <time>2021-04-29T07:47:39.000Z</time>
      </trkpt>
      <trkpt lat="39.76678490638733" lon="2.904818281531334">
        <ele>155.6</ele>
        <time>2021-04-29T07:47:41.000Z</time>
      </trkpt>
      <trkpt lat="39.7670211084187" lon="2.9045869410037994">
        <ele>156</ele>
        <time>2021-04-29T07:47:47.000Z</time>
      </trkpt>
      <trkpt lat="39.7671336773783" lon="2.904473030939698">
        <ele>156.2</ele>
        <time>2021-04-29T07:47:50.000Z</time>
      </trkpt>
      <trkpt lat="39.76720668375492" lon="2.904399437829852">
        <ele>156.4</ele>
        <time>2021-04-29T07:47:52.000Z</time>
      </trkpt>
      <trkpt lat="39.767428720369935" lon="2.904188046231866">
        <ele>157</ele>
        <time>2021-04-29T07:47:58.000Z</time>
      </trkpt>
      <trkpt lat="39.76746476255357" lon="2.9041525907814503">
        <ele>157.2</ele>
        <time>2021-04-29T07:47:59.000Z</time>
      </trkpt>
      <trkpt lat="39.7675739787519" lon="2.9040468111634254">
        <ele>157.4</ele>
        <time>2021-04-29T07:48:02.000Z</time>
      </trkpt>
      <trkpt lat="39.76768051274121" lon="2.903934996575117">
        <ele>157.6</ele>
        <time>2021-04-29T07:48:05.000Z</time>
      </trkpt>
      <trkpt lat="39.76778159849346" lon="2.9038209188729525">
        <ele>158</ele>
        <time>2021-04-29T07:48:08.000Z</time>
      </trkpt>
      <trkpt lat="39.767868435010314" lon="2.9036893229931593">
        <ele>158.4</ele>
        <time>2021-04-29T07:48:11.000Z</time>
      </trkpt>
      <trkpt lat="39.76798402145505" lon="2.9035119619220495">
        <ele>159</ele>
        <time>2021-04-29T07:48:15.000Z</time>
      </trkpt>
      <trkpt lat="39.7681041341275" lon="2.9033406358212233">
        <ele>159.2</ele>
        <time>2021-04-29T07:48:19.000Z</time>
      </trkpt>
      <trkpt lat="39.76816641166806" lon="2.903262684121728">
        <ele>159.6</ele>
        <time>2021-04-29T07:48:21.000Z</time>
      </trkpt>
      <trkpt lat="39.76822407916188" lon="2.9031814634799957">
        <ele>160</ele>
        <time>2021-04-29T07:48:23.000Z</time>
      </trkpt>
      <trkpt lat="39.768328350037336" lon="2.903010891750455">
        <ele>160.6</ele>
        <time>2021-04-29T07:48:27.000Z</time>
      </trkpt>
      <trkpt lat="39.76837260648608" lon="2.9029222950339317">
        <ele>161</ele>
        <time>2021-04-29T07:48:29.000Z</time>
      </trkpt>
      <trkpt lat="39.768406888470054" lon="2.9028265736997128">
        <ele>161.4</ele>
        <time>2021-04-29T07:48:31.000Z</time>
      </trkpt>
      <trkpt lat="39.76847067475319" lon="2.9027047846466303">
        <ele>161.8</ele>
        <time>2021-04-29T07:48:34.000Z</time>
      </trkpt>
      <trkpt lat="39.768554074689746" lon="2.9025957360863686">
        <ele>162.2</ele>
        <time>2021-04-29T07:48:37.000Z</time>
      </trkpt>
      <trkpt lat="39.76861207745969" lon="2.90252935141325">
        <ele>162.4</ele>
        <time>2021-04-29T07:48:39.000Z</time>
      </trkpt>
      <trkpt lat="39.76866614073515" lon="2.9024687502533197">
        <ele>162.6</ele>
        <time>2021-04-29T07:48:41.000Z</time>
      </trkpt>
      <trkpt lat="39.76873956620693" lon="2.9024067241698503">
        <ele>162.8</ele>
        <time>2021-04-29T07:48:44.000Z</time>
      </trkpt>
      <trkpt lat="39.76886797696352" lon="2.9023624677211046">
        <ele>162.8</ele>
        <time>2021-04-29T07:48:48.000Z</time>
      </trkpt>
      <trkpt lat="39.768908880651" lon="2.9023545049130917">
        <ele>162.8</ele>
        <time>2021-04-29T07:48:49.000Z</time>
      </trkpt>
      <trkpt lat="39.76903762668371" lon="2.9023277666419744">
        <ele>162.8</ele>
        <time>2021-04-29T07:48:52.000Z</time>
      </trkpt>
      <trkpt lat="39.76933116093278" lon="2.9022532515227795">
        <ele>163</ele>
        <time>2021-04-29T07:48:59.000Z</time>
      </trkpt>
      <trkpt lat="39.769522435963154" lon="2.9022063966840506">
        <ele>164</ele>
        <time>2021-04-29T07:49:04.000Z</time>
      </trkpt>
      <trkpt lat="39.76956392638385" lon="2.9021951649338007">
        <ele>164.2</ele>
        <time>2021-04-29T07:49:05.000Z</time>
      </trkpt>
      <trkpt lat="39.769678339362144" lon="2.9021687619388103">
        <ele>164.6</ele>
        <time>2021-04-29T07:49:08.000Z</time>
      </trkpt>
      <trkpt lat="39.76971144787967" lon="2.902163816615939">
        <ele>165</ele>
        <time>2021-04-29T07:49:09.000Z</time>
      </trkpt>
      <trkpt lat="39.769808845594525" lon="2.9021742939949036">
        <ele>165.6</ele>
        <time>2021-04-29T07:49:12.000Z</time>
      </trkpt>
      <trkpt lat="39.76990322582424" lon="2.9022031277418137">
        <ele>166.2</ele>
        <time>2021-04-29T07:49:15.000Z</time>
      </trkpt>
      <trkpt lat="39.77007186971605" lon="2.9022614657878876">
        <ele>167</ele>
        <time>2021-04-29T07:49:20.000Z</time>
      </trkpt>
      <trkpt lat="39.770102044567466" lon="2.9022711887955666">
        <ele>167.4</ele>
        <time>2021-04-29T07:49:21.000Z</time>
      </trkpt>
      <trkpt lat="39.77021670900285" lon="2.9022632259875536">
        <ele>168.2</ele>
        <time>2021-04-29T07:49:25.000Z</time>
      </trkpt>
      <trkpt lat="39.77027772925794" lon="2.9022334702312946">
        <ele>168.6</ele>
        <time>2021-04-29T07:49:27.000Z</time>
      </trkpt>
      <trkpt lat="39.770421562716365" lon="2.9021516628563404">
        <ele>169.8</ele>
        <time>2021-04-29T07:49:32.000Z</time>
      </trkpt>
      <trkpt lat="39.77051820605993" lon="2.9021024610847235">
        <ele>170</ele>
        <time>2021-04-29T07:49:35.000Z</time>
      </trkpt>
      <trkpt lat="39.77064653299749" lon="2.9020309634506702">
        <ele>170.6</ele>
        <time>2021-04-29T07:49:39.000Z</time>
      </trkpt>
      <trkpt lat="39.77071023546159" lon="2.902000118046999">
        <ele>170.8</ele>
        <time>2021-04-29T07:49:41.000Z</time>
      </trkpt>
      <trkpt lat="39.770860355347395" lon="2.901915879920125">
        <ele>171.6</ele>
        <time>2021-04-29T07:49:46.000Z</time>
      </trkpt>
      <trkpt lat="39.770960016176105" lon="2.9018635768443346">
        <ele>172</ele>
        <time>2021-04-29T07:49:49.000Z</time>
      </trkpt>
      <trkpt lat="39.77113804779947" lon="2.9017481580376625">
        <ele>172.4</ele>
        <time>2021-04-29T07:49:54.000Z</time>
      </trkpt>
      <trkpt lat="39.771306440234184" lon="2.901663752272725">
        <ele>172.8</ele>
        <time>2021-04-29T07:49:59.000Z</time>
      </trkpt>
      <trkpt lat="39.77134734392166" lon="2.901631649583578">
        <ele>172.8</ele>
        <time>2021-04-29T07:50:00.000Z</time>
      </trkpt>
      <trkpt lat="39.77151439525187" lon="2.9014480020850897">
        <ele>173</ele>
        <time>2021-04-29T07:50:05.000Z</time>
      </trkpt>
      <trkpt lat="39.77164029143751" lon="2.9012692160904408">
        <ele>173.8</ele>
        <time>2021-04-29T07:50:10.000Z</time>
      </trkpt>
      <trkpt lat="39.771665604785085" lon="2.901233844459057">
        <ele>174</ele>
        <time>2021-04-29T07:50:11.000Z</time>
      </trkpt>
      <trkpt lat="39.77178990840912" lon="2.901043826714158">
        <ele>175.2</ele>
        <time>2021-04-29T07:50:17.000Z</time>
      </trkpt>
      <trkpt lat="39.77180767804384" lon="2.901012310758233">
        <ele>175.4</ele>
        <time>2021-04-29T07:50:18.000Z</time>
      </trkpt>
      <trkpt lat="39.77187272161245" lon="2.9008837323635817">
        <ele>176.2</ele>
        <time>2021-04-29T07:50:22.000Z</time>
      </trkpt>
      <trkpt lat="39.771896693855524" lon="2.900810558348894">
        <ele>176.6</ele>
        <time>2021-04-29T07:50:24.000Z</time>
      </trkpt>
      <trkpt lat="39.77193902246654" lon="2.900714920833707">
        <ele>177.4</ele>
        <time>2021-04-29T07:50:27.000Z</time>
      </trkpt>
      <trkpt lat="39.77200406603515" lon="2.9005754459649324">
        <ele>178.6</ele>
        <time>2021-04-29T07:50:32.000Z</time>
      </trkpt>
      <trkpt lat="39.77209727279842" lon="2.900377130135894">
        <ele>179.6</ele>
        <time>2021-04-29T07:50:39.000Z</time>
      </trkpt>
      <trkpt lat="39.77216432802379" lon="2.900202115997672">
        <ele>180.6</ele>
        <time>2021-04-29T07:50:44.000Z</time>
      </trkpt>
      <trkpt lat="39.77219760417938" lon="2.900097258388996">
        <ele>181.2</ele>
        <time>2021-04-29T07:50:47.000Z</time>
      </trkpt>
      <trkpt lat="39.77222040295601" lon="2.9000297840684652">
        <ele>181.6</ele>
        <time>2021-04-29T07:50:49.000Z</time>
      </trkpt>
      <trkpt lat="39.772277316078544" lon="2.8998898901045322">
        <ele>182.2</ele>
        <time>2021-04-29T07:50:53.000Z</time>
      </trkpt>
      <trkpt lat="39.77230455726385" lon="2.89979450404644">
        <ele>182.6</ele>
        <time>2021-04-29T07:50:56.000Z</time>
      </trkpt>
      <trkpt lat="39.77234059944749" lon="2.8996865451335907">
        <ele>183</ele>
        <time>2021-04-29T07:50:59.000Z</time>
      </trkpt>
      <trkpt lat="39.77239524945617" lon="2.899543968960643">
        <ele>183.8</ele>
        <time>2021-04-29T07:51:03.000Z</time>
      </trkpt>
      <trkpt lat="39.77243204601109" lon="2.899440200999379">
        <ele>184.2</ele>
        <time>2021-04-29T07:51:06.000Z</time>
      </trkpt>
      <trkpt lat="39.77248870767653" lon="2.899302653968334">
        <ele>184.8</ele>
        <time>2021-04-29T07:51:10.000Z</time>
      </trkpt>
      <trkpt lat="39.77253112010658" lon="2.899167872965336">
        <ele>185.4</ele>
        <time>2021-04-29T07:51:14.000Z</time>
      </trkpt>
      <trkpt lat="39.77256355807185" lon="2.8990899212658405">
        <ele>186</ele>
        <time>2021-04-29T07:51:17.000Z</time>
      </trkpt>
      <trkpt lat="39.77260982617736" lon="2.8990174178034067">
        <ele>186.6</ele>
        <time>2021-04-29T07:51:20.000Z</time>
      </trkpt>
      <trkpt lat="39.77265005931258" lon="2.8989724908024073">
        <ele>187.2</ele>
        <time>2021-04-29T07:51:22.000Z</time>
      </trkpt>
      <trkpt lat="39.77273153141141" lon="2.8988743387162685">
        <ele>188.2</ele>
        <time>2021-04-29T07:51:26.000Z</time>
      </trkpt>
      <trkpt lat="39.77275240235031" lon="2.8988504502922297">
        <ele>188.4</ele>
        <time>2021-04-29T07:51:27.000Z</time>
      </trkpt>
      <trkpt lat="39.77288366295397" lon="2.8987005818635225">
        <ele>189.2</ele>
        <time>2021-04-29T07:51:33.000Z</time>
      </trkpt>
      <trkpt lat="39.77295004762709" lon="2.8986388072371483">
        <ele>189.8</ele>
        <time>2021-04-29T07:51:36.000Z</time>
      </trkpt>
      <trkpt lat="39.77302288636565" lon="2.8986015915870667">
        <ele>190.4</ele>
        <time>2021-04-29T07:51:39.000Z</time>
      </trkpt>
      <trkpt lat="39.7730671428144" lon="2.8985677286982536">
        <ele>191</ele>
        <time>2021-04-29T07:51:41.000Z</time>
      </trkpt>
      <trkpt lat="39.77310821413994" lon="2.8985332790762186">
        <ele>191.4</ele>
        <time>2021-04-29T07:51:43.000Z</time>
      </trkpt>
      <trkpt lat="39.77319337427616" lon="2.898486591875553">
        <ele>192.4</ele>
        <time>2021-04-29T07:51:47.000Z</time>
      </trkpt>
      <trkpt lat="39.7732413187623" lon="2.898446610197425">
        <ele>192.8</ele>
        <time>2021-04-29T07:51:49.000Z</time>
      </trkpt>
      <trkpt lat="39.77330879308283" lon="2.8983990009874105">
        <ele>193.4</ele>
        <time>2021-04-29T07:51:52.000Z</time>
      </trkpt>
      <trkpt lat="39.7733776923269" lon="2.8983521461486816">
        <ele>194.2</ele>
        <time>2021-04-29T07:51:55.000Z</time>
      </trkpt>
      <trkpt lat="39.77345120161772" lon="2.898312835022807">
        <ele>194.6</ele>
        <time>2021-04-29T07:51:58.000Z</time>
      </trkpt>
      <trkpt lat="39.77355094626546" lon="2.8982502222061157">
        <ele>195.2</ele>
        <time>2021-04-29T07:52:02.000Z</time>
      </trkpt>
      <trkpt lat="39.773599561303854" lon="2.898223986849189">
        <ele>195.6</ele>
        <time>2021-04-29T07:52:04.000Z</time>
      </trkpt>
      <trkpt lat="39.77372193709016" lon="2.8981690015643835">
        <ele>196.4</ele>
        <time>2021-04-29T07:52:09.000Z</time>
      </trkpt>
      <trkpt lat="39.77374364621937" lon="2.898155841976404">
        <ele>196.6</ele>
        <time>2021-04-29T07:52:10.000Z</time>
      </trkpt>
      <trkpt lat="39.7738388646394" lon="2.898103203624487">
        <ele>197.6</ele>
        <time>2021-04-29T07:52:14.000Z</time>
      </trkpt>
      <trkpt lat="39.773928467184305" lon="2.8980700951069593">
        <ele>198.2</ele>
        <time>2021-04-29T07:52:17.000Z</time>
      </trkpt>
      <trkpt lat="39.77401756681502" lon="2.8980299457907677">
        <ele>198.8</ele>
        <time>2021-04-29T07:52:20.000Z</time>
      </trkpt>
      <trkpt lat="39.77410985156894" lon="2.8980103321373463">
        <ele>199.4</ele>
        <time>2021-04-29T07:52:23.000Z</time>
      </trkpt>
      <trkpt lat="39.774168357253075" lon="2.8980079852044582">
        <ele>199.8</ele>
        <time>2021-04-29T07:52:25.000Z</time>
      </trkpt>
      <trkpt lat="39.77429618127644" lon="2.898006057366729">
        <ele>200.6</ele>
        <time>2021-04-29T07:52:29.000Z</time>
      </trkpt>
      <trkpt lat="39.77433339692652" lon="2.8980076499283314">
        <ele>200.8</ele>
        <time>2021-04-29T07:52:30.000Z</time>
      </trkpt>
      <trkpt lat="39.77441260591149" lon="2.8980108350515366">
        <ele>201.4</ele>
        <time>2021-04-29T07:52:33.000Z</time>
      </trkpt>
      <trkpt lat="39.77448217570782" lon="2.8980177082121372">
        <ele>202</ele>
        <time>2021-04-29T07:52:36.000Z</time>
      </trkpt>
      <trkpt lat="39.774597929790616" lon="2.8980355616658926">
        <ele>202.4</ele>
        <time>2021-04-29T07:52:39.000Z</time>
      </trkpt>
      <trkpt lat="39.77463640272617" lon="2.898034555837512">
        <ele>203</ele>
        <time>2021-04-29T07:52:40.000Z</time>
      </trkpt>
      <trkpt lat="39.77475928142667" lon="2.898048972710967">
        <ele>203.4</ele>
        <time>2021-04-29T07:52:43.000Z</time>
      </trkpt>
      <trkpt lat="39.774858858436346" lon="2.898064646869898">
        <ele>204</ele>
        <time>2021-04-29T07:52:46.000Z</time>
      </trkpt>
      <trkpt lat="39.77492549456656" lon="2.8980758786201477">
        <ele>204.4</ele>
        <time>2021-04-29T07:52:48.000Z</time>
      </trkpt>
      <trkpt lat="39.77505491115153" lon="2.898098761215806">
        <ele>205.2</ele>
        <time>2021-04-29T07:52:52.000Z</time>
      </trkpt>
      <trkpt lat="39.77510034106672" lon="2.8981001023203135">
        <ele>205.4</ele>
        <time>2021-04-29T07:52:53.000Z</time>
      </trkpt>
      <trkpt lat="39.77524895220995" lon="2.898082248866558">
        <ele>206.4</ele>
        <time>2021-04-29T07:52:57.000Z</time>
      </trkpt>
      <trkpt lat="39.77531776763499" lon="2.8980700951069593">
        <ele>207</ele>
        <time>2021-04-29T07:52:59.000Z</time>
      </trkpt>
      <trkpt lat="39.775373339653015" lon="2.8980627190321684">
        <ele>207.6</ele>
        <time>2021-04-29T07:53:01.000Z</time>
      </trkpt>
      <trkpt lat="39.77549931965768" lon="2.898049307987094">
        <ele>208.6</ele>
        <time>2021-04-29T07:53:05.000Z</time>
      </trkpt>
      <trkpt lat="39.77565346285701" lon="2.8979958314448595">
        <ele>209.8</ele>
        <time>2021-04-29T07:53:10.000Z</time>
      </trkpt>
      <trkpt lat="39.775801319628954" lon="2.897908827289939">
        <ele>210.8</ele>
        <time>2021-04-29T07:53:15.000Z</time>
      </trkpt>
      <trkpt lat="39.77582361549139" lon="2.8978845197707415">
        <ele>210.8</ele>
        <time>2021-04-29T07:53:16.000Z</time>
      </trkpt>
      <trkpt lat="39.7759301494807" lon="2.897792235016823">
        <ele>211.4</ele>
        <time>2021-04-29T07:53:21.000Z</time>
      </trkpt>
      <trkpt lat="39.77596468292177" lon="2.89777890779078">
        <ele>212</ele>
        <time>2021-04-29T07:53:23.000Z</time>
      </trkpt>
      <trkpt lat="39.775995360687375" lon="2.8977946657687426">
        <ele>212.4</ele>
        <time>2021-04-29T07:53:25.000Z</time>
      </trkpt>
      <trkpt lat="39.77595956996083" lon="2.897840179502964">
        <ele>213</ele>
        <time>2021-04-29T07:53:28.000Z</time>
      </trkpt>
      <trkpt lat="39.77585529908538" lon="2.897905223071575">
        <ele>214.2</ele>
        <time>2021-04-29T07:53:33.000Z</time>
      </trkpt>
      <trkpt lat="39.775807689875364" lon="2.897940594702959">
        <ele>214.8</ele>
        <time>2021-04-29T07:53:35.000Z</time>
      </trkpt>
      <trkpt lat="39.77573091164231" lon="2.8979908023029566">
        <ele>215.4</ele>
        <time>2021-04-29T07:53:38.000Z</time>
      </trkpt>
      <trkpt lat="39.77565689943731" lon="2.898023072630167">
        <ele>216</ele>
        <time>2021-04-29T07:53:41.000Z</time>
      </trkpt>
      <trkpt lat="39.775569727644324" lon="2.8980461228638887">
        <ele>216.4</ele>
        <time>2021-04-29T07:53:44.000Z</time>
      </trkpt>
      <trkpt lat="39.775454979389906" lon="2.898085182532668">
        <ele>217.2</ele>
        <time>2021-04-29T07:53:48.000Z</time>
      </trkpt>
      <trkpt lat="39.77535062469542" lon="2.8981321211904287">
        <ele>217.6</ele>
        <time>2021-04-29T07:53:52.000Z</time>
      </trkpt>
      <trkpt lat="39.7752461861819" lon="2.8981666546314955">
        <ele>218.2</ele>
        <time>2021-04-29T07:53:56.000Z</time>
      </trkpt>
      <trkpt lat="39.77518952451646" lon="2.898198002949357">
        <ele>218.8</ele>
        <time>2021-04-29T07:53:59.000Z</time>
      </trkpt>
      <trkpt lat="39.77513856254518" lon="2.898214850574732">
        <ele>219.4</ele>
        <time>2021-04-29T07:54:02.000Z</time>
      </trkpt>
      <trkpt lat="39.775056671351194" lon="2.8982332069426775">
        <ele>220</ele>
        <time>2021-04-29T07:54:06.000Z</time>
      </trkpt>
      <trkpt lat="39.77503487840295" lon="2.8982390742748976">
        <ele>220.2</ele>
        <time>2021-04-29T07:54:07.000Z</time>
      </trkpt>
      <trkpt lat="39.77499095723033" lon="2.8982682432979345">
        <ele>220.8</ele>
        <time>2021-04-29T07:54:09.000Z</time>
      </trkpt>
      <trkpt lat="39.77494644932449" lon="2.8982850071042776">
        <ele>221.2</ele>
        <time>2021-04-29T07:54:10.000Z</time>
      </trkpt>
      <trkpt lat="39.77491267025471" lon="2.8983065485954285">
        <ele>221.4</ele>
        <time>2021-04-29T07:54:11.000Z</time>
      </trkpt>
      <trkpt lat="39.77489272132516" lon="2.8983383160084486">
        <ele>221.8</ele>
        <time>2021-04-29T07:54:12.000Z</time>
      </trkpt>
      <trkpt lat="39.77489867247641" lon="2.898392966017127">
        <ele>222.2</ele>
        <time>2021-04-29T07:54:14.000Z</time>
      </trkpt>
      <trkpt lat="39.774937229231" lon="2.8984128311276436">
        <ele>222.2</ele>
        <time>2021-04-29T07:54:15.000Z</time>
      </trkpt>
      <trkpt lat="39.77509464137256" lon="2.8984249848872423">
        <ele>222.8</ele>
        <time>2021-04-29T07:54:19.000Z</time>
      </trkpt>
      <trkpt lat="39.77519178763032" lon="2.8984025213867426">
        <ele>222.8</ele>
        <time>2021-04-29T07:54:22.000Z</time>
      </trkpt>
      <trkpt lat="39.77521324530244" lon="2.898387936875224">
        <ele>222.8</ele>
        <time>2021-04-29T07:54:23.000Z</time>
      </trkpt>
      <trkpt lat="39.77523562498391" lon="2.898374190554023">
        <ele>222.8</ele>
        <time>2021-04-29T07:54:24.000Z</time>
      </trkpt>
      <trkpt lat="39.7753069549799" lon="2.8983380645513535">
        <ele>223.2</ele>
        <time>2021-04-29T07:54:27.000Z</time>
      </trkpt>
      <trkpt lat="39.77535976096988" lon="2.898323144763708">
        <ele>223.4</ele>
        <time>2021-04-29T07:54:29.000Z</time>
      </trkpt>
      <trkpt lat="39.77548582479358" lon="2.8982949815690517">
        <ele>224</ele>
        <time>2021-04-29T07:54:33.000Z</time>
      </trkpt>
      <trkpt lat="39.77551055140793" lon="2.8982902877032757">
        <ele>224</ele>
        <time>2021-04-29T07:54:34.000Z</time>
      </trkpt>
      <trkpt lat="39.77553972043097" lon="2.898282827809453">
        <ele>224.4</ele>
        <time>2021-04-29T07:54:35.000Z</time>
      </trkpt>
      <trkpt lat="39.77563686668873" lon="2.8982632979750633">
        <ele>225</ele>
        <time>2021-04-29T07:54:39.000Z</time>
      </trkpt>
      <trkpt lat="39.7757160756737" lon="2.8982279263436794">
        <ele>225.4</ele>
        <time>2021-04-29T07:54:42.000Z</time>
      </trkpt>
      <trkpt lat="39.775753961876035" lon="2.8981999307870865">
        <ele>225.8</ele>
        <time>2021-04-29T07:54:44.000Z</time>
      </trkpt>
      <trkpt lat="39.77584331296384" lon="2.8981554228812456">
        <ele>226.6</ele>
        <time>2021-04-29T07:54:47.000Z</time>
      </trkpt>
      <trkpt lat="39.77592914365232" lon="2.8981018625199795">
        <ele>227.4</ele>
        <time>2021-04-29T07:54:50.000Z</time>
      </trkpt>
      <trkpt lat="39.77599661797285" lon="2.8980873618274927">
        <ele>227.8</ele>
        <time>2021-04-29T07:54:53.000Z</time>
      </trkpt>
      <trkpt lat="39.776012878865004" lon="2.898077555000782">
        <ele>227.8</ele>
        <time>2021-04-29T07:54:54.000Z</time>
      </trkpt>
      <trkpt lat="39.776114635169506" lon="2.8980406746268272">
        <ele>228.6</ele>
        <time>2021-04-29T07:54:58.000Z</time>
      </trkpt>
      <trkpt lat="39.77627271786332" lon="2.897985354065895">
        <ele>229.8</ele>
        <time>2021-04-29T07:55:03.000Z</time>
      </trkpt>
      <trkpt lat="39.77639677003026" lon="2.8979829233139753">
        <ele>230.6</ele>
        <time>2021-04-29T07:55:06.000Z</time>
      </trkpt>
      <trkpt lat="39.77646332234144" lon="2.897985940799117">
        <ele>231</ele>
        <time>2021-04-29T07:55:08.000Z</time>
      </trkpt>
      <trkpt lat="39.77655644528568" lon="2.8979828394949436">
        <ele>231.6</ele>
        <time>2021-04-29T07:55:11.000Z</time>
      </trkpt>
      <trkpt lat="39.776641856878996" lon="2.897995077073574">
        <ele>232</ele>
        <time>2021-04-29T07:55:14.000Z</time>
      </trkpt>
      <trkpt lat="39.7767367400229" lon="2.8980149421840906">
        <ele>232.6</ele>
        <time>2021-04-29T07:55:17.000Z</time>
      </trkpt>
      <trkpt lat="39.77681293152273" lon="2.8980264253914356">
        <ele>233</ele>
        <time>2021-04-29T07:55:20.000Z</time>
      </trkpt>
      <trkpt lat="39.77685836143792" lon="2.8980456199496984">
        <ele>233.4</ele>
        <time>2021-04-29T07:55:22.000Z</time>
      </trkpt>
      <trkpt lat="39.77693438529968" lon="2.8980809915810823">
        <ele>234</ele>
        <time>2021-04-29T07:55:25.000Z</time>
      </trkpt>
      <trkpt lat="39.77696204558015" lon="2.898100269958377">
        <ele>234.2</ele>
        <time>2021-04-29T07:55:26.000Z</time>
      </trkpt>
      <trkpt lat="39.777038572356105" lon="2.89814000017941">
        <ele>234.8</ele>
        <time>2021-04-29T07:55:29.000Z</time>
      </trkpt>
      <trkpt lat="39.77709556929767" lon="2.8981754556298256">
        <ele>235.2</ele>
        <time>2021-04-29T07:55:31.000Z</time>
      </trkpt>
      <trkpt lat="39.777141669765115" lon="2.8982025291770697">
        <ele>235.6</ele>
        <time>2021-04-29T07:55:33.000Z</time>
      </trkpt>
      <trkpt lat="39.77729053236544" lon="2.8982685785740614">
        <ele>236.2</ele>
        <time>2021-04-29T07:55:37.000Z</time>
      </trkpt>
      <trkpt lat="39.77732506580651" lon="2.898282492533326">
        <ele>236.4</ele>
        <time>2021-04-29T07:55:38.000Z</time>
      </trkpt>
      <trkpt lat="39.77736429311335" lon="2.898291712626815">
        <ele>236.6</ele>
        <time>2021-04-29T07:55:39.000Z</time>
      </trkpt>
      <trkpt lat="39.777607787400484" lon="2.8983144275844097">
        <ele>237.4</ele>
        <time>2021-04-29T07:55:45.000Z</time>
      </trkpt>
      <trkpt lat="39.77781314402819" lon="2.898270422592759">
        <ele>238.4</ele>
        <time>2021-04-29T07:55:51.000Z</time>
      </trkpt>
      <trkpt lat="39.77784650400281" lon="2.898259861394763">
        <ele>238.4</ele>
        <time>2021-04-29T07:55:52.000Z</time>
      </trkpt>
      <trkpt lat="39.77807767689228" lon="2.8982191253453493">
        <ele>239</ele>
        <time>2021-04-29T07:55:58.000Z</time>
      </trkpt>
      <trkpt lat="39.77815001271665" lon="2.8982013557106256">
        <ele>239.6</ele>
        <time>2021-04-29T07:56:00.000Z</time>
      </trkpt>
      <trkpt lat="39.77820860221982" lon="2.898190375417471">
        <ele>240</ele>
        <time>2021-04-29T07:56:02.000Z</time>
      </trkpt>
      <trkpt lat="39.778293846175075" lon="2.898173863068223">
        <ele>240.6</ele>
        <time>2021-04-29T07:56:05.000Z</time>
      </trkpt>
      <trkpt lat="39.77836090140045" lon="2.8981536626815796">
        <ele>241</ele>
        <time>2021-04-29T07:56:07.000Z</time>
      </trkpt>
      <trkpt lat="39.77844212204218" lon="2.8981789760291576">
        <ele>241.4</ele>
        <time>2021-04-29T07:56:10.000Z</time>
      </trkpt>
      <trkpt lat="39.77842996828258" lon="2.8982267528772354">
        <ele>241.6</ele>
        <time>2021-04-29T07:56:11.000Z</time>
      </trkpt>
      <trkpt lat="39.77836308069527" lon="2.8983000107109547">
        <ele>242.2</ele>
        <time>2021-04-29T07:56:15.000Z</time>
      </trkpt>
      <trkpt lat="39.778316309675574" lon="2.898315181955695">
        <ele>242.6</ele>
        <time>2021-04-29T07:56:17.000Z</time>
      </trkpt>
      <trkpt lat="39.7782426327467" lon="2.8983489610254765">
        <ele>243.4</ele>
        <time>2021-04-29T07:56:20.000Z</time>
      </trkpt>
      <trkpt lat="39.77819100022316" lon="2.898365557193756">
        <ele>243.8</ele>
        <time>2021-04-29T07:56:22.000Z</time>
      </trkpt>
      <trkpt lat="39.778071474283934" lon="2.8984034433960915">
        <ele>244.8</ele>
        <time>2021-04-29T07:56:26.000Z</time>
      </trkpt>
      <trkpt lat="39.77804062888026" lon="2.8984172735363245">
        <ele>245</ele>
        <time>2021-04-29T07:56:27.000Z</time>
      </trkpt>
      <trkpt lat="39.77797172963619" lon="2.8984334506094456">
        <ele>245.6</ele>
        <time>2021-04-29T07:56:29.000Z</time>
      </trkpt>
      <trkpt lat="39.777875170111656" lon="2.8984705824404955">
        <ele>245.8</ele>
        <time>2021-04-29T07:56:32.000Z</time>
      </trkpt>
      <trkpt lat="39.77784650400281" lon="2.898479299619794">
        <ele>246</ele>
        <time>2021-04-29T07:56:33.000Z</time>
      </trkpt>
      <trkpt lat="39.777759751304984" lon="2.89850402623415">
        <ele>246.6</ele>
        <time>2021-04-29T07:56:36.000Z</time>
      </trkpt>
      <trkpt lat="39.77767408825457" lon="2.8985277470201254">
        <ele>247.2</ele>
        <time>2021-04-29T07:56:39.000Z</time>
      </trkpt>
      <trkpt lat="39.777600076049566" lon="2.898543756455183">
        <ele>247.8</ele>
        <time>2021-04-29T07:56:42.000Z</time>
      </trkpt>
      <trkpt lat="39.777583396062255" lon="2.898541074246168">
        <ele>248.2</ele>
        <time>2021-04-29T07:56:43.000Z</time>
      </trkpt>
      <trkpt lat="39.77749555371702" lon="2.8985321894288063">
        <ele>248.8</ele>
        <time>2021-04-29T07:56:46.000Z</time>
      </trkpt>
      <trkpt lat="39.77742715738714" lon="2.8985134977847338">
        <ele>249.2</ele>
        <time>2021-04-29T07:56:48.000Z</time>
      </trkpt>
      <trkpt lat="39.7773549053818" lon="2.89848692715168">
        <ele>249.6</ele>
        <time>2021-04-29T07:56:50.000Z</time>
      </trkpt>
      <trkpt lat="39.77725390344858" lon="2.898453399538994">
        <ele>249.8</ele>
        <time>2021-04-29T07:56:53.000Z</time>
      </trkpt>
      <trkpt lat="39.777192967012525" lon="2.8984337858855724">
        <ele>250.2</ele>
        <time>2021-04-29T07:56:55.000Z</time>
      </trkpt>
      <trkpt lat="39.77707629092038" lon="2.8983881883323193">
        <ele>251.2</ele>
        <time>2021-04-29T07:56:59.000Z</time>
      </trkpt>
      <trkpt lat="39.77699331007898" lon="2.898359103128314">
        <ele>252.2</ele>
        <time>2021-04-29T07:57:02.000Z</time>
      </trkpt>
      <trkpt lat="39.776967242360115" lon="2.898354073986411">
        <ele>252.4</ele>
        <time>2021-04-29T07:57:03.000Z</time>
      </trkpt>
      <trkpt lat="39.7768781427294" lon="2.8983896132558584">
        <ele>253.2</ele>
        <time>2021-04-29T07:57:07.000Z</time>
      </trkpt>
      <trkpt lat="39.77684763260186" lon="2.8984778746962547">
        <ele>253.6</ele>
        <time>2021-04-29T07:57:10.000Z</time>
      </trkpt>
      <trkpt lat="39.77683053351939" lon="2.898539649322629">
        <ele>254</ele>
        <time>2021-04-29T07:57:12.000Z</time>
      </trkpt>
      <trkpt lat="39.77684687823057" lon="2.898563202470541">
        <ele>254.4</ele>
        <time>2021-04-29T07:57:13.000Z</time>
      </trkpt>
      <trkpt lat="39.77690286934376" lon="2.8986013401299715">
        <ele>254.8</ele>
        <time>2021-04-29T07:57:15.000Z</time>
      </trkpt>
      <trkpt lat="39.77708023041487" lon="2.898678118363023">
        <ele>255.8</ele>
        <time>2021-04-29T07:57:20.000Z</time>
      </trkpt>
      <trkpt lat="39.777110405266285" lon="2.898695971816778">
        <ele>256</ele>
        <time>2021-04-29T07:57:21.000Z</time>
      </trkpt>
      <trkpt lat="39.77725759148598" lon="2.8987691458314657">
        <ele>257</ele>
        <time>2021-04-29T07:57:26.000Z</time>
      </trkpt>
      <trkpt lat="39.77728667668998" lon="2.89878498762846">
        <ele>257</ele>
        <time>2021-04-29T07:57:27.000Z</time>
      </trkpt>
      <trkpt lat="39.7774410713464" lon="2.8988455049693584">
        <ele>257.8</ele>
        <time>2021-04-29T07:57:32.000Z</time>
      </trkpt>
      <trkpt lat="39.77747309021652" lon="2.898857658728957">
        <ele>257.8</ele>
        <time>2021-04-29T07:57:33.000Z</time>
      </trkpt>
      <trkpt lat="39.77765933610499" lon="2.898850701749325">
        <ele>259</ele>
        <time>2021-04-29T07:57:38.000Z</time>
      </trkpt>
      <trkpt lat="39.77786184288561" lon="2.898837374523282">
        <ele>259.8</ele>
        <time>2021-04-29T07:57:44.000Z</time>
      </trkpt>
      <trkpt lat="39.77804540656507" lon="2.898817425593734">
        <ele>260.6</ele>
        <time>2021-04-29T07:57:50.000Z</time>
      </trkpt>
      <trkpt lat="39.778075497597456" lon="2.8988192696124315">
        <ele>260.8</ele>
        <time>2021-04-29T07:57:51.000Z</time>
      </trkpt>
      <trkpt lat="39.77819837629795" lon="2.8987848199903965">
        <ele>261.8</ele>
        <time>2021-04-29T07:57:55.000Z</time>
      </trkpt>
      <trkpt lat="39.77822813205421" lon="2.8987777791917324">
        <ele>262.2</ele>
        <time>2021-04-29T07:57:56.000Z</time>
      </trkpt>
      <trkpt lat="39.77833776734769" lon="2.8987282421439886">
        <ele>263</ele>
        <time>2021-04-29T07:58:00.000Z</time>
      </trkpt>
      <trkpt lat="39.778395518660545" lon="2.8986926190555096">
        <ele>263.4</ele>
        <time>2021-04-29T07:58:02.000Z</time>
      </trkpt>
      <trkpt lat="39.77848277427256" lon="2.89865012280643">
        <ele>264</ele>
        <time>2021-04-29T07:58:05.000Z</time>
      </trkpt>
      <trkpt lat="39.778605066239834" lon="2.898594969883561">
        <ele>264.8</ele>
        <time>2021-04-29T07:58:10.000Z</time>
      </trkpt>
      <trkpt lat="39.77864940650761" lon="2.8985704109072685">
        <ele>265</ele>
        <time>2021-04-29T07:58:12.000Z</time>
      </trkpt>
      <trkpt lat="39.7787706926465" lon="2.89849572815001">
        <ele>266</ele>
        <time>2021-04-29T07:58:17.000Z</time>
      </trkpt>
      <trkpt lat="39.77879608981311" lon="2.8984832391142845">
        <ele>266.2</ele>
        <time>2021-04-29T07:58:18.000Z</time>
      </trkpt>
      <trkpt lat="39.77891276590526" lon="2.898450465872884">
        <ele>267.2</ele>
        <time>2021-04-29T07:58:22.000Z</time>
      </trkpt>
      <trkpt lat="39.778972864151" lon="2.898444514721632">
        <ele>267.8</ele>
        <time>2021-04-29T07:58:24.000Z</time>
      </trkpt>
      <trkpt lat="39.77903547696769" lon="2.898433618247509">
        <ele>268.2</ele>
        <time>2021-04-29T07:58:26.000Z</time>
      </trkpt>
      <trkpt lat="39.779161708429456" lon="2.8984033595770597">
        <ele>268.8</ele>
        <time>2021-04-29T07:58:30.000Z</time>
      </trkpt>
      <trkpt lat="39.77924946695566" lon="2.898380560800433">
        <ele>269</ele>
        <time>2021-04-29T07:58:33.000Z</time>
      </trkpt>
      <trkpt lat="39.77936211973429" lon="2.898354073986411">
        <ele>269.8</ele>
        <time>2021-04-29T07:58:37.000Z</time>
      </trkpt>
      <trkpt lat="39.77941735647619" lon="2.8983377292752266">
        <ele>270.2</ele>
        <time>2021-04-29T07:58:39.000Z</time>
      </trkpt>
      <trkpt lat="39.779571667313576" lon="2.898277882486582">
        <ele>271.2</ele>
        <time>2021-04-29T07:58:45.000Z</time>
      </trkpt>
      <trkpt lat="39.77964165620506" lon="2.8982435166835785">
        <ele>271.6</ele>
        <time>2021-04-29T07:58:48.000Z</time>
      </trkpt>
      <trkpt lat="39.77970913052559" lon="2.8982147667557">
        <ele>272.6</ele>
        <time>2021-04-29T07:58:51.000Z</time>
      </trkpt>
      <trkpt lat="39.77976973168552" lon="2.898190291598439">
        <ele>273</ele>
        <time>2021-04-29T07:58:54.000Z</time>
      </trkpt>
      <trkpt lat="39.77986017242074" lon="2.898136731237173">
        <ele>273.8</ele>
        <time>2021-04-29T07:58:58.000Z</time>
      </trkpt>
      <trkpt lat="39.77990811690688" lon="2.898099012672901">
        <ele>274</ele>
        <time>2021-04-29T07:59:00.000Z</time>
      </trkpt>
      <trkpt lat="39.779979782179" lon="2.898056348785758">
        <ele>274.8</ele>
        <time>2021-04-29T07:59:03.000Z</time>
      </trkpt>
      <trkpt lat="39.78002646937966" lon="2.898035477846861">
        <ele>275.2</ele>
        <time>2021-04-29T07:59:05.000Z</time>
      </trkpt>
      <trkpt lat="39.780114563181996" lon="2.897983929142356">
        <ele>275.8</ele>
        <time>2021-04-29T07:59:09.000Z</time>
      </trkpt>
      <trkpt lat="39.780188323929906" lon="2.897958531975746">
        <ele>276.4</ele>
        <time>2021-04-29T07:59:12.000Z</time>
      </trkpt>
      <trkpt lat="39.78026233613491" lon="2.8979302011430264">
        <ele>277</ele>
        <time>2021-04-29T07:59:15.000Z</time>
      </trkpt>
      <trkpt lat="39.78033659979701" lon="2.89787613786757">
        <ele>277.4</ele>
        <time>2021-04-29T07:59:18.000Z</time>
      </trkpt>
      <trkpt lat="39.780386136844754" lon="2.897839844226837">
        <ele>277.8</ele>
        <time>2021-04-29T07:59:20.000Z</time>
      </trkpt>
      <trkpt lat="39.780505914241076" lon="2.8977287840098143">
        <ele>278.8</ele>
        <time>2021-04-29T07:59:25.000Z</time>
      </trkpt>
      <trkpt lat="39.78052804246545" lon="2.8977080807089806">
        <ele>279</ele>
        <time>2021-04-29T07:59:26.000Z</time>
      </trkpt>
      <trkpt lat="39.78063172660768" lon="2.8975878842175007">
        <ele>280</ele>
        <time>2021-04-29T07:59:31.000Z</time>
      </trkpt>
      <trkpt lat="39.7806687746197" lon="2.8975431248545647">
        <ele>280.2</ele>
        <time>2021-04-29T07:59:33.000Z</time>
      </trkpt>
      <trkpt lat="39.780756784603" lon="2.8974394407123327">
        <ele>281</ele>
        <time>2021-04-29T07:59:38.000Z</time>
      </trkpt>
      <trkpt lat="39.780800957232714" lon="2.8973921667784452">
        <ele>281.2</ele>
        <time>2021-04-29T07:59:40.000Z</time>
      </trkpt>
      <trkpt lat="39.78093322366476" lon="2.8972330782562494">
        <ele>282</ele>
        <time>2021-04-29T07:59:46.000Z</time>
      </trkpt>
      <trkpt lat="39.78104252368212" lon="2.897104751318693">
        <ele>283</ele>
        <time>2021-04-29T07:59:51.000Z</time>
      </trkpt>
      <trkpt lat="39.78106398135424" lon="2.897079521790147">
        <ele>283.2</ele>
        <time>2021-04-29T07:59:52.000Z</time>
      </trkpt>
      <trkpt lat="39.78118970990181" lon="2.8969211038202047">
        <ele>284.2</ele>
        <time>2021-04-29T07:59:58.000Z</time>
      </trkpt>
      <trkpt lat="39.78123849257827" lon="2.8968849778175354">
        <ele>284.4</ele>
        <time>2021-04-29T08:00:00.000Z</time>
      </trkpt>
      <trkpt lat="39.78135977871716" lon="2.8968184255063534">
        <ele>285.2</ele>
        <time>2021-04-29T08:00:05.000Z</time>
      </trkpt>
      <trkpt lat="39.781386852264404" lon="2.896816497668624">
        <ele>285.2</ele>
        <time>2021-04-29T08:00:06.000Z</time>
      </trkpt>
      <trkpt lat="39.7815218847245" lon="2.8967933636158705">
        <ele>286.2</ele>
        <time>2021-04-29T08:00:11.000Z</time>
      </trkpt>
      <trkpt lat="39.78155038319528" lon="2.8967889212071896">
        <ele>286.2</ele>
        <time>2021-04-29T08:00:12.000Z</time>
      </trkpt>
      <trkpt lat="39.78167837485671" lon="2.8967692237347364">
        <ele>287</ele>
        <time>2021-04-29T08:00:17.000Z</time>
      </trkpt>
      <trkpt lat="39.78169924579561" lon="2.8967668768018484">
        <ele>287.2</ele>
        <time>2021-04-29T08:00:18.000Z</time>
      </trkpt>
      <trkpt lat="39.78182346560061" lon="2.8967376239597797">
        <ele>288</ele>
        <time>2021-04-29T08:00:23.000Z</time>
      </trkpt>
      <trkpt lat="39.781869146972895" lon="2.8966988157480955">
        <ele>288.2</ele>
        <time>2021-04-29T08:00:25.000Z</time>
      </trkpt>
      <trkpt lat="39.78193595074117" lon="2.8966472670435905">
        <ele>288.6</ele>
        <time>2021-04-29T08:00:28.000Z</time>
      </trkpt>
      <trkpt lat="39.78194944560528" lon="2.8966251388192177">
        <ele>288.8</ele>
        <time>2021-04-29T08:00:29.000Z</time>
      </trkpt>
      <trkpt lat="39.782005017623305" lon="2.8965698182582855">
        <ele>289.4</ele>
        <time>2021-04-29T08:00:32.000Z</time>
      </trkpt>
      <trkpt lat="39.78202756494284" lon="2.896547941491008">
        <ele>289.4</ele>
        <time>2021-04-29T08:00:33.000Z</time>
      </trkpt>
      <trkpt lat="39.782083639875054" lon="2.896481975913048">
        <ele>290</ele>
        <time>2021-04-29T08:00:36.000Z</time>
      </trkpt>
      <trkpt lat="39.78212588466704" lon="2.8964409045875072">
        <ele>290.4</ele>
        <time>2021-04-29T08:00:38.000Z</time>
      </trkpt>
      <trkpt lat="39.782148180529475" lon="2.896424727514386">
        <ele>290.4</ele>
        <time>2021-04-29T08:00:39.000Z</time>
      </trkpt>
      <trkpt lat="39.782269382849336" lon="2.896363791078329">
        <ele>291.4</ele>
        <time>2021-04-29T08:00:45.000Z</time>
      </trkpt>
      <trkpt lat="39.78228799067438" lon="2.896353816613555">
        <ele>291.6</ele>
        <time>2021-04-29T08:00:46.000Z</time>
      </trkpt>
      <trkpt lat="39.782378850504756" lon="2.8963235579431057">
        <ele>292.8</ele>
        <time>2021-04-29T08:00:51.000Z</time>
      </trkpt>
      <trkpt lat="39.782401816919446" lon="2.896320540457964">
        <ele>293</ele>
        <time>2021-04-29T08:00:52.000Z</time>
      </trkpt>
      <trkpt lat="39.78248052299023" lon="2.896218951791525">
        <ele>293.6</ele>
        <time>2021-04-29T08:00:56.000Z</time>
      </trkpt>
      <trkpt lat="39.78253894485533" lon="2.896179473027587">
        <ele>294</ele>
        <time>2021-04-29T08:00:58.000Z</time>
      </trkpt>
      <trkpt lat="39.78266282938421" lon="2.8961204644292593">
        <ele>294.8</ele>
        <time>2021-04-29T08:01:03.000Z</time>
      </trkpt>
      <trkpt lat="39.782817643135786" lon="2.8960845060646534">
        <ele>295.8</ele>
        <time>2021-04-29T08:01:09.000Z</time>
      </trkpt>
      <trkpt lat="39.78284421376884" lon="2.8960806503891945">
        <ele>296</ele>
        <time>2021-04-29T08:01:10.000Z</time>
      </trkpt>
      <trkpt lat="39.782982766628265" lon="2.896113758906722">
        <ele>296.6</ele>
        <time>2021-04-29T08:01:16.000Z</time>
      </trkpt>
      <trkpt lat="39.783003805205226" lon="2.896127002313733">
        <ele>296.8</ele>
        <time>2021-04-29T08:01:17.000Z</time>
      </trkpt>
      <trkpt lat="39.783129869028926" lon="2.8961911238729954">
        <ele>297.6</ele>
        <time>2021-04-29T08:01:22.000Z</time>
      </trkpt>
      <trkpt lat="39.783184519037604" lon="2.8962241485714912">
        <ele>297.8</ele>
        <time>2021-04-29T08:01:24.000Z</time>
      </trkpt>
      <trkpt lat="39.783300356939435" lon="2.8962908685207367">
        <ele>298.6</ele>
        <time>2021-04-29T08:01:29.000Z</time>
      </trkpt>
      <trkpt lat="39.7833504807204" lon="2.896301681175828">
        <ele>299</ele>
        <time>2021-04-29T08:01:31.000Z</time>
      </trkpt>
      <trkpt lat="39.783432707190514" lon="2.8962907008826733">
        <ele>299.6</ele>
        <time>2021-04-29T08:01:34.000Z</time>
      </trkpt>
      <trkpt lat="39.78352105244994" lon="2.8962673991918564">
        <ele>300</ele>
        <time>2021-04-29T08:01:37.000Z</time>
      </trkpt>
      <trkpt lat="39.78363077156246" lon="2.896225154399872">
        <ele>300.6</ele>
        <time>2021-04-29T08:01:40.000Z</time>
      </trkpt>
      <trkpt lat="39.783720541745424" lon="2.8961743600666523">
        <ele>301.2</ele>
        <time>2021-04-29T08:01:43.000Z</time>
      </trkpt>
      <trkpt lat="39.78380813263357" lon="2.896135216578841">
        <ele>301.6</ele>
        <time>2021-04-29T08:01:46.000Z</time>
      </trkpt>
      <trkpt lat="39.78386990725994" lon="2.8960974141955376">
        <ele>302.4</ele>
        <time>2021-04-29T08:01:48.000Z</time>
      </trkpt>
      <trkpt lat="39.78395238518715" lon="2.896062210202217">
        <ele>302.8</ele>
        <time>2021-04-29T08:01:51.000Z</time>
      </trkpt>
      <trkpt lat="39.78404190391302" lon="2.8960329573601484">
        <ele>303.2</ele>
        <time>2021-04-29T08:01:54.000Z</time>
      </trkpt>
      <trkpt lat="39.78415623307228" lon="2.8960197139531374">
        <ele>304.4</ele>
        <time>2021-04-29T08:01:58.000Z</time>
      </trkpt>
      <trkpt lat="39.78435295633972" lon="2.8960109129548073">
        <ele>305.6</ele>
        <time>2021-04-29T08:02:05.000Z</time>
      </trkpt>
      <trkpt lat="39.784463848918676" lon="2.8960329573601484">
        <ele>306.6</ele>
        <time>2021-04-29T08:02:10.000Z</time>
      </trkpt>
      <trkpt lat="39.78449285030365" lon="2.896022731438279">
        <ele>307</ele>
        <time>2021-04-29T08:02:11.000Z</time>
      </trkpt>
      <trkpt lat="39.78458186611533" lon="2.8959910478442907">
        <ele>307.6</ele>
        <time>2021-04-29T08:02:14.000Z</time>
      </trkpt>
      <trkpt lat="39.7846510168165" lon="2.895935894921422">
        <ele>308</ele>
        <time>2021-04-29T08:02:17.000Z</time>
      </trkpt>
      <trkpt lat="39.784671971574426" lon="2.895919047296047">
        <ele>308.2</ele>
        <time>2021-04-29T08:02:18.000Z</time>
      </trkpt>
      <trkpt lat="39.7848098538816" lon="2.895830702036619">
        <ele>309.2</ele>
        <time>2021-04-29T08:02:23.000Z</time>
      </trkpt>
      <trkpt lat="39.7848288808018" lon="2.895818632096052">
        <ele>309.4</ele>
        <time>2021-04-29T08:02:24.000Z</time>
      </trkpt>
      <trkpt lat="39.7849427908659" lon="2.8957493975758553">
        <ele>310.2</ele>
        <time>2021-04-29T08:02:29.000Z</time>
      </trkpt>
      <trkpt lat="39.785094587132335" lon="2.8956421092152596">
        <ele>311.2</ele>
        <time>2021-04-29T08:02:35.000Z</time>
      </trkpt>
      <trkpt lat="39.785224087536335" lon="2.8955381736159325">
        <ele>312.2</ele>
        <time>2021-04-29T08:02:40.000Z</time>
      </trkpt>
      <trkpt lat="39.78530681692064" lon="2.8954680170863867">
        <ele>312.8</ele>
        <time>2021-04-29T08:02:43.000Z</time>
      </trkpt>
      <trkpt lat="39.78541485965252" lon="2.8953891433775425">
        <ele>313.4</ele>
        <time>2021-04-29T08:02:47.000Z</time>
      </trkpt>
      <trkpt lat="39.78548660874367" lon="2.8953298833221197">
        <ele>313.8</ele>
        <time>2021-04-29T08:02:50.000Z</time>
      </trkpt>
      <trkpt lat="39.78557260707021" lon="2.89525268599391">
        <ele>314.6</ele>
        <time>2021-04-29T08:02:54.000Z</time>
      </trkpt>
      <trkpt lat="39.78561485186219" lon="2.8952147997915745">
        <ele>315</ele>
        <time>2021-04-29T08:02:56.000Z</time>
      </trkpt>
      <trkpt lat="39.78568794205785" lon="2.895146319642663">
        <ele>315.8</ele>
        <time>2021-04-29T08:02:59.000Z</time>
      </trkpt>
      <trkpt lat="39.78576195426285" lon="2.89507775567472">
        <ele>316.4</ele>
        <time>2021-04-29T08:03:02.000Z</time>
      </trkpt>
      <trkpt lat="39.7858130838722" lon="2.8950044978410006">
        <ele>317</ele>
        <time>2021-04-29T08:03:05.000Z</time>
      </trkpt>
      <trkpt lat="39.78586354292929" lon="2.894948674365878">
        <ele>317.6</ele>
        <time>2021-04-29T08:03:08.000Z</time>
      </trkpt>
      <trkpt lat="39.78590394370258" lon="2.8949119616299868">
        <ele>318.2</ele>
        <time>2021-04-29T08:03:10.000Z</time>
      </trkpt>
      <trkpt lat="39.785986337810755" lon="2.894797381013632">
        <ele>319</ele>
        <time>2021-04-29T08:03:14.000Z</time>
      </trkpt>
      <trkpt lat="39.78600670583546" lon="2.8947736602276564">
        <ele>319.2</ele>
        <time>2021-04-29T08:03:15.000Z</time>
      </trkpt>
      <trkpt lat="39.78610376827419" lon="2.894612727686763">
        <ele>320.2</ele>
        <time>2021-04-29T08:03:21.000Z</time>
      </trkpt>
      <trkpt lat="39.78616973385215" lon="2.894474258646369">
        <ele>321.4</ele>
        <time>2021-04-29T08:03:26.000Z</time>
      </trkpt>
      <trkpt lat="39.78619781322777" lon="2.894417680799961">
        <ele>321.6</ele>
        <time>2021-04-29T08:03:28.000Z</time>
      </trkpt>
      <trkpt lat="39.78627182543278" lon="2.8942747693508863">
        <ele>322.4</ele>
        <time>2021-04-29T08:03:33.000Z</time>
      </trkpt>
      <trkpt lat="39.786320608109236" lon="2.8941824845969677">
        <ele>323.2</ele>
        <time>2021-04-29T08:03:36.000Z</time>
      </trkpt>
      <trkpt lat="39.786350447684526" lon="2.894113417714834">
        <ele>323.6</ele>
        <time>2021-04-29T08:03:38.000Z</time>
      </trkpt>
      <trkpt lat="39.7864122223109" lon="2.8939507249742746">
        <ele>324.2</ele>
        <time>2021-04-29T08:03:43.000Z</time>
      </trkpt>
      <trkpt lat="39.7864452470094" lon="2.893897667527199">
        <ele>324.6</ele>
        <time>2021-04-29T08:03:45.000Z</time>
      </trkpt>
      <trkpt lat="39.78651272132993" lon="2.8937713522464037">
        <ele>325.4</ele>
        <time>2021-04-29T08:03:49.000Z</time>
      </trkpt>
      <trkpt lat="39.78654817678034" lon="2.893717372789979">
        <ele>325.8</ele>
        <time>2021-04-29T08:03:51.000Z</time>
      </trkpt>
      <trkpt lat="39.786657225340605" lon="2.8936138562858105">
        <ele>326.8</ele>
        <time>2021-04-29T08:03:56.000Z</time>
      </trkpt>
      <trkpt lat="39.78679074905813" lon="2.893529199063778">
        <ele>327.8</ele>
        <time>2021-04-29T08:04:02.000Z</time>
      </trkpt>
      <trkpt lat="39.78685143403709" lon="2.893494749441743">
        <ele>328.4</ele>
        <time>2021-04-29T08:04:05.000Z</time>
      </trkpt>
      <trkpt lat="39.78690901771188" lon="2.893379246816039">
        <ele>328.6</ele>
        <time>2021-04-29T08:04:08.000Z</time>
      </trkpt>
      <trkpt lat="39.78701965883374" lon="2.8932774905115366">
        <ele>329.4</ele>
        <time>2021-04-29T08:04:13.000Z</time>
      </trkpt>
      <trkpt lat="39.787052515894175" lon="2.8932173922657967">
        <ele>329.8</ele>
        <time>2021-04-29T08:04:15.000Z</time>
      </trkpt>
      <trkpt lat="39.78708419948816" lon="2.8931119479238987">
        <ele>330.2</ele>
        <time>2021-04-29T08:04:18.000Z</time>
      </trkpt>
      <trkpt lat="39.78707665577531" lon="2.8929730597883463">
        <ele>331</ele>
        <time>2021-04-29T08:04:22.000Z</time>
      </trkpt>
      <trkpt lat="39.787073051556945" lon="2.8929388616234064">
        <ele>331.2</ele>
        <time>2021-04-29T08:04:23.000Z</time>
      </trkpt>
      <trkpt lat="39.78704706765711" lon="2.8927842155098915">
        <ele>332</ele>
        <time>2021-04-29T08:04:28.000Z</time>
      </trkpt>
      <trkpt lat="39.78702896274626" lon="2.892693607136607">
        <ele>332.4</ele>
        <time>2021-04-29T08:04:31.000Z</time>
      </trkpt>
      <trkpt lat="39.787009013816714" lon="2.8926008194684982">
        <ele>333</ele>
        <time>2021-04-29T08:04:34.000Z</time>
      </trkpt>
      <trkpt lat="39.78698428720236" lon="2.892483389005065">
        <ele>334.2</ele>
        <time>2021-04-29T08:04:38.000Z</time>
      </trkpt>
      <trkpt lat="39.78697749786079" lon="2.89242060855031">
        <ele>334.6</ele>
        <time>2021-04-29T08:04:40.000Z</time>
      </trkpt>
      <trkpt lat="39.7869822755456" lon="2.8923015017062426">
        <ele>335.2</ele>
        <time>2021-04-29T08:04:44.000Z</time>
      </trkpt>
      <trkpt lat="39.78699501603842" lon="2.8922211192548275">
        <ele>335.8</ele>
        <time>2021-04-29T08:04:47.000Z</time>
      </trkpt>
      <trkpt lat="39.787015467882156" lon="2.892116094008088">
        <ele>336.2</ele>
        <time>2021-04-29T08:04:51.000Z</time>
      </trkpt>
      <trkpt lat="39.787033488973975" lon="2.892049876973033">
        <ele>336.6</ele>
        <time>2021-04-29T08:04:54.000Z</time>
      </trkpt>
      <trkpt lat="39.78708101436496" lon="2.8919501323252916">
        <ele>337.4</ele>
        <time>2021-04-29T08:04:58.000Z</time>
      </trkpt>
      <trkpt lat="39.787118481472135" lon="2.8918918780982494">
        <ele>337.6</ele>
        <time>2021-04-29T08:05:00.000Z</time>
      </trkpt>
      <trkpt lat="39.78719593025744" lon="2.8917596954852343">
        <ele>338.6</ele>
        <time>2021-04-29T08:05:04.000Z</time>
      </trkpt>
      <trkpt lat="39.78723457083106" lon="2.891712002456188">
        <ele>339</ele>
        <time>2021-04-29T08:05:06.000Z</time>
      </trkpt>
      <trkpt lat="39.78730942122638" lon="2.8916343860328197">
        <ele>339.6</ele>
        <time>2021-04-29T08:05:10.000Z</time>
      </trkpt>
      <trkpt lat="39.78735585696995" lon="2.8916021157056093">
        <ele>340.2</ele>
        <time>2021-04-29T08:05:13.000Z</time>
      </trkpt>
      <trkpt lat="39.78736985474825" lon="2.8916035406291485">
        <ele>340.2</ele>
        <time>2021-04-29T08:05:14.000Z</time>
      </trkpt>
      <trkpt lat="39.787393659353256" lon="2.891613682731986">
        <ele>340.6</ele>
        <time>2021-04-29T08:05:16.000Z</time>
      </trkpt>
      <trkpt lat="39.787401454523206" lon="2.891625752672553">
        <ele>340.8</ele>
        <time>2021-04-29T08:05:17.000Z</time>
      </trkpt>
      <trkpt lat="39.78747722692788" lon="2.8916651476174593">
        <ele>341.8</ele>
        <time>2021-04-29T08:05:21.000Z</time>
      </trkpt>
      <trkpt lat="39.78749784640968" lon="2.891673194244504">
        <ele>342</ele>
        <time>2021-04-29T08:05:22.000Z</time>
      </trkpt>
      <trkpt lat="39.78753355331719" lon="2.891702614724636">
        <ele>342.4</ele>
        <time>2021-04-29T08:05:24.000Z</time>
      </trkpt>
      <trkpt lat="39.78758258745074" lon="2.8917324542999268">
        <ele>342.8</ele>
        <time>2021-04-29T08:05:26.000Z</time>
      </trkpt>
      <trkpt lat="39.7876591142267" lon="2.8917820751667023">
        <ele>343.6</ele>
        <time>2021-04-29T08:05:29.000Z</time>
      </trkpt>
      <trkpt lat="39.78770948946476" lon="2.8918190393596888">
        <ele>343.8</ele>
        <time>2021-04-29T08:05:31.000Z</time>
      </trkpt>
      <trkpt lat="39.78780571371317" lon="2.8919192869216204">
        <ele>344.8</ele>
        <time>2021-04-29T08:05:36.000Z</time>
      </trkpt>
      <trkpt lat="39.78783060796559" lon="2.8919431753456593">
        <ele>345</ele>
        <time>2021-04-29T08:05:37.000Z</time>
      </trkpt>
      <trkpt lat="39.787897914648056" lon="2.892004447057843">
        <ele>345.6</ele>
        <time>2021-04-29T08:05:40.000Z</time>
      </trkpt>
      <trkpt lat="39.787913002073765" lon="2.892025401815772">
        <ele>345.8</ele>
        <time>2021-04-29T08:05:41.000Z</time>
      </trkpt>
      <trkpt lat="39.7879300173372" lon="2.892047446221113">
        <ele>346</ele>
        <time>2021-04-29T08:05:42.000Z</time>
      </trkpt>
      <trkpt lat="39.78800185024738" lon="2.8920915350317955">
        <ele>346.4</ele>
        <time>2021-04-29T08:05:45.000Z</time>
      </trkpt>
      <trkpt lat="39.788070414215326" lon="2.8921124059706926">
        <ele>346.8</ele>
        <time>2021-04-29T08:05:48.000Z</time>
      </trkpt>
      <trkpt lat="39.788097655400634" lon="2.892108215019107">
        <ele>347</ele>
        <time>2021-04-29T08:05:49.000Z</time>
      </trkpt>
      <trkpt lat="39.788229167461395" lon="2.8920650482177734">
        <ele>347.8</ele>
        <time>2021-04-29T08:05:54.000Z</time>
      </trkpt>
      <trkpt lat="39.78828172199428" lon="2.892034789547324">
        <ele>348</ele>
        <time>2021-04-29T08:05:56.000Z</time>
      </trkpt>
      <trkpt lat="39.78837844915688" lon="2.8919735178351402">
        <ele>349</ele>
        <time>2021-04-29T08:06:00.000Z</time>
      </trkpt>
      <trkpt lat="39.78840082883835" lon="2.8919601067900658">
        <ele>349</ele>
        <time>2021-04-29T08:06:01.000Z</time>
      </trkpt>
      <trkpt lat="39.78842681273818" lon="2.8919454384595156">
        <ele>349.2</ele>
        <time>2021-04-29T08:06:02.000Z</time>
      </trkpt>
      <trkpt lat="39.788537453860044" lon="2.8918780479580164">
        <ele>349.8</ele>
        <time>2021-04-29T08:06:07.000Z</time>
      </trkpt>
      <trkpt lat="39.788594702258706" lon="2.8918470349162817">
        <ele>350.2</ele>
        <time>2021-04-29T08:06:09.000Z</time>
      </trkpt>
      <trkpt lat="39.78870534338057" lon="2.8917829133570194">
        <ele>351.4</ele>
        <time>2021-04-29T08:06:13.000Z</time>
      </trkpt>
      <trkpt lat="39.78875613771379" lon="2.891757432371378">
        <ele>351.8</ele>
        <time>2021-04-29T08:06:15.000Z</time>
      </trkpt>
      <trkpt lat="39.78883056901395" lon="2.891709739342332">
        <ele>352.4</ele>
        <time>2021-04-29T08:06:18.000Z</time>
      </trkpt>
      <trkpt lat="39.78892176412046" lon="2.8916332963854074">
        <ele>353</ele>
        <time>2021-04-29T08:06:22.000Z</time>
      </trkpt>
      <trkpt lat="39.78896291926503" lon="2.8915804903954268">
        <ele>353.4</ele>
        <time>2021-04-29T08:06:24.000Z</time>
      </trkpt>
      <trkpt lat="39.789024190977216" lon="2.8914726991206408">
        <ele>354.2</ele>
        <time>2021-04-29T08:06:28.000Z</time>
      </trkpt>
      <trkpt lat="39.789032405242324" lon="2.8914539236575365">
        <ele>354.4</ele>
        <time>2021-04-29T08:06:29.000Z</time>
      </trkpt>
      <trkpt lat="39.78907582350075" lon="2.8913676738739014">
        <ele>355.2</ele>
        <time>2021-04-29T08:06:33.000Z</time>
      </trkpt>
      <trkpt lat="39.789108680561185" lon="2.8913016244769096">
        <ele>355.6</ele>
        <time>2021-04-29T08:06:36.000Z</time>
      </trkpt>
      <trkpt lat="39.78914799168706" lon="2.891207579523325">
        <ele>356</ele>
        <time>2021-04-29T08:06:40.000Z</time>
      </trkpt>
      <trkpt lat="39.789206413552165" lon="2.891126023605466">
        <ele>356.6</ele>
        <time>2021-04-29T08:06:44.000Z</time>
      </trkpt>
      <trkpt lat="39.78923952206969" lon="2.891090651974082">
        <ele>357</ele>
        <time>2021-04-29T08:06:46.000Z</time>
      </trkpt>
      <trkpt lat="39.78930867277086" lon="2.8910221718251705">
        <ele>357.8</ele>
        <time>2021-04-29T08:06:50.000Z</time>
      </trkpt>
      <trkpt lat="39.78934706188738" lon="2.8909871354699135">
        <ele>358</ele>
        <time>2021-04-29T08:06:52.000Z</time>
      </trkpt>
      <trkpt lat="39.78945133276284" lon="2.890987806022167">
        <ele>358.8</ele>
        <time>2021-04-29T08:06:56.000Z</time>
      </trkpt>
      <trkpt lat="39.78948226198554" lon="2.8909885603934526">
        <ele>359</ele>
        <time>2021-04-29T08:06:57.000Z</time>
      </trkpt>
      <trkpt lat="39.78962014429271" lon="2.890962492674589">
        <ele>359.8</ele>
        <time>2021-04-29T08:07:02.000Z</time>
      </trkpt>
      <trkpt lat="39.789641769602895" lon="2.890958385542035">
        <ele>360</ele>
        <time>2021-04-29T08:07:03.000Z</time>
      </trkpt>
      <trkpt lat="39.78978971019387" lon="2.890918320044875">
        <ele>360.6</ele>
        <time>2021-04-29T08:07:08.000Z</time>
      </trkpt>
      <trkpt lat="39.78981854394078" lon="2.8908997122198343">
        <ele>360.6</ele>
        <time>2021-04-29T08:07:09.000Z</time>
      </trkpt>
      <trkpt lat="39.789936477318406" lon="2.8907632548362017">
        <ele>361.6</ele>
        <time>2021-04-29T08:07:15.000Z</time>
      </trkpt>
      <trkpt lat="39.78994318284094" lon="2.890738947317004">
        <ele>361.6</ele>
        <time>2021-04-29T08:07:16.000Z</time>
      </trkpt>
      <trkpt lat="39.78994393721223" lon="2.890623025596142">
        <ele>362.4</ele>
        <time>2021-04-29T08:07:20.000Z</time>
      </trkpt>
      <trkpt lat="39.789948211982846" lon="2.890598885715008">
        <ele>362.6</ele>
        <time>2021-04-29T08:07:21.000Z</time>
      </trkpt>
      <trkpt lat="39.78995097801089" lon="2.8905768413096666">
        <ele>363.2</ele>
        <time>2021-04-29T08:07:22.000Z</time>
      </trkpt>
      <trkpt lat="39.78994988836348" lon="2.890452789142728">
        <ele>364</ele>
        <time>2021-04-29T08:07:26.000Z</time>
      </trkpt>
      <trkpt lat="39.7899626288563" lon="2.8903900925070047">
        <ele>364.4</ele>
        <time>2021-04-29T08:07:29.000Z</time>
      </trkpt>
      <trkpt lat="39.78999079205096" lon="2.890369389206171">
        <ele>364.6</ele>
        <time>2021-04-29T08:07:31.000Z</time>
      </trkpt>
      <trkpt lat="39.790015518665314" lon="2.8903772681951523">
        <ele>364.8</ele>
        <time>2021-04-29T08:07:32.000Z</time>
      </trkpt>
      <trkpt lat="39.790063044056296" lon="2.8904323372989893">
        <ele>365.2</ele>
        <time>2021-04-29T08:07:35.000Z</time>
      </trkpt>
      <trkpt lat="39.79009648784995" lon="2.8905153181403875">
        <ele>365.8</ele>
        <time>2021-04-29T08:07:38.000Z</time>
      </trkpt>
      <trkpt lat="39.79011895135045" lon="2.8905385360121727">
        <ele>366</ele>
        <time>2021-04-29T08:07:39.000Z</time>
      </trkpt>
      <trkpt lat="39.790145019069314" lon="2.8905848879367113">
        <ele>366.4</ele>
        <time>2021-04-29T08:07:41.000Z</time>
      </trkpt>
      <trkpt lat="39.790185587480664" lon="2.89062243886292">
        <ele>366.6</ele>
        <time>2021-04-29T08:07:43.000Z</time>
      </trkpt>
      <trkpt lat="39.790317602455616" lon="2.890672395005822">
        <ele>367.4</ele>
        <time>2021-04-29T08:07:48.000Z</time>
      </trkpt>
      <trkpt lat="39.79034459218383" lon="2.8906760830432177">
        <ele>367.6</ele>
        <time>2021-04-29T08:07:49.000Z</time>
      </trkpt>
      <trkpt lat="39.790431428700686" lon="2.890712460502982">
        <ele>368.4</ele>
        <time>2021-04-29T08:07:54.000Z</time>
      </trkpt>
      <trkpt lat="39.79057425633073" lon="2.890761410817504">
        <ele>369.2</ele>
        <time>2021-04-29T08:08:00.000Z</time>
      </trkpt>
      <trkpt lat="39.79062748141587" lon="2.890776079148054">
        <ele>369.6</ele>
        <time>2021-04-29T08:08:02.000Z</time>
      </trkpt>
      <trkpt lat="39.79066025465727" lon="2.8908068407326937">
        <ele>370</ele>
        <time>2021-04-29T08:08:04.000Z</time>
      </trkpt>
      <trkpt lat="39.79068271815777" lon="2.890822347253561">
        <ele>370</ele>
        <time>2021-04-29T08:08:05.000Z</time>
      </trkpt>
      <trkpt lat="39.790767040103674" lon="2.8908671904355288">
        <ele>370.6</ele>
        <time>2021-04-29T08:08:09.000Z</time>
      </trkpt>
      <trkpt lat="39.790779864415526" lon="2.8908796794712543">
        <ele>370.8</ele>
        <time>2021-04-29T08:08:10.000Z</time>
      </trkpt>
      <trkpt lat="39.790803669020534" lon="2.8909415379166603">
        <ele>371.8</ele>
        <time>2021-04-29T08:08:14.000Z</time>
      </trkpt>
      <trkpt lat="39.790802747011185" lon="2.8909655939787626">
        <ele>372</ele>
        <time>2021-04-29T08:08:15.000Z</time>
      </trkpt>
      <trkpt lat="39.79080450721085" lon="2.8910068329423666">
        <ele>372.2</ele>
        <time>2021-04-29T08:08:17.000Z</time>
      </trkpt>
      <trkpt lat="39.79078573174775" lon="2.891030302271247">
        <ele>372.8</ele>
        <time>2021-04-29T08:08:19.000Z</time>
      </trkpt>
      <trkpt lat="39.79069663211703" lon="2.8910914063453674">
        <ele>373.6</ele>
        <time>2021-04-29T08:08:25.000Z</time>
      </trkpt>
      <trkpt lat="39.79067542590201" lon="2.8910998720675707">
        <ele>374</ele>
        <time>2021-04-29T08:08:26.000Z</time>
      </trkpt>
      <trkpt lat="39.790623877197504" lon="2.891150498762727">
        <ele>374.4</ele>
        <time>2021-04-29T08:08:30.000Z</time>
      </trkpt>
      <trkpt lat="39.790566209703684" lon="2.891178745776415">
        <ele>375</ele>
        <time>2021-04-29T08:08:33.000Z</time>
      </trkpt>
      <trkpt lat="39.79050007648766" lon="2.8912206552922726">
        <ele>375.6</ele>
        <time>2021-04-29T08:08:37.000Z</time>
      </trkpt>
      <trkpt lat="39.79045548476279" lon="2.8912546020001173">
        <ele>376</ele>
        <time>2021-04-29T08:08:40.000Z</time>
      </trkpt>
      <trkpt lat="39.79043813422322" lon="2.8912654984742403">
        <ele>376</ele>
        <time>2021-04-29T08:08:41.000Z</time>
      </trkpt>
      <trkpt lat="39.79040519334376" lon="2.8912898059934378">
        <ele>376.4</ele>
        <time>2021-04-29T08:08:43.000Z</time>
      </trkpt>
      <trkpt lat="39.790307711809874" lon="2.8913469705730677">
        <ele>377</ele>
        <time>2021-04-29T08:08:47.000Z</time>
      </trkpt>
      <trkpt lat="39.790236465632915" lon="2.891392819583416">
        <ele>377.4</ele>
        <time>2021-04-29T08:08:50.000Z</time>
      </trkpt>
      <trkpt lat="39.79018248617649" lon="2.8914308734238148">
        <ele>378</ele>
        <time>2021-04-29T08:08:53.000Z</time>
      </trkpt>
      <trkpt lat="39.79013219475746" lon="2.891453839838505">
        <ele>378.4</ele>
        <time>2021-04-29T08:08:55.000Z</time>
      </trkpt>
      <trkpt lat="39.79008659720421" lon="2.89147462695837">
        <ele>378.6</ele>
        <time>2021-04-29T08:08:57.000Z</time>
      </trkpt>
      <trkpt lat="39.79000370018184" lon="2.891518548130989">
        <ele>379.2</ele>
        <time>2021-04-29T08:09:01.000Z</time>
      </trkpt>
      <trkpt lat="39.789966735988855" lon="2.8915457893162966">
        <ele>379.6</ele>
        <time>2021-04-29T08:09:03.000Z</time>
      </trkpt>
      <trkpt lat="39.78989607654512" lon="2.8916358947753906">
        <ele>380.4</ele>
        <time>2021-04-29T08:09:08.000Z</time>
      </trkpt>
      <trkpt lat="39.78987939655781" lon="2.8916612081229687">
        <ele>380.4</ele>
        <time>2021-04-29T08:09:09.000Z</time>
      </trkpt>
      <trkpt lat="39.789839666336775" lon="2.891862206161022">
        <ele>381.4</ele>
        <time>2021-04-29T08:09:16.000Z</time>
      </trkpt>
      <trkpt lat="39.789833799004555" lon="2.8920683171600103">
        <ele>382.4</ele>
        <time>2021-04-29T08:09:23.000Z</time>
      </trkpt>
      <trkpt lat="39.78982675820589" lon="2.892126739025116">
        <ele>382.8</ele>
        <time>2021-04-29T08:09:25.000Z</time>
      </trkpt>
      <trkpt lat="39.78979733772576" lon="2.892301082611084">
        <ele>383.8</ele>
        <time>2021-04-29T08:09:31.000Z</time>
      </trkpt>
      <trkpt lat="39.78978811763227" lon="2.8923251386731863">
        <ele>384</ele>
        <time>2021-04-29T08:09:32.000Z</time>
      </trkpt>
      <trkpt lat="39.7897017840296" lon="2.892463942989707">
        <ele>384.6</ele>
        <time>2021-04-29T08:09:38.000Z</time>
      </trkpt>
      <trkpt lat="39.78964881040156" lon="2.8925356082618237">
        <ele>385</ele>
        <time>2021-04-29T08:09:41.000Z</time>
      </trkpt>
      <trkpt lat="39.78957203216851" lon="2.892631832510233">
        <ele>385.6</ele>
        <time>2021-04-29T08:09:45.000Z</time>
      </trkpt>
      <trkpt lat="39.78952199220657" lon="2.8926831297576427">
        <ele>386</ele>
        <time>2021-04-29T08:09:48.000Z</time>
      </trkpt>
      <trkpt lat="39.789450662210584" lon="2.892751945182681">
        <ele>386.4</ele>
        <time>2021-04-29T08:09:52.000Z</time>
      </trkpt>
      <trkpt lat="39.789379332214594" lon="2.8928481694310904">
        <ele>387</ele>
        <time>2021-04-29T08:09:56.000Z</time>
      </trkpt>
      <trkpt lat="39.789337841793895" lon="2.8929043281823397">
        <ele>387.2</ele>
        <time>2021-04-29T08:09:58.000Z</time>
      </trkpt>
      <trkpt lat="39.78924195282161" lon="2.893034415319562">
        <ele>388</ele>
        <time>2021-04-29T08:10:03.000Z</time>
      </trkpt>
      <trkpt lat="39.78918763808906" lon="2.8930854611098766">
        <ele>388.8</ele>
        <time>2021-04-29T08:10:06.000Z</time>
      </trkpt>
      <trkpt lat="39.789168778806925" lon="2.893106248229742">
        <ele>389.2</ele>
        <time>2021-04-29T08:10:07.000Z</time>
      </trkpt>
      <trkpt lat="39.78903911076486" lon="2.8932477347552776">
        <ele>390.2</ele>
        <time>2021-04-29T08:10:13.000Z</time>
      </trkpt>
      <trkpt lat="39.78901740163565" lon="2.8932704497128725">
        <ele>390.2</ele>
        <time>2021-04-29T08:10:14.000Z</time>
      </trkpt>
      <trkpt lat="39.78882000781596" lon="2.8934345673769712">
        <ele>391.6</ele>
        <time>2021-04-29T08:10:22.000Z</time>
      </trkpt>
      <trkpt lat="39.78876787237823" lon="2.8935610502958298">
        <ele>392.4</ele>
        <time>2021-04-29T08:10:26.000Z</time>
      </trkpt>
      <trkpt lat="39.788776421919465" lon="2.8935980144888163">
        <ele>392.4</ele>
        <time>2021-04-29T08:10:27.000Z</time>
      </trkpt>
      <trkpt lat="39.7888058423996" lon="2.8936574421823025">
        <ele>392.6</ele>
        <time>2021-04-29T08:10:29.000Z</time>
      </trkpt>
      <trkpt lat="39.78881715796888" lon="2.8936798218637705">
        <ele>392.8</ele>
        <time>2021-04-29T08:10:30.000Z</time>
      </trkpt>
      <trkpt lat="39.78883224539459" lon="2.8936956636607647">
        <ele>393</ele>
        <time>2021-04-29T08:10:31.000Z</time>
      </trkpt>
      <trkpt lat="39.7888988815248" lon="2.893698513507843">
        <ele>393.4</ele>
        <time>2021-04-29T08:10:34.000Z</time>
      </trkpt>
      <trkpt lat="39.78892385959625" lon="2.8936881199479103">
        <ele>393.4</ele>
        <time>2021-04-29T08:10:35.000Z</time>
      </trkpt>
      <trkpt lat="39.78897264227271" lon="2.8936724457889795">
        <ele>393.8</ele>
        <time>2021-04-29T08:10:37.000Z</time>
      </trkpt>
      <trkpt lat="39.78905134834349" lon="2.893671104684472">
        <ele>394.2</ele>
        <time>2021-04-29T08:10:40.000Z</time>
      </trkpt>
      <trkpt lat="39.789227452129126" lon="2.893663728609681">
        <ele>395</ele>
        <time>2021-04-29T08:10:47.000Z</time>
      </trkpt>
      <trkpt lat="39.78932669386268" lon="2.8936588671058416">
        <ele>396</ele>
        <time>2021-04-29T08:10:51.000Z</time>
      </trkpt>
      <trkpt lat="39.78940741159022" lon="2.893655262887478">
        <ele>396.6</ele>
        <time>2021-04-29T08:10:54.000Z</time>
      </trkpt>
      <trkpt lat="39.789461474865675" lon="2.893650233745575">
        <ele>397</ele>
        <time>2021-04-29T08:10:56.000Z</time>
      </trkpt>
      <trkpt lat="39.7896137740463" lon="2.8936218190938234">
        <ele>398</ele>
        <time>2021-04-29T08:11:02.000Z</time>
      </trkpt>
      <trkpt lat="39.78966171853244" lon="2.8936049714684486">
        <ele>398.2</ele>
        <time>2021-04-29T08:11:04.000Z</time>
      </trkpt>
      <trkpt lat="39.78974805213511" lon="2.8936074022203684">
        <ele>398.8</ele>
        <time>2021-04-29T08:11:08.000Z</time>
      </trkpt>
      <trkpt lat="39.78976422920823" lon="2.8936244174838066">
        <ele>399.2</ele>
        <time>2021-04-29T08:11:09.000Z</time>
      </trkpt>
      <trkpt lat="39.78977336548269" lon="2.893648725003004">
        <ele>399.4</ele>
        <time>2021-04-29T08:11:10.000Z</time>
      </trkpt>
      <trkpt lat="39.78976892307401" lon="2.89369884878397">
        <ele>399.6</ele>
        <time>2021-04-29T08:11:12.000Z</time>
      </trkpt>
      <trkpt lat="39.78972014039755" lon="2.8937597014009953">
        <ele>400.2</ele>
        <time>2021-04-29T08:11:16.000Z</time>
      </trkpt>
      <trkpt lat="39.789700442925096" lon="2.893770933151245">
        <ele>400.4</ele>
        <time>2021-04-29T08:11:17.000Z</time>
      </trkpt>
      <trkpt lat="39.789558704942465" lon="2.8938364796340466">
        <ele>401</ele>
        <time>2021-04-29T08:11:24.000Z</time>
      </trkpt>
      <trkpt lat="39.78951453231275" lon="2.8938596136868">
        <ele>401.4</ele>
        <time>2021-04-29T08:11:26.000Z</time>
      </trkpt>
      <trkpt lat="39.78940171189606" lon="2.8939318656921387">
        <ele>402.2</ele>
        <time>2021-04-29T08:11:31.000Z</time>
      </trkpt>
      <trkpt lat="39.78937815874815" lon="2.89394267834723">
        <ele>402.4</ele>
        <time>2021-04-29T08:11:32.000Z</time>
      </trkpt>
      <trkpt lat="39.78935552760959" lon="2.8939503896981478">
        <ele>402.4</ele>
        <time>2021-04-29T08:11:33.000Z</time>
      </trkpt>
      <trkpt lat="39.78935552760959" lon="2.8939503896981478">
        <ele>402.4</ele>
        <time>2021-04-29T08:11:33.000Z</time>
      </trkpt>
      <trkpt lat="39.789279671385884" lon="2.8939772117882967">
        <ele>403.2</ele>
        <time>2021-04-29T08:11:37.000Z</time>
      </trkpt>
      <trkpt lat="39.78921705856919" lon="2.8939928859472275">
        <ele>403.6</ele>
        <time>2021-04-29T08:11:40.000Z</time>
      </trkpt>
      <trkpt lat="39.78916869498789" lon="2.8940173611044884">
        <ele>404</ele>
        <time>2021-04-29T08:11:42.000Z</time>
      </trkpt>
      <trkpt lat="39.789150757715106" lon="2.894038651138544">
        <ele>404.2</ele>
        <time>2021-04-29T08:11:43.000Z</time>
      </trkpt>
      <trkpt lat="39.78911194950342" lon="2.8941377252340317">
        <ele>404.6</ele>
        <time>2021-04-29T08:11:46.000Z</time>
      </trkpt>
      <trkpt lat="39.789110692217946" lon="2.8941663075238466">
        <ele>404.6</ele>
        <time>2021-04-29T08:11:47.000Z</time>
      </trkpt>
      <trkpt lat="39.789130138233304" lon="2.8942523058503866">
        <ele>405.2</ele>
        <time>2021-04-29T08:11:50.000Z</time>
      </trkpt>
      <trkpt lat="39.78919627144933" lon="2.8942743502557278">
        <ele>405.6</ele>
        <time>2021-04-29T08:11:54.000Z</time>
      </trkpt>
      <trkpt lat="39.78921705856919" lon="2.8942696563899517">
        <ele>405.8</ele>
        <time>2021-04-29T08:11:55.000Z</time>
      </trkpt>
      <trkpt lat="39.78928964585066" lon="2.894235122948885">
        <ele>406.4</ele>
        <time>2021-04-29T08:11:59.000Z</time>
      </trkpt>
      <trkpt lat="39.789414536207914" lon="2.894221879541874">
        <ele>406.8</ele>
        <time>2021-04-29T08:12:04.000Z</time>
      </trkpt>
      <trkpt lat="39.78961167857051" lon="2.894223053008318">
        <ele>407.8</ele>
        <time>2021-04-29T08:12:11.000Z</time>
      </trkpt>
      <trkpt lat="39.789639841765165" lon="2.8942208737134933">
        <ele>408</ele>
        <time>2021-04-29T08:12:12.000Z</time>
      </trkpt>
      <trkpt lat="39.78975408710539" lon="2.8941607754677534">
        <ele>409</ele>
        <time>2021-04-29T08:12:17.000Z</time>
      </trkpt>
      <trkpt lat="39.789778646081686" lon="2.8941383119672537">
        <ele>409.2</ele>
        <time>2021-04-29T08:12:18.000Z</time>
      </trkpt>
      <trkpt lat="39.78989574126899" lon="2.894053068011999">
        <ele>409.8</ele>
        <time>2021-04-29T08:12:23.000Z</time>
      </trkpt>
      <trkpt lat="39.789938321337104" lon="2.8940350469201803">
        <ele>410.2</ele>
        <time>2021-04-29T08:12:25.000Z</time>
      </trkpt>
      <trkpt lat="39.790011243894696" lon="2.8940197080373764">
        <ele>410.8</ele>
        <time>2021-04-29T08:12:28.000Z</time>
      </trkpt>
      <trkpt lat="39.79007343761623" lon="2.894050469622016">
        <ele>411.4</ele>
        <time>2021-04-29T08:12:31.000Z</time>
      </trkpt>
      <trkpt lat="39.790104450657964" lon="2.8940923791378736">
        <ele>412</ele>
        <time>2021-04-29T08:12:33.000Z</time>
      </trkpt>
      <trkpt lat="39.790160274133086" lon="2.89414350874722">
        <ele>412.4</ele>
        <time>2021-04-29T08:12:36.000Z</time>
      </trkpt>
      <trkpt lat="39.79020880535245" lon="2.8941766172647476">
        <ele>412.8</ele>
        <time>2021-04-29T08:12:38.000Z</time>
      </trkpt>
      <trkpt lat="39.7902927082032" lon="2.8942252323031425">
        <ele>413.6</ele>
        <time>2021-04-29T08:12:41.000Z</time>
      </trkpt>
      <trkpt lat="39.79036236181855" lon="2.8942582570016384">
        <ele>414.4</ele>
        <time>2021-04-29T08:12:44.000Z</time>
      </trkpt>
      <trkpt lat="39.79041147977114" lon="2.8942859172821045">
        <ele>414.6</ele>
        <time>2021-04-29T08:12:46.000Z</time>
      </trkpt>
      <trkpt lat="39.79051818139851" lon="2.8943412378430367">
        <ele>415.2</ele>
        <time>2021-04-29T08:12:50.000Z</time>
      </trkpt>
      <trkpt lat="39.79062580503523" lon="2.894389433786273">
        <ele>415.8</ele>
        <time>2021-04-29T08:12:54.000Z</time>
      </trkpt>
      <trkpt lat="39.79067903012037" lon="2.8944178484380245">
        <ele>416.2</ele>
        <time>2021-04-29T08:12:56.000Z</time>
      </trkpt>
      <trkpt lat="39.79079268872738" lon="2.8944811318069696">
        <ele>416.8</ele>
        <time>2021-04-29T08:13:00.000Z</time>
      </trkpt>
      <trkpt lat="39.79088027961552" lon="2.8945209458470345">
        <ele>417.6</ele>
        <time>2021-04-29T08:13:03.000Z</time>
      </trkpt>
      <trkpt lat="39.79093794710934" lon="2.8945486899465322">
        <ele>417.8</ele>
        <time>2021-04-29T08:13:05.000Z</time>
      </trkpt>
      <trkpt lat="39.79112645611167" lon="2.8946369513869286">
        <ele>419</ele>
        <time>2021-04-29T08:13:12.000Z</time>
      </trkpt>
      <trkpt lat="39.79131689295173" lon="2.894585821777582">
        <ele>420</ele>
        <time>2021-04-29T08:13:18.000Z</time>
      </trkpt>
      <trkpt lat="39.791575726121664" lon="2.8944761864840984">
        <ele>421.2</ele>
        <time>2021-04-29T08:13:26.000Z</time>
      </trkpt>
      <trkpt lat="39.791775131598115" lon="2.894396558403969">
        <ele>421.6</ele>
        <time>2021-04-29T08:13:31.000Z</time>
      </trkpt>
      <trkpt lat="39.79187211021781" lon="2.894365629181266">
        <ele>421.6</ele>
        <time>2021-04-29T08:13:33.000Z</time>
      </trkpt>
      <trkpt lat="39.79220286011696" lon="2.89434727281332">
        <ele>421.4</ele>
        <time>2021-04-29T08:13:39.000Z</time>
      </trkpt>
      <trkpt lat="39.79255196638405" lon="2.894459841772914">
        <ele>420.6</ele>
        <time>2021-04-29T08:13:45.000Z</time>
      </trkpt>
      <trkpt lat="39.79294717311859" lon="2.8946716524660587">
        <ele>420.2</ele>
        <time>2021-04-29T08:13:52.000Z</time>
      </trkpt>
      <trkpt lat="39.79323886334896" lon="2.894787322729826">
        <ele>420.4</ele>
        <time>2021-04-29T08:13:58.000Z</time>
      </trkpt>
      <trkpt lat="39.79341488331556" lon="2.8948319144546986">
        <ele>420.8</ele>
        <time>2021-04-29T08:14:02.000Z</time>
      </trkpt>
      <trkpt lat="39.79355117306113" lon="2.894858568906784">
        <ele>421.6</ele>
        <time>2021-04-29T08:14:05.000Z</time>
      </trkpt>
      <trkpt lat="39.79364178143442" lon="2.8948781825602055">
        <ele>422.2</ele>
        <time>2021-04-29T08:14:07.000Z</time>
      </trkpt>
      <trkpt lat="39.79373364709318" lon="2.8949004784226418">
        <ele>422.6</ele>
        <time>2021-04-29T08:14:09.000Z</time>
      </trkpt>
      <trkpt lat="39.79382232762873" lon="2.894918667152524">
        <ele>423</ele>
        <time>2021-04-29T08:14:11.000Z</time>
      </trkpt>
      <trkpt lat="39.7939120978117" lon="2.894938951358199">
        <ele>423.6</ele>
        <time>2021-04-29T08:14:13.000Z</time>
      </trkpt>
      <trkpt lat="39.79400547221303" lon="2.8949490934610367">
        <ele>424.2</ele>
        <time>2021-04-29T08:14:15.000Z</time>
      </trkpt>
      <trkpt lat="39.79415249079466" lon="2.8949703834950924">
        <ele>425.2</ele>
        <time>2021-04-29T08:14:18.000Z</time>
      </trkpt>
      <trkpt lat="39.79424309916794" lon="2.895009024068713">
        <ele>425.6</ele>
        <time>2021-04-29T08:14:20.000Z</time>
      </trkpt>
      <trkpt lat="39.79431920684874" lon="2.8950640093535185">
        <ele>426.2</ele>
        <time>2021-04-29T08:14:22.000Z</time>
      </trkpt>
      <trkpt lat="39.794353656470776" lon="2.89509829133749">
        <ele>426.4</ele>
        <time>2021-04-29T08:14:23.000Z</time>
      </trkpt>
      <trkpt lat="39.79442046023905" lon="2.895173393189907">
        <ele>427</ele>
        <time>2021-04-29T08:14:25.000Z</time>
      </trkpt>
      <trkpt lat="39.794519282877445" lon="2.89528738707304">
        <ele>427.6</ele>
        <time>2021-04-29T08:14:28.000Z</time>
      </trkpt>
      <trkpt lat="39.794601341709495" lon="2.8953847009688616">
        <ele>428.8</ele>
        <time>2021-04-29T08:14:31.000Z</time>
      </trkpt>
      <trkpt lat="39.79462707415223" lon="2.895410852506757">
        <ele>429</ele>
        <time>2021-04-29T08:14:32.000Z</time>
      </trkpt>
      <trkpt lat="39.79472732171416" lon="2.8955187276005745">
        <ele>429.8</ele>
        <time>2021-04-29T08:14:36.000Z</time>
      </trkpt>
      <trkpt lat="39.794855397194624" lon="2.8956397622823715">
        <ele>430.8</ele>
        <time>2021-04-29T08:14:41.000Z</time>
      </trkpt>
      <trkpt lat="39.79488003998995" lon="2.89566557854414">
        <ele>431</ele>
        <time>2021-04-29T08:14:42.000Z</time>
      </trkpt>
      <trkpt lat="39.79500132612884" lon="2.8957949113100767">
        <ele>431.6</ele>
        <time>2021-04-29T08:14:48.000Z</time>
      </trkpt>
      <trkpt lat="39.79502026923001" lon="2.8958144411444664">
        <ele>431.6</ele>
        <time>2021-04-29T08:14:49.000Z</time>
      </trkpt>
      <trkpt lat="39.79506100527942" lon="2.89585517719388">
        <ele>432</ele>
        <time>2021-04-29T08:14:51.000Z</time>
      </trkpt>
      <trkpt lat="39.79512403719127" lon="2.8959336318075657">
        <ele>433</ele>
        <time>2021-04-29T08:14:55.000Z</time>
      </trkpt>
      <trkpt lat="39.79513862170279" lon="2.8959514014422894">
        <ele>433.2</ele>
        <time>2021-04-29T08:14:56.000Z</time>
      </trkpt>
      <trkpt lat="39.79519008658826" lon="2.8960087336599827">
        <ele>433.6</ele>
        <time>2021-04-29T08:14:59.000Z</time>
      </trkpt>
      <trkpt lat="39.79526041075587" lon="2.8960806503891945">
        <ele>434</ele>
        <time>2021-04-29T08:15:03.000Z</time>
      </trkpt>
      <trkpt lat="39.79527801275253" lon="2.8960994258522987">
        <ele>434.2</ele>
        <time>2021-04-29T08:15:04.000Z</time>
      </trkpt>
      <trkpt lat="39.79529603384435" lon="2.8961181174963713">
        <ele>434.4</ele>
        <time>2021-04-29T08:15:05.000Z</time>
      </trkpt>
      <trkpt lat="39.795431485399604" lon="2.896192464977503">
        <ele>435.2</ele>
        <time>2021-04-29T08:15:10.000Z</time>
      </trkpt>
      <trkpt lat="39.79546400718391" lon="2.8962049540132284">
        <ele>435.4</ele>
        <time>2021-04-29T08:15:11.000Z</time>
      </trkpt>
      <trkpt lat="39.7956370934844" lon="2.8962747752666473">
        <ele>435.8</ele>
        <time>2021-04-29T08:15:17.000Z</time>
      </trkpt>
      <trkpt lat="39.79578956030309" lon="2.8963310178369284">
        <ele>436.4</ele>
        <time>2021-04-29T08:15:22.000Z</time>
      </trkpt>
      <trkpt lat="39.79599567130208" lon="2.8964010905474424">
        <ele>437.4</ele>
        <time>2021-04-29T08:15:29.000Z</time>
      </trkpt>
      <trkpt lat="39.796180576086044" lon="2.896496895700693">
        <ele>438.4</ele>
        <time>2021-04-29T08:15:36.000Z</time>
      </trkpt>
      <trkpt lat="39.79620438069105" lon="2.89650896564126">
        <ele>438.6</ele>
        <time>2021-04-29T08:15:37.000Z</time>
      </trkpt>
      <trkpt lat="39.79638702236116" lon="2.8965695668011904">
        <ele>439.6</ele>
        <time>2021-04-29T08:15:44.000Z</time>
      </trkpt>
      <trkpt lat="39.79651643894613" lon="2.8965907730162144">
        <ele>440.4</ele>
        <time>2021-04-29T08:15:49.000Z</time>
      </trkpt>
      <trkpt lat="39.79659087024629" lon="2.8965866658836603">
        <ele>441</ele>
        <time>2021-04-29T08:15:52.000Z</time>
      </trkpt>
      <trkpt lat="39.79669497348368" lon="2.896557915955782">
        <ele>441.6</ele>
        <time>2021-04-29T08:15:56.000Z</time>
      </trkpt>
      <trkpt lat="39.79675096459687" lon="2.8965356200933456">
        <ele>442</ele>
        <time>2021-04-29T08:15:58.000Z</time>
      </trkpt>
      <trkpt lat="39.79681961238384" lon="2.8965150844305754">
        <ele>442.6</ele>
        <time>2021-04-29T08:16:01.000Z</time>
      </trkpt>
      <trkpt lat="39.79683989658952" lon="2.896504942327738">
        <ele>442.8</ele>
        <time>2021-04-29T08:16:02.000Z</time>
      </trkpt>
      <trkpt lat="39.79689387604594" lon="2.8964908607304096">
        <ele>443</ele>
        <time>2021-04-29T08:16:04.000Z</time>
      </trkpt>
      <trkpt lat="39.796976521611214" lon="2.8964876756072044">
        <ele>443.4</ele>
        <time>2021-04-29T08:16:07.000Z</time>
      </trkpt>
      <trkpt lat="39.79707643389702" lon="2.8965094685554504">
        <ele>443.8</ele>
        <time>2021-04-29T08:16:10.000Z</time>
      </trkpt>
      <trkpt lat="39.79723912663758" lon="2.8966063633561134">
        <ele>444.4</ele>
        <time>2021-04-29T08:16:16.000Z</time>
      </trkpt>
      <trkpt lat="39.79728765785694" lon="2.8966457583010197">
        <ele>444.8</ele>
        <time>2021-04-29T08:16:18.000Z</time>
      </trkpt>
      <trkpt lat="39.79734633117914" lon="2.8967197705060244">
        <ele>445.4</ele>
        <time>2021-04-29T08:16:21.000Z</time>
      </trkpt>
      <trkpt lat="39.7973848041147" lon="2.89677232503891">
        <ele>445.6</ele>
        <time>2021-04-29T08:16:23.000Z</time>
      </trkpt>
      <trkpt lat="39.797433000057936" lon="2.8968233708292246">
        <ele>445.8</ele>
        <time>2021-04-29T08:16:25.000Z</time>
      </trkpt>
      <trkpt lat="39.79756317101419" lon="2.896971059963107">
        <ele>446.4</ele>
        <time>2021-04-29T08:16:30.000Z</time>
      </trkpt>
      <trkpt lat="39.79768420569599" lon="2.8971217665821314">
        <ele>447</ele>
        <time>2021-04-29T08:16:35.000Z</time>
      </trkpt>
      <trkpt lat="39.79777540080249" lon="2.8972396161407232">
        <ele>447.2</ele>
        <time>2021-04-29T08:16:39.000Z</time>
      </trkpt>
      <trkpt lat="39.79796793311834" lon="2.897508507594466">
        <ele>448.2</ele>
        <time>2021-04-29T08:16:48.000Z</time>
      </trkpt>
      <trkpt lat="39.79813205078244" lon="2.8977130260318518">
        <ele>449.4</ele>
        <time>2021-04-29T08:16:55.000Z</time>
      </trkpt>
      <trkpt lat="39.79818183928728" lon="2.8977707773447037">
        <ele>449.6</ele>
        <time>2021-04-29T08:16:57.000Z</time>
      </trkpt>
      <trkpt lat="39.79825199581683" lon="2.897854344919324">
        <ele>449.8</ele>
        <time>2021-04-29T08:17:00.000Z</time>
      </trkpt>
      <trkpt lat="39.798350147902966" lon="2.8979386668652296">
        <ele>450.2</ele>
        <time>2021-04-29T08:17:04.000Z</time>
      </trkpt>
      <trkpt lat="39.79837344959378" lon="2.8979572746902704">
        <ele>450.4</ele>
        <time>2021-04-29T08:17:05.000Z</time>
      </trkpt>
      <trkpt lat="39.798505464568734" lon="2.8980205580592155">
        <ele>451.2</ele>
        <time>2021-04-29T08:17:10.000Z</time>
      </trkpt>
      <trkpt lat="39.79855936020613" lon="2.8980334661900997">
        <ele>451.4</ele>
        <time>2021-04-29T08:17:12.000Z</time>
      </trkpt>
      <trkpt lat="39.79871551506221" lon="2.898059953004122">
        <ele>452.2</ele>
        <time>2021-04-29T08:17:17.000Z</time>
      </trkpt>
      <trkpt lat="39.79877158999443" lon="2.898049894720316">
        <ele>452.4</ele>
        <time>2021-04-29T08:17:19.000Z</time>
      </trkpt>
      <trkpt lat="39.79888147674501" lon="2.8980208933353424">
        <ele>452.8</ele>
        <time>2021-04-29T08:17:23.000Z</time>
      </trkpt>
      <trkpt lat="39.79899010621011" lon="2.897965991869569">
        <ele>453.4</ele>
        <time>2021-04-29T08:17:28.000Z</time>
      </trkpt>
      <trkpt lat="39.79901231825352" lon="2.897956520318985">
        <ele>453.6</ele>
        <time>2021-04-29T08:17:29.000Z</time>
      </trkpt>
      <trkpt lat="39.79914207011461" lon="2.897897260263562">
        <ele>454.6</ele>
        <time>2021-04-29T08:17:34.000Z</time>
      </trkpt>
      <trkpt lat="39.79916947893798" lon="2.8978830948472023">
        <ele>454.8</ele>
        <time>2021-04-29T08:17:35.000Z</time>
      </trkpt>
      <trkpt lat="39.79932697489858" lon="2.8978137765079737">
        <ele>455.4</ele>
        <time>2021-04-29T08:17:41.000Z</time>
      </trkpt>
      <trkpt lat="39.79937215335667" lon="2.8977855294942856">
        <ele>455.8</ele>
        <time>2021-04-29T08:17:43.000Z</time>
      </trkpt>
      <trkpt lat="39.79949117638171" lon="2.8977251797914505">
        <ele>456.2</ele>
        <time>2021-04-29T08:17:47.000Z</time>
      </trkpt>
      <trkpt lat="39.79970927350223" lon="2.89762694388628">
        <ele>456.8</ele>
        <time>2021-04-29T08:17:53.000Z</time>
      </trkpt>
      <trkpt lat="39.79984849691391" lon="2.897561313584447">
        <ele>457.6</ele>
        <time>2021-04-29T08:17:58.000Z</time>
      </trkpt>
      <trkpt lat="39.79992913082242" lon="2.8975248523056507">
        <ele>458</ele>
        <time>2021-04-29T08:18:01.000Z</time>
      </trkpt>
      <trkpt lat="39.80003465898335" lon="2.897476991638541">
        <ele>458.2</ele>
        <time>2021-04-29T08:18:04.000Z</time>
      </trkpt>
      <trkpt lat="39.80021025985479" lon="2.897396357730031">
        <ele>458.8</ele>
        <time>2021-04-29T08:18:09.000Z</time>
      </trkpt>
      <trkpt lat="39.80029257014394" lon="2.8973671048879623">
        <ele>459</ele>
        <time>2021-04-29T08:18:11.000Z</time>
      </trkpt>
      <trkpt lat="39.80047496035695" lon="2.8973011393100023">
        <ele>459.4</ele>
        <time>2021-04-29T08:18:15.000Z</time>
      </trkpt>
      <trkpt lat="39.800561713054776" lon="2.897289404645562">
        <ele>459.6</ele>
        <time>2021-04-29T08:18:17.000Z</time>
      </trkpt>
      <trkpt lat="39.800639832392335" lon="2.89728244766593">
        <ele>459.8</ele>
        <time>2021-04-29T08:18:19.000Z</time>
      </trkpt>
      <trkpt lat="39.80067528784275" lon="2.8972831182181835">
        <ele>459.8</ele>
        <time>2021-04-29T08:18:20.000Z</time>
      </trkpt>
      <trkpt lat="39.80075340718031" lon="2.8972795978188515">
        <ele>460</ele>
        <time>2021-04-29T08:18:22.000Z</time>
      </trkpt>
      <trkpt lat="39.8008783813566" lon="2.897299127653241">
        <ele>460.2</ele>
        <time>2021-04-29T08:18:25.000Z</time>
      </trkpt>
      <trkpt lat="39.80100897140801" lon="2.897310107946396">
        <ele>460.6</ele>
        <time>2021-04-29T08:18:28.000Z</time>
      </trkpt>
      <trkpt lat="39.80105155147612" lon="2.8973219264298677">
        <ele>460.6</ele>
        <time>2021-04-29T08:18:29.000Z</time>
      </trkpt>
      <trkpt lat="39.80131113901734" lon="2.8974070865660906">
        <ele>460.8</ele>
        <time>2021-04-29T08:18:34.000Z</time>
      </trkpt>
      <trkpt lat="39.801661586388946" lon="2.897611353546381">
        <ele>460.8</ele>
        <time>2021-04-29T08:18:41.000Z</time>
      </trkpt>
      <trkpt lat="39.801970794796944" lon="2.8979089949280024">
        <ele>460.8</ele>
        <time>2021-04-29T08:18:48.000Z</time>
      </trkpt>
      <trkpt lat="39.80207758024335" lon="2.8981318697333336">
        <ele>460.8</ele>
        <time>2021-04-29T08:18:52.000Z</time>
      </trkpt>
      <trkpt lat="39.802210265770555" lon="2.898403275758028">
        <ele>460.8</ele>
        <time>2021-04-29T08:18:57.000Z</time>
      </trkpt>
      <trkpt lat="39.8022389318794" lon="2.8984615299850702">
        <ele>460.8</ele>
        <time>2021-04-29T08:18:58.000Z</time>
      </trkpt>
      <trkpt lat="39.80229978449643" lon="2.898589102551341">
        <ele>461</ele>
        <time>2021-04-29T08:19:00.000Z</time>
      </trkpt>
      <trkpt lat="39.8023599665612" lon="2.8987191058695316">
        <ele>461.2</ele>
        <time>2021-04-29T08:19:02.000Z</time>
      </trkpt>
      <trkpt lat="39.802424255758524" lon="2.898854138329625">
        <ele>461.2</ele>
        <time>2021-04-29T08:19:04.000Z</time>
      </trkpt>
      <trkpt lat="39.80255065485835" lon="2.8991208504885435">
        <ele>461.4</ele>
        <time>2021-04-29T08:19:08.000Z</time>
      </trkpt>
      <trkpt lat="39.802605556324124" lon="2.8992433100938797">
        <ele>461.4</ele>
        <time>2021-04-29T08:19:10.000Z</time>
      </trkpt>
      <trkpt lat="39.802635814994574" lon="2.8993114549666643">
        <ele>461.4</ele>
        <time>2021-04-29T08:19:11.000Z</time>
      </trkpt>
      <trkpt lat="39.80271661654115" lon="2.8994857147336006">
        <ele>461.6</ele>
        <time>2021-04-29T08:19:14.000Z</time>
      </trkpt>
      <trkpt lat="39.80274419300258" lon="2.8995469864457846">
        <ele>461.8</ele>
        <time>2021-04-29T08:19:15.000Z</time>
      </trkpt>
      <trkpt lat="39.80287319049239" lon="2.899841358885169">
        <ele>461.8</ele>
        <time>2021-04-29T08:19:20.000Z</time>
      </trkpt>
      <trkpt lat="39.80290629900992" lon="2.8998947516083717">
        <ele>461.8</ele>
        <time>2021-04-29T08:19:21.000Z</time>
      </trkpt>
      <trkpt lat="39.802993051707745" lon="2.899970356374979">
        <ele>461.8</ele>
        <time>2021-04-29T08:19:23.000Z</time>
      </trkpt>
      <trkpt lat="39.803112326189876" lon="2.8999925684183836">
        <ele>462</ele>
        <time>2021-04-29T08:19:26.000Z</time>
      </trkpt>
      <trkpt lat="39.80322606861591" lon="2.900039339438081">
        <ele>462</ele>
        <time>2021-04-29T08:19:28.000Z</time>
      </trkpt>
      <trkpt lat="39.80334769003093" lon="2.900099102407694">
        <ele>462.2</ele>
        <time>2021-04-29T08:19:30.000Z</time>
      </trkpt>
      <trkpt lat="39.8035307507962" lon="2.900134641677141">
        <ele>462.6</ele>
        <time>2021-04-29T08:19:33.000Z</time>
      </trkpt>
      <trkpt lat="39.8036290705204" lon="2.900089882314205">
        <ele>462.8</ele>
        <time>2021-04-29T08:19:35.000Z</time>
      </trkpt>
      <trkpt lat="39.80379628948867" lon="2.8999328054487705">
        <ele>462.8</ele>
        <time>2021-04-29T08:19:38.000Z</time>
      </trkpt>
      <trkpt lat="39.803977590054274" lon="2.8996088448911905">
        <ele>462.8</ele>
        <time>2021-04-29T08:19:42.000Z</time>
      </trkpt>
      <trkpt lat="39.80422083288431" lon="2.899170722812414">
        <ele>461.6</ele>
        <time>2021-04-29T08:19:47.000Z</time>
      </trkpt>
      <trkpt lat="39.804347986355424" lon="2.8989936131983995">
        <ele>461</ele>
        <time>2021-04-29T08:19:49.000Z</time>
      </trkpt>
      <trkpt lat="39.80442241765559" lon="2.8989282343536615">
        <ele>460.8</ele>
        <time>2021-04-29T08:19:50.000Z</time>
      </trkpt>
      <trkpt lat="39.80450254864991" lon="2.898869477212429">
        <ele>460.4</ele>
        <time>2021-04-29T08:19:51.000Z</time>
      </trkpt>
      <trkpt lat="39.80480019003153" lon="2.898626821115613">
        <ele>459.6</ele>
        <time>2021-04-29T08:19:55.000Z</time>
      </trkpt>
      <trkpt lat="39.80495676398277" lon="2.8986434172838926">
        <ele>459.6</ele>
        <time>2021-04-29T08:19:57.000Z</time>
      </trkpt>
      <trkpt lat="39.80516136623919" lon="2.8987835627049208">
        <ele>459.2</ele>
        <time>2021-04-29T08:20:00.000Z</time>
      </trkpt>
      <trkpt lat="39.805229594931006" lon="2.898833015933633">
        <ele>459</ele>
        <time>2021-04-29T08:20:01.000Z</time>
      </trkpt>
      <trkpt lat="39.8052953928709" lon="2.898869728669524">
        <ele>459</ele>
        <time>2021-04-29T08:20:02.000Z</time>
      </trkpt>
      <trkpt lat="39.80552354827523" lon="2.898911889642477">
        <ele>459</ele>
        <time>2021-04-29T08:20:05.000Z</time>
      </trkpt>
      <trkpt lat="39.80559462681413" lon="2.8989107999950647">
        <ele>459</ele>
        <time>2021-04-29T08:20:06.000Z</time>
      </trkpt>
      <trkpt lat="39.80565874837339" lon="2.898907195776701">
        <ele>459.2</ele>
        <time>2021-04-29T08:20:07.000Z</time>
      </trkpt>
      <trkpt lat="39.80588740669191" lon="2.8988561499863863">
        <ele>459.4</ele>
        <time>2021-04-29T08:20:11.000Z</time>
      </trkpt>
      <trkpt lat="39.80607616715133" lon="2.898764619603753">
        <ele>460.6</ele>
        <time>2021-04-29T08:20:16.000Z</time>
      </trkpt>
      <trkpt lat="39.806168116629124" lon="2.898709299042821">
        <ele>462.2</ele>
        <time>2021-04-29T08:20:19.000Z</time>
      </trkpt>
      <trkpt lat="39.80622938834131" lon="2.89867359213531">
        <ele>463.2</ele>
        <time>2021-04-29T08:20:21.000Z</time>
      </trkpt>
      <trkpt lat="39.80629166588187" lon="2.898639813065529">
        <ele>464</ele>
        <time>2021-04-29T08:20:23.000Z</time>
      </trkpt>
      <trkpt lat="39.80634790845215" lon="2.8986195288598537">
        <ele>464.6</ele>
        <time>2021-04-29T08:20:25.000Z</time>
      </trkpt>
      <trkpt lat="39.80641471222043" lon="2.8985968977212906">
        <ele>465.2</ele>
        <time>2021-04-29T08:20:28.000Z</time>
      </trkpt>
      <trkpt lat="39.806466763839126" lon="2.8985804691910744">
        <ele>465.8</ele>
        <time>2021-04-29T08:20:30.000Z</time>
      </trkpt>
      <trkpt lat="39.80658235028386" lon="2.898547863587737">
        <ele>466.8</ele>
        <time>2021-04-29T08:20:34.000Z</time>
      </trkpt>
      <trkpt lat="39.80661604553461" lon="2.8985389787703753">
        <ele>467.2</ele>
        <time>2021-04-29T08:20:35.000Z</time>
      </trkpt>
      <trkpt lat="39.80674026533961" lon="2.898505786433816">
        <ele>468</ele>
        <time>2021-04-29T08:20:39.000Z</time>
      </trkpt>
      <trkpt lat="39.8067893832922" lon="2.89849572815001">
        <ele>468.4</ele>
        <time>2021-04-29T08:20:41.000Z</time>
      </trkpt>
      <trkpt lat="39.80685107409954" lon="2.8984717559069395">
        <ele>468.8</ele>
        <time>2021-04-29T08:20:44.000Z</time>
      </trkpt>
      <trkpt lat="39.80686699971557" lon="2.898463122546673">
        <ele>469</ele>
        <time>2021-04-29T08:20:45.000Z</time>
      </trkpt>
      <trkpt lat="39.8069154471159" lon="2.898444766178727">
        <ele>469.4</ele>
        <time>2021-04-29T08:20:47.000Z</time>
      </trkpt>
      <trkpt lat="39.807034553959966" lon="2.898392044007778">
        <ele>469.8</ele>
        <time>2021-04-29T08:20:52.000Z</time>
      </trkpt>
      <trkpt lat="39.807053999975324" lon="2.8983839973807335">
        <ele>470</ele>
        <time>2021-04-29T08:20:53.000Z</time>
      </trkpt>
      <trkpt lat="39.80714360252023" lon="2.8983507212251425">
        <ele>470.8</ele>
        <time>2021-04-29T08:20:57.000Z</time>
      </trkpt>
      <trkpt lat="39.807181572541595" lon="2.898332616314292">
        <ele>471</ele>
        <time>2021-04-29T08:20:59.000Z</time>
      </trkpt>
      <trkpt lat="39.807204119861126" lon="2.89832373149693">
        <ele>471.4</ele>
        <time>2021-04-29T08:21:00.000Z</time>
      </trkpt>
      <trkpt lat="39.80725700967014" lon="2.8982846718281507">
        <ele>472</ele>
        <time>2021-04-29T08:21:03.000Z</time>
      </trkpt>
      <trkpt lat="39.807267151772976" lon="2.8982665669173002">
        <ele>472.4</ele>
        <time>2021-04-29T08:21:04.000Z</time>
      </trkpt>
      <trkpt lat="39.8072743602097" lon="2.898244019597769">
        <ele>472.6</ele>
        <time>2021-04-29T08:21:05.000Z</time>
      </trkpt>
      <trkpt lat="39.80728089809418" lon="2.8981907945126295">
        <ele>473.4</ele>
        <time>2021-04-29T08:21:07.000Z</time>
      </trkpt>
      <trkpt lat="39.80726212263107" lon="2.8981242422014475">
        <ele>474</ele>
        <time>2021-04-29T08:21:10.000Z</time>
      </trkpt>
      <trkpt lat="39.807258350774646" lon="2.898103455081582">
        <ele>474.4</ele>
        <time>2021-04-29T08:21:11.000Z</time>
      </trkpt>
      <trkpt lat="39.807241167873144" lon="2.8980727773159742">
        <ele>475</ele>
        <time>2021-04-29T08:21:13.000Z</time>
      </trkpt>
      <trkpt lat="39.807208897545934" lon="2.898046290501952">
        <ele>475.6</ele>
        <time>2021-04-29T08:21:15.000Z</time>
      </trkpt>
      <trkpt lat="39.80716363526881" lon="2.8980259224772453">
        <ele>475.8</ele>
        <time>2021-04-29T08:21:17.000Z</time>
      </trkpt>
      <trkpt lat="39.80710563249886" lon="2.8980110865086317">
        <ele>476.6</ele>
        <time>2021-04-29T08:21:20.000Z</time>
      </trkpt>
      <trkpt lat="39.80706414207816" lon="2.8980110026896">
        <ele>477</ele>
        <time>2021-04-29T08:21:22.000Z</time>
      </trkpt>
      <trkpt lat="39.80701091699302" lon="2.8980396687984467">
        <ele>477.8</ele>
        <time>2021-04-29T08:21:25.000Z</time>
      </trkpt>
      <trkpt lat="39.80694671161473" lon="2.898066993802786">
        <ele>478</ele>
        <time>2021-04-29T08:21:28.000Z</time>
      </trkpt>
      <trkpt lat="39.806795082986355" lon="2.898102616891265">
        <ele>478.4</ele>
        <time>2021-04-29T08:21:33.000Z</time>
      </trkpt>
      <trkpt lat="39.8067357391119" lon="2.898109657689929">
        <ele>478.6</ele>
        <time>2021-04-29T08:21:35.000Z</time>
      </trkpt>
      <trkpt lat="39.80662962421775" lon="2.8981306962668896">
        <ele>479</ele>
        <time>2021-04-29T08:21:39.000Z</time>
      </trkpt>
      <trkpt lat="39.80655829422176" lon="2.8981468733400106">
        <ele>479.8</ele>
        <time>2021-04-29T08:21:42.000Z</time>
      </trkpt>
      <trkpt lat="39.8064283747226" lon="2.898202110081911">
        <ele>480.6</ele>
        <time>2021-04-29T08:21:47.000Z</time>
      </trkpt>
      <trkpt lat="39.8064024746418" lon="2.8982122521847486">
        <ele>480.8</ele>
        <time>2021-04-29T08:21:48.000Z</time>
      </trkpt>
      <trkpt lat="39.80626182630658" lon="2.898290203884244">
        <ele>482</ele>
        <time>2021-04-29T08:21:53.000Z</time>
      </trkpt>
      <trkpt lat="39.8062367644161" lon="2.8982983343303204">
        <ele>482.2</ele>
        <time>2021-04-29T08:21:54.000Z</time>
      </trkpt>
      <trkpt lat="39.80617607943714" lon="2.898320881649852">
        <ele>483.2</ele>
        <time>2021-04-29T08:21:58.000Z</time>
      </trkpt>
      <trkpt lat="39.80617540888488" lon="2.8983121644705534">
        <ele>483.4</ele>
        <time>2021-04-29T08:21:59.000Z</time>
      </trkpt>
      <trkpt lat="39.80619058012962" lon="2.8982709255069494">
        <ele>484.2</ele>
        <time>2021-04-29T08:22:03.000Z</time>
      </trkpt>
      <trkpt lat="39.8061952739954" lon="2.8982587717473507">
        <ele>484.8</ele>
        <time>2021-04-29T08:22:05.000Z</time>
      </trkpt>
      <trkpt lat="39.80619837529957" lon="2.8982420079410076">
        <ele>485.2</ele>
        <time>2021-04-29T08:22:08.000Z</time>
      </trkpt>
      <trkpt lat="39.80624137446284" lon="2.8982144314795732">
        <ele>486</ele>
        <time>2021-04-29T08:22:13.000Z</time>
      </trkpt>
      <trkpt lat="39.80625243857503" lon="2.898203367367387">
        <ele>486.2</ele>
        <time>2021-04-29T08:22:14.000Z</time>
      </trkpt>
      <trkpt lat="39.80626802891493" lon="2.8981881123036146">
        <ele>486.4</ele>
        <time>2021-04-29T08:22:15.000Z</time>
      </trkpt>
      <trkpt lat="39.806304490193725" lon="2.8981436043977737">
        <ele>486.8</ele>
        <time>2021-04-29T08:22:18.000Z</time>
      </trkpt>
      <trkpt lat="39.806392416357994" lon="2.898084595799446">
        <ele>487.4</ele>
        <time>2021-04-29T08:22:23.000Z</time>
      </trkpt>
      <trkpt lat="39.80641018599272" lon="2.8980721905827522">
        <ele>487.4</ele>
        <time>2021-04-29T08:22:24.000Z</time>
      </trkpt>
      <trkpt lat="39.80644647963345" lon="2.8980484697967768">
        <ele>487.8</ele>
        <time>2021-04-29T08:22:26.000Z</time>
      </trkpt>
      <trkpt lat="39.80646441690624" lon="2.8980305325239897">
        <ele>488.2</ele>
        <time>2021-04-29T08:22:28.000Z</time>
      </trkpt>
      <trkpt lat="39.80647916905582" lon="2.8980178758502007">
        <ele>488.4</ele>
        <time>2021-04-29T08:22:29.000Z</time>
      </trkpt>
      <trkpt lat="39.8065129481256" lon="2.8979979269206524">
        <ele>489</ele>
        <time>2021-04-29T08:22:31.000Z</time>
      </trkpt>
      <trkpt lat="39.80659165419638" lon="2.897976553067565">
        <ele>489.4</ele>
        <time>2021-04-29T08:22:35.000Z</time>
      </trkpt>
      <trkpt lat="39.806688632816076" lon="2.8979395050555468">
        <ele>490</ele>
        <time>2021-04-29T08:22:39.000Z</time>
      </trkpt>
      <trkpt lat="39.806773625314236" lon="2.8978887107223272">
        <ele>490.4</ele>
        <time>2021-04-29T08:22:42.000Z</time>
      </trkpt>
      <trkpt lat="39.80687823146582" lon="2.8978364914655685">
        <ele>491.2</ele>
        <time>2021-04-29T08:22:46.000Z</time>
      </trkpt>
      <trkpt lat="39.80693413875997" lon="2.897834312170744">
        <ele>491.6</ele>
        <time>2021-04-29T08:22:48.000Z</time>
      </trkpt>
      <trkpt lat="39.80703715234995" lon="2.8978141956031322">
        <ele>492</ele>
        <time>2021-04-29T08:22:51.000Z</time>
      </trkpt>
      <trkpt lat="39.807240162044764" lon="2.897838670760393">
        <ele>492.6</ele>
        <time>2021-04-29T08:22:56.000Z</time>
      </trkpt>
      <trkpt lat="39.807268073782325" lon="2.8978385031223297">
        <ele>492.8</ele>
        <time>2021-04-29T08:22:57.000Z</time>
      </trkpt>
      <trkpt lat="39.807384330779314" lon="2.8978344798088074">
        <ele>493.4</ele>
        <time>2021-04-29T08:23:01.000Z</time>
      </trkpt>
      <trkpt lat="39.8074506316334" lon="2.89784193970263">
        <ele>493.8</ele>
        <time>2021-04-29T08:23:03.000Z</time>
      </trkpt>
      <trkpt lat="39.80752103962004" lon="2.897842191159725">
        <ele>494.4</ele>
        <time>2021-04-29T08:23:06.000Z</time>
      </trkpt>
      <trkpt lat="39.80753855779767" lon="2.8978285286575556">
        <ele>494.6</ele>
        <time>2021-04-29T08:23:07.000Z</time>
      </trkpt>
      <trkpt lat="39.80758692137897" lon="2.8977823443710804">
        <ele>494.8</ele>
        <time>2021-04-29T08:23:09.000Z</time>
      </trkpt>
      <trkpt lat="39.807608714327216" lon="2.897755606099963">
        <ele>494.8</ele>
        <time>2021-04-29T08:23:10.000Z</time>
      </trkpt>
      <trkpt lat="39.80763084255159" lon="2.897661477327347">
        <ele>495.6</ele>
        <time>2021-04-29T08:23:13.000Z</time>
      </trkpt>
      <trkpt lat="39.807631596922874" lon="2.897616298869252">
        <ele>496.2</ele>
        <time>2021-04-29T08:23:15.000Z</time>
      </trkpt>
      <trkpt lat="39.80756655335426" lon="2.897573718801141">
        <ele>496.8</ele>
        <time>2021-04-29T08:23:18.000Z</time>
      </trkpt>
      <trkpt lat="39.807545179501176" lon="2.897571539506316">
        <ele>497</ele>
        <time>2021-04-29T08:23:19.000Z</time>
      </trkpt>
      <trkpt lat="39.807431269437075" lon="2.897573718801141">
        <ele>497.4</ele>
        <time>2021-04-29T08:23:23.000Z</time>
      </trkpt>
      <trkpt lat="39.8073126655072" lon="2.89758981205523">
        <ele>497.8</ele>
        <time>2021-04-29T08:23:27.000Z</time>
      </trkpt>
      <trkpt lat="39.80728165246546" lon="2.897590147331357">
        <ele>497.8</ele>
        <time>2021-04-29T08:23:28.000Z</time>
      </trkpt>
      <trkpt lat="39.80712231248617" lon="2.897616634145379">
        <ele>498.4</ele>
        <time>2021-04-29T08:23:34.000Z</time>
      </trkpt>
      <trkpt lat="39.80701125226915" lon="2.8976447135210037">
        <ele>499</ele>
        <time>2021-04-29T08:23:38.000Z</time>
      </trkpt>
      <trkpt lat="39.806930450722575" lon="2.897642031311989">
        <ele>499.8</ele>
        <time>2021-04-29T08:23:41.000Z</time>
      </trkpt>
      <trkpt lat="39.80687798000872" lon="2.8976429533213377">
        <ele>500.2</ele>
        <time>2021-04-29T08:23:43.000Z</time>
      </trkpt>
      <trkpt lat="39.80682131834328" lon="2.8976094257086515">
        <ele>501</ele>
        <time>2021-04-29T08:23:47.000Z</time>
      </trkpt>
      <trkpt lat="39.806828862056136" lon="2.8975640796124935">
        <ele>501.2</ele>
        <time>2021-04-29T08:23:49.000Z</time>
      </trkpt>
      <trkpt lat="39.80686280876398" lon="2.8975269477814436">
        <ele>501.8</ele>
        <time>2021-04-29T08:23:51.000Z</time>
      </trkpt>
      <trkpt lat="39.806904550641775" lon="2.8974960185587406">
        <ele>502.2</ele>
        <time>2021-04-29T08:23:53.000Z</time>
      </trkpt>
      <trkpt lat="39.80693413875997" lon="2.8974645026028156">
        <ele>503</ele>
        <time>2021-04-29T08:23:55.000Z</time>
      </trkpt>
      <trkpt lat="39.806960793212056" lon="2.897445810958743">
        <ele>503.2</ele>
        <time>2021-04-29T08:23:57.000Z</time>
      </trkpt>
      <trkpt lat="39.80709716677666" lon="2.897356040775776">
        <ele>504.2</ele>
        <time>2021-04-29T08:24:03.000Z</time>
      </trkpt>
      <trkpt lat="39.80712021701038" lon="2.8973401989787817">
        <ele>504.4</ele>
        <time>2021-04-29T08:24:04.000Z</time>
      </trkpt>
      <trkpt lat="39.80724401772022" lon="2.8972639236599207">
        <ele>505.4</ele>
        <time>2021-04-29T08:24:10.000Z</time>
      </trkpt>
      <trkpt lat="39.80739740654826" lon="2.8971767518669367">
        <ele>506.4</ele>
        <time>2021-04-29T08:24:16.000Z</time>
      </trkpt>
      <trkpt lat="39.8074212949723" lon="2.8971674479544163">
        <ele>506.6</ele>
        <time>2021-04-29T08:24:17.000Z</time>
      </trkpt>
      <trkpt lat="39.80754585005343" lon="2.897125370800495">
        <ele>507.4</ele>
        <time>2021-04-29T08:24:22.000Z</time>
      </trkpt>
      <trkpt lat="39.80763469822705" lon="2.8971039969474077">
        <ele>508.4</ele>
        <time>2021-04-29T08:24:26.000Z</time>
      </trkpt>
      <trkpt lat="39.80765372514725" lon="2.8970992192626">
        <ele>508.6</ele>
        <time>2021-04-29T08:24:27.000Z</time>
      </trkpt>
      <trkpt lat="39.807675601914525" lon="2.8970919270068407">
        <ele>508.6</ele>
        <time>2021-04-29T08:24:28.000Z</time>
      </trkpt>
      <trkpt lat="39.8077167570591" lon="2.8970804437994957">
        <ele>509</ele>
        <time>2021-04-29T08:24:30.000Z</time>
      </trkpt>
      <trkpt lat="39.80774290859699" lon="2.897080946713686">
        <ele>509</ele>
        <time>2021-04-29T08:24:31.000Z</time>
      </trkpt>
      <trkpt lat="39.8077685572207" lon="2.897081784904003">
        <ele>509.2</ele>
        <time>2021-04-29T08:24:32.000Z</time>
      </trkpt>
      <trkpt lat="39.807802084833384" lon="2.8970832098275423">
        <ele>509.4</ele>
        <time>2021-04-29T08:24:33.000Z</time>
      </trkpt>
      <trkpt lat="39.807859836146235" lon="2.8970846347510815">
        <ele>509.8</ele>
        <time>2021-04-29T08:24:35.000Z</time>
      </trkpt>
      <trkpt lat="39.80793233960867" lon="2.8970975428819656">
        <ele>510.2</ele>
        <time>2021-04-29T08:24:38.000Z</time>
      </trkpt>
      <trkpt lat="39.80796528048813" lon="2.897093603387475">
        <ele>510.4</ele>
        <time>2021-04-29T08:24:39.000Z</time>
      </trkpt>
      <trkpt lat="39.80799436569214" lon="2.8970854729413986">
        <ele>510.6</ele>
        <time>2021-04-29T08:24:40.000Z</time>
      </trkpt>
      <trkpt lat="39.80804264545441" lon="2.897058818489313">
        <ele>511</ele>
        <time>2021-04-29T08:24:42.000Z</time>
      </trkpt>
      <trkpt lat="39.80810282751918" lon="2.897011796012521">
        <ele>511.4</ele>
        <time>2021-04-29T08:24:45.000Z</time>
      </trkpt>
      <trkpt lat="39.80812143534422" lon="2.8969930205494165">
        <ele>511.8</ele>
        <time>2021-04-29T08:24:46.000Z</time>
      </trkpt>
      <trkpt lat="39.808229729533195" lon="2.896804343909025">
        <ele>513</ele>
        <time>2021-04-29T08:24:53.000Z</time>
      </trkpt>
      <trkpt lat="39.80819687247276" lon="2.896665036678314">
        <ele>513.8</ele>
        <time>2021-04-29T08:24:58.000Z</time>
      </trkpt>
      <trkpt lat="39.808178348466754" lon="2.8966496139764786">
        <ele>514</ele>
        <time>2021-04-29T08:24:59.000Z</time>
      </trkpt>
      <trkpt lat="39.808082208037376" lon="2.896650116890669">
        <ele>514.8</ele>
        <time>2021-04-29T08:25:03.000Z</time>
      </trkpt>
      <trkpt lat="39.807976093143225" lon="2.8966731671243906">
        <ele>515.2</ele>
        <time>2021-04-29T08:25:08.000Z</time>
      </trkpt>
      <trkpt lat="39.80796117335558" lon="2.896679285913706">
        <ele>515.2</ele>
        <time>2021-04-29T08:25:09.000Z</time>
      </trkpt>
      <trkpt lat="39.807835360988975" lon="2.8967242129147053">
        <ele>516.2</ele>
        <time>2021-04-29T08:25:15.000Z</time>
      </trkpt>
      <trkpt lat="39.807674679905176" lon="2.896733181551099">
        <ele>517.6</ele>
        <time>2021-04-29T08:25:21.000Z</time>
      </trkpt>
      <trkpt lat="39.80764425359666" lon="2.8967365343123674">
        <ele>517.8</ele>
        <time>2021-04-29T08:25:22.000Z</time>
      </trkpt>
      <trkpt lat="39.80753621086478" lon="2.8967878315597773">
        <ele>518.6</ele>
        <time>2021-04-29T08:25:26.000Z</time>
      </trkpt>
      <trkpt lat="39.80745926499367" lon="2.8968320041894913">
        <ele>518.8</ele>
        <time>2021-04-29T08:25:29.000Z</time>
      </trkpt>
      <trkpt lat="39.80737159028649" lon="2.896848516538739">
        <ele>519.6</ele>
        <time>2021-04-29T08:25:32.000Z</time>
      </trkpt>
      <trkpt lat="39.807330602779984" lon="2.896837955340743">
        <ele>519.8</ele>
        <time>2021-04-29T08:25:34.000Z</time>
      </trkpt>
      <trkpt lat="39.8073192872107" lon="2.8967812936753035">
        <ele>520.2</ele>
        <time>2021-04-29T08:25:37.000Z</time>
      </trkpt>
      <trkpt lat="39.80732222087681" lon="2.8967636916786432">
        <ele>520.4</ele>
        <time>2021-04-29T08:25:38.000Z</time>
      </trkpt>
      <trkpt lat="39.80732565745711" lon="2.8967496939003468">
        <ele>520.6</ele>
        <time>2021-04-29T08:25:39.000Z</time>
      </trkpt>
      <trkpt lat="39.80739422142506" lon="2.8967261407524347">
        <ele>521.4</ele>
        <time>2021-04-29T08:25:42.000Z</time>
      </trkpt>
      <trkpt lat="39.80740897357464" lon="2.896716585382819">
        <ele>521.6</ele>
        <time>2021-04-29T08:25:43.000Z</time>
      </trkpt>
      <trkpt lat="39.807447865605354" lon="2.8966725803911686">
        <ele>522.2</ele>
        <time>2021-04-29T08:25:47.000Z</time>
      </trkpt>
      <trkpt lat="39.807474771514535" lon="2.8966390527784824">
        <ele>522.6</ele>
        <time>2021-04-29T08:25:49.000Z</time>
      </trkpt>
      <trkpt lat="39.80749011039734" lon="2.8966237977147102">
        <ele>522.8</ele>
        <time>2021-04-29T08:25:50.000Z</time>
      </trkpt>
      <trkpt lat="39.80752841569483" lon="2.896592952311039">
        <ele>523</ele>
        <time>2021-04-29T08:25:52.000Z</time>
      </trkpt>
      <trkpt lat="39.807625226676464" lon="2.8964967280626297">
        <ele>523.8</ele>
        <time>2021-04-29T08:25:57.000Z</time>
      </trkpt>
      <trkpt lat="39.8077080398798" lon="2.896393798291683">
        <ele>524.4</ele>
        <time>2021-04-29T08:26:01.000Z</time>
      </trkpt>
      <trkpt lat="39.80775095522404" lon="2.8963525593280792">
        <ele>524.8</ele>
        <time>2021-04-29T08:26:03.000Z</time>
      </trkpt>
      <trkpt lat="39.8078185133636" lon="2.8962908685207367">
        <ele>525.2</ele>
        <time>2021-04-29T08:26:06.000Z</time>
      </trkpt>
      <trkpt lat="39.807905685156584" lon="2.8962559159845114">
        <ele>525.8</ele>
        <time>2021-04-29T08:26:11.000Z</time>
      </trkpt>
      <trkpt lat="39.807925801724195" lon="2.8962473664432764">
        <ele>526</ele>
        <time>2021-04-29T08:26:12.000Z</time>
      </trkpt>
      <trkpt lat="39.808061672374606" lon="2.8961808141320944">
        <ele>526.8</ele>
        <time>2021-04-29T08:26:17.000Z</time>
      </trkpt>
      <trkpt lat="39.80809025466442" lon="2.896173018962145">
        <ele>527</ele>
        <time>2021-04-29T08:26:18.000Z</time>
      </trkpt>
      <trkpt lat="39.808199470862746" lon="2.896138234063983">
        <ele>527.8</ele>
        <time>2021-04-29T08:26:22.000Z</time>
      </trkpt>
      <trkpt lat="39.80827155523002" lon="2.8961198776960373">
        <ele>528.2</ele>
        <time>2021-04-29T08:26:25.000Z</time>
      </trkpt>
      <trkpt lat="39.808332743123174" lon="2.8960924688726664">
        <ele>528.8</ele>
        <time>2021-04-29T08:26:28.000Z</time>
      </trkpt>
      <trkpt lat="39.8084004689008" lon="2.896029017865658">
        <ele>529.4</ele>
        <time>2021-04-29T08:26:32.000Z</time>
      </trkpt>
      <trkpt lat="39.808474062010646" lon="2.895961543545127">
        <ele>530</ele>
        <time>2021-04-29T08:26:35.000Z</time>
      </trkpt>
      <trkpt lat="39.80851915664971" lon="2.895915610715747">
        <ele>530.2</ele>
        <time>2021-04-29T08:26:37.000Z</time>
      </trkpt>
      <trkpt lat="39.80863901786506" lon="2.8957499843090773">
        <ele>531</ele>
        <time>2021-04-29T08:26:44.000Z</time>
      </trkpt>
      <trkpt lat="39.808678328990936" lon="2.895714193582535">
        <ele>531.6</ele>
        <time>2021-04-29T08:26:46.000Z</time>
      </trkpt>
      <trkpt lat="39.80872359126806" lon="2.8956682607531548">
        <ele>532</ele>
        <time>2021-04-29T08:26:49.000Z</time>
      </trkpt>
      <trkpt lat="39.80876508168876" lon="2.8955991100519896">
        <ele>532.6</ele>
        <time>2021-04-29T08:26:52.000Z</time>
      </trkpt>
      <trkpt lat="39.808853175491095" lon="2.89549408480525">
        <ele>533.2</ele>
        <time>2021-04-29T08:26:56.000Z</time>
      </trkpt>
      <trkpt lat="39.80890329927206" lon="2.895440859720111">
        <ele>533.6</ele>
        <time>2021-04-29T08:26:58.000Z</time>
      </trkpt>
      <trkpt lat="39.80893649160862" lon="2.8953732177615166">
        <ele>534.2</ele>
        <time>2021-04-29T08:27:01.000Z</time>
      </trkpt>
      <trkpt lat="39.80894730426371" lon="2.895354274660349">
        <ele>534.2</ele>
        <time>2021-04-29T08:27:02.000Z</time>
      </trkpt>
      <trkpt lat="39.808959290385246" lon="2.895336840301752">
        <ele>534.4</ele>
        <time>2021-04-29T08:27:03.000Z</time>
      </trkpt>
      <trkpt lat="39.809119049459696" lon="2.895199880003929">
        <ele>535.4</ele>
        <time>2021-04-29T08:27:10.000Z</time>
      </trkpt>
      <trkpt lat="39.80931124649942" lon="2.8951891511678696">
        <ele>536.2</ele>
        <time>2021-04-29T08:27:16.000Z</time>
      </trkpt>
      <trkpt lat="39.809370590373874" lon="2.895194850862026">
        <ele>536.4</ele>
        <time>2021-04-29T08:27:18.000Z</time>
      </trkpt>
      <trkpt lat="39.80942951515317" lon="2.895194599404931">
        <ele>536.6</ele>
        <time>2021-04-29T08:27:21.000Z</time>
      </trkpt>
      <trkpt lat="39.809549963101745" lon="2.895168950781226">
        <ele>537.6</ele>
        <time>2021-04-29T08:27:27.000Z</time>
      </trkpt>
      <trkpt lat="39.80957116931677" lon="2.895162831991911">
        <ele>537.8</ele>
        <time>2021-04-29T08:27:28.000Z</time>
      </trkpt>
      <trkpt lat="39.80959656648338" lon="2.8951588924974203">
        <ele>538</ele>
        <time>2021-04-29T08:27:29.000Z</time>
      </trkpt>
      <trkpt lat="39.80967812240124" lon="2.8951541148126125">
        <ele>538.6</ele>
        <time>2021-04-29T08:27:32.000Z</time>
      </trkpt>
      <trkpt lat="39.80972623452544" lon="2.8951417095959187">
        <ele>539</ele>
        <time>2021-04-29T08:27:34.000Z</time>
      </trkpt>
      <trkpt lat="39.809840647503734" lon="2.8951169829815626">
        <ele>539.8</ele>
        <time>2021-04-29T08:27:38.000Z</time>
      </trkpt>
      <trkpt lat="39.809954054653645" lon="2.8950236085802317">
        <ele>540.6</ele>
        <time>2021-04-29T08:27:43.000Z</time>
      </trkpt>
      <trkpt lat="39.80998959392309" lon="2.8949835430830717">
        <ele>540.8</ele>
        <time>2021-04-29T08:27:45.000Z</time>
      </trkpt>
      <trkpt lat="39.81005162000656" lon="2.8948787692934275">
        <ele>541.4</ele>
        <time>2021-04-29T08:27:50.000Z</time>
      </trkpt>
      <trkpt lat="39.810065031051636" lon="2.894858568906784">
        <ele>541.6</ele>
        <time>2021-04-29T08:27:51.000Z</time>
      </trkpt>
      <trkpt lat="39.81013527140021" lon="2.8947194293141365">
        <ele>542.6</ele>
        <time>2021-04-29T08:27:56.000Z</time>
      </trkpt>
      <trkpt lat="39.810144156217575" lon="2.8946869913488626">
        <ele>542.8</ele>
        <time>2021-04-29T08:27:57.000Z</time>
      </trkpt>
      <trkpt lat="39.81020609848201" lon="2.8945341054350138">
        <ele>543.6</ele>
        <time>2021-04-29T08:28:03.000Z</time>
      </trkpt>
      <trkpt lat="39.81021766550839" lon="2.89451046846807">
        <ele>543.8</ele>
        <time>2021-04-29T08:28:04.000Z</time>
      </trkpt>
      <trkpt lat="39.81028069742024" lon="2.894339980557561">
        <ele>545</ele>
        <time>2021-04-29T08:28:10.000Z</time>
      </trkpt>
      <trkpt lat="39.810365522280335" lon="2.8941633738577366">
        <ele>545.8</ele>
        <time>2021-04-29T08:28:15.000Z</time>
      </trkpt>
      <trkpt lat="39.81038077734411" lon="2.8941277507692575">
        <ele>546.2</ele>
        <time>2021-04-29T08:28:16.000Z</time>
      </trkpt>
      <trkpt lat="39.81039175763726" lon="2.894093720242381">
        <ele>546.4</ele>
        <time>2021-04-29T08:28:17.000Z</time>
      </trkpt>
      <trkpt lat="39.81048655696213" lon="2.893920550122857">
        <ele>547</ele>
        <time>2021-04-29T08:28:22.000Z</time>
      </trkpt>
      <trkpt lat="39.810508182272315" lon="2.893885178491473">
        <ele>547.4</ele>
        <time>2021-04-29T08:28:23.000Z</time>
      </trkpt>
      <trkpt lat="39.8105847928673" lon="2.893769843503833">
        <ele>548.2</ele>
        <time>2021-04-29T08:28:26.000Z</time>
      </trkpt>
      <trkpt lat="39.810644974932075" lon="2.893657861277461">
        <ele>548.6</ele>
        <time>2021-04-29T08:28:29.000Z</time>
      </trkpt>
      <trkpt lat="39.8106780834496" lon="2.8935937397181988">
        <ele>549.2</ele>
        <time>2021-04-29T08:28:31.000Z</time>
      </trkpt>
      <trkpt lat="39.81074589304626" lon="2.893449068069458">
        <ele>549.8</ele>
        <time>2021-04-29T08:28:35.000Z</time>
      </trkpt>
      <trkpt lat="39.81079316698015" lon="2.8933550231158733">
        <ele>550.4</ele>
        <time>2021-04-29T08:28:38.000Z</time>
      </trkpt>
      <trkpt lat="39.81085234321654" lon="2.8932474832981825">
        <ele>551</ele>
        <time>2021-04-29T08:28:41.000Z</time>
      </trkpt>
      <trkpt lat="39.810897186398506" lon="2.893147487193346">
        <ele>551.4</ele>
        <time>2021-04-29T08:28:44.000Z</time>
      </trkpt>
      <trkpt lat="39.81093264184892" lon="2.8930614050477743">
        <ele>552.2</ele>
        <time>2021-04-29T08:28:47.000Z</time>
      </trkpt>
      <trkpt lat="39.810956781730056" lon="2.892971048131585">
        <ele>552.8</ele>
        <time>2021-04-29T08:28:50.000Z</time>
      </trkpt>
      <trkpt lat="39.81097765266895" lon="2.8929072618484497">
        <ele>553</ele>
        <time>2021-04-29T08:28:52.000Z</time>
      </trkpt>
      <trkpt lat="39.81102107092738" lon="2.8927060961723328">
        <ele>553.8</ele>
        <time>2021-04-29T08:28:57.000Z</time>
      </trkpt>
      <trkpt lat="39.81102492660284" lon="2.8926204331219196">
        <ele>554.2</ele>
        <time>2021-04-29T08:28:59.000Z</time>
      </trkpt>
      <trkpt lat="39.811039846390486" lon="2.892438042908907">
        <ele>554.6</ele>
        <time>2021-04-29T08:29:03.000Z</time>
      </trkpt>
      <trkpt lat="39.811047138646245" lon="2.892352296039462">
        <ele>555</ele>
        <time>2021-04-29T08:29:05.000Z</time>
      </trkpt>
      <trkpt lat="39.811074463650584" lon="2.8920678980648518">
        <ele>555.4</ele>
        <time>2021-04-29T08:29:13.000Z</time>
      </trkpt>
      <trkpt lat="39.8110858630389" lon="2.891978295519948">
        <ele>555.8</ele>
        <time>2021-04-29T08:29:16.000Z</time>
      </trkpt>
      <trkpt lat="39.81109365820885" lon="2.891882322728634">
        <ele>556.2</ele>
        <time>2021-04-29T08:29:19.000Z</time>
      </trkpt>
      <trkpt lat="39.81109491549432" lon="2.8918499685823917">
        <ele>556.4</ele>
        <time>2021-04-29T08:29:20.000Z</time>
      </trkpt>
      <trkpt lat="39.81110321357846" lon="2.8917516488581896">
        <ele>557</ele>
        <time>2021-04-29T08:29:23.000Z</time>
      </trkpt>
      <trkpt lat="39.811120396479964" lon="2.8916246630251408">
        <ele>558</ele>
        <time>2021-04-29T08:29:27.000Z</time>
      </trkpt>
      <trkpt lat="39.81112475506961" lon="2.8915893752127886">
        <ele>558.2</ele>
        <time>2021-04-29T08:29:28.000Z</time>
      </trkpt>
      <trkpt lat="39.811160461977124" lon="2.8913956694304943">
        <ele>559</ele>
        <time>2021-04-29T08:29:34.000Z</time>
      </trkpt>
      <trkpt lat="39.81117311865091" lon="2.8913376666605473">
        <ele>559.4</ele>
        <time>2021-04-29T08:29:36.000Z</time>
      </trkpt>
      <trkpt lat="39.811202455312014" lon="2.8912213258445263">
        <ele>560</ele>
        <time>2021-04-29T08:29:40.000Z</time>
      </trkpt>
      <trkpt lat="39.811225002631545" lon="2.8911340702325106">
        <ele>560.4</ele>
        <time>2021-04-29T08:29:43.000Z</time>
      </trkpt>
      <trkpt lat="39.811265990138054" lon="2.89101873524487">
        <ele>560.8</ele>
        <time>2021-04-29T08:29:47.000Z</time>
      </trkpt>
      <trkpt lat="39.81131359934807" lon="2.8908961080014706">
        <ele>561.2</ele>
        <time>2021-04-29T08:29:51.000Z</time>
      </trkpt>
      <trkpt lat="39.81135383248329" lon="2.890764009207487">
        <ele>561.8</ele>
        <time>2021-04-29T08:29:55.000Z</time>
      </trkpt>
      <trkpt lat="39.81136171147227" lon="2.8906967025250196">
        <ele>562.2</ele>
        <time>2021-04-29T08:29:57.000Z</time>
      </trkpt>
      <trkpt lat="39.81136363931" lon="2.8906629234552383">
        <ele>562.4</ele>
        <time>2021-04-29T08:29:58.000Z</time>
      </trkpt>
      <trkpt lat="39.811360286548734" lon="2.890555551275611">
        <ele>562.8</ele>
        <time>2021-04-29T08:30:01.000Z</time>
      </trkpt>
      <trkpt lat="39.81132390908897" lon="2.890410041436553">
        <ele>564</ele>
        <time>2021-04-29T08:30:05.000Z</time>
      </trkpt>
      <trkpt lat="39.81128585524857" lon="2.890288420021534">
        <ele>564.6</ele>
        <time>2021-04-29T08:30:09.000Z</time>
      </trkpt>
      <trkpt lat="39.81127101927996" lon="2.8902284055948257">
        <ele>564.8</ele>
        <time>2021-04-29T08:30:11.000Z</time>
      </trkpt>
      <trkpt lat="39.81126037426293" lon="2.8901957161724567">
        <ele>565</ele>
        <time>2021-04-29T08:30:12.000Z</time>
      </trkpt>
      <trkpt lat="39.81119357049465" lon="2.889984156936407">
        <ele>565.8</ele>
        <time>2021-04-29T08:30:18.000Z</time>
      </trkpt>
      <trkpt lat="39.811172280460596" lon="2.889914084225893">
        <ele>566</ele>
        <time>2021-04-29T08:30:20.000Z</time>
      </trkpt>
      <trkpt lat="39.811149565503" lon="2.8897819854319096">
        <ele>566.6</ele>
        <time>2021-04-29T08:30:24.000Z</time>
      </trkpt>
      <trkpt lat="39.811174124479294" lon="2.889722725376487">
        <ele>566.8</ele>
        <time>2021-04-29T08:30:26.000Z</time>
      </trkpt>
      <trkpt lat="39.811226511374116" lon="2.889696154743433">
        <ele>566.8</ele>
        <time>2021-04-29T08:30:28.000Z</time>
      </trkpt>
      <trkpt lat="39.81128669343889" lon="2.8896877728402615">
        <ele>567.2</ele>
        <time>2021-04-29T08:30:30.000Z</time>
      </trkpt>
      <trkpt lat="39.811444943770766" lon="2.8896757028996944">
        <ele>567.8</ele>
        <time>2021-04-29T08:30:35.000Z</time>
      </trkpt>
      <trkpt lat="39.81156933121383" lon="2.8896875213831663">
        <ele>567.8</ele>
        <time>2021-04-29T08:30:39.000Z</time>
      </trkpt>
      <trkpt lat="39.81164409779012" lon="2.8897354658693075">
        <ele>568</ele>
        <time>2021-04-29T08:30:42.000Z</time>
      </trkpt>
      <trkpt lat="39.8117455188185" lon="2.8898084722459316">
        <ele>568</ele>
        <time>2021-04-29T08:30:46.000Z</time>
      </trkpt>
      <trkpt lat="39.811774687841535" lon="2.889820206910372">
        <ele>568.2</ele>
        <time>2021-04-29T08:30:47.000Z</time>
      </trkpt>
      <trkpt lat="39.81179949827492" lon="2.889829007908702">
        <ele>568.4</ele>
        <time>2021-04-29T08:30:48.000Z</time>
      </trkpt>
      <trkpt lat="39.81186982244253" lon="2.889832779765129">
        <ele>568.8</ele>
        <time>2021-04-29T08:30:51.000Z</time>
      </trkpt>
      <trkpt lat="39.8119405657053" lon="2.889819201081991">
        <ele>569.4</ele>
        <time>2021-04-29T08:30:54.000Z</time>
      </trkpt>
      <trkpt lat="39.81202413327992" lon="2.8898061253130436">
        <ele>570.4</ele>
        <time>2021-04-29T08:30:58.000Z</time>
      </trkpt>
      <trkpt lat="39.81214474886656" lon="2.8898023534566164">
        <ele>571.4</ele>
        <time>2021-04-29T08:31:02.000Z</time>
      </trkpt>
      <trkpt lat="39.81230802834034" lon="2.8897681552916765">
        <ele>572.2</ele>
        <time>2021-04-29T08:31:07.000Z</time>
      </trkpt>
      <trkpt lat="39.81236577965319" lon="2.8897560853511095">
        <ele>572.4</ele>
        <time>2021-04-29T08:31:09.000Z</time>
      </trkpt>
      <trkpt lat="39.812458232045174" lon="2.8897413332015276">
        <ele>572.8</ele>
        <time>2021-04-29T08:31:12.000Z</time>
      </trkpt>
      <trkpt lat="39.81255395337939" lon="2.8897192049771547">
        <ele>573</ele>
        <time>2021-04-29T08:31:15.000Z</time>
      </trkpt>
      <trkpt lat="39.81264271773398" lon="2.8897078055888414">
        <ele>573.2</ele>
        <time>2021-04-29T08:31:17.000Z</time>
      </trkpt>
      <trkpt lat="39.81274355202913" lon="2.889690874144435">
        <ele>573.2</ele>
        <time>2021-04-29T08:31:19.000Z</time>
      </trkpt>
      <trkpt lat="39.81283885426819" lon="2.8896647226065397">
        <ele>573.2</ele>
        <time>2021-04-29T08:31:21.000Z</time>
      </trkpt>
      <trkpt lat="39.81288956478238" lon="2.8896456956863403">
        <ele>573.2</ele>
        <time>2021-04-29T08:31:22.000Z</time>
      </trkpt>
      <trkpt lat="39.813015880063176" lon="2.889601271599531">
        <ele>573.2</ele>
        <time>2021-04-29T08:31:25.000Z</time>
      </trkpt>
      <trkpt lat="39.81306692585349" lon="2.889593308791518">
        <ele>573.2</ele>
        <time>2021-04-29T08:31:26.000Z</time>
      </trkpt>
      <trkpt lat="39.81331226415932" lon="2.8895040415227413">
        <ele>571.4</ele>
        <time>2021-04-29T08:31:31.000Z</time>
      </trkpt>
      <trkpt lat="39.813353419303894" lon="2.889497336000204">
        <ele>571.2</ele>
        <time>2021-04-29T08:31:33.000Z</time>
      </trkpt>
      <trkpt lat="39.81340077705681" lon="2.8894868586212397">
        <ele>570.8</ele>
        <time>2021-04-29T08:31:36.000Z</time>
      </trkpt>
      <trkpt lat="39.813430113717914" lon="2.8894897922873497">
        <ele>570.8</ele>
        <time>2021-04-29T08:31:37.000Z</time>
      </trkpt>
      <trkpt lat="39.81343673542142" lon="2.8895039577037096">
        <ele>570.6</ele>
        <time>2021-04-29T08:31:39.000Z</time>
      </trkpt>
      <trkpt lat="39.813436986878514" lon="2.8895237389951944">
        <ele>570.6</ele>
        <time>2021-04-29T08:31:40.000Z</time>
      </trkpt>
      <trkpt lat="39.81343572959304" lon="2.8895823284983635">
        <ele>570.4</ele>
        <time>2021-04-29T08:31:42.000Z</time>
      </trkpt>
      <trkpt lat="39.81347193941474" lon="2.8896627947688103">
        <ele>570.2</ele>
        <time>2021-04-29T08:31:44.000Z</time>
      </trkpt>
      <trkpt lat="39.81350161135197" lon="2.889710823073983">
        <ele>570</ele>
        <time>2021-04-29T08:31:45.000Z</time>
      </trkpt>
      <trkpt lat="39.8135394975543" lon="2.8897627908736467">
        <ele>570</ele>
        <time>2021-04-29T08:31:46.000Z</time>
      </trkpt>
      <trkpt lat="39.81357956305146" lon="2.889813082292676">
        <ele>569.8</ele>
        <time>2021-04-29T08:31:47.000Z</time>
      </trkpt>
      <trkpt lat="39.81365516781807" lon="2.8899088874459267">
        <ele>569.4</ele>
        <time>2021-04-29T08:31:49.000Z</time>
      </trkpt>
      <trkpt lat="39.813686683773994" lon="2.8899534791707993">
        <ele>569</ele>
        <time>2021-04-29T08:31:50.000Z</time>
      </trkpt>
      <trkpt lat="39.81375256553292" lon="2.8900449257344007">
        <ele>567.8</ele>
        <time>2021-04-29T08:31:53.000Z</time>
      </trkpt>
      <trkpt lat="39.813769748434424" lon="2.890061689540744">
        <ele>567.2</ele>
        <time>2021-04-29T08:31:54.000Z</time>
      </trkpt>
      <trkpt lat="39.81378726661205" lon="2.8900729212909937">
        <ele>566.2</ele>
        <time>2021-04-29T08:31:55.000Z</time>
      </trkpt>
      <trkpt lat="39.81379950419068" lon="2.890087841078639">
        <ele>565</ele>
        <time>2021-04-29T08:31:57.000Z</time>
      </trkpt>
      <trkpt lat="39.81381048448384" lon="2.890100162476301">
        <ele>564.2</ele>
        <time>2021-04-29T08:31:59.000Z</time>
      </trkpt>
      <trkpt lat="39.813814759254456" lon="2.8901071194559336">
        <ele>563.8</ele>
        <time>2021-04-29T08:32:00.000Z</time>
      </trkpt>
      <trkpt lat="39.81381559744477" lon="2.890108125284314">
        <ele>563.2</ele>
        <time>2021-04-29T08:32:02.000Z</time>
      </trkpt>
      <trkpt lat="39.81381635181606" lon="2.8901107236742973">
        <ele>563</ele>
        <time>2021-04-29T08:32:04.000Z</time>
      </trkpt>
      <trkpt lat="39.8138175252825" lon="2.890111980959773">
        <ele>562.8</ele>
        <time>2021-04-29T08:32:05.000Z</time>
      </trkpt>
      <trkpt lat="39.813527846708894" lon="2.889558607712388">
        <ele>589.4</ele>
        <time>2021-04-29T09:45:45.000Z</time>
      </trkpt>
      <trkpt lat="39.81353404931724" lon="2.8894927259534597">
        <ele>590.2</ele>
        <time>2021-04-29T09:45:47.000Z</time>
      </trkpt>
      <trkpt lat="39.813530864194036" lon="2.8894706815481186">
        <ele>590.6</ele>
        <time>2021-04-29T09:45:48.000Z</time>
      </trkpt>
      <trkpt lat="39.81352122500539" lon="2.8894609585404396">
        <ele>591.2</ele>
        <time>2021-04-29T09:45:49.000Z</time>
      </trkpt>
      <trkpt lat="39.81348719447851" lon="2.889448469504714">
        <ele>591.8</ele>
        <time>2021-04-29T09:45:51.000Z</time>
      </trkpt>
      <trkpt lat="39.81342550367117" lon="2.889432040974498">
        <ele>592.8</ele>
        <time>2021-04-29T09:45:53.000Z</time>
      </trkpt>
      <trkpt lat="39.81333078816533" lon="2.889438159763813">
        <ele>593.6</ele>
        <time>2021-04-29T09:45:55.000Z</time>
      </trkpt>
      <trkpt lat="39.81322534382343" lon="2.8894497267901897">
        <ele>594</ele>
        <time>2021-04-29T09:45:57.000Z</time>
      </trkpt>
      <trkpt lat="39.81302635744214" lon="2.8894753754138947">
        <ele>594.4</ele>
        <time>2021-04-29T09:46:01.000Z</time>
      </trkpt>
      <trkpt lat="39.8129194881767" lon="2.88948736153543">
        <ele>594.4</ele>
        <time>2021-04-29T09:46:03.000Z</time>
      </trkpt>
      <trkpt lat="39.8126398678869" lon="2.8895302768796682">
        <ele>594.8</ele>
        <time>2021-04-29T09:46:08.000Z</time>
      </trkpt>
      <trkpt lat="39.812326300889254" lon="2.8896090667694807">
        <ele>595.4</ele>
        <time>2021-04-29T09:46:13.000Z</time>
      </trkpt>
      <trkpt lat="39.81219856068492" lon="2.889625746756792">
        <ele>596</ele>
        <time>2021-04-29T09:46:15.000Z</time>
      </trkpt>
      <trkpt lat="39.81184836477041" lon="2.8896574303507805">
        <ele>596</ele>
        <time>2021-04-29T09:46:20.000Z</time>
      </trkpt>
      <trkpt lat="39.81156589463353" lon="2.889526253566146">
        <ele>595.6</ele>
        <time>2021-04-29T09:46:24.000Z</time>
      </trkpt>
      <trkpt lat="39.81138761155307" lon="2.8895333781838417">
        <ele>595.2</ele>
        <time>2021-04-29T09:46:26.000Z</time>
      </trkpt>
      <trkpt lat="39.81122768484056" lon="2.889560032635927">
        <ele>595</ele>
        <time>2021-04-29T09:46:28.000Z</time>
      </trkpt>
      <trkpt lat="39.81111612170935" lon="2.889690790325403">
        <ele>594.4</ele>
        <time>2021-04-29T09:46:30.000Z</time>
      </trkpt>
      <trkpt lat="39.81111276894808" lon="2.8898959793150425">
        <ele>594.2</ele>
        <time>2021-04-29T09:46:32.000Z</time>
      </trkpt>
      <trkpt lat="39.8111564386636" lon="2.8901243023574352">
        <ele>593.8</ele>
        <time>2021-04-29T09:46:34.000Z</time>
      </trkpt>
      <trkpt lat="39.81122081167996" lon="2.8903734125196934">
        <ele>593.6</ele>
        <time>2021-04-29T09:46:36.000Z</time>
      </trkpt>
      <trkpt lat="39.81124520301819" lon="2.8905071038752794">
        <ele>593.6</ele>
        <time>2021-04-29T09:46:37.000Z</time>
      </trkpt>
      <trkpt lat="39.81125257909298" lon="2.890636185184121">
        <ele>593.4</ele>
        <time>2021-04-29T09:46:38.000Z</time>
      </trkpt>
      <trkpt lat="39.81124335899949" lon="2.890761410817504">
        <ele>593</ele>
        <time>2021-04-29T09:46:39.000Z</time>
      </trkpt>
      <trkpt lat="39.811166832223535" lon="2.8910165559500456">
        <ele>591.4</ele>
        <time>2021-04-29T09:46:41.000Z</time>
      </trkpt>
      <trkpt lat="39.81112643145025" lon="2.8911553602665663">
        <ele>590.4</ele>
        <time>2021-04-29T09:46:42.000Z</time>
      </trkpt>
      <trkpt lat="39.81106298044324" lon="2.8914477210491896">
        <ele>588.8</ele>
        <time>2021-04-29T09:46:44.000Z</time>
      </trkpt>
      <trkpt lat="39.81102962046862" lon="2.8917524870485067">
        <ele>587.4</ele>
        <time>2021-04-29T09:46:46.000Z</time>
      </trkpt>
      <trkpt lat="39.81101176701486" lon="2.892065718770027">
        <ele>586.4</ele>
        <time>2021-04-29T09:46:48.000Z</time>
      </trkpt>
      <trkpt lat="39.81100196018815" lon="2.892228662967682">
        <ele>584.8</ele>
        <time>2021-04-29T09:46:49.000Z</time>
      </trkpt>
      <trkpt lat="39.810976311564445" lon="2.892559664323926">
        <ele>583.4</ele>
        <time>2021-04-29T09:46:51.000Z</time>
      </trkpt>
      <trkpt lat="39.8109130281955" lon="2.8928870614618063">
        <ele>582</ele>
        <time>2021-04-29T09:46:53.000Z</time>
      </trkpt>
      <trkpt lat="39.810861898586154" lon="2.893041791394353">
        <ele>581</ele>
        <time>2021-04-29T09:46:54.000Z</time>
      </trkpt>
      <trkpt lat="39.810802387073636" lon="2.8931933362036943">
        <ele>580.2</ele>
        <time>2021-04-29T09:46:55.000Z</time>
      </trkpt>
      <trkpt lat="39.81067900545895" lon="2.893493827432394">
        <ele>578.6</ele>
        <time>2021-04-29T09:46:57.000Z</time>
      </trkpt>
      <trkpt lat="39.81055294163525" lon="2.893799599260092">
        <ele>577.6</ele>
        <time>2021-04-29T09:46:59.000Z</time>
      </trkpt>
      <trkpt lat="39.81049485504627" lon="2.893947958946228">
        <ele>576.8</ele>
        <time>2021-04-29T09:47:00.000Z</time>
      </trkpt>
      <trkpt lat="39.81044045649469" lon="2.8941004257649183">
        <ele>575.6</ele>
        <time>2021-04-29T09:47:01.000Z</time>
      </trkpt>
      <trkpt lat="39.81032067909837" lon="2.8944004978984594">
        <ele>574</ele>
        <time>2021-04-29T09:47:03.000Z</time>
      </trkpt>
      <trkpt lat="39.810262341052294" lon="2.8945512045174837">
        <ele>573.2</ele>
        <time>2021-04-29T09:47:04.000Z</time>
      </trkpt>
      <trkpt lat="39.81020693667233" lon="2.894697217270732">
        <ele>572.8</ele>
        <time>2021-04-29T09:47:05.000Z</time>
      </trkpt>
      <trkpt lat="39.8100771009922" lon="2.894956050440669">
        <ele>572.4</ele>
        <time>2021-04-29T09:47:07.000Z</time>
      </trkpt>
      <trkpt lat="39.80999110266566" lon="2.895065601915121">
        <ele>571.6</ele>
        <time>2021-04-29T09:47:08.000Z</time>
      </trkpt>
      <trkpt lat="39.80978624895215" lon="2.8952144645154476">
        <ele>570.6</ele>
        <time>2021-04-29T09:47:10.000Z</time>
      </trkpt>
      <trkpt lat="39.809670662507415" lon="2.8952324856072664">
        <ele>569.8</ele>
        <time>2021-04-29T09:47:11.000Z</time>
      </trkpt>
      <trkpt lat="39.809551974758506" lon="2.89522142149508">
        <ele>568.8</ele>
        <time>2021-04-29T09:47:12.000Z</time>
      </trkpt>
      <trkpt lat="39.809431275352836" lon="2.8951954375952482">
        <ele>567.8</ele>
        <time>2021-04-29T09:47:13.000Z</time>
      </trkpt>
      <trkpt lat="39.80930931866169" lon="2.8951821103692055">
        <ele>567</ele>
        <time>2021-04-29T09:47:14.000Z</time>
      </trkpt>
      <trkpt lat="39.80918769724667" lon="2.8951920848339796">
        <ele>566.6</ele>
        <time>2021-04-29T09:47:15.000Z</time>
      </trkpt>
      <trkpt lat="39.809070602059364" lon="2.8952313121408224">
        <ele>566</ele>
        <time>2021-04-29T09:47:16.000Z</time>
      </trkpt>
      <trkpt lat="39.80896205641329" lon="2.89530741982162">
        <ele>564.6</ele>
        <time>2021-04-29T09:47:17.000Z</time>
      </trkpt>
      <trkpt lat="39.80886524543166" lon="2.8954103495925665">
        <ele>564</ele>
        <time>2021-04-29T09:47:18.000Z</time>
      </trkpt>
      <trkpt lat="39.80877488851547" lon="2.895520655438304">
        <ele>563</ele>
        <time>2021-04-29T09:47:19.000Z</time>
      </trkpt>
      <trkpt lat="39.80859241448343" lon="2.8957713581621647">
        <ele>561.6</ele>
        <time>2021-04-29T09:47:21.000Z</time>
      </trkpt>
      <trkpt lat="39.808503314852715" lon="2.89590060710907">
        <ele>561.2</ele>
        <time>2021-04-29T09:47:22.000Z</time>
      </trkpt>
      <trkpt lat="39.80840943753719" lon="2.896013930439949">
        <ele>560.6</ele>
        <time>2021-04-29T09:47:23.000Z</time>
      </trkpt>
      <trkpt lat="39.80830466374755" lon="2.8961042873561382">
        <ele>559.4</ele>
        <time>2021-04-29T09:47:24.000Z</time>
      </trkpt>
      <trkpt lat="39.80807357467711" lon="2.896229261532426">
        <ele>558</ele>
        <time>2021-04-29T09:47:26.000Z</time>
      </trkpt>
      <trkpt lat="39.80782966129482" lon="2.8963658027350903">
        <ele>556.8</ele>
        <time>2021-04-29T09:47:28.000Z</time>
      </trkpt>
      <trkpt lat="39.807719103991985" lon="2.8964593447744846">
        <ele>556.2</ele>
        <time>2021-04-29T09:47:29.000Z</time>
      </trkpt>
      <trkpt lat="39.80762246064842" lon="2.896557245403528">
        <ele>555.6</ele>
        <time>2021-04-29T09:47:30.000Z</time>
      </trkpt>
      <trkpt lat="39.80743755586445" lon="2.8967329300940037">
        <ele>554.6</ele>
        <time>2021-04-29T09:47:32.000Z</time>
      </trkpt>
      <trkpt lat="39.80735088698566" lon="2.8967980574816465">
        <ele>553.8</ele>
        <time>2021-04-29T09:47:33.000Z</time>
      </trkpt>
      <trkpt lat="39.80726966634393" lon="2.896838877350092">
        <ele>552.8</ele>
        <time>2021-04-29T09:47:34.000Z</time>
      </trkpt>
      <trkpt lat="39.80719950981438" lon="2.8968846425414085">
        <ele>551.6</ele>
        <time>2021-04-29T09:47:35.000Z</time>
      </trkpt>
      <trkpt lat="39.80715944431722" lon="2.8969209361821413">
        <ele>550.8</ele>
        <time>2021-04-29T09:47:36.000Z</time>
      </trkpt>
      <trkpt lat="39.80716179125011" lon="2.8969618398696184">
        <ele>550.2</ele>
        <time>2021-04-29T09:47:37.000Z</time>
      </trkpt>
      <trkpt lat="39.8071866016835" lon="2.8970124665647745">
        <ele>549.4</ele>
        <time>2021-04-29T09:47:38.000Z</time>
      </trkpt>
      <trkpt lat="39.807263128459454" lon="2.8970289789140224">
        <ele>548.6</ele>
        <time>2021-04-29T09:47:39.000Z</time>
      </trkpt>
      <trkpt lat="39.80734267272055" lon="2.8969947807490826">
        <ele>548</ele>
        <time>2021-04-29T09:47:40.000Z</time>
      </trkpt>
      <trkpt lat="39.807494301348925" lon="2.896943064406514">
        <ele>547.6</ele>
        <time>2021-04-29T09:47:42.000Z</time>
      </trkpt>
      <trkpt lat="39.807572504505515" lon="2.896912721917033">
        <ele>547.4</ele>
        <time>2021-04-29T09:47:43.000Z</time>
      </trkpt>
      <trkpt lat="39.80765976011753" lon="2.896877182647586">
        <ele>547.4</ele>
        <time>2021-04-29T09:47:44.000Z</time>
      </trkpt>
      <trkpt lat="39.80784491635859" lon="2.8968066070228815">
        <ele>546.8</ele>
        <time>2021-04-29T09:47:46.000Z</time>
      </trkpt>
      <trkpt lat="39.80793812312186" lon="2.896768217906356">
        <ele>546.4</ele>
        <time>2021-04-29T09:47:47.000Z</time>
      </trkpt>
      <trkpt lat="39.80801741592586" lon="2.8967488557100296">
        <ele>545.6</ele>
        <time>2021-04-29T09:47:48.000Z</time>
      </trkpt>
      <trkpt lat="39.80807642452419" lon="2.896749610081315">
        <ele>544.6</ele>
        <time>2021-04-29T09:47:49.000Z</time>
      </trkpt>
      <trkpt lat="39.80812638066709" lon="2.8967741690576077">
        <ele>543.8</ele>
        <time>2021-04-29T09:47:50.000Z</time>
      </trkpt>
      <trkpt lat="39.80815798044205" lon="2.896829154342413">
        <ele>543</ele>
        <time>2021-04-29T09:47:51.000Z</time>
      </trkpt>
      <trkpt lat="39.80816166847944" lon="2.896913727745414">
        <ele>542.2</ele>
        <time>2021-04-29T09:47:52.000Z</time>
      </trkpt>
      <trkpt lat="39.80813107453287" lon="2.896990003064275">
        <ele>541.4</ele>
        <time>2021-04-29T09:47:53.000Z</time>
      </trkpt>
      <trkpt lat="39.8080827947706" lon="2.897052112966776">
        <ele>540.6</ele>
        <time>2021-04-29T09:47:54.000Z</time>
      </trkpt>
      <trkpt lat="39.808014733716846" lon="2.8970931004732847">
        <ele>540</ele>
        <time>2021-04-29T09:47:55.000Z</time>
      </trkpt>
      <trkpt lat="39.807844245806336" lon="2.8971055056899786">
        <ele>539.6</ele>
        <time>2021-04-29T09:47:57.000Z</time>
      </trkpt>
      <trkpt lat="39.80764274485409" lon="2.897110115736723">
        <ele>539.2</ele>
        <time>2021-04-29T09:47:59.000Z</time>
      </trkpt>
      <trkpt lat="39.807534366846085" lon="2.8971216827630997">
        <ele>538.6</ele>
        <time>2021-04-29T09:48:00.000Z</time>
      </trkpt>
      <trkpt lat="39.80742649175227" lon="2.8971579764038324">
        <ele>537.8</ele>
        <time>2021-04-29T09:48:01.000Z</time>
      </trkpt>
      <trkpt lat="39.80731618590653" lon="2.8972151409834623">
        <ele>537.4</ele>
        <time>2021-04-29T09:48:02.000Z</time>
      </trkpt>
      <trkpt lat="39.80710035189986" lon="2.8973461501300335">
        <ele>536</ele>
        <time>2021-04-29T09:48:04.000Z</time>
      </trkpt>
      <trkpt lat="39.806992560625076" lon="2.8974074218422174">
        <ele>535.2</ele>
        <time>2021-04-29T09:48:05.000Z</time>
      </trkpt>
      <trkpt lat="39.80689289979637" lon="2.897468525916338">
        <ele>534.4</ele>
        <time>2021-04-29T09:48:06.000Z</time>
      </trkpt>
      <trkpt lat="39.806762896478176" lon="2.897574305534363">
        <ele>533.4</ele>
        <time>2021-04-29T09:48:08.000Z</time>
      </trkpt>
      <trkpt lat="39.80673976242542" lon="2.897630548104644">
        <ele>532.8</ele>
        <time>2021-04-29T09:48:09.000Z</time>
      </trkpt>
      <trkpt lat="39.80675267055631" lon="2.897702883929014">
        <ele>531.8</ele>
        <time>2021-04-29T09:48:10.000Z</time>
      </trkpt>
      <trkpt lat="39.80679290369153" lon="2.8977563604712486">
        <ele>530.8</ele>
        <time>2021-04-29T09:48:11.000Z</time>
      </trkpt>
      <trkpt lat="39.806854762136936" lon="2.8977788239717484">
        <ele>529.8</ele>
        <time>2021-04-29T09:48:12.000Z</time>
      </trkpt>
      <trkpt lat="39.80692592449486" lon="2.897771028801799">
        <ele>529.2</ele>
        <time>2021-04-29T09:48:13.000Z</time>
      </trkpt>
      <trkpt lat="39.807003792375326" lon="2.8977534268051386">
        <ele>528.4</ele>
        <time>2021-04-29T09:48:14.000Z</time>
      </trkpt>
      <trkpt lat="39.80709037743509" lon="2.8977379202842712">
        <ele>528.4</ele>
        <time>2021-04-29T09:48:15.000Z</time>
      </trkpt>
      <trkpt lat="39.80727947317064" lon="2.89770414121449">
        <ele>528.2</ele>
        <time>2021-04-29T09:48:17.000Z</time>
      </trkpt>
      <trkpt lat="39.8073763679713" lon="2.897682683542371">
        <ele>528</ele>
        <time>2021-04-29T09:48:18.000Z</time>
      </trkpt>
      <trkpt lat="39.80746362358332" lon="2.8976634051650763">
        <ele>527.8</ele>
        <time>2021-04-29T09:48:19.000Z</time>
      </trkpt>
      <trkpt lat="39.80752732604742" lon="2.897662064060569">
        <ele>527.2</ele>
        <time>2021-04-29T09:48:20.000Z</time>
      </trkpt>
      <trkpt lat="39.80757812038064" lon="2.8976965975016356">
        <ele>526.4</ele>
        <time>2021-04-29T09:48:21.000Z</time>
      </trkpt>
      <trkpt lat="39.80761248618364" lon="2.8977554384618998">
        <ele>525.2</ele>
        <time>2021-04-29T09:48:22.000Z</time>
      </trkpt>
      <trkpt lat="39.80761072598398" lon="2.8978164587169886">
        <ele>524.2</ele>
        <time>2021-04-29T09:48:23.000Z</time>
      </trkpt>
      <trkpt lat="39.80757619254291" lon="2.897852836176753">
        <ele>523.6</ele>
        <time>2021-04-29T09:48:24.000Z</time>
      </trkpt>
      <trkpt lat="39.80752137489617" lon="2.8978582844138145">
        <ele>522.6</ele>
        <time>2021-04-29T09:48:25.000Z</time>
      </trkpt>
      <trkpt lat="39.8074524756521" lon="2.89784437045455">
        <ele>521.8</ele>
        <time>2021-04-29T09:48:26.000Z</time>
      </trkpt>
      <trkpt lat="39.80728408321738" lon="2.8977856133133173">
        <ele>521</ele>
        <time>2021-04-29T09:48:28.000Z</time>
      </trkpt>
      <trkpt lat="39.8071813210845" lon="2.8977863676846027">
        <ele>520.8</ele>
        <time>2021-04-29T09:48:29.000Z</time>
      </trkpt>
      <trkpt lat="39.807078475132585" lon="2.897798605263233">
        <ele>520.6</ele>
        <time>2021-04-29T09:48:30.000Z</time>
      </trkpt>
      <trkpt lat="39.8069672472775" lon="2.89782727137208">
        <ele>520.6</ele>
        <time>2021-04-29T09:48:31.000Z</time>
      </trkpt>
      <trkpt lat="39.806760465726256" lon="2.8979053907096386">
        <ele>520.2</ele>
        <time>2021-04-29T09:48:33.000Z</time>
      </trkpt>
      <trkpt lat="39.80654379352927" lon="2.898012511432171">
        <ele>519</ele>
        <time>2021-04-29T09:48:35.000Z</time>
      </trkpt>
      <trkpt lat="39.806318739429116" lon="2.898109406232834">
        <ele>517.6</ele>
        <time>2021-04-29T09:48:37.000Z</time>
      </trkpt>
      <trkpt lat="39.806144731119275" lon="2.898183921352029">
        <ele>515.8</ele>
        <time>2021-04-29T09:48:39.000Z</time>
      </trkpt>
      <trkpt lat="39.806097876280546" lon="2.8982192929834127">
        <ele>515</ele>
        <time>2021-04-29T09:48:40.000Z</time>
      </trkpt>
      <trkpt lat="39.8060882370919" lon="2.8982806485146284">
        <ele>513.8</ele>
        <time>2021-04-29T09:48:41.000Z</time>
      </trkpt>
      <trkpt lat="39.80610994622111" lon="2.898334711790085">
        <ele>512</ele>
        <time>2021-04-29T09:48:42.000Z</time>
      </trkpt>
      <trkpt lat="39.8061590641737" lon="2.8983507212251425">
        <ele>511</ele>
        <time>2021-04-29T09:48:43.000Z</time>
      </trkpt>
      <trkpt lat="39.80634824372828" lon="2.898301938548684">
        <ele>510</ele>
        <time>2021-04-29T09:48:46.000Z</time>
      </trkpt>
      <trkpt lat="39.80642870999873" lon="2.8982774633914232">
        <ele>509.8</ele>
        <time>2021-04-29T09:48:47.000Z</time>
      </trkpt>
      <trkpt lat="39.80669232085347" lon="2.8981905430555344">
        <ele>509.6</ele>
        <time>2021-04-29T09:48:50.000Z</time>
      </trkpt>
      <trkpt lat="39.80704452842474" lon="2.8980110865086317">
        <ele>508.4</ele>
        <time>2021-04-29T09:48:54.000Z</time>
      </trkpt>
      <trkpt lat="39.80710403993726" lon="2.898015109822154">
        <ele>507.4</ele>
        <time>2021-04-29T09:48:55.000Z</time>
      </trkpt>
      <trkpt lat="39.80714477598667" lon="2.89803983643651">
        <ele>506.4</ele>
        <time>2021-04-29T09:48:56.000Z</time>
      </trkpt>
      <trkpt lat="39.807165982201695" lon="2.898093145340681">
        <ele>505.6</ele>
        <time>2021-04-29T09:48:57.000Z</time>
      </trkpt>
      <trkpt lat="39.807162545621395" lon="2.8981589432805777">
        <ele>504.6</ele>
        <time>2021-04-29T09:48:58.000Z</time>
      </trkpt>
      <trkpt lat="39.80713010765612" lon="2.898214180022478">
        <ele>503.8</ele>
        <time>2021-04-29T09:48:59.000Z</time>
      </trkpt>
      <trkpt lat="39.807068249210715" lon="2.898256676271558">
        <ele>503.2</ele>
        <time>2021-04-29T09:49:00.000Z</time>
      </trkpt>
      <trkpt lat="39.80698979459703" lon="2.89828609675169">
        <ele>502.4</ele>
        <time>2021-04-29T09:49:01.000Z</time>
      </trkpt>
      <trkpt lat="39.806900192052126" lon="2.898317025974393">
        <ele>502</ele>
        <time>2021-04-29T09:49:02.000Z</time>
      </trkpt>
      <trkpt lat="39.80659844353795" lon="2.8984102327376604">
        <ele>501</ele>
        <time>2021-04-29T09:49:05.000Z</time>
      </trkpt>
      <trkpt lat="39.806491658091545" lon="2.898440156131983">
        <ele>500.4</ele>
        <time>2021-04-29T09:49:06.000Z</time>
      </trkpt>
      <trkpt lat="39.80638923123479" lon="2.898476030677557">
        <ele>499.4</ele>
        <time>2021-04-29T09:49:07.000Z</time>
      </trkpt>
      <trkpt lat="39.80628118850291" lon="2.898525567725301">
        <ele>498.2</ele>
        <time>2021-04-29T09:49:08.000Z</time>
      </trkpt>
      <trkpt lat="39.806169709190726" lon="2.8985827323049307">
        <ele>496.8</ele>
        <time>2021-04-29T09:49:09.000Z</time>
      </trkpt>
      <trkpt lat="39.806054877117276" lon="2.898641573265195">
        <ele>495</ele>
        <time>2021-04-29T09:49:10.000Z</time>
      </trkpt>
      <trkpt lat="39.8059362731874" lon="2.898691613227129">
        <ele>491.8</ele>
        <time>2021-04-29T09:49:11.000Z</time>
      </trkpt>
      <trkpt lat="39.805816411972046" lon="2.8987332712858915">
        <ele>490.4</ele>
        <time>2021-04-29T09:49:12.000Z</time>
      </trkpt>
      <trkpt lat="39.80569546110928" lon="2.8987623564898968">
        <ele>490</ele>
        <time>2021-04-29T09:49:13.000Z</time>
      </trkpt>
      <trkpt lat="39.805573001503944" lon="2.8987771924585104">
        <ele>489</ele>
        <time>2021-04-29T09:49:14.000Z</time>
      </trkpt>
      <trkpt lat="39.80544677004218" lon="2.8987735882401466">
        <ele>487.8</ele>
        <time>2021-04-29T09:49:15.000Z</time>
      </trkpt>
      <trkpt lat="39.80531634762883" lon="2.898752801120281">
        <ele>486.6</ele>
        <time>2021-04-29T09:49:16.000Z</time>
      </trkpt>
      <trkpt lat="39.8050850071013" lon="2.8986260667443275">
        <ele>485.2</ele>
        <time>2021-04-29T09:49:18.000Z</time>
      </trkpt>
      <trkpt lat="39.80499180033803" lon="2.898552305996418">
        <ele>484</ele>
        <time>2021-04-29T09:49:19.000Z</time>
      </trkpt>
      <trkpt lat="39.80480706319213" lon="2.8985000029206276">
        <ele>483</ele>
        <time>2021-04-29T09:49:21.000Z</time>
      </trkpt>
      <trkpt lat="39.80471905320883" lon="2.8985424991697073">
        <ele>482.8</ele>
        <time>2021-04-29T09:49:22.000Z</time>
      </trkpt>
      <trkpt lat="39.80463079176843" lon="2.898602932691574">
        <ele>482.8</ele>
        <time>2021-04-29T09:49:23.000Z</time>
      </trkpt>
      <trkpt lat="39.80453993193805" lon="2.898671915754676">
        <ele>482.8</ele>
        <time>2021-04-29T09:49:24.000Z</time>
      </trkpt>
      <trkpt lat="39.80435402132571" lon="2.898837123066187">
        <ele>482.6</ele>
        <time>2021-04-29T09:49:26.000Z</time>
      </trkpt>
      <trkpt lat="39.804271878674626" lon="2.898941058665514">
        <ele>482.6</ele>
        <time>2021-04-29T09:49:27.000Z</time>
      </trkpt>
      <trkpt lat="39.80402763001621" lon="2.8993620816618204">
        <ele>482.6</ele>
        <time>2021-04-29T09:49:31.000Z</time>
      </trkpt>
      <trkpt lat="39.803810119628906" lon="2.89984286762774">
        <ele>483.4</ele>
        <time>2021-04-29T09:49:36.000Z</time>
      </trkpt>
      <trkpt lat="39.80377608910203" lon="2.899921825155616">
        <ele>483.4</ele>
        <time>2021-04-29T09:49:37.000Z</time>
      </trkpt>
      <trkpt lat="39.80362605303526" lon="2.90009549818933">
        <ele>484</ele>
        <time>2021-04-29T09:49:40.000Z</time>
      </trkpt>
      <trkpt lat="39.80357274413109" lon="2.9001548420637846">
        <ele>484.2</ele>
        <time>2021-04-29T09:49:41.000Z</time>
      </trkpt>
      <trkpt lat="39.80352982878685" lon="2.9001896269619465">
        <ele>484.6</ele>
        <time>2021-04-29T09:49:42.000Z</time>
      </trkpt>
      <trkpt lat="39.80343653820455" lon="2.9002491384744644">
        <ele>485.4</ele>
        <time>2021-04-29T09:49:44.000Z</time>
      </trkpt>
      <trkpt lat="39.80316714383662" lon="2.900196835398674">
        <ele>486</ele>
        <time>2021-04-29T09:49:47.000Z</time>
      </trkpt>
      <trkpt lat="39.80299958959222" lon="2.8999354876577854">
        <ele>486.2</ele>
        <time>2021-04-29T09:49:49.000Z</time>
      </trkpt>
      <trkpt lat="39.802900264039636" lon="2.8997348248958588">
        <ele>486.2</ele>
        <time>2021-04-29T09:49:51.000Z</time>
      </trkpt>
      <trkpt lat="39.802801525220275" lon="2.899538017809391">
        <ele>486.2</ele>
        <time>2021-04-29T09:49:53.000Z</time>
      </trkpt>
      <trkpt lat="39.80253246612847" lon="2.8988634422421455">
        <ele>486</ele>
        <time>2021-04-29T09:49:59.000Z</time>
      </trkpt>
      <trkpt lat="39.802480079233646" lon="2.8987538907676935">
        <ele>486</ele>
        <time>2021-04-29T09:50:00.000Z</time>
      </trkpt>
      <trkpt lat="39.80218377895653" lon="2.8980877809226513">
        <ele>485.6</ele>
        <time>2021-04-29T09:50:06.000Z</time>
      </trkpt>
      <trkpt lat="39.802073473110795" lon="2.897872617468238">
        <ele>485.4</ele>
        <time>2021-04-29T09:50:08.000Z</time>
      </trkpt>
      <trkpt lat="39.80200817808509" lon="2.8977746330201626">
        <ele>485.4</ele>
        <time>2021-04-29T09:50:09.000Z</time>
      </trkpt>
      <trkpt lat="39.80186166241765" lon="2.8976070787757635">
        <ele>485.4</ele>
        <time>2021-04-29T09:50:11.000Z</time>
      </trkpt>
      <trkpt lat="39.801612719893456" lon="2.8973997943103313">
        <ele>485.2</ele>
        <time>2021-04-29T09:50:14.000Z</time>
      </trkpt>
      <trkpt lat="39.80143544264138" lon="2.897288231179118">
        <ele>485.2</ele>
        <time>2021-04-29T09:50:16.000Z</time>
      </trkpt>
      <trkpt lat="39.80105197057128" lon="2.8971511032432318">
        <ele>485.2</ele>
        <time>2021-04-29T09:50:20.000Z</time>
      </trkpt>
      <trkpt lat="39.800765477120876" lon="2.897108355537057">
        <ele>485.2</ele>
        <time>2021-04-29T09:50:23.000Z</time>
      </trkpt>
      <trkpt lat="39.80065810494125" lon="2.897123107686639">
        <ele>485.2</ele>
        <time>2021-04-29T09:50:24.000Z</time>
      </trkpt>
      <trkpt lat="39.80035283602774" lon="2.8971754107624292">
        <ele>485</ele>
        <time>2021-04-29T09:50:27.000Z</time>
      </trkpt>
      <trkpt lat="39.80025066062808" lon="2.8972070943564177">
        <ele>485</ele>
        <time>2021-04-29T09:50:28.000Z</time>
      </trkpt>
      <trkpt lat="39.800150748342276" lon="2.897247914224863">
        <ele>485</ele>
        <time>2021-04-29T09:50:29.000Z</time>
      </trkpt>
      <trkpt lat="39.79974791407585" lon="2.897446732968092">
        <ele>484.8</ele>
        <time>2021-04-29T09:50:33.000Z</time>
      </trkpt>
      <trkpt lat="39.79964280501008" lon="2.897503226995468">
        <ele>484.6</ele>
        <time>2021-04-29T09:50:34.000Z</time>
      </trkpt>
      <trkpt lat="39.79942764155567" lon="2.8976164665073156">
        <ele>483.6</ele>
        <time>2021-04-29T09:50:36.000Z</time>
      </trkpt>
      <trkpt lat="39.798880806192756" lon="2.8978892974555492">
        <ele>482.4</ele>
        <time>2021-04-29T09:50:41.000Z</time>
      </trkpt>
      <trkpt lat="39.79876505210996" lon="2.8979236632585526">
        <ele>481.8</ele>
        <time>2021-04-29T09:50:42.000Z</time>
      </trkpt>
      <trkpt lat="39.79853597469628" lon="2.897866163402796">
        <ele>481</ele>
        <time>2021-04-29T09:50:44.000Z</time>
      </trkpt>
      <trkpt lat="39.7982085775584" lon="2.8976215794682503">
        <ele>479.6</ele>
        <time>2021-04-29T09:50:47.000Z</time>
      </trkpt>
      <trkpt lat="39.79801235720515" lon="2.8974042367190123">
        <ele>478.4</ele>
        <time>2021-04-29T09:50:49.000Z</time>
      </trkpt>
      <trkpt lat="39.79782946407795" lon="2.8971703816205263">
        <ele>476.6</ele>
        <time>2021-04-29T09:50:51.000Z</time>
      </trkpt>
      <trkpt lat="39.797738352790475" lon="2.897054124623537">
        <ele>475.6</ele>
        <time>2021-04-29T09:50:52.000Z</time>
      </trkpt>
      <trkpt lat="39.79765025898814" lon="2.8969361912459135">
        <ele>474.6</ele>
        <time>2021-04-29T09:50:53.000Z</time>
      </trkpt>
      <trkpt lat="39.79746904224157" lon="2.8967052698135376">
        <ele>473.4</ele>
        <time>2021-04-29T09:50:55.000Z</time>
      </trkpt>
      <trkpt lat="39.797277599573135" lon="2.8964953869581223">
        <ele>472.8</ele>
        <time>2021-04-29T09:50:57.000Z</time>
      </trkpt>
      <trkpt lat="39.79716838337481" lon="2.896420704200864">
        <ele>472.6</ele>
        <time>2021-04-29T09:50:58.000Z</time>
      </trkpt>
      <trkpt lat="39.797044498845935" lon="2.896384410560131">
        <ele>472.4</ele>
        <time>2021-04-29T09:50:59.000Z</time>
      </trkpt>
      <trkpt lat="39.79691583663225" lon="2.8963878471404314">
        <ele>472</ele>
        <time>2021-04-29T09:51:00.000Z</time>
      </trkpt>
      <trkpt lat="39.79666714556515" lon="2.896459847688675">
        <ele>471</ele>
        <time>2021-04-29T09:51:02.000Z</time>
      </trkpt>
      <trkpt lat="39.79653798043728" lon="2.8964846581220627">
        <ele>470.8</ele>
        <time>2021-04-29T09:51:03.000Z</time>
      </trkpt>
      <trkpt lat="39.7962779738009" lon="2.8964387252926826">
        <ele>469.4</ele>
        <time>2021-04-29T09:51:05.000Z</time>
      </trkpt>
      <trkpt lat="39.796009082347155" lon="2.896354151889682">
        <ele>468.4</ele>
        <time>2021-04-29T09:51:07.000Z</time>
      </trkpt>
      <trkpt lat="39.79574698023498" lon="2.8962518088519573">
        <ele>466.2</ele>
        <time>2021-04-29T09:51:09.000Z</time>
      </trkpt>
      <trkpt lat="39.79561270214617" lon="2.896206798031926">
        <ele>464.8</ele>
        <time>2021-04-29T09:51:10.000Z</time>
      </trkpt>
      <trkpt lat="39.79535847902298" lon="2.89611023850739">
        <ele>463.4</ele>
        <time>2021-04-29T09:51:12.000Z</time>
      </trkpt>
      <trkpt lat="39.79524222202599" lon="2.8960329573601484">
        <ele>463.2</ele>
        <time>2021-04-29T09:51:13.000Z</time>
      </trkpt>
      <trkpt lat="39.795027393847704" lon="2.895827181637287">
        <ele>461.6</ele>
        <time>2021-04-29T09:51:15.000Z</time>
      </trkpt>
      <trkpt lat="39.79481809772551" lon="2.895611096173525">
        <ele>460.8</ele>
        <time>2021-04-29T09:51:17.000Z</time>
      </trkpt>
      <trkpt lat="39.794711731374264" lon="2.895500622689724">
        <ele>460.2</ele>
        <time>2021-04-29T09:51:18.000Z</time>
      </trkpt>
      <trkpt lat="39.794397074729204" lon="2.8951676096767187">
        <ele>459.2</ele>
        <time>2021-04-29T09:51:21.000Z</time>
      </trkpt>
      <trkpt lat="39.794169422239065" lon="2.8949811961501837">
        <ele>457</ele>
        <time>2021-04-29T09:51:23.000Z</time>
      </trkpt>
      <trkpt lat="39.79404612444341" lon="2.8949164040386677">
        <ele>455.4</ele>
        <time>2021-04-29T09:51:24.000Z</time>
      </trkpt>
      <trkpt lat="39.79391704313457" lon="2.8948681242763996">
        <ele>454.2</ele>
        <time>2021-04-29T09:51:25.000Z</time>
      </trkpt>
      <trkpt lat="39.793784860521555" lon="2.894835015758872">
        <ele>453.4</ele>
        <time>2021-04-29T09:51:26.000Z</time>
      </trkpt>
      <trkpt lat="39.793653851374984" lon="2.894802074879408">
        <ele>453</ele>
        <time>2021-04-29T09:51:27.000Z</time>
      </trkpt>
      <trkpt lat="39.793392503634095" lon="2.894739545881748">
        <ele>451.8</ele>
        <time>2021-04-29T09:51:29.000Z</time>
      </trkpt>
      <trkpt lat="39.79312872514129" lon="2.8946704789996147">
        <ele>450.6</ele>
        <time>2021-04-29T09:51:31.000Z</time>
      </trkpt>
      <trkpt lat="39.792869221419096" lon="2.8945706505328417">
        <ele>449.4</ele>
        <time>2021-04-29T09:51:33.000Z</time>
      </trkpt>
      <trkpt lat="39.79274349287152" lon="2.894506696611643">
        <ele>448.2</ele>
        <time>2021-04-29T09:51:34.000Z</time>
      </trkpt>
      <trkpt lat="39.79262270964682" lon="2.894441904500127">
        <ele>447</ele>
        <time>2021-04-29T09:51:35.000Z</time>
      </trkpt>
      <trkpt lat="39.79239497333765" lon="2.8943124040961266">
        <ele>445</ele>
        <time>2021-04-29T09:51:37.000Z</time>
      </trkpt>
      <trkpt lat="39.792283745482564" lon="2.8942591790109873">
        <ele>444.4</ele>
        <time>2021-04-29T09:51:38.000Z</time>
      </trkpt>
      <trkpt lat="39.79216715320945" lon="2.8942287527024746">
        <ele>443.8</ele>
        <time>2021-04-29T09:51:39.000Z</time>
      </trkpt>
      <trkpt lat="39.791938327252865" lon="2.8942102286964655">
        <ele>443.6</ele>
        <time>2021-04-29T09:51:41.000Z</time>
      </trkpt>
      <trkpt lat="39.791627610102296" lon="2.894265213981271">
        <ele>443.2</ele>
        <time>2021-04-29T09:51:44.000Z</time>
      </trkpt>
      <trkpt lat="39.79153658263385" lon="2.894296646118164">
        <ele>442.8</ele>
        <time>2021-04-29T09:51:45.000Z</time>
      </trkpt>
      <trkpt lat="39.79116107337177" lon="2.894431846216321">
        <ele>443.2</ele>
        <time>2021-04-29T09:51:49.000Z</time>
      </trkpt>
      <trkpt lat="39.7910628374666" lon="2.89441030472517">
        <ele>443</ele>
        <time>2021-04-29T09:51:50.000Z</time>
      </trkpt>
      <trkpt lat="39.79085245169699" lon="2.8943242225795984">
        <ele>442.8</ele>
        <time>2021-04-29T09:51:52.000Z</time>
      </trkpt>
      <trkpt lat="39.79074549861252" lon="2.894262447953224">
        <ele>442.8</ele>
        <time>2021-04-29T09:51:53.000Z</time>
      </trkpt>
      <trkpt lat="39.79022020474076" lon="2.893940079957247">
        <ele>442.4</ele>
        <time>2021-04-29T09:51:58.000Z</time>
      </trkpt>
      <trkpt lat="39.79005726054311" lon="2.893851399421692">
        <ele>442.2</ele>
        <time>2021-04-29T09:52:00.000Z</time>
      </trkpt>
      <trkpt lat="39.78998257778585" lon="2.893846957013011">
        <ele>441.8</ele>
        <time>2021-04-29T09:52:01.000Z</time>
      </trkpt>
      <trkpt lat="39.789921306073666" lon="2.8938921354711056">
        <ele>440</ele>
        <time>2021-04-29T09:52:02.000Z</time>
      </trkpt>
      <trkpt lat="39.789855256676674" lon="2.893959442153573">
        <ele>439.2</ele>
        <time>2021-04-29T09:52:03.000Z</time>
      </trkpt>
      <trkpt lat="39.789779065176845" lon="2.8940320294350386">
        <ele>438.6</ele>
        <time>2021-04-29T09:52:04.000Z</time>
      </trkpt>
      <trkpt lat="39.78969080373645" lon="2.894090451300144">
        <ele>438.2</ele>
        <time>2021-04-29T09:52:05.000Z</time>
      </trkpt>
      <trkpt lat="39.78959332220256" lon="2.8941186983138323">
        <ele>438</ele>
        <time>2021-04-29T09:52:06.000Z</time>
      </trkpt>
      <trkpt lat="39.78949315845966" lon="2.894138228148222">
        <ele>437.6</ele>
        <time>2021-04-29T09:52:07.000Z</time>
      </trkpt>
      <trkpt lat="39.78930288925767" lon="2.894190028309822">
        <ele>436.4</ele>
        <time>2021-04-29T09:52:09.000Z</time>
      </trkpt>
      <trkpt lat="39.789147237315774" lon="2.8942393139004707">
        <ele>435.4</ele>
        <time>2021-04-29T09:52:11.000Z</time>
      </trkpt>
      <trkpt lat="39.789085295051336" lon="2.8941743541508913">
        <ele>433.8</ele>
        <time>2021-04-29T09:52:13.000Z</time>
      </trkpt>
      <trkpt lat="39.78908210992813" lon="2.894131438806653">
        <ele>432.8</ele>
        <time>2021-04-29T09:52:14.000Z</time>
      </trkpt>
      <trkpt lat="39.789106668904424" lon="2.894093468785286">
        <ele>431.6</ele>
        <time>2021-04-29T09:52:15.000Z</time>
      </trkpt>
      <trkpt lat="39.78922812268138" lon="2.8940346278250217">
        <ele>430.2</ele>
        <time>2021-04-29T09:52:17.000Z</time>
      </trkpt>
      <trkpt lat="39.78930682875216" lon="2.894005123525858">
        <ele>430</ele>
        <time>2021-04-29T09:52:18.000Z</time>
      </trkpt>
      <trkpt lat="39.789652582257986" lon="2.8938555903732777">
        <ele>429.2</ele>
        <time>2021-04-29T09:52:22.000Z</time>
      </trkpt>
      <trkpt lat="39.78972525335848" lon="2.8938182909041643">
        <ele>429</ele>
        <time>2021-04-29T09:52:23.000Z</time>
      </trkpt>
      <trkpt lat="39.78979775682092" lon="2.8937001898884773">
        <ele>428.8</ele>
        <time>2021-04-29T09:52:25.000Z</time>
      </trkpt>
      <trkpt lat="39.789737993851304" lon="2.8935908898711205">
        <ele>427.8</ele>
        <time>2021-04-29T09:52:27.000Z</time>
      </trkpt>
      <trkpt lat="39.78960648179054" lon="2.8935906384140253">
        <ele>426.6</ele>
        <time>2021-04-29T09:52:29.000Z</time>
      </trkpt>
      <trkpt lat="39.789523584768176" lon="2.893613940104842">
        <ele>425.6</ele>
        <time>2021-04-29T09:52:30.000Z</time>
      </trkpt>
      <trkpt lat="39.78943188674748" lon="2.8936229925602674">
        <ele>425.4</ele>
        <time>2021-04-29T09:52:31.000Z</time>
      </trkpt>
      <trkpt lat="39.789335830137134" lon="2.893627854064107">
        <ele>425.2</ele>
        <time>2021-04-29T09:52:32.000Z</time>
      </trkpt>
      <trkpt lat="39.78906283155084" lon="2.8936731163412333">
        <ele>424.6</ele>
        <time>2021-04-29T09:52:35.000Z</time>
      </trkpt>
      <trkpt lat="39.78898781351745" lon="2.8937030397355556">
        <ele>424</ele>
        <time>2021-04-29T09:52:36.000Z</time>
      </trkpt>
      <trkpt lat="39.78892285376787" lon="2.8937196359038353">
        <ele>423.4</ele>
        <time>2021-04-29T09:52:37.000Z</time>
      </trkpt>
      <trkpt lat="39.788867365568876" lon="2.8936992678791285">
        <ele>422.8</ele>
        <time>2021-04-29T09:52:38.000Z</time>
      </trkpt>
      <trkpt lat="39.78884515352547" lon="2.893635733053088">
        <ele>422</ele>
        <time>2021-04-29T09:52:39.000Z</time>
      </trkpt>
      <trkpt lat="39.788852697238326" lon="2.8935702703893185">
        <ele>421.2</ele>
        <time>2021-04-29T09:52:40.000Z</time>
      </trkpt>
      <trkpt lat="39.78888966143131" lon="2.8935211524367332">
        <ele>420</ele>
        <time>2021-04-29T09:52:41.000Z</time>
      </trkpt>
      <trkpt lat="39.78894481435418" lon="2.893484942615032">
        <ele>418.8</ele>
        <time>2021-04-29T09:52:42.000Z</time>
      </trkpt>
      <trkpt lat="39.78908487595618" lon="2.8933705296367407">
        <ele>417.6</ele>
        <time>2021-04-29T09:52:44.000Z</time>
      </trkpt>
      <trkpt lat="39.78915913961828" lon="2.89328939281404">
        <ele>417.4</ele>
        <time>2021-04-29T09:52:45.000Z</time>
      </trkpt>
      <trkpt lat="39.78923935443163" lon="2.8932001255452633">
        <ele>417.2</ele>
        <time>2021-04-29T09:52:46.000Z</time>
      </trkpt>
      <trkpt lat="39.789410680532455" lon="2.893008766695857">
        <ele>417</ele>
        <time>2021-04-29T09:52:48.000Z</time>
      </trkpt>
      <trkpt lat="39.7894982714206" lon="2.8929070103913546">
        <ele>417</ele>
        <time>2021-04-29T09:52:49.000Z</time>
      </trkpt>
      <trkpt lat="39.789676470682025" lon="2.892687236890197">
        <ele>416.6</ele>
        <time>2021-04-29T09:52:51.000Z</time>
      </trkpt>
      <trkpt lat="39.789755595847964" lon="2.8925682976841927">
        <ele>416</ele>
        <time>2021-04-29T09:52:52.000Z</time>
      </trkpt>
      <trkpt lat="39.789816699922085" lon="2.8924340195953846">
        <ele>415.4</ele>
        <time>2021-04-29T09:52:53.000Z</time>
      </trkpt>
      <trkpt lat="39.78988057002425" lon="2.89213084615767">
        <ele>413.6</ele>
        <time>2021-04-29T09:52:55.000Z</time>
      </trkpt>
      <trkpt lat="39.78990093804896" lon="2.891839910298586">
        <ele>412</ele>
        <time>2021-04-29T09:52:57.000Z</time>
      </trkpt>
      <trkpt lat="39.78994905017316" lon="2.8917281795293093">
        <ele>410</ele>
        <time>2021-04-29T09:52:58.000Z</time>
      </trkpt>
      <trkpt lat="39.7900249902159" lon="2.89164905436337">
        <ele>408.8</ele>
        <time>2021-04-29T09:52:59.000Z</time>
      </trkpt>
      <trkpt lat="39.790121549740434" lon="2.8915893752127886">
        <ele>408.2</ele>
        <time>2021-04-29T09:53:00.000Z</time>
      </trkpt>
      <trkpt lat="39.79022984392941" lon="2.8915390837937593">
        <ele>407.6</ele>
        <time>2021-04-29T09:53:01.000Z</time>
      </trkpt>
      <trkpt lat="39.79034434072673" lon="2.8914863616228104">
        <ele>406.8</ele>
        <time>2021-04-29T09:53:02.000Z</time>
      </trkpt>
      <trkpt lat="39.79046244174242" lon="2.8914283588528633">
        <ele>406.2</ele>
        <time>2021-04-29T09:53:03.000Z</time>
      </trkpt>
      <trkpt lat="39.790578028187156" lon="2.8913737926632166">
        <ele>405.8</ele>
        <time>2021-04-29T09:53:04.000Z</time>
      </trkpt>
      <trkpt lat="39.79080651886761" lon="2.891261726617813">
        <ele>405</ele>
        <time>2021-04-29T09:53:06.000Z</time>
      </trkpt>
      <trkpt lat="39.79097935371101" lon="2.891170112416148">
        <ele>404.2</ele>
        <time>2021-04-29T09:53:08.000Z</time>
      </trkpt>
      <trkpt lat="39.79104397818446" lon="2.8910089284181595">
        <ele>402.8</ele>
        <time>2021-04-29T09:53:10.000Z</time>
      </trkpt>
      <trkpt lat="39.79097583331168" lon="2.8908398654311895">
        <ele>401</ele>
        <time>2021-04-29T09:53:12.000Z</time>
      </trkpt>
      <trkpt lat="39.79090861044824" lon="2.890783119946718">
        <ele>399.8</ele>
        <time>2021-04-29T09:53:13.000Z</time>
      </trkpt>
      <trkpt lat="39.79083191603422" lon="2.8907352592796087">
        <ele>399</ele>
        <time>2021-04-29T09:53:14.000Z</time>
      </trkpt>
      <trkpt lat="39.79074088856578" lon="2.8906814474612474">
        <ele>398.4</ele>
        <time>2021-04-29T09:53:15.000Z</time>
      </trkpt>
      <trkpt lat="39.79064214974642" lon="2.890634760260582">
        <ele>398</ele>
        <time>2021-04-29T09:53:16.000Z</time>
      </trkpt>
      <trkpt lat="39.79043503291905" lon="2.8905338421463966">
        <ele>397.8</ele>
        <time>2021-04-29T09:53:18.000Z</time>
      </trkpt>
      <trkpt lat="39.79034358635545" lon="2.890461590141058">
        <ele>397.6</ele>
        <time>2021-04-29T09:53:19.000Z</time>
      </trkpt>
      <trkpt lat="39.79026940651238" lon="2.890367964282632">
        <ele>397</ele>
        <time>2021-04-29T09:53:20.000Z</time>
      </trkpt>
      <trkpt lat="39.790210481733084" lon="2.890272829681635">
        <ele>396</ele>
        <time>2021-04-29T09:53:21.000Z</time>
      </trkpt>
      <trkpt lat="39.79015373624861" lon="2.8902011644095182">
        <ele>394.8</ele>
        <time>2021-04-29T09:53:22.000Z</time>
      </trkpt>
      <trkpt lat="39.79010654613376" lon="2.890167636796832">
        <ele>393.8</ele>
        <time>2021-04-29T09:53:23.000Z</time>
      </trkpt>
      <trkpt lat="39.79010654613376" lon="2.890167636796832">
        <ele>393.8</ele>
        <time>2021-04-29T09:53:23.000Z</time>
      </trkpt>
      <trkpt lat="39.79001300409436" lon="2.890236536040902">
        <ele>392.6</ele>
        <time>2021-04-29T09:53:25.000Z</time>
      </trkpt>
      <trkpt lat="39.789941757917404" lon="2.890421273186803">
        <ele>391.4</ele>
        <time>2021-04-29T09:53:27.000Z</time>
      </trkpt>
      <trkpt lat="39.78992591612041" lon="2.8905339259654284">
        <ele>391.2</ele>
        <time>2021-04-29T09:53:28.000Z</time>
      </trkpt>
      <trkpt lat="39.78988643735647" lon="2.8906221874058247">
        <ele>391</ele>
        <time>2021-04-29T09:53:29.000Z</time>
      </trkpt>
      <trkpt lat="39.78974109515548" lon="2.890741042792797">
        <ele>390.6</ele>
        <time>2021-04-29T09:53:31.000Z</time>
      </trkpt>
      <trkpt lat="39.789649061858654" lon="2.890768116340041">
        <ele>390.2</ele>
        <time>2021-04-29T09:53:32.000Z</time>
      </trkpt>
      <trkpt lat="39.78955459780991" lon="2.890792591497302">
        <ele>389.6</ele>
        <time>2021-04-29T09:53:33.000Z</time>
      </trkpt>
      <trkpt lat="39.78945300914347" lon="2.8908171504735947">
        <ele>388.6</ele>
        <time>2021-04-29T09:53:34.000Z</time>
      </trkpt>
      <trkpt lat="39.78926072828472" lon="2.8909208346158266">
        <ele>387.2</ele>
        <time>2021-04-29T09:53:36.000Z</time>
      </trkpt>
      <trkpt lat="39.78917087428272" lon="2.89103239774704">
        <ele>386.4</ele>
        <time>2021-04-29T09:53:37.000Z</time>
      </trkpt>
      <trkpt lat="39.78910029865801" lon="2.8911702800542116">
        <ele>385.4</ele>
        <time>2021-04-29T09:53:38.000Z</time>
      </trkpt>
      <trkpt lat="39.78903324343264" lon="2.8913096711039543">
        <ele>384.2</ele>
        <time>2021-04-29T09:53:39.000Z</time>
      </trkpt>
      <trkpt lat="39.788960153236985" lon="2.8914376627653837">
        <ele>383</ele>
        <time>2021-04-29T09:53:40.000Z</time>
      </trkpt>
      <trkpt lat="39.78876016102731" lon="2.8916433546692133">
        <ele>381.6</ele>
        <time>2021-04-29T09:53:42.000Z</time>
      </trkpt>
      <trkpt lat="39.78864432312548" lon="2.8917155228555202">
        <ele>381.2</ele>
        <time>2021-04-29T09:53:43.000Z</time>
      </trkpt>
      <trkpt lat="39.788533514365554" lon="2.891773022711277">
        <ele>380.8</ele>
        <time>2021-04-29T09:53:44.000Z</time>
      </trkpt>
      <trkpt lat="39.78842379525304" lon="2.8918344620615244">
        <ele>380.2</ele>
        <time>2021-04-29T09:53:45.000Z</time>
      </trkpt>
      <trkpt lat="39.7882186062634" lon="2.8919300995767117">
        <ele>378.2</ele>
        <time>2021-04-29T09:53:47.000Z</time>
      </trkpt>
      <trkpt lat="39.78811173699796" lon="2.891948288306594">
        <ele>377.2</ele>
        <time>2021-04-29T09:53:48.000Z</time>
      </trkpt>
      <trkpt lat="39.788025906309485" lon="2.891903193667531">
        <ele>376.2</ele>
        <time>2021-04-29T09:53:49.000Z</time>
      </trkpt>
      <trkpt lat="39.78784963488579" lon="2.891757767647505">
        <ele>374.4</ele>
        <time>2021-04-29T09:53:51.000Z</time>
      </trkpt>
      <trkpt lat="39.7877558413893" lon="2.891675541177392">
        <ele>373.4</ele>
        <time>2021-04-29T09:53:52.000Z</time>
      </trkpt>
      <trkpt lat="39.78766213171184" lon="2.8915959130972624">
        <ele>372.6</ele>
        <time>2021-04-29T09:53:53.000Z</time>
      </trkpt>
      <trkpt lat="39.787472700700164" lon="2.8914742078632116">
        <ele>371.2</ele>
        <time>2021-04-29T09:53:55.000Z</time>
      </trkpt>
      <trkpt lat="39.78738393634558" lon="2.891460293903947">
        <ele>370.8</ele>
        <time>2021-04-29T09:53:56.000Z</time>
      </trkpt>
      <trkpt lat="39.78723155334592" lon="2.8915604576468468">
        <ele>369.8</ele>
        <time>2021-04-29T09:53:58.000Z</time>
      </trkpt>
      <trkpt lat="39.78711613453925" lon="2.891774782910943">
        <ele>367.8</ele>
        <time>2021-04-29T09:54:00.000Z</time>
      </trkpt>
      <trkpt lat="39.7870531026274" lon="2.8918959014117718">
        <ele>367</ele>
        <time>2021-04-29T09:54:01.000Z</time>
      </trkpt>
      <trkpt lat="39.78699652478099" lon="2.8920309338718653">
        <ele>366.6</ele>
        <time>2021-04-29T09:54:02.000Z</time>
      </trkpt>
      <trkpt lat="39.78694288060069" lon="2.892328826710582">
        <ele>365.8</ele>
        <time>2021-04-29T09:54:04.000Z</time>
      </trkpt>
      <trkpt lat="39.786951849237084" lon="2.8924834728240967">
        <ele>365</ele>
        <time>2021-04-29T09:54:05.000Z</time>
      </trkpt>
      <trkpt lat="39.78700892999768" lon="2.892779689282179">
        <ele>364.2</ele>
        <time>2021-04-29T09:54:07.000Z</time>
      </trkpt>
      <trkpt lat="39.787045139819384" lon="2.8928967844694853">
        <ele>363.8</ele>
        <time>2021-04-29T09:54:08.000Z</time>
      </trkpt>
      <trkpt lat="39.78705855086446" lon="2.8930156398564577">
        <ele>363</ele>
        <time>2021-04-29T09:54:09.000Z</time>
      </trkpt>
      <trkpt lat="39.78705117478967" lon="2.893103314563632">
        <ele>362.2</ele>
        <time>2021-04-29T09:54:10.000Z</time>
      </trkpt>
      <trkpt lat="39.78692284785211" lon="2.8932397719472647">
        <ele>360</ele>
        <time>2021-04-29T09:54:12.000Z</time>
      </trkpt>
      <trkpt lat="39.7868319042027" lon="2.8932827711105347">
        <ele>358.6</ele>
        <time>2021-04-29T09:54:13.000Z</time>
      </trkpt>
      <trkpt lat="39.786723693832755" lon="2.893343372270465">
        <ele>357.4</ele>
        <time>2021-04-29T09:54:14.000Z</time>
      </trkpt>
      <trkpt lat="39.786621602252126" lon="2.8934100084006786">
        <ele>356.6</ele>
        <time>2021-04-29T09:54:15.000Z</time>
      </trkpt>
      <trkpt lat="39.7865332569927" lon="2.8934903908520937">
        <ele>356</ele>
        <time>2021-04-29T09:54:16.000Z</time>
      </trkpt>
      <trkpt lat="39.786393363028765" lon="2.893710918724537">
        <ele>355.4</ele>
        <time>2021-04-29T09:54:18.000Z</time>
      </trkpt>
      <trkpt lat="39.786333767697215" lon="2.893839245662093">
        <ele>355</ele>
        <time>2021-04-29T09:54:19.000Z</time>
      </trkpt>
      <trkpt lat="39.78627450764179" lon="2.8939673211425543">
        <ele>354.6</ele>
        <time>2021-04-29T09:54:20.000Z</time>
      </trkpt>
      <trkpt lat="39.7861513774842" lon="2.894236296415329">
        <ele>353</ele>
        <time>2021-04-29T09:54:22.000Z</time>
      </trkpt>
      <trkpt lat="39.786088932305574" lon="2.894368562847376">
        <ele>351.8</ele>
        <time>2021-04-29T09:54:23.000Z</time>
      </trkpt>
      <trkpt lat="39.7860221285373" lon="2.894505439326167">
        <ele>349.6</ele>
        <time>2021-04-29T09:54:24.000Z</time>
      </trkpt>
      <trkpt lat="39.785944763571024" lon="2.894641226157546">
        <ele>348.4</ele>
        <time>2021-04-29T09:54:25.000Z</time>
      </trkpt>
      <trkpt lat="39.78575005196035" lon="2.894871812313795">
        <ele>347</ele>
        <time>2021-04-29T09:54:27.000Z</time>
      </trkpt>
      <trkpt lat="39.785530027002096" lon="2.8950713016092777">
        <ele>345</ele>
        <time>2021-04-29T09:54:29.000Z</time>
      </trkpt>
      <trkpt lat="39.78530631400645" lon="2.8952712938189507">
        <ele>343.4</ele>
        <time>2021-04-29T09:54:31.000Z</time>
      </trkpt>
      <trkpt lat="39.78507874533534" lon="2.8954828530550003">
        <ele>342</ele>
        <time>2021-04-29T09:54:33.000Z</time>
      </trkpt>
      <trkpt lat="39.784855619072914" lon="2.895691813901067">
        <ele>340.2</ele>
        <time>2021-04-29T09:54:35.000Z</time>
      </trkpt>
      <trkpt lat="39.784740870818496" lon="2.8957858588546515">
        <ele>339.6</ele>
        <time>2021-04-29T09:54:36.000Z</time>
      </trkpt>
      <trkpt lat="39.78461438789964" lon="2.8958623856306076">
        <ele>339</ele>
        <time>2021-04-29T09:54:37.000Z</time>
      </trkpt>
      <trkpt lat="39.78448203764856" lon="2.8959012776613235">
        <ele>338</ele>
        <time>2021-04-29T09:54:38.000Z</time>
      </trkpt>
      <trkpt lat="39.78420694358647" lon="2.8959271777421236">
        <ele>336.2</ele>
        <time>2021-04-29T09:54:40.000Z</time>
      </trkpt>
      <trkpt lat="39.78394894860685" lon="2.8959876112639904">
        <ele>334.6</ele>
        <time>2021-04-29T09:54:42.000Z</time>
      </trkpt>
      <trkpt lat="39.78371341712773" lon="2.896101688966155">
        <ele>333.2</ele>
        <time>2021-04-29T09:54:44.000Z</time>
      </trkpt>
      <trkpt lat="39.783604284748435" lon="2.896124068647623">
        <ele>332.2</ele>
        <time>2021-04-29T09:54:45.000Z</time>
      </trkpt>
      <trkpt lat="39.78349892422557" lon="2.8960956539958715">
        <ele>331.4</ele>
        <time>2021-04-29T09:54:46.000Z</time>
      </trkpt>
      <trkpt lat="39.78325802832842" lon="2.8959675785154104">
        <ele>329.6</ele>
        <time>2021-04-29T09:54:48.000Z</time>
      </trkpt>
      <trkpt lat="39.783146381378174" lon="2.8958964999765158">
        <ele>328.6</ele>
        <time>2021-04-29T09:54:49.000Z</time>
      </trkpt>
      <trkpt lat="39.783039428293705" lon="2.8958529978990555">
        <ele>327.4</ele>
        <time>2021-04-29T09:54:50.000Z</time>
      </trkpt>
      <trkpt lat="39.78293591178954" lon="2.8958338871598244">
        <ele>326.8</ele>
        <time>2021-04-29T09:54:51.000Z</time>
      </trkpt>
      <trkpt lat="39.78282652795315" lon="2.8958643972873688">
        <ele>326.2</ele>
        <time>2021-04-29T09:54:52.000Z</time>
      </trkpt>
      <trkpt lat="39.78271571919322" lon="2.895908486098051">
        <ele>325.6</ele>
        <time>2021-04-29T09:54:53.000Z</time>
      </trkpt>
      <trkpt lat="39.78259887546301" lon="2.895960956811905">
        <ele>324.8</ele>
        <time>2021-04-29T09:54:54.000Z</time>
      </trkpt>
      <trkpt lat="39.78235865011811" lon="2.8961006831377745">
        <ele>323.2</ele>
        <time>2021-04-29T09:54:56.000Z</time>
      </trkpt>
      <trkpt lat="39.78224306367338" lon="2.896178299561143">
        <ele>322.8</ele>
        <time>2021-04-29T09:54:57.000Z</time>
      </trkpt>
      <trkpt lat="39.7820417303592" lon="2.89635943248868">
        <ele>322.2</ele>
        <time>2021-04-29T09:54:59.000Z</time>
      </trkpt>
      <trkpt lat="39.78194399736822" lon="2.896463954821229">
        <ele>321.6</ele>
        <time>2021-04-29T09:55:00.000Z</time>
      </trkpt>
      <trkpt lat="39.78183553554118" lon="2.896563531830907">
        <ele>321</ele>
        <time>2021-04-29T09:55:01.000Z</time>
      </trkpt>
      <trkpt lat="39.78160654194653" lon="2.896655397489667">
        <ele>319.2</ele>
        <time>2021-04-29T09:55:03.000Z</time>
      </trkpt>
      <trkpt lat="39.7814854234457" lon="2.8966688085347414">
        <ele>317.8</ele>
        <time>2021-04-29T09:55:04.000Z</time>
      </trkpt>
      <trkpt lat="39.78136254474521" lon="2.8966902662068605">
        <ele>316.2</ele>
        <time>2021-04-29T09:55:05.000Z</time>
      </trkpt>
      <trkpt lat="39.78124503046274" lon="2.8967403061687946">
        <ele>315</ele>
        <time>2021-04-29T09:55:06.000Z</time>
      </trkpt>
      <trkpt lat="39.781135730445385" lon="2.8968181740492582">
        <ele>314</ele>
        <time>2021-04-29T09:55:07.000Z</time>
      </trkpt>
      <trkpt lat="39.78093816898763" lon="2.8970478381961584">
        <ele>312.8</ele>
        <time>2021-04-29T09:55:09.000Z</time>
      </trkpt>
      <trkpt lat="39.78084730915725" lon="2.8971682023257017">
        <ele>312.4</ele>
        <time>2021-04-29T09:55:10.000Z</time>
      </trkpt>
      <trkpt lat="39.78066408075392" lon="2.8974147979170084">
        <ele>311</ele>
        <time>2021-04-29T09:55:12.000Z</time>
      </trkpt>
      <trkpt lat="39.78047766722739" lon="2.8976427856832743">
        <ele>309.6</ele>
        <time>2021-04-29T09:55:14.000Z</time>
      </trkpt>
      <trkpt lat="39.78036627173424" lon="2.8977364115417004">
        <ele>309</ele>
        <time>2021-04-29T09:55:15.000Z</time>
      </trkpt>
      <trkpt lat="39.780248338356614" lon="2.89781017228961">
        <ele>308</ele>
        <time>2021-04-29T09:55:16.000Z</time>
      </trkpt>
      <trkpt lat="39.78012613020837" lon="2.897880245000124">
        <ele>306.6</ele>
        <time>2021-04-29T09:55:17.000Z</time>
      </trkpt>
      <trkpt lat="39.77987886406481" lon="2.8980053029954433">
        <ele>305.2</ele>
        <time>2021-04-29T09:55:19.000Z</time>
      </trkpt>
      <trkpt lat="39.77963947691023" lon="2.8981377370655537">
        <ele>303.4</ele>
        <time>2021-04-29T09:55:21.000Z</time>
      </trkpt>
      <trkpt lat="39.779386930167675" lon="2.8982747811824083">
        <ele>302.4</ele>
        <time>2021-04-29T09:55:23.000Z</time>
      </trkpt>
      <trkpt lat="39.77925474755466" lon="2.8983189538121223">
        <ele>301.8</ele>
        <time>2021-04-29T09:55:24.000Z</time>
      </trkpt>
      <trkpt lat="39.77898443117738" lon="2.898369999602437">
        <ele>300.2</ele>
        <time>2021-04-29T09:55:26.000Z</time>
      </trkpt>
      <trkpt lat="39.77884914726019" lon="2.898400677368045">
        <ele>299.2</ele>
        <time>2021-04-29T09:55:27.000Z</time>
      </trkpt>
      <trkpt lat="39.77871671319008" lon="2.898450046777725">
        <ele>297.8</ele>
        <time>2021-04-29T09:55:28.000Z</time>
      </trkpt>
      <trkpt lat="39.77859115228057" lon="2.8985154256224632">
        <ele>296.2</ele>
        <time>2021-04-29T09:55:29.000Z</time>
      </trkpt>
      <trkpt lat="39.77832896634936" lon="2.8986616898328066">
        <ele>295</ele>
        <time>2021-04-29T09:55:31.000Z</time>
      </trkpt>
      <trkpt lat="39.77819309569895" lon="2.8987174294888973">
        <ele>294.6</ele>
        <time>2021-04-29T09:55:32.000Z</time>
      </trkpt>
      <trkpt lat="39.77805647067726" lon="2.8987585846334696">
        <ele>294.4</ele>
        <time>2021-04-29T09:55:33.000Z</time>
      </trkpt>
      <trkpt lat="39.77791649289429" lon="2.898780796676874">
        <ele>293.6</ele>
        <time>2021-04-29T09:55:34.000Z</time>
      </trkpt>
      <trkpt lat="39.77763544768095" lon="2.8987986501306295">
        <ele>291.6</ele>
        <time>2021-04-29T09:55:36.000Z</time>
      </trkpt>
      <trkpt lat="39.77749236859381" lon="2.898788843303919">
        <ele>290.8</ele>
        <time>2021-04-29T09:55:37.000Z</time>
      </trkpt>
      <trkpt lat="39.77735297754407" lon="2.8987650386989117">
        <ele>290</ele>
        <time>2021-04-29T09:55:38.000Z</time>
      </trkpt>
      <trkpt lat="39.777108896523714" lon="2.8986752685159445">
        <ele>288.2</ele>
        <time>2021-04-29T09:55:40.000Z</time>
      </trkpt>
      <trkpt lat="39.777007810771465" lon="2.8986360412091017">
        <ele>287</ele>
        <time>2021-04-29T09:55:41.000Z</time>
      </trkpt>
      <trkpt lat="39.7768540866673" lon="2.8985716681927443">
        <ele>285.2</ele>
        <time>2021-04-29T09:55:43.000Z</time>
      </trkpt>
      <trkpt lat="39.77679658681154" lon="2.8985311836004257">
        <ele>284.2</ele>
        <time>2021-04-29T09:55:44.000Z</time>
      </trkpt>
      <trkpt lat="39.77682223543525" lon="2.8984437603503466">
        <ele>283</ele>
        <time>2021-04-29T09:55:45.000Z</time>
      </trkpt>
      <trkpt lat="39.776867581531405" lon="2.8984175249934196">
        <ele>282</ele>
        <time>2021-04-29T09:55:46.000Z</time>
      </trkpt>
      <trkpt lat="39.776986269280314" lon="2.898422721773386">
        <ele>281</ele>
        <time>2021-04-29T09:55:48.000Z</time>
      </trkpt>
      <trkpt lat="39.7770578507334" lon="2.8984540700912476">
        <ele>280.6</ele>
        <time>2021-04-29T09:55:49.000Z</time>
      </trkpt>
      <trkpt lat="39.777135886251926" lon="2.8984858375042677">
        <ele>280.4</ele>
        <time>2021-04-29T09:55:50.000Z</time>
      </trkpt>
      <trkpt lat="39.77723076939583" lon="2.898520454764366">
        <ele>280.4</ele>
        <time>2021-04-29T09:55:51.000Z</time>
      </trkpt>
      <trkpt lat="39.77745171636343" lon="2.8985769487917423">
        <ele>280.2</ele>
        <time>2021-04-29T09:55:53.000Z</time>
      </trkpt>
      <trkpt lat="39.77757099084556" lon="2.898578206077218">
        <ele>280</ele>
        <time>2021-04-29T09:55:54.000Z</time>
      </trkpt>
      <trkpt lat="39.77780903689563" lon="2.8985253162682056">
        <ele>279.6</ele>
        <time>2021-04-29T09:55:56.000Z</time>
      </trkpt>
      <trkpt lat="39.77792856283486" lon="2.8984938841313124">
        <ele>279</ele>
        <time>2021-04-29T09:55:57.000Z</time>
      </trkpt>
      <trkpt lat="39.77805169299245" lon="2.898457422852516">
        <ele>278.4</ele>
        <time>2021-04-29T09:55:58.000Z</time>
      </trkpt>
      <trkpt lat="39.778168285265565" lon="2.8984216321259737">
        <ele>277.6</ele>
        <time>2021-04-29T09:55:59.000Z</time>
      </trkpt>
      <trkpt lat="39.77827406488359" lon="2.898398246616125">
        <ele>276.6</ele>
        <time>2021-04-29T09:56:00.000Z</time>
      </trkpt>
      <trkpt lat="39.7783668525517" lon="2.898385254666209">
        <ele>275.4</ele>
        <time>2021-04-29T09:56:01.000Z</time>
      </trkpt>
      <trkpt lat="39.77850230410695" lon="2.8983377292752266">
        <ele>274</ele>
        <time>2021-04-29T09:56:03.000Z</time>
      </trkpt>
      <trkpt lat="39.778527449816465" lon="2.8982902877032757">
        <ele>273.2</ele>
        <time>2021-04-29T09:56:04.000Z</time>
      </trkpt>
      <trkpt lat="39.77851462550461" lon="2.8982605319470167">
        <ele>272.2</ele>
        <time>2021-04-29T09:56:05.000Z</time>
      </trkpt>
      <trkpt lat="39.77848512120545" lon="2.8982220590114594">
        <ele>271.4</ele>
        <time>2021-04-29T09:56:06.000Z</time>
      </trkpt>
      <trkpt lat="39.77843441069126" lon="2.8982093185186386">
        <ele>270.8</ele>
        <time>2021-04-29T09:56:07.000Z</time>
      </trkpt>
      <trkpt lat="39.778376407921314" lon="2.8981949016451836">
        <ele>270.4</ele>
        <time>2021-04-29T09:56:08.000Z</time>
      </trkpt>
      <trkpt lat="39.77829325944185" lon="2.8982046246528625">
        <ele>270.2</ele>
        <time>2021-04-29T09:56:09.000Z</time>
      </trkpt>
      <trkpt lat="39.778094021603465" lon="2.8982422593981028">
        <ele>269.6</ele>
        <time>2021-04-29T09:56:11.000Z</time>
      </trkpt>
      <trkpt lat="39.777985559776425" lon="2.8982715122401714">
        <ele>269.4</ele>
        <time>2021-04-29T09:56:12.000Z</time>
      </trkpt>
      <trkpt lat="39.777749022468925" lon="2.89832079783082">
        <ele>269</ele>
        <time>2021-04-29T09:56:14.000Z</time>
      </trkpt>
      <trkpt lat="39.777631256729364" lon="2.8983283415436745">
        <ele>268.6</ele>
        <time>2021-04-29T09:56:15.000Z</time>
      </trkpt>
      <trkpt lat="39.777510054409504" lon="2.898289281874895">
        <ele>268.2</ele>
        <time>2021-04-29T09:56:16.000Z</time>
      </trkpt>
      <trkpt lat="39.77739748544991" lon="2.898238655179739">
        <ele>266.8</ele>
        <time>2021-04-29T09:56:17.000Z</time>
      </trkpt>
      <trkpt lat="39.777177795767784" lon="2.8981177881360054">
        <ele>265.4</ele>
        <time>2021-04-29T09:56:19.000Z</time>
      </trkpt>
      <trkpt lat="39.77706338278949" lon="2.8980641439557076">
        <ele>264.8</ele>
        <time>2021-04-29T09:56:20.000Z</time>
      </trkpt>
      <trkpt lat="39.77682491764426" lon="2.8979896288365126">
        <ele>263.8</ele>
        <time>2021-04-29T09:56:22.000Z</time>
      </trkpt>
      <trkpt lat="39.77646810002625" lon="2.8979071509093046">
        <ele>262.8</ele>
        <time>2021-04-29T09:56:25.000Z</time>
      </trkpt>
      <trkpt lat="39.77622820995748" lon="2.8979529161006212">
        <ele>260.6</ele>
        <time>2021-04-29T09:56:27.000Z</time>
      </trkpt>
      <trkpt lat="39.77611178532243" lon="2.8980022855103016">
        <ele>260</ele>
        <time>2021-04-29T09:56:28.000Z</time>
      </trkpt>
      <trkpt lat="39.77599812671542" lon="2.8980617970228195">
        <ele>259.6</ele>
        <time>2021-04-29T09:56:29.000Z</time>
      </trkpt>
      <trkpt lat="39.775767708197236" lon="2.898207390680909">
        <ele>258.6</ele>
        <time>2021-04-29T09:56:31.000Z</time>
      </trkpt>
      <trkpt lat="39.77564667351544" lon="2.898261286318302">
        <ele>258.2</ele>
        <time>2021-04-29T09:56:32.000Z</time>
      </trkpt>
      <trkpt lat="39.775408543646336" lon="2.898342339321971">
        <ele>256.6</ele>
        <time>2021-04-29T09:56:34.000Z</time>
      </trkpt>
      <trkpt lat="39.77520737797022" lon="2.8984457720071077">
        <ele>255</ele>
        <time>2021-04-29T09:56:36.000Z</time>
      </trkpt>
      <trkpt lat="39.7750461101532" lon="2.8984779585152864">
        <ele>253.8</ele>
        <time>2021-04-29T09:56:39.000Z</time>
      </trkpt>
      <trkpt lat="39.775001015514135" lon="2.8984444309026003">
        <ele>253</ele>
        <time>2021-04-29T09:56:40.000Z</time>
      </trkpt>
      <trkpt lat="39.77499254979193" lon="2.8983964025974274">
        <ele>252.4</ele>
        <time>2021-04-29T09:56:41.000Z</time>
      </trkpt>
      <trkpt lat="39.775019036605954" lon="2.898375615477562">
        <ele>251.4</ele>
        <time>2021-04-29T09:56:42.000Z</time>
      </trkpt>
      <trkpt lat="39.77507486008108" lon="2.8983610309660435">
        <ele>250</ele>
        <time>2021-04-29T09:56:43.000Z</time>
      </trkpt>
      <trkpt lat="39.77514836937189" lon="2.8983435966074467">
        <ele>249.4</ele>
        <time>2021-04-29T09:56:44.000Z</time>
      </trkpt>
      <trkpt lat="39.77523562498391" lon="2.8983230609446764">
        <ele>249</ele>
        <time>2021-04-29T09:56:45.000Z</time>
      </trkpt>
      <trkpt lat="39.77543134242296" lon="2.8982679080218077">
        <ele>248.2</ele>
        <time>2021-04-29T09:56:47.000Z</time>
      </trkpt>
      <trkpt lat="39.775635274127126" lon="2.8981984220445156">
        <ele>248</ele>
        <time>2021-04-29T09:56:49.000Z</time>
      </trkpt>
      <trkpt lat="39.77573409676552" lon="2.898158608004451">
        <ele>247.8</ele>
        <time>2021-04-29T09:56:50.000Z</time>
      </trkpt>
      <trkpt lat="39.77584230713546" lon="2.898087613284588">
        <ele>247.2</ele>
        <time>2021-04-29T09:56:51.000Z</time>
      </trkpt>
      <trkpt lat="39.77592369541526" lon="2.898032208904624">
        <ele>246.4</ele>
        <time>2021-04-29T09:56:52.000Z</time>
      </trkpt>
      <trkpt lat="39.776011034846306" lon="2.897950569167733">
        <ele>244.6</ele>
        <time>2021-04-29T09:56:54.000Z</time>
      </trkpt>
      <trkpt lat="39.776007095351815" lon="2.8978918958455324">
        <ele>243.4</ele>
        <time>2021-04-29T09:56:55.000Z</time>
      </trkpt>
      <trkpt lat="39.775988068431616" lon="2.8978293668478727">
        <ele>242.4</ele>
        <time>2021-04-29T09:56:56.000Z</time>
      </trkpt>
      <trkpt lat="39.77589150890708" lon="2.897853422909975">
        <ele>241</ele>
        <time>2021-04-29T09:56:58.000Z</time>
      </trkpt>
      <trkpt lat="39.77566335350275" lon="2.898044865578413">
        <ele>240.4</ele>
        <time>2021-04-29T09:57:01.000Z</time>
      </trkpt>
      <trkpt lat="39.77546202018857" lon="2.898146454244852">
        <ele>240</ele>
        <time>2021-04-29T09:57:03.000Z</time>
      </trkpt>
      <trkpt lat="39.7753497865051" lon="2.898175287991762">
        <ele>239.8</ele>
        <time>2021-04-29T09:57:04.000Z</time>
      </trkpt>
      <trkpt lat="39.77497980929911" lon="2.8981440234929323">
        <ele>238.8</ele>
        <time>2021-04-29T09:57:07.000Z</time>
      </trkpt>
      <trkpt lat="39.774859780445695" lon="2.898112591356039">
        <ele>238</ele>
        <time>2021-04-29T09:57:08.000Z</time>
      </trkpt>
      <trkpt lat="39.774735141545534" lon="2.8980753757059574">
        <ele>237.2</ele>
        <time>2021-04-29T09:57:09.000Z</time>
      </trkpt>
      <trkpt lat="39.77448184043169" lon="2.8980082366615534">
        <ele>235.6</ele>
        <time>2021-04-29T09:57:11.000Z</time>
      </trkpt>
      <trkpt lat="39.774358961731195" lon="2.8979834262281656">
        <ele>234.8</ele>
        <time>2021-04-29T09:57:12.000Z</time>
      </trkpt>
      <trkpt lat="39.77423717267811" lon="2.8979766368865967">
        <ele>234</ele>
        <time>2021-04-29T09:57:13.000Z</time>
      </trkpt>
      <trkpt lat="39.773990493267775" lon="2.8979884553700686">
        <ele>232.4</ele>
        <time>2021-04-29T09:57:15.000Z</time>
      </trkpt>
      <trkpt lat="39.77386912330985" lon="2.8980116732418537">
        <ele>230.8</ele>
        <time>2021-04-29T09:57:16.000Z</time>
      </trkpt>
      <trkpt lat="39.77362277917564" lon="2.8980957437306643">
        <ele>228.8</ele>
        <time>2021-04-29T09:57:18.000Z</time>
      </trkpt>
      <trkpt lat="39.773504342883825" lon="2.8981575183570385">
        <ele>227.4</ele>
        <time>2021-04-29T09:57:19.000Z</time>
      </trkpt>
      <trkpt lat="39.77339370176196" lon="2.8982260823249817">
        <ele>225.6</ele>
        <time>2021-04-29T09:57:20.000Z</time>
      </trkpt>
      <trkpt lat="39.77328599430621" lon="2.898302609100938">
        <ele>224.2</ele>
        <time>2021-04-29T09:57:21.000Z</time>
      </trkpt>
      <trkpt lat="39.77307787165046" lon="2.898453315719962">
        <ele>222.8</ele>
        <time>2021-04-29T09:57:23.000Z</time>
      </trkpt>
      <trkpt lat="39.77297393605113" lon="2.8985289204865694">
        <ele>222.6</ele>
        <time>2021-04-29T09:57:24.000Z</time>
      </trkpt>
      <trkpt lat="39.772776709869504" lon="2.8986978996545076">
        <ele>221</ele>
        <time>2021-04-29T09:57:26.000Z</time>
      </trkpt>
      <trkpt lat="39.77268970571458" lon="2.898784903809428">
        <ele>219.6</ele>
        <time>2021-04-29T09:57:27.000Z</time>
      </trkpt>
      <trkpt lat="39.772608652710915" lon="2.8988719917833805">
        <ele>218.8</ele>
        <time>2021-04-29T09:57:28.000Z</time>
      </trkpt>
      <trkpt lat="39.77253254503012" lon="2.898965198546648">
        <ele>218.2</ele>
        <time>2021-04-29T09:57:29.000Z</time>
      </trkpt>
      <trkpt lat="39.77246096357703" lon="2.899064691737294">
        <ele>217.6</ele>
        <time>2021-04-29T09:57:30.000Z</time>
      </trkpt>
      <trkpt lat="39.77240363135934" lon="2.899179859086871">
        <ele>216.8</ele>
        <time>2021-04-29T09:57:31.000Z</time>
      </trkpt>
      <trkpt lat="39.772357949987054" lon="2.8993051685392857">
        <ele>216.2</ele>
        <time>2021-04-29T09:57:32.000Z</time>
      </trkpt>
      <trkpt lat="39.772316040471196" lon="2.8994389437139034">
        <ele>215.4</ele>
        <time>2021-04-29T09:57:33.000Z</time>
      </trkpt>
      <trkpt lat="39.7722711134702" lon="2.8995731379836798">
        <ele>214.2</ele>
        <time>2021-04-29T09:57:34.000Z</time>
      </trkpt>
      <trkpt lat="39.772181175649166" lon="2.899843119084835">
        <ele>212.6</ele>
        <time>2021-04-29T09:57:36.000Z</time>
      </trkpt>
      <trkpt lat="39.7720932494849" lon="2.9001142736524343">
        <ele>211</ele>
        <time>2021-04-29T09:57:38.000Z</time>
      </trkpt>
      <trkpt lat="39.77205050177872" lon="2.90025039575994">
        <ele>210</ele>
        <time>2021-04-29T09:57:39.000Z</time>
      </trkpt>
      <trkpt lat="39.77195612154901" lon="2.900521634146571">
        <ele>208.4</ele>
        <time>2021-04-29T09:57:41.000Z</time>
      </trkpt>
      <trkpt lat="39.77190239354968" lon="2.9006507992744446">
        <ele>207.8</ele>
        <time>2021-04-29T09:57:42.000Z</time>
      </trkpt>
      <trkpt lat="39.771839529275894" lon="2.9007771983742714">
        <ele>207.6</ele>
        <time>2021-04-29T09:57:43.000Z</time>
      </trkpt>
      <trkpt lat="39.77177046239376" lon="2.9009044356644154">
        <ele>206.4</ele>
        <time>2021-04-29T09:57:44.000Z</time>
      </trkpt>
      <trkpt lat="39.77154758758843" lon="2.901291847229004">
        <ele>205.2</ele>
        <time>2021-04-29T09:57:47.000Z</time>
      </trkpt>
      <trkpt lat="39.77146754041314" lon="2.901406092569232">
        <ele>204.6</ele>
        <time>2021-04-29T09:57:48.000Z</time>
      </trkpt>
      <trkpt lat="39.771379949525" lon="2.901503574103117">
        <ele>204</ele>
        <time>2021-04-29T09:57:49.000Z</time>
      </trkpt>
      <trkpt lat="39.77117132395506" lon="2.901661405339837">
        <ele>203</ele>
        <time>2021-04-29T09:57:51.000Z</time>
      </trkpt>
      <trkpt lat="39.77106470614672" lon="2.901729717850685">
        <ele>202</ele>
        <time>2021-04-29T09:57:52.000Z</time>
      </trkpt>
      <trkpt lat="39.77096219547093" lon="2.9017937555909157">
        <ele>200.8</ele>
        <time>2021-04-29T09:57:53.000Z</time>
      </trkpt>
      <trkpt lat="39.77085784077644" lon="2.901848992332816">
        <ele>199.6</ele>
        <time>2021-04-29T09:57:54.000Z</time>
      </trkpt>
      <trkpt lat="39.77075566537678" lon="2.901903474703431">
        <ele>198.2</ele>
        <time>2021-04-29T09:57:55.000Z</time>
      </trkpt>
      <trkpt lat="39.77055315859616" lon="2.9020104277879">
        <ele>196.6</ele>
        <time>2021-04-29T09:57:57.000Z</time>
      </trkpt>
      <trkpt lat="39.77037940174341" lon="2.902115872129798">
        <ele>195.6</ele>
        <time>2021-04-29T09:57:59.000Z</time>
      </trkpt>
      <trkpt lat="39.77030312642455" lon="2.902145627886057">
        <ele>195.2</ele>
        <time>2021-04-29T09:58:00.000Z</time>
      </trkpt>
      <trkpt lat="39.77005627937615" lon="2.90210522711277">
        <ele>194.4</ele>
        <time>2021-04-29T09:58:03.000Z</time>
      </trkpt>
      <trkpt lat="39.76996491663158" lon="2.9020717833191156">
        <ele>194.2</ele>
        <time>2021-04-29T09:58:04.000Z</time>
      </trkpt>
      <trkpt lat="39.76977330632508" lon="2.902037836611271">
        <ele>193.8</ele>
        <time>2021-04-29T09:58:06.000Z</time>
      </trkpt>
      <trkpt lat="39.76967406459153" lon="2.9020415246486664">
        <ele>193.4</ele>
        <time>2021-04-29T09:58:07.000Z</time>
      </trkpt>
      <trkpt lat="39.769568368792534" lon="2.902055438607931">
        <ele>193.2</ele>
        <time>2021-04-29T09:58:08.000Z</time>
      </trkpt>
      <trkpt lat="39.76933996193111" lon="2.9021115973591805">
        <ele>192.6</ele>
        <time>2021-04-29T09:58:10.000Z</time>
      </trkpt>
      <trkpt lat="39.76911708712578" lon="2.9021636489778757">
        <ele>191.4</ele>
        <time>2021-04-29T09:58:12.000Z</time>
      </trkpt>
      <trkpt lat="39.7689173463732" lon="2.9022010322660208">
        <ele>190</ele>
        <time>2021-04-29T09:58:14.000Z</time>
      </trkpt>
      <trkpt lat="39.76883511990309" lon="2.9022090788930655">
        <ele>189.4</ele>
        <time>2021-04-29T09:58:15.000Z</time>
      </trkpt>
      <trkpt lat="39.768766639754176" lon="2.902202708646655">
        <ele>188.8</ele>
        <time>2021-04-29T09:58:16.000Z</time>
      </trkpt>
      <trkpt lat="39.76866278797388" lon="2.9021895490586758">
        <ele>187.8</ele>
        <time>2021-04-29T09:58:18.000Z</time>
      </trkpt>
      <trkpt lat="39.76860646158457" lon="2.902172449976206">
        <ele>187.6</ele>
        <time>2021-04-29T09:58:20.000Z</time>
      </trkpt>
      <trkpt lat="39.76858173497021" lon="2.9021610505878925">
        <ele>187.4</ele>
        <time>2021-04-29T09:58:22.000Z</time>
      </trkpt>
      <trkpt lat="39.768577460199594" lon="2.9021677561104298">
        <ele>187.6</ele>
        <time>2021-04-29T09:58:28.000Z</time>
      </trkpt>
      <trkpt lat="39.76852431893349" lon="2.9021757189184427">
        <ele>187.6</ele>
        <time>2021-04-29T09:58:31.000Z</time>
      </trkpt>
      <trkpt lat="39.76849749684334" lon="2.9021808318793774">
        <ele>187.6</ele>
        <time>2021-04-29T09:58:32.000Z</time>
      </trkpt>
      <trkpt lat="39.76842767558992" lon="2.9021860286593437">
        <ele>187.6</ele>
        <time>2021-04-29T09:58:34.000Z</time>
      </trkpt>
      <trkpt lat="39.768285350874066" lon="2.9021819215267897">
        <ele>187.6</ele>
        <time>2021-04-29T09:58:37.000Z</time>
      </trkpt>
      <trkpt lat="39.768044454976916" lon="2.90217412635684">
        <ele>187</ele>
        <time>2021-04-29T09:58:41.000Z</time>
      </trkpt>
      <trkpt lat="39.767974466085434" lon="2.9021692648530006">
        <ele>186.8</ele>
        <time>2021-04-29T09:58:42.000Z</time>
      </trkpt>
      <trkpt lat="39.76774329319596" lon="2.902160044759512">
        <ele>186</ele>
        <time>2021-04-29T09:58:45.000Z</time>
      </trkpt>
      <trkpt lat="39.76757758297026" lon="2.902156775817275">
        <ele>185.6</ele>
        <time>2021-04-29T09:58:47.000Z</time>
      </trkpt>
      <trkpt lat="39.76740558631718" lon="2.902148561552167">
        <ele>185</ele>
        <time>2021-04-29T09:58:49.000Z</time>
      </trkpt>
      <trkpt lat="39.76695070043206" lon="2.902135234326124">
        <ele>184.4</ele>
        <time>2021-04-29T09:58:54.000Z</time>
      </trkpt>
      <trkpt lat="39.76675816811621" lon="2.9021321330219507">
        <ele>183.6</ele>
        <time>2021-04-29T09:58:56.000Z</time>
      </trkpt>
      <trkpt lat="39.766374779865146" lon="2.9021242540329695">
        <ele>182.6</ele>
        <time>2021-04-29T09:59:00.000Z</time>
      </trkpt>
      <trkpt lat="39.76599432528019" lon="2.9021163750439882">
        <ele>181.2</ele>
        <time>2021-04-29T09:59:04.000Z</time>
      </trkpt>
      <trkpt lat="39.76571286097169" lon="2.9021089151501656">
        <ele>180.8</ele>
        <time>2021-04-29T09:59:07.000Z</time>
      </trkpt>
      <trkpt lat="39.76553097367287" lon="2.902104388922453">
        <ele>180.4</ele>
        <time>2021-04-29T09:59:09.000Z</time>
      </trkpt>
      <trkpt lat="39.76544137112796" lon="2.902101371437311">
        <ele>180.4</ele>
        <time>2021-04-29T09:59:10.000Z</time>
      </trkpt>
      <trkpt lat="39.765176586806774" lon="2.9020956717431545">
        <ele>180.2</ele>
        <time>2021-04-29T09:59:13.000Z</time>
      </trkpt>
      <trkpt lat="39.76508941501379" lon="2.902093157172203">
        <ele>180</ele>
        <time>2021-04-29T09:59:14.000Z</time>
      </trkpt>
      <trkpt lat="39.76491498760879" lon="2.9020877089351416">
        <ele>179.8</ele>
        <time>2021-04-29T09:59:16.000Z</time>
      </trkpt>
      <trkpt lat="39.76474206894636" lon="2.902082931250334">
        <ele>179.8</ele>
        <time>2021-04-29T09:59:18.000Z</time>
      </trkpt>
      <trkpt lat="39.76465590298176" lon="2.902081422507763">
        <ele>179.6</ele>
        <time>2021-04-29T09:59:19.000Z</time>
      </trkpt>
      <trkpt lat="39.76429866626859" lon="2.9020721185952425">
        <ele>178.6</ele>
        <time>2021-04-29T09:59:23.000Z</time>
      </trkpt>
      <trkpt lat="39.76420738734305" lon="2.9020706936717033">
        <ele>178.2</ele>
        <time>2021-04-29T09:59:24.000Z</time>
      </trkpt>
      <trkpt lat="39.763849480077624" lon="2.9020594619214535">
        <ele>177.4</ele>
        <time>2021-04-29T09:59:28.000Z</time>
      </trkpt>
      <trkpt lat="39.763424852862954" lon="2.902048649266362">
        <ele>176.4</ele>
        <time>2021-04-29T09:59:33.000Z</time>
      </trkpt>
      <trkpt lat="39.763178592547774" lon="2.902045715600252">
        <ele>176.2</ele>
        <time>2021-04-29T09:59:36.000Z</time>
      </trkpt>
      <trkpt lat="39.762708535417914" lon="2.9020318016409874">
        <ele>175.8</ele>
        <time>2021-04-29T09:59:42.000Z</time>
      </trkpt>
      <trkpt lat="39.76247417740524" lon="2.9020226653665304">
        <ele>176</ele>
        <time>2021-04-29T09:59:45.000Z</time>
      </trkpt>
      <trkpt lat="39.7619410045445" lon="2.9020131938159466">
        <ele>176.2</ele>
        <time>2021-04-29T09:59:52.000Z</time>
      </trkpt>
      <trkpt lat="39.76186933927238" lon="2.9020134452730417">
        <ele>176.2</ele>
        <time>2021-04-29T09:59:53.000Z</time>
      </trkpt>
      <trkpt lat="39.76166356354952" lon="2.9020090866833925">
        <ele>176.6</ele>
        <time>2021-04-29T09:59:56.000Z</time>
      </trkpt>
      <trkpt lat="39.76141730323434" lon="2.9020102601498365">
        <ele>177.2</ele>
        <time>2021-04-29T10:00:00.000Z</time>
      </trkpt>
      <trkpt lat="39.76129526272416" lon="2.902030209079385">
        <ele>177.4</ele>
        <time>2021-04-29T10:00:02.000Z</time>
      </trkpt>
      <trkpt lat="39.761183029040694" lon="2.9020832665264606">
        <ele>177.6</ele>
        <time>2021-04-29T10:00:04.000Z</time>
      </trkpt>
      <trkpt lat="39.76109149865806" lon="2.9021571949124336">
        <ele>178</ele>
        <time>2021-04-29T10:00:06.000Z</time>
      </trkpt>
      <trkpt lat="39.761015893891454" lon="2.9022423550486565">
        <ele>178.8</ele>
        <time>2021-04-29T10:00:08.000Z</time>
      </trkpt>
      <trkpt lat="39.760983707383275" lon="2.902286946773529">
        <ele>179.4</ele>
        <time>2021-04-29T10:00:09.000Z</time>
      </trkpt>
      <trkpt lat="39.760906007140875" lon="2.902427176013589">
        <ele>180.4</ele>
        <time>2021-04-29T10:00:12.000Z</time>
      </trkpt>
      <trkpt lat="39.76088656112552" lon="2.9024767968803644">
        <ele>180.8</ele>
        <time>2021-04-29T10:00:13.000Z</time>
      </trkpt>
      <trkpt lat="39.76085940375924" lon="2.902580313384533">
        <ele>181.4</ele>
        <time>2021-04-29T10:00:15.000Z</time>
      </trkpt>
      <trkpt lat="39.76084037683904" lon="2.9026826564222574">
        <ele>181.8</ele>
        <time>2021-04-29T10:00:17.000Z</time>
      </trkpt>
      <trkpt lat="39.76080131717026" lon="2.9029877576977015">
        <ele>183</ele>
        <time>2021-04-29T10:00:23.000Z</time>
      </trkpt>
      <trkpt lat="39.76079293526709" lon="2.903035283088684">
        <ele>183.2</ele>
        <time>2021-04-29T10:00:24.000Z</time>
      </trkpt>
      <trkpt lat="39.76075395941734" lon="2.903211135417223">
        <ele>183.6</ele>
        <time>2021-04-29T10:00:28.000Z</time>
      </trkpt>
      <trkpt lat="39.760715486481786" lon="2.9033285658806562">
        <ele>184.2</ele>
        <time>2021-04-29T10:00:31.000Z</time>
      </trkpt>
      <trkpt lat="39.76068112067878" lon="2.9034018237143755">
        <ele>184.4</ele>
        <time>2021-04-29T10:00:33.000Z</time>
      </trkpt>
      <trkpt lat="39.76064968854189" lon="2.9034659452736378">
        <ele>185.4</ele>
        <time>2021-04-29T10:00:35.000Z</time>
      </trkpt>
      <trkpt lat="39.760631415992975" lon="2.903493605554104">
        <ele>185.8</ele>
        <time>2021-04-29T10:00:36.000Z</time>
      </trkpt>
      <trkpt lat="39.76052069105208" lon="2.9035971220582724">
        <ele>186.6</ele>
        <time>2021-04-29T10:00:41.000Z</time>
      </trkpt>
      <trkpt lat="39.7604039311409" lon="2.903630482032895">
        <ele>187.2</ele>
        <time>2021-04-29T10:00:45.000Z</time>
      </trkpt>
      <trkpt lat="39.76035162806511" lon="2.903626123443246">
        <ele>188</ele>
        <time>2021-04-29T10:00:47.000Z</time>
      </trkpt>
      <trkpt lat="39.76027920842171" lon="2.9035846330225468">
        <ele>189.2</ele>
        <time>2021-04-29T10:00:50.000Z</time>
      </trkpt>
      <trkpt lat="39.760247273370624" lon="2.903537191450596">
        <ele>189.8</ele>
        <time>2021-04-29T10:00:52.000Z</time>
      </trkpt>
      <trkpt lat="39.760228833183646" lon="2.9034136421978474">
        <ele>190.4</ele>
        <time>2021-04-29T10:00:56.000Z</time>
      </trkpt>
      <trkpt lat="39.7602310962975" lon="2.9033806174993515">
        <ele>190.6</ele>
        <time>2021-04-29T10:00:57.000Z</time>
      </trkpt>
      <trkpt lat="39.76024450734258" lon="2.9033167473971844">
        <ele>191.6</ele>
        <time>2021-04-29T10:00:59.000Z</time>
      </trkpt>
      <trkpt lat="39.76026504300535" lon="2.9032268933951855">
        <ele>192.6</ele>
        <time>2021-04-29T10:01:02.000Z</time>
      </trkpt>
      <trkpt lat="39.76026990450919" lon="2.9031978081911802">
        <ele>193.4</ele>
        <time>2021-04-29T10:01:03.000Z</time>
      </trkpt>
      <trkpt lat="39.76028189063072" lon="2.903136285021901">
        <ele>194</ele>
        <time>2021-04-29T10:01:05.000Z</time>
      </trkpt>
      <trkpt lat="39.76028767414391" lon="2.903029415756464">
        <ele>194.8</ele>
        <time>2021-04-29T10:01:08.000Z</time>
      </trkpt>
      <trkpt lat="39.76028767414391" lon="2.9029965586960316">
        <ele>195.2</ele>
        <time>2021-04-29T10:01:09.000Z</time>
      </trkpt>
      <trkpt lat="39.76028415374458" lon="2.9028660524636507">
        <ele>196.4</ele>
        <time>2021-04-29T10:01:13.000Z</time>
      </trkpt>
      <trkpt lat="39.760286500677466" lon="2.9027694929391146">
        <ele>197.2</ele>
        <time>2021-04-29T10:01:16.000Z</time>
      </trkpt>
      <trkpt lat="39.760281555354595" lon="2.902696905657649">
        <ele>197.6</ele>
        <time>2021-04-29T10:01:18.000Z</time>
      </trkpt>
      <trkpt lat="39.7602813038975" lon="2.9024737793952227">
        <ele>198.2</ele>
        <time>2021-04-29T10:01:24.000Z</time>
      </trkpt>
      <trkpt lat="39.76031206548214" lon="2.902250150218606">
        <ele>198.8</ele>
        <time>2021-04-29T10:01:30.000Z</time>
      </trkpt>
      <trkpt lat="39.760316256433725" lon="2.9022170417010784">
        <ele>199.2</ele>
        <time>2021-04-29T10:01:31.000Z</time>
      </trkpt>
      <trkpt lat="39.76032530888915" lon="2.9020702745765448">
        <ele>199.8</ele>
        <time>2021-04-29T10:01:35.000Z</time>
      </trkpt>
      <trkpt lat="39.76033402606845" lon="2.9019296262413263">
        <ele>200.6</ele>
        <time>2021-04-29T10:01:39.000Z</time>
      </trkpt>
      <trkpt lat="39.76033318787813" lon="2.901853183284402">
        <ele>201</ele>
        <time>2021-04-29T10:01:41.000Z</time>
      </trkpt>
      <trkpt lat="39.76030460558832" lon="2.9016236029565334">
        <ele>202.2</ele>
        <time>2021-04-29T10:01:47.000Z</time>
      </trkpt>
      <trkpt lat="39.76027820259333" lon="2.9015676118433475">
        <ele>202.4</ele>
        <time>2021-04-29T10:01:49.000Z</time>
      </trkpt>
      <trkpt lat="39.76022740826011" lon="2.9014150612056255">
        <ele>203.2</ele>
        <time>2021-04-29T10:01:53.000Z</time>
      </trkpt>
      <trkpt lat="39.76012213155627" lon="2.901198137551546">
        <ele>204.4</ele>
        <time>2021-04-29T10:01:59.000Z</time>
      </trkpt>
      <trkpt lat="39.75999363698065" lon="2.901070984080434">
        <ele>205.8</ele>
        <time>2021-04-29T10:02:04.000Z</time>
      </trkpt>
      <trkpt lat="39.759963965043426" lon="2.901060087606311">
        <ele>206</ele>
        <time>2021-04-29T10:02:05.000Z</time>
      </trkpt>
      <trkpt lat="39.75981560535729" lon="2.9010724928230047">
        <ele>206.6</ele>
        <time>2021-04-29T10:02:10.000Z</time>
      </trkpt>
      <trkpt lat="39.75970228202641" lon="2.901102416217327">
        <ele>207</ele>
        <time>2021-04-29T10:02:14.000Z</time>
      </trkpt>
      <trkpt lat="39.7596079017967" lon="2.9011216945946217">
        <ele>207.4</ele>
        <time>2021-04-29T10:02:17.000Z</time>
      </trkpt>
      <trkpt lat="39.75953673943877" lon="2.901148432865739">
        <ele>207.6</ele>
        <time>2021-04-29T10:02:19.000Z</time>
      </trkpt>
      <trkpt lat="39.75942048244178" lon="2.9011989757418633">
        <ele>207.6</ele>
        <time>2021-04-29T10:02:22.000Z</time>
      </trkpt>
      <trkpt lat="39.75932409055531" lon="2.9012342635542154">
        <ele>207.6</ele>
        <time>2021-04-29T10:02:24.000Z</time>
      </trkpt>
      <trkpt lat="39.759273044764996" lon="2.9012510273605585">
        <ele>207.6</ele>
        <time>2021-04-29T10:02:25.000Z</time>
      </trkpt>
      <trkpt lat="39.7590500023216" lon="2.9013376124203205">
        <ele>207.2</ele>
        <time>2021-04-29T10:02:29.000Z</time>
      </trkpt>
      <trkpt lat="39.75892276503146" lon="2.90139427408576">
        <ele>207</ele>
        <time>2021-04-29T10:02:31.000Z</time>
      </trkpt>
      <trkpt lat="39.75878655910492" lon="2.9014634247869253">
        <ele>206.4</ele>
        <time>2021-04-29T10:02:33.000Z</time>
      </trkpt>
      <trkpt lat="39.758716905489564" lon="2.9015098605304956">
        <ele>206</ele>
        <time>2021-04-29T10:02:34.000Z</time>
      </trkpt>
      <trkpt lat="39.758581537753344" lon="2.9016156401485205">
        <ele>205</ele>
        <time>2021-04-29T10:02:36.000Z</time>
      </trkpt>
      <trkpt lat="39.758511297404766" lon="2.9016771633177996">
        <ele>204.8</ele>
        <time>2021-04-29T10:02:37.000Z</time>
      </trkpt>
      <trkpt lat="39.758198484778404" lon="2.901943288743496">
        <ele>203.4</ele>
        <time>2021-04-29T10:02:41.000Z</time>
      </trkpt>
      <trkpt lat="39.758114917203784" lon="2.902011852711439">
        <ele>202.8</ele>
        <time>2021-04-29T10:02:42.000Z</time>
      </trkpt>
      <trkpt lat="39.757945435121655" lon="2.9021550994366407">
        <ele>202</ele>
        <time>2021-04-29T10:02:44.000Z</time>
      </trkpt>
      <trkpt lat="39.757772935554385" lon="2.9023063089698553">
        <ele>200.4</ele>
        <time>2021-04-29T10:02:46.000Z</time>
      </trkpt>
      <trkpt lat="39.75751427002251" lon="2.9025344643741846">
        <ele>199.2</ele>
        <time>2021-04-29T10:02:49.000Z</time>
      </trkpt>
      <trkpt lat="39.75742961280048" lon="2.9026142600923777">
        <ele>199</ele>
        <time>2021-04-29T10:02:50.000Z</time>
      </trkpt>
      <trkpt lat="39.757263315841556" lon="2.902788268402219">
        <ele>197.6</ele>
        <time>2021-04-29T10:02:52.000Z</time>
      </trkpt>
      <trkpt lat="39.75710028782487" lon="2.902969066053629">
        <ele>196</ele>
        <time>2021-04-29T10:02:54.000Z</time>
      </trkpt>
      <trkpt lat="39.757020492106676" lon="2.9030586685985327">
        <ele>194.8</ele>
        <time>2021-04-29T10:02:55.000Z</time>
      </trkpt>
      <trkpt lat="39.75678403861821" lon="2.903326638042927">
        <ele>193.4</ele>
        <time>2021-04-29T10:02:58.000Z</time>
      </trkpt>
      <trkpt lat="39.75670600309968" lon="2.9034077748656273">
        <ele>193.4</ele>
        <time>2021-04-29T10:02:59.000Z</time>
      </trkpt>
      <trkpt lat="39.75653752684593" lon="2.9035564698278904">
        <ele>192.8</ele>
        <time>2021-04-29T10:03:01.000Z</time>
      </trkpt>
      <trkpt lat="39.75645035505295" lon="2.903629560023546">
        <ele>192.2</ele>
        <time>2021-04-29T10:03:02.000Z</time>
      </trkpt>
      <trkpt lat="39.75629755295813" lon="2.903802478685975">
        <ele>190.6</ele>
        <time>2021-04-29T10:03:04.000Z</time>
      </trkpt>
      <trkpt lat="39.75618280470371" lon="2.903991574421525">
        <ele>189.8</ele>
        <time>2021-04-29T10:03:06.000Z</time>
      </trkpt>
      <trkpt lat="39.75610418245196" lon="2.9041820112615824">
        <ele>189.4</ele>
        <time>2021-04-29T10:03:08.000Z</time>
      </trkpt>
      <trkpt lat="39.756065625697374" lon="2.904266333207488">
        <ele>188.8</ele>
        <time>2021-04-29T10:03:09.000Z</time>
      </trkpt>
      <trkpt lat="39.756017765030265" lon="2.904341770336032">
        <ele>187.8</ele>
        <time>2021-04-29T10:03:10.000Z</time>
      </trkpt>
      <trkpt lat="39.75587577559054" lon="2.904407065361738">
        <ele>186.4</ele>
        <time>2021-04-29T10:03:12.000Z</time>
      </trkpt>
      <trkpt lat="39.75572037510574" lon="2.904344452545047">
        <ele>185.8</ele>
        <time>2021-04-29T10:03:14.000Z</time>
      </trkpt>
      <trkpt lat="39.755649380385876" lon="2.904290221631527">
        <ele>185.2</ele>
        <time>2021-04-29T10:03:15.000Z</time>
      </trkpt>
      <trkpt lat="39.75557520054281" lon="2.9042370803654194">
        <ele>185</ele>
        <time>2021-04-29T10:03:16.000Z</time>
      </trkpt>
      <trkpt lat="39.75550797767937" lon="2.904170276597142">
        <ele>184.4</ele>
        <time>2021-04-29T10:03:17.000Z</time>
      </trkpt>
      <trkpt lat="39.75534746423364" lon="2.9040783271193504">
        <ele>183.4</ele>
        <time>2021-04-29T10:03:19.000Z</time>
      </trkpt>
      <trkpt lat="39.75519474595785" lon="2.9039740562438965">
        <ele>182.2</ele>
        <time>2021-04-29T10:03:21.000Z</time>
      </trkpt>
      <trkpt lat="39.75511302240193" lon="2.903926447033882">
        <ele>181.8</ele>
        <time>2021-04-29T10:03:22.000Z</time>
      </trkpt>
      <trkpt lat="39.75503113120794" lon="2.9038774129003286">
        <ele>181.2</ele>
        <time>2021-04-29T10:03:23.000Z</time>
      </trkpt>
      <trkpt lat="39.754867600277066" lon="2.9037784226238728">
        <ele>180.6</ele>
        <time>2021-04-29T10:03:25.000Z</time>
      </trkpt>
      <trkpt lat="39.75470448844135" lon="2.903679348528385">
        <ele>180.2</ele>
        <time>2021-04-29T10:03:27.000Z</time>
      </trkpt>
      <trkpt lat="39.75462779402733" lon="2.9036271292716265">
        <ele>179.6</ele>
        <time>2021-04-29T10:03:28.000Z</time>
      </trkpt>
      <trkpt lat="39.75455311127007" lon="2.903573652729392">
        <ele>179.2</ele>
        <time>2021-04-29T10:03:29.000Z</time>
      </trkpt>
      <trkpt lat="39.754246501252055" lon="2.903372487053275">
        <ele>178.6</ele>
        <time>2021-04-29T10:03:33.000Z</time>
      </trkpt>
      <trkpt lat="39.753998313099146" lon="2.9032236244529486">
        <ele>177.8</ele>
        <time>2021-04-29T10:03:36.000Z</time>
      </trkpt>
      <trkpt lat="39.753915164619684" lon="2.9031717404723167">
        <ele>177.4</ele>
        <time>2021-04-29T10:03:37.000Z</time>
      </trkpt>
      <trkpt lat="39.753409484401345" lon="2.90286454372108">
        <ele>176.6</ele>
        <time>2021-04-29T10:03:43.000Z</time>
      </trkpt>
      <trkpt lat="39.75307202897966" lon="2.9026581812649965">
        <ele>175.4</ele>
        <time>2021-04-29T10:03:47.000Z</time>
      </trkpt>
      <trkpt lat="39.75298603065312" lon="2.9026052076369524">
        <ele>175</ele>
        <time>2021-04-29T10:03:48.000Z</time>
      </trkpt>
      <trkpt lat="39.75257841870189" lon="2.9023359809070826">
        <ele>174.4</ele>
        <time>2021-04-29T10:03:53.000Z</time>
      </trkpt>
      <trkpt lat="39.75242712534964" lon="2.902234895154834">
        <ele>174.2</ele>
        <time>2021-04-29T10:03:55.000Z</time>
      </trkpt>
      <trkpt lat="39.75212772376835" lon="2.9020711965858936">
        <ele>174.4</ele>
        <time>2021-04-29T10:03:59.000Z</time>
      </trkpt>
      <trkpt lat="39.75205220282078" lon="2.9020496550947428">
        <ele>174.4</ele>
        <time>2021-04-29T10:04:00.000Z</time>
      </trkpt>
      <trkpt lat="39.751895712688565" lon="2.9020473081618547">
        <ele>174.8</ele>
        <time>2021-04-29T10:04:02.000Z</time>
      </trkpt>
      <trkpt lat="39.75181868299842" lon="2.902060719206929">
        <ele>175</ele>
        <time>2021-04-29T10:04:03.000Z</time>
      </trkpt>
      <trkpt lat="39.751741820946336" lon="2.9020812548696995">
        <ele>175.2</ele>
        <time>2021-04-29T10:04:04.000Z</time>
      </trkpt>
      <trkpt lat="39.751587845385075" lon="2.9021297860890627">
        <ele>175.4</ele>
        <time>2021-04-29T10:04:06.000Z</time>
      </trkpt>
      <trkpt lat="39.75151098333299" lon="2.9021539259701967">
        <ele>175.6</ele>
        <time>2021-04-29T10:04:07.000Z</time>
      </trkpt>
      <trkpt lat="39.75135407410562" lon="2.9022089950740337">
        <ele>175.6</ele>
        <time>2021-04-29T10:04:09.000Z</time>
      </trkpt>
      <trkpt lat="39.75127335637808" lon="2.9022364877164364">
        <ele>175.6</ele>
        <time>2021-04-29T10:04:10.000Z</time>
      </trkpt>
      <trkpt lat="39.75086742080748" lon="2.902373867109418">
        <ele>175.6</ele>
        <time>2021-04-29T10:04:15.000Z</time>
      </trkpt>
      <trkpt lat="39.75079810246825" lon="2.902403622865677">
        <ele>175.6</ele>
        <time>2021-04-29T10:04:16.000Z</time>
      </trkpt>
      <trkpt lat="39.750380013138056" lon="2.902541672810912">
        <ele>175.8</ele>
        <time>2021-04-29T10:04:22.000Z</time>
      </trkpt>
      <trkpt lat="39.75009670481086" lon="2.9026429262012243">
        <ele>176.8</ele>
        <time>2021-04-29T10:04:26.000Z</time>
      </trkpt>
      <trkpt lat="39.74988187663257" lon="2.9027420841157436">
        <ele>177</ele>
        <time>2021-04-29T10:04:29.000Z</time>
      </trkpt>
      <trkpt lat="39.74956747144461" lon="2.902887174859643">
        <ele>177</ele>
        <time>2021-04-29T10:04:33.000Z</time>
      </trkpt>
      <trkpt lat="39.74939413368702" lon="2.9029635339975357">
        <ele>177</ele>
        <time>2021-04-29T10:04:35.000Z</time>
      </trkpt>
      <trkpt lat="39.74910537712276" lon="2.903078030794859">
        <ele>177</ele>
        <time>2021-04-29T10:04:38.000Z</time>
      </trkpt>
      <trkpt lat="39.74880496971309" lon="2.9032042622566223">
        <ele>176.2</ele>
        <time>2021-04-29T10:04:41.000Z</time>
      </trkpt>
      <trkpt lat="39.7487077396363" lon="2.903245249763131">
        <ele>175.6</ele>
        <time>2021-04-29T10:04:42.000Z</time>
      </trkpt>
      <trkpt lat="39.74852107465267" lon="2.9033219441771507">
        <ele>174.2</ele>
        <time>2021-04-29T10:04:44.000Z</time>
      </trkpt>
      <trkpt lat="39.74842946045101" lon="2.903358908370137">
        <ele>173.2</ele>
        <time>2021-04-29T10:04:45.000Z</time>
      </trkpt>
      <trkpt lat="39.74824782460928" lon="2.9034306574612856">
        <ele>171.8</ele>
        <time>2021-04-29T10:04:47.000Z</time>
      </trkpt>
      <trkpt lat="39.74806996062398" lon="2.903503580018878">
        <ele>170.4</ele>
        <time>2021-04-29T10:04:49.000Z</time>
      </trkpt>
      <trkpt lat="39.74748909473419" lon="2.903750343248248">
        <ele>170</ele>
        <time>2021-04-29T10:04:56.000Z</time>
      </trkpt>
      <trkpt lat="39.747410053387284" lon="2.903783032670617">
        <ele>170</ele>
        <time>2021-04-29T10:04:57.000Z</time>
      </trkpt>
      <trkpt lat="39.74701224826276" lon="2.9039525985717773">
        <ele>170.2</ele>
        <time>2021-04-29T10:05:02.000Z</time>
      </trkpt>
      <trkpt lat="39.746779231354594" lon="2.9040470626205206">
        <ele>170.6</ele>
        <time>2021-04-29T10:05:05.000Z</time>
      </trkpt>
      <trkpt lat="39.746701614931226" lon="2.9040800034999847">
        <ele>170.6</ele>
        <time>2021-04-29T10:05:06.000Z</time>
      </trkpt>
      <trkpt lat="39.74654881283641" lon="2.9041498247534037">
        <ele>170.8</ele>
        <time>2021-04-29T10:05:08.000Z</time>
      </trkpt>
      <trkpt lat="39.746325267478824" lon="2.904270524159074">
        <ele>171.8</ele>
        <time>2021-04-29T10:05:11.000Z</time>
      </trkpt>
      <trkpt lat="39.74611337296665" lon="2.9044255893677473">
        <ele>172.8</ele>
        <time>2021-04-29T10:05:14.000Z</time>
      </trkpt>
      <trkpt lat="39.746045395731926" lon="2.90448728017509">
        <ele>173</ele>
        <time>2021-04-29T10:05:15.000Z</time>
      </trkpt>
      <trkpt lat="39.7457239497453" lon="2.9048557486385107">
        <ele>173.4</ele>
        <time>2021-04-29T10:05:20.000Z</time>
      </trkpt>
      <trkpt lat="39.74537911824882" lon="2.90541909635067">
        <ele>173.2</ele>
        <time>2021-04-29T10:05:26.000Z</time>
      </trkpt>
      <trkpt lat="39.745137048885226" lon="2.9058246966451406">
        <ele>172.6</ele>
        <time>2021-04-29T10:05:30.000Z</time>
      </trkpt>
      <trkpt lat="39.74494275636971" lon="2.906151842325926">
        <ele>172.2</ele>
        <time>2021-04-29T10:05:33.000Z</time>
      </trkpt>
      <trkpt lat="39.74487377330661" lon="2.906261309981346">
        <ele>172</ele>
        <time>2021-04-29T10:05:34.000Z</time>
      </trkpt>
      <trkpt lat="39.74472222849727" lon="2.906471360474825">
        <ele>170.8</ele>
        <time>2021-04-29T10:05:36.000Z</time>
      </trkpt>
      <trkpt lat="39.74464285187423" lon="2.906570350751281">
        <ele>169.6</ele>
        <time>2021-04-29T10:05:37.000Z</time>
      </trkpt>
      <trkpt lat="39.74456079304218" lon="2.9066675808280706">
        <ele>168.2</ele>
        <time>2021-04-29T10:05:38.000Z</time>
      </trkpt>
      <trkpt lat="39.74430405534804" lon="2.9069656413048506">
        <ele>167.2</ele>
        <time>2021-04-29T10:05:41.000Z</time>
      </trkpt>
      <trkpt lat="39.744130969047546" lon="2.9071642085909843">
        <ele>167</ele>
        <time>2021-04-29T10:05:43.000Z</time>
      </trkpt>
      <trkpt lat="39.74395478144288" lon="2.907365122810006">
        <ele>166.2</ele>
        <time>2021-04-29T10:05:45.000Z</time>
      </trkpt>
      <trkpt lat="39.74386375397444" lon="2.9074659571051598">
        <ele>165.6</ele>
        <time>2021-04-29T10:05:46.000Z</time>
      </trkpt>
      <trkpt lat="39.74377021193504" lon="2.9075667075812817">
        <ele>165.2</ele>
        <time>2021-04-29T10:05:47.000Z</time>
      </trkpt>
      <trkpt lat="39.743671556934714" lon="2.907664105296135">
        <ele>164.4</ele>
        <time>2021-04-29T10:05:48.000Z</time>
      </trkpt>
      <trkpt lat="39.74345924332738" lon="2.907839873805642">
        <ele>163.4</ele>
        <time>2021-04-29T10:05:50.000Z</time>
      </trkpt>
      <trkpt lat="39.7433477640152" lon="2.907917909324169">
        <ele>162.6</ele>
        <time>2021-04-29T10:05:51.000Z</time>
      </trkpt>
      <trkpt lat="39.74323418922722" lon="2.9079864732921124">
        <ele>162</ele>
        <time>2021-04-29T10:05:52.000Z</time>
      </trkpt>
      <trkpt lat="39.74299798719585" lon="2.9081077594310045">
        <ele>161</ele>
        <time>2021-04-29T10:05:54.000Z</time>
      </trkpt>
      <trkpt lat="39.74276103079319" lon="2.908210437744856">
        <ele>159.8</ele>
        <time>2021-04-29T10:05:56.000Z</time>
      </trkpt>
      <trkpt lat="39.742527259513736" lon="2.9083089251071215">
        <ele>158.2</ele>
        <time>2021-04-29T10:05:58.000Z</time>
      </trkpt>
      <trkpt lat="39.742300529032946" lon="2.9084058199077845">
        <ele>156.8</ele>
        <time>2021-04-29T10:06:00.000Z</time>
      </trkpt>
      <trkpt lat="39.742190055549145" lon="2.908455692231655">
        <ele>156.2</ele>
        <time>2021-04-29T10:06:01.000Z</time>
      </trkpt>
      <trkpt lat="39.74208125844598" lon="2.9085038881748915">
        <ele>155.6</ele>
        <time>2021-04-29T10:06:02.000Z</time>
      </trkpt>
      <trkpt lat="39.741972126066685" lon="2.908547893166542">
        <ele>155</ele>
        <time>2021-04-29T10:06:03.000Z</time>
      </trkpt>
      <trkpt lat="39.741758638992906" lon="2.9086292814463377">
        <ele>154.4</ele>
        <time>2021-04-29T10:06:05.000Z</time>
      </trkpt>
      <trkpt lat="39.741447335109115" lon="2.908716956153512">
        <ele>153.2</ele>
        <time>2021-04-29T10:06:08.000Z</time>
      </trkpt>
      <trkpt lat="39.74134549498558" lon="2.9087382461875677">
        <ele>153</ele>
        <time>2021-04-29T10:06:09.000Z</time>
      </trkpt>
      <trkpt lat="39.74103963933885" lon="2.9087830055505037">
        <ele>152.8</ele>
        <time>2021-04-29T10:06:12.000Z</time>
      </trkpt>
      <trkpt lat="39.7408367972821" lon="2.9088065586984158">
        <ele>152.6</ele>
        <time>2021-04-29T10:06:14.000Z</time>
      </trkpt>
      <trkpt lat="39.74063789471984" lon="2.9088298603892326">
        <ele>152.6</ele>
        <time>2021-04-29T10:06:16.000Z</time>
      </trkpt>
      <trkpt lat="39.7404411714524" lon="2.9088551737368107">
        <ele>152.6</ele>
        <time>2021-04-29T10:06:18.000Z</time>
      </trkpt>
      <trkpt lat="39.740151492878795" lon="2.908904878422618">
        <ele>152.6</ele>
        <time>2021-04-29T10:06:21.000Z</time>
      </trkpt>
      <trkpt lat="39.73987614735961" lon="2.9089683294296265">
        <ele>152.6</ele>
        <time>2021-04-29T10:06:24.000Z</time>
      </trkpt>
      <trkpt lat="39.739607172086835" lon="2.909045945852995">
        <ele>152.6</ele>
        <time>2021-04-29T10:06:27.000Z</time>
      </trkpt>
      <trkpt lat="39.73927700892091" lon="2.909153737127781">
        <ele>152.6</ele>
        <time>2021-04-29T10:06:31.000Z</time>
      </trkpt>
      <trkpt lat="39.73887207917869" lon="2.9093111492693424">
        <ele>153.8</ele>
        <time>2021-04-29T10:06:37.000Z</time>
      </trkpt>
      <trkpt lat="39.7385539021343" lon="2.9094393085688353">
        <ele>154.8</ele>
        <time>2021-04-29T10:06:42.000Z</time>
      </trkpt>
      <trkpt lat="39.738062135875225" lon="2.909637540578842">
        <ele>155.8</ele>
        <time>2021-04-29T10:06:50.000Z</time>
      </trkpt>
      <trkpt lat="39.73765569739044" lon="2.909794868901372">
        <ele>157</ele>
        <time>2021-04-29T10:06:57.000Z</time>
      </trkpt>
      <trkpt lat="39.737543547526" lon="2.9098374489694834">
        <ele>157.6</ele>
        <time>2021-04-29T10:06:59.000Z</time>
      </trkpt>
      <trkpt lat="39.737265184521675" lon="2.9099316615611315">
        <ele>158.2</ele>
        <time>2021-04-29T10:07:04.000Z</time>
      </trkpt>
      <trkpt lat="39.73691750317812" lon="2.910019587725401">
        <ele>159</ele>
        <time>2021-04-29T10:07:10.000Z</time>
      </trkpt>
      <trkpt lat="39.73680107854307" lon="2.910042218863964">
        <ele>159.6</ele>
        <time>2021-04-29T10:07:12.000Z</time>
      </trkpt>
      <trkpt lat="39.73639824427664" lon="2.9101113695651293">
        <ele>160.4</ele>
        <time>2021-04-29T10:07:19.000Z</time>
      </trkpt>
      <trkpt lat="39.73628039471805" lon="2.9101257864385843">
        <ele>161</ele>
        <time>2021-04-29T10:07:21.000Z</time>
      </trkpt>
      <trkpt lat="39.73597059957683" lon="2.910157386213541">
        <ele>162.2</ele>
        <time>2021-04-29T10:07:26.000Z</time>
      </trkpt>
      <trkpt lat="39.735908238217235" lon="2.9101601522415876">
        <ele>162.2</ele>
        <time>2021-04-29T10:07:27.000Z</time>
      </trkpt>
      <trkpt lat="39.73545310087502" lon="2.9101981222629547">
        <ele>162.6</ele>
        <time>2021-04-29T10:07:34.000Z</time>
      </trkpt>
      <trkpt lat="39.73504808731377" lon="2.9102483298629522">
        <ele>162.8</ele>
        <time>2021-04-29T10:07:40.000Z</time>
      </trkpt>
      <trkpt lat="39.7349067684263" lon="2.910269871354103">
        <ele>162.8</ele>
        <time>2021-04-29T10:07:42.000Z</time>
      </trkpt>
      <trkpt lat="39.73470007069409" lon="2.9102979507297277">
        <ele>162.6</ele>
        <time>2021-04-29T10:07:45.000Z</time>
      </trkpt>
      <trkpt lat="39.73449680954218" lon="2.9103253595530987">
        <ele>162.4</ele>
        <time>2021-04-29T10:07:48.000Z</time>
      </trkpt>
      <trkpt lat="39.734350964426994" lon="2.9103510081768036">
        <ele>162.4</ele>
        <time>2021-04-29T10:07:50.000Z</time>
      </trkpt>
      <trkpt lat="39.734127251431346" lon="2.9103896487504244">
        <ele>162.2</ele>
        <time>2021-04-29T10:07:53.000Z</time>
      </trkpt>
      <trkpt lat="39.73382952623069" lon="2.9104426223784685">
        <ele>162.2</ele>
        <time>2021-04-29T10:07:57.000Z</time>
      </trkpt>
      <trkpt lat="39.733542278409004" lon="2.910492243245244">
        <ele>162</ele>
        <time>2021-04-29T10:08:01.000Z</time>
      </trkpt>
      <trkpt lat="39.73340582102537" lon="2.9105112701654434">
        <ele>161.6</ele>
        <time>2021-04-29T10:08:03.000Z</time>
      </trkpt>
      <trkpt lat="39.73333650268614" lon="2.9105206578969955">
        <ele>161.2</ele>
        <time>2021-04-29T10:08:04.000Z</time>
      </trkpt>
      <trkpt lat="39.73295319825411" lon="2.910578828305006">
        <ele>160.8</ele>
        <time>2021-04-29T10:08:09.000Z</time>
      </trkpt>
      <trkpt lat="39.732482973486185" lon="2.910641860216856">
        <ele>160.4</ele>
        <time>2021-04-29T10:08:15.000Z</time>
      </trkpt>
      <trkpt lat="39.73224333487451" lon="2.9106768127530813">
        <ele>160</ele>
        <time>2021-04-29T10:08:18.000Z</time>
      </trkpt>
      <trkpt lat="39.73200176842511" lon="2.9107126872986555">
        <ele>159.4</ele>
        <time>2021-04-29T10:08:21.000Z</time>
      </trkpt>
      <trkpt lat="39.731922056525946" lon="2.9107238352298737">
        <ele>159.2</ele>
        <time>2021-04-29T10:08:22.000Z</time>
      </trkpt>
      <trkpt lat="39.73167940042913" lon="2.910755770280957">
        <ele>158.6</ele>
        <time>2021-04-29T10:08:25.000Z</time>
      </trkpt>
      <trkpt lat="39.731515450403094" lon="2.91077496483922">
        <ele>158.4</ele>
        <time>2021-04-29T10:08:27.000Z</time>
      </trkpt>
      <trkpt lat="39.73143330775201" lon="2.9107846040278673">
        <ele>158.2</ele>
        <time>2021-04-29T10:08:28.000Z</time>
      </trkpt>
      <trkpt lat="39.73118260502815" lon="2.9108214005827904">
        <ele>157.4</ele>
        <time>2021-04-29T10:08:31.000Z</time>
      </trkpt>
      <trkpt lat="39.73109836690128" lon="2.9108331352472305">
        <ele>157.2</ele>
        <time>2021-04-29T10:08:32.000Z</time>
      </trkpt>
      <trkpt lat="39.73075345158577" lon="2.9108890425413847">
        <ele>156</ele>
        <time>2021-04-29T10:08:36.000Z</time>
      </trkpt>
      <trkpt lat="39.73066695034504" lon="2.910901363939047">
        <ele>155.8</ele>
        <time>2021-04-29T10:08:37.000Z</time>
      </trkpt>
      <trkpt lat="39.7304926905781" lon="2.9109229054301977">
        <ele>155.2</ele>
        <time>2021-04-29T10:08:39.000Z</time>
      </trkpt>
      <trkpt lat="39.730129670351744" lon="2.9109759628772736">
        <ele>153.6</ele>
        <time>2021-04-29T10:08:43.000Z</time>
      </trkpt>
      <trkpt lat="39.729958763346076" lon="2.9110039584338665">
        <ele>153</ele>
        <time>2021-04-29T10:08:45.000Z</time>
      </trkpt>
      <trkpt lat="39.72971920855343" lon="2.9110415931791067">
        <ele>152.4</ele>
        <time>2021-04-29T10:08:48.000Z</time>
      </trkpt>
      <trkpt lat="39.72949859686196" lon="2.911074450239539">
        <ele>151.4</ele>
        <time>2021-04-29T10:08:51.000Z</time>
      </trkpt>
      <trkpt lat="39.72922157496214" lon="2.911111665889621">
        <ele>150.4</ele>
        <time>2021-04-29T10:08:55.000Z</time>
      </trkpt>
      <trkpt lat="39.72907648421824" lon="2.911123652011156">
        <ele>150.2</ele>
        <time>2021-04-29T10:08:57.000Z</time>
      </trkpt>
      <trkpt lat="39.728702902793884" lon="2.9111582692712545">
        <ele>150</ele>
        <time>2021-04-29T10:09:02.000Z</time>
      </trkpt>
      <trkpt lat="39.72847952507436" lon="2.9111842531710863">
        <ele>150</ele>
        <time>2021-04-29T10:09:05.000Z</time>
      </trkpt>
      <trkpt lat="39.72817341797054" lon="2.9112380649894476">
        <ele>149.4</ele>
        <time>2021-04-29T10:09:09.000Z</time>
      </trkpt>
      <trkpt lat="39.72793101333082" lon="2.9112763702869415">
        <ele>148.8</ele>
        <time>2021-04-29T10:09:12.000Z</time>
      </trkpt>
      <trkpt lat="39.72784811630845" lon="2.911292128264904">
        <ele>148.2</ele>
        <time>2021-04-29T10:09:13.000Z</time>
      </trkpt>
      <trkpt lat="39.72768450155854" lon="2.911315681412816">
        <ele>147.2</ele>
        <time>2021-04-29T10:09:15.000Z</time>
      </trkpt>
      <trkpt lat="39.727602107450366" lon="2.9113293439149857">
        <ele>147</ele>
        <time>2021-04-29T10:09:16.000Z</time>
      </trkpt>
      <trkpt lat="39.727437822148204" lon="2.9113632068037987">
        <ele>146.2</ele>
        <time>2021-04-29T10:09:18.000Z</time>
      </trkpt>
      <trkpt lat="39.7271944116801" lon="2.911405535414815">
        <ele>145.8</ele>
        <time>2021-04-29T10:09:21.000Z</time>
      </trkpt>
      <trkpt lat="39.726787470281124" lon="2.9114549048244953">
        <ele>145.2</ele>
        <time>2021-04-29T10:09:26.000Z</time>
      </trkpt>
      <trkpt lat="39.72653601318598" lon="2.91148298420012">
        <ele>144</ele>
        <time>2021-04-29T10:09:29.000Z</time>
      </trkpt>
      <trkpt lat="39.72620761021972" lon="2.9115313477814198">
        <ele>143.2</ele>
        <time>2021-04-29T10:09:33.000Z</time>
      </trkpt>
      <trkpt lat="39.72613150253892" lon="2.9115393105894327">
        <ele>143</ele>
        <time>2021-04-29T10:09:34.000Z</time>
      </trkpt>
      <trkpt lat="39.725979287177324" lon="2.9115559067577124">
        <ele>142.6</ele>
        <time>2021-04-29T10:09:36.000Z</time>
      </trkpt>
      <trkpt lat="39.725835118442774" lon="2.911568731069565">
        <ele>142</ele>
        <time>2021-04-29T10:09:38.000Z</time>
      </trkpt>
      <trkpt lat="39.72576261498034" lon="2.9115723352879286">
        <ele>141.8</ele>
        <time>2021-04-29T10:09:39.000Z</time>
      </trkpt>
      <trkpt lat="39.72545919008553" lon="2.9116103891283274">
        <ele>141.2</ele>
        <time>2021-04-29T10:09:43.000Z</time>
      </trkpt>
      <trkpt lat="39.72539213486016" lon="2.911604857072234">
        <ele>141.2</ele>
        <time>2021-04-29T10:09:44.000Z</time>
      </trkpt>
      <trkpt lat="39.72525777295232" lon="2.9116041027009487">
        <ele>140.8</ele>
        <time>2021-04-29T10:09:46.000Z</time>
      </trkpt>
      <trkpt lat="39.72505451180041" lon="2.9116241354495287">
        <ele>140.8</ele>
        <time>2021-04-29T10:09:49.000Z</time>
      </trkpt>
      <trkpt lat="39.72490942105651" lon="2.911646096035838">
        <ele>140.8</ele>
        <time>2021-04-29T10:09:51.000Z</time>
      </trkpt>
      <trkpt lat="39.724689899012446" lon="2.911674762144685">
        <ele>140.8</ele>
        <time>2021-04-29T10:09:54.000Z</time>
      </trkpt>
      <trkpt lat="39.72461530007422" lon="2.911687921732664">
        <ele>140.8</ele>
        <time>2021-04-29T10:09:55.000Z</time>
      </trkpt>
      <trkpt lat="39.72437918186188" lon="2.9117558989673853">
        <ele>140.4</ele>
        <time>2021-04-29T10:09:58.000Z</time>
      </trkpt>
      <trkpt lat="39.72406905144453" lon="2.9118070285767317">
        <ele>140.2</ele>
        <time>2021-04-29T10:10:02.000Z</time>
      </trkpt>
      <trkpt lat="39.72399336285889" lon="2.911816332489252">
        <ele>139.8</ele>
        <time>2021-04-29T10:10:03.000Z</time>
      </trkpt>
      <trkpt lat="39.72366940230131" lon="2.9118548054248095">
        <ele>139.4</ele>
        <time>2021-04-29T10:10:08.000Z</time>
      </trkpt>
      <trkpt lat="39.72361802123487" lon="2.911875508725643">
        <ele>139.4</ele>
        <time>2021-04-29T10:10:09.000Z</time>
      </trkpt>
      <trkpt lat="39.723560102283955" lon="2.9119796119630337">
        <ele>139.4</ele>
        <time>2021-04-29T10:10:11.000Z</time>
      </trkpt>
      <trkpt lat="39.723566975444555" lon="2.912219502031803">
        <ele>139.2</ele>
        <time>2021-04-29T10:10:14.000Z</time>
      </trkpt>
      <trkpt lat="39.723599664866924" lon="2.912458973005414">
        <ele>139.2</ele>
        <time>2021-04-29T10:10:17.000Z</time>
      </trkpt>
      <trkpt lat="39.72362346947193" lon="2.9125834442675114">
        <ele>139</ele>
        <time>2021-04-29T10:10:19.000Z</time>
      </trkpt>
      <trkpt lat="39.72363478504121" lon="2.912714369595051">
        <ele>139</ele>
        <time>2021-04-29T10:10:21.000Z</time>
      </trkpt>
      <trkpt lat="39.72364442422986" lon="2.9128494020551443">
        <ele>139.2</ele>
        <time>2021-04-29T10:10:23.000Z</time>
      </trkpt>
      <trkpt lat="39.723661271855235" lon="2.9129866138100624">
        <ele>139</ele>
        <time>2021-04-29T10:10:25.000Z</time>
      </trkpt>
      <trkpt lat="39.72367082722485" lon="2.9130628891289234">
        <ele>139</ele>
        <time>2021-04-29T10:10:26.000Z</time>
      </trkpt>
      <trkpt lat="39.723726315423846" lon="2.9133164416998625">
        <ele>138.8</ele>
        <time>2021-04-29T10:10:30.000Z</time>
      </trkpt>
      <trkpt lat="39.72373612225056" lon="2.9133534897118807">
        <ele>138.8</ele>
        <time>2021-04-29T10:10:31.000Z</time>
      </trkpt>
      <trkpt lat="39.72375774756074" lon="2.913442924618721">
        <ele>138.4</ele>
        <time>2021-04-29T10:10:34.000Z</time>
      </trkpt>
      <trkpt lat="39.72376755438745" lon="2.9135231394320726">
        <ele>138.2</ele>
        <time>2021-04-29T10:10:36.000Z</time>
      </trkpt>
      <trkpt lat="39.72379747778177" lon="2.913685580715537">
        <ele>138</ele>
        <time>2021-04-29T10:10:41.000Z</time>
      </trkpt>
      <trkpt lat="39.723807368427515" lon="2.9138064477592707">
        <ele>138.2</ele>
        <time>2021-04-29T10:10:44.000Z</time>
      </trkpt>
      <trkpt lat="39.723814157769084" lon="2.9138942062854767">
        <ele>138</ele>
        <time>2021-04-29T10:10:46.000Z</time>
      </trkpt>
      <trkpt lat="39.723810721188784" lon="2.9140265565365553">
        <ele>137.8</ele>
        <time>2021-04-29T10:10:50.000Z</time>
      </trkpt>
      <trkpt lat="39.72382379695773" lon="2.914236942306161">
        <ele>137.6</ele>
        <time>2021-04-29T10:10:57.000Z</time>
      </trkpt>
      <trkpt lat="39.72380066290498" lon="2.914269380271435">
        <ele>137.6</ele>
        <time>2021-04-29T10:10:58.000Z</time>
      </trkpt>
      <trkpt lat="39.723706198856235" lon="2.9143122117966413">
        <ele>137.6</ele>
        <time>2021-04-29T10:11:01.000Z</time>
      </trkpt>
      <trkpt lat="39.723672503605485" lon="2.9143225215375423">
        <ele>137.6</ele>
        <time>2021-04-29T10:11:02.000Z</time>
      </trkpt>
      <trkpt lat="39.723602598533034" lon="2.914355965331197">
        <ele>137.6</ele>
        <time>2021-04-29T10:11:04.000Z</time>
      </trkpt>
      <trkpt lat="39.72353973425925" lon="2.9144111182540655">
        <ele>137.4</ele>
        <time>2021-04-29T10:11:06.000Z</time>
      </trkpt>
      <trkpt lat="39.72349589690566" lon="2.9144396167248487">
        <ele>137.2</ele>
        <time>2021-04-29T10:11:07.000Z</time>
      </trkpt>
      <trkpt lat="39.72335021942854" lon="2.9145778343081474">
        <ele>137</ele>
        <time>2021-04-29T10:11:11.000Z</time>
      </trkpt>
      <trkpt lat="39.72332054749131" lon="2.9146034829318523">
        <ele>136.8</ele>
        <time>2021-04-29T10:11:12.000Z</time>
      </trkpt>
      <trkpt lat="39.72318073734641" lon="2.9147153813391924">
        <ele>136.4</ele>
        <time>2021-04-29T10:11:17.000Z</time>
      </trkpt>
      <trkpt lat="39.723028438165784" lon="2.9148098453879356">
        <ele>136.4</ele>
        <time>2021-04-29T10:11:21.000Z</time>
      </trkpt>
      <trkpt lat="39.72298527136445" lon="2.9148287046700716">
        <ele>136.4</ele>
        <time>2021-04-29T10:11:22.000Z</time>
      </trkpt>
      <trkpt lat="39.72289768047631" lon="2.9149017948657274">
        <ele>136.4</ele>
        <time>2021-04-29T10:11:24.000Z</time>
      </trkpt>
      <trkpt lat="39.72275007516146" lon="2.915030037984252">
        <ele>136.4</ele>
        <time>2021-04-29T10:11:27.000Z</time>
      </trkpt>
      <trkpt lat="39.72270037047565" lon="2.915076557546854">
        <ele>136.2</ele>
        <time>2021-04-29T10:11:28.000Z</time>
      </trkpt>
      <trkpt lat="39.722479339689016" lon="2.9152436926960945">
        <ele>135.2</ele>
        <time>2021-04-29T10:11:32.000Z</time>
      </trkpt>
      <trkpt lat="39.722388898953795" lon="2.915300102904439">
        <ele>135</ele>
        <time>2021-04-29T10:11:34.000Z</time>
      </trkpt>
      <trkpt lat="39.722351264208555" lon="2.9153249133378267">
        <ele>135</ele>
        <time>2021-04-29T10:11:35.000Z</time>
      </trkpt>
      <trkpt lat="39.72231932915747" lon="2.9153459519147873">
        <ele>134.8</ele>
        <time>2021-04-29T10:11:36.000Z</time>
      </trkpt>
      <trkpt lat="39.7222454007715" lon="2.915404038503766">
        <ele>134.6</ele>
        <time>2021-04-29T10:11:38.000Z</time>
      </trkpt>
      <trkpt lat="39.72215445712209" lon="2.9154934734106064">
        <ele>134.4</ele>
        <time>2021-04-29T10:11:40.000Z</time>
      </trkpt>
      <trkpt lat="39.72210584208369" lon="2.9155305214226246">
        <ele>134.4</ele>
        <time>2021-04-29T10:11:41.000Z</time>
      </trkpt>
      <trkpt lat="39.722060076892376" lon="2.9155664797872305">
        <ele>134.4</ele>
        <time>2021-04-29T10:11:42.000Z</time>
      </trkpt>
      <trkpt lat="39.72184147685766" lon="2.915731268003583">
        <ele>133.6</ele>
        <time>2021-04-29T10:11:47.000Z</time>
      </trkpt>
      <trkpt lat="39.72180266864598" lon="2.9157602693885565">
        <ele>133.6</ele>
        <time>2021-04-29T10:11:48.000Z</time>
      </trkpt>
      <trkpt lat="39.72173226065934" lon="2.915820786729455">
        <ele>133.4</ele>
        <time>2021-04-29T10:11:50.000Z</time>
      </trkpt>
      <trkpt lat="39.72166394814849" lon="2.9159478563815355">
        <ele>133.2</ele>
        <time>2021-04-29T10:11:52.000Z</time>
      </trkpt>
      <trkpt lat="39.7215527202934" lon="2.9161822143942118">
        <ele>132.8</ele>
        <time>2021-04-29T10:11:57.000Z</time>
      </trkpt>
      <trkpt lat="39.72148918546736" lon="2.9164373595267534">
        <ele>132.6</ele>
        <time>2021-04-29T10:12:01.000Z</time>
      </trkpt>
      <trkpt lat="39.72145381383598" lon="2.916507348418236">
        <ele>132.6</ele>
        <time>2021-04-29T10:12:02.000Z</time>
      </trkpt>
      <trkpt lat="39.72142565064132" lon="2.9165724758058786">
        <ele>132.4</ele>
        <time>2021-04-29T10:12:03.000Z</time>
      </trkpt>
      <trkpt lat="39.72137602977455" lon="2.916679009795189">
        <ele>132.4</ele>
        <time>2021-04-29T10:12:05.000Z</time>
      </trkpt>
      <trkpt lat="39.72135968506336" lon="2.9167157225310802">
        <ele>132.4</ele>
        <time>2021-04-29T10:12:06.000Z</time>
      </trkpt>
      <trkpt lat="39.72130981273949" lon="2.916830889880657">
        <ele>132.2</ele>
        <time>2021-04-29T10:12:09.000Z</time>
      </trkpt>
      <trkpt lat="39.7212437633425" lon="2.916937842965126">
        <ele>132.2</ele>
        <time>2021-04-29T10:12:12.000Z</time>
      </trkpt>
      <trkpt lat="39.72119925543666" lon="2.9170346539467573">
        <ele>131.8</ele>
        <time>2021-04-29T10:12:14.000Z</time>
      </trkpt>
      <trkpt lat="39.72116027958691" lon="2.9171689320355654">
        <ele>131.8</ele>
        <time>2021-04-29T10:12:16.000Z</time>
      </trkpt>
      <trkpt lat="39.72109909169376" lon="2.9173476342111826">
        <ele>131.8</ele>
        <time>2021-04-29T10:12:20.000Z</time>
      </trkpt>
      <trkpt lat="39.72102927044034" lon="2.9175031185150146">
        <ele>131.6</ele>
        <time>2021-04-29T10:12:24.000Z</time>
      </trkpt>
      <trkpt lat="39.72100093960762" lon="2.917515942826867">
        <ele>131.4</ele>
        <time>2021-04-29T10:12:25.000Z</time>
      </trkpt>
      <trkpt lat="39.72096489742398" lon="2.9175099916756153">
        <ele>131.4</ele>
        <time>2021-04-29T10:12:26.000Z</time>
      </trkpt>
      <trkpt lat="39.720873618498445" lon="2.917523318901658">
        <ele>131.4</ele>
        <time>2021-04-29T10:12:28.000Z</time>
      </trkpt>
      <trkpt lat="39.72082542255521" lon="2.917527761310339">
        <ele>131.2</ele>
        <time>2021-04-29T10:12:29.000Z</time>
      </trkpt>
      <trkpt lat="39.72078460268676" lon="2.9175078123807907">
        <ele>131.2</ele>
        <time>2021-04-29T10:12:30.000Z</time>
      </trkpt>
      <trkpt lat="39.72070396877825" lon="2.917467998340726">
        <ele>131.2</ele>
        <time>2021-04-29T10:12:32.000Z</time>
      </trkpt>
      <trkpt lat="39.720567259937525" lon="2.9173662420362234">
        <ele>131.4</ele>
        <time>2021-04-29T10:12:36.000Z</time>
      </trkpt>
      <trkpt lat="39.72049115225673" lon="2.917309245094657">
        <ele>131.4</ele>
        <time>2021-04-29T10:12:39.000Z</time>
      </trkpt>
      <trkpt lat="39.72038025967777" lon="2.9172843508422375">
        <ele>131.4</ele>
        <time>2021-04-29T10:12:43.000Z</time>
      </trkpt>
      <trkpt lat="39.72033156082034" lon="2.917212685570121">
        <ele>131.4</ele>
        <time>2021-04-29T10:12:45.000Z</time>
      </trkpt>
      <trkpt lat="39.72027271986008" lon="2.9171582870185375">
        <ele>131.4</ele>
        <time>2021-04-29T10:12:47.000Z</time>
      </trkpt>
      <trkpt lat="39.72023533657193" lon="2.917131297290325">
        <ele>131.4</ele>
        <time>2021-04-29T10:12:48.000Z</time>
      </trkpt>
      <trkpt lat="39.72019183449447" lon="2.917127190157771">
        <ele>131.4</ele>
        <time>2021-04-29T10:12:49.000Z</time>
      </trkpt>
      <trkpt lat="39.7201438061893" lon="2.917143702507019">
        <ele>131.4</ele>
        <time>2021-04-29T10:12:50.000Z</time>
      </trkpt>
      <trkpt lat="39.72009778954089" lon="2.9171665012836456">
        <ele>131.4</ele>
        <time>2021-04-29T10:12:51.000Z</time>
      </trkpt>
      <trkpt lat="39.72002319060266" lon="2.917285608127713">
        <ele>131.6</ele>
        <time>2021-04-29T10:12:53.000Z</time>
      </trkpt>
      <trkpt lat="39.72000550478697" lon="2.917365487664938">
        <ele>131.6</ele>
        <time>2021-04-29T10:12:54.000Z</time>
      </trkpt>
      <trkpt lat="39.71998941153288" lon="2.917513847351074">
        <ele>131.4</ele>
        <time>2021-04-29T10:12:56.000Z</time>
      </trkpt>
      <trkpt lat="39.720086390152574" lon="2.9175753705203533">
        <ele>131.4</ele>
        <time>2021-04-29T10:12:58.000Z</time>
      </trkpt>
      <trkpt lat="39.72021471709013" lon="2.9175985045731068">
        <ele>131.4</ele>
        <time>2021-04-29T10:13:00.000Z</time>
      </trkpt>
      <trkpt lat="39.72028453834355" lon="2.9176139272749424">
        <ele>131.4</ele>
        <time>2021-04-29T10:13:01.000Z</time>
      </trkpt>
      <trkpt lat="39.72035343758762" lon="2.9176372289657593">
        <ele>131.4</ele>
        <time>2021-04-29T10:13:02.000Z</time>
      </trkpt>
      <trkpt lat="39.72065107896924" lon="2.9178155958652496">
        <ele>131.2</ele>
        <time>2021-04-29T10:13:07.000Z</time>
      </trkpt>
      <trkpt lat="39.72098124213517" lon="2.918033776804805">
        <ele>131</ele>
        <time>2021-04-29T10:13:13.000Z</time>
      </trkpt>
      <trkpt lat="39.72114737145603" lon="2.9181410651654005">
        <ele>130.8</ele>
        <time>2021-04-29T10:13:16.000Z</time>
      </trkpt>
      <trkpt lat="39.72152623347938" lon="2.918407106772065">
        <ele>131</ele>
        <time>2021-04-29T10:13:23.000Z</time>
      </trkpt>
      <trkpt lat="39.721865532919765" lon="2.9186023212969303">
        <ele>131.2</ele>
        <time>2021-04-29T10:13:29.000Z</time>
      </trkpt>
      <trkpt lat="39.72197541967034" lon="2.9186693765223026">
        <ele>131.4</ele>
        <time>2021-04-29T10:13:31.000Z</time>
      </trkpt>
      <trkpt lat="39.72213861532509" lon="2.9187704622745514">
        <ele>131.6</ele>
        <time>2021-04-29T10:13:34.000Z</time>
      </trkpt>
      <trkpt lat="39.722357718274" lon="2.918911697342992">
        <ele>132</ele>
        <time>2021-04-29T10:13:38.000Z</time>
      </trkpt>
      <trkpt lat="39.72251705825329" lon="2.9190307203680277">
        <ele>132.2</ele>
        <time>2021-04-29T10:13:41.000Z</time>
      </trkpt>
      <trkpt lat="39.7227977681905" lon="2.9192174691706896">
        <ele>133</ele>
        <time>2021-04-29T10:13:46.000Z</time>
      </trkpt>
      <trkpt lat="39.722913186997175" lon="2.9192851949483156">
        <ele>133</ele>
        <time>2021-04-29T10:13:48.000Z</time>
      </trkpt>
      <trkpt lat="39.72314452752471" lon="2.9194130189716816">
        <ele>133.2</ele>
        <time>2021-04-29T10:13:52.000Z</time>
      </trkpt>
      <trkpt lat="39.723312836140394" lon="2.9195076506584883">
        <ele>133.6</ele>
        <time>2021-04-29T10:13:55.000Z</time>
      </trkpt>
      <trkpt lat="39.723746264353395" lon="2.9198029451072216">
        <ele>134</ele>
        <time>2021-04-29T10:14:03.000Z</time>
      </trkpt>
      <trkpt lat="39.72391365095973" lon="2.91991475969553">
        <ele>134.4</ele>
        <time>2021-04-29T10:14:06.000Z</time>
      </trkpt>
      <trkpt lat="39.72430801950395" lon="2.920157751068473">
        <ele>135.2</ele>
        <time>2021-04-29T10:14:13.000Z</time>
      </trkpt>
      <trkpt lat="39.72481336444616" lon="2.9204842261970043">
        <ele>135.6</ele>
        <time>2021-04-29T10:14:22.000Z</time>
      </trkpt>
      <trkpt lat="39.7250827588141" lon="2.9207112919539213">
        <ele>135.8</ele>
        <time>2021-04-29T10:14:27.000Z</time>
      </trkpt>
      <trkpt lat="39.725237572565675" lon="2.920859232544899">
        <ele>136.6</ele>
        <time>2021-04-29T10:14:30.000Z</time>
      </trkpt>
      <trkpt lat="39.72533899359405" lon="2.920965012162924">
        <ele>136.8</ele>
        <time>2021-04-29T10:14:32.000Z</time>
      </trkpt>
      <trkpt lat="39.725538147613406" lon="2.9211904015392065">
        <ele>137</ele>
        <time>2021-04-29T10:14:36.000Z</time>
      </trkpt>
      <trkpt lat="39.725685585290194" lon="2.921359296888113">
        <ele>137</ele>
        <time>2021-04-29T10:14:39.000Z</time>
      </trkpt>
      <trkpt lat="39.726093113422394" lon="2.921852068975568">
        <ele>137.4</ele>
        <time>2021-04-29T10:14:48.000Z</time>
      </trkpt>
      <trkpt lat="39.72617601044476" lon="2.9219612013548613">
        <ele>137.8</ele>
        <time>2021-04-29T10:14:50.000Z</time>
      </trkpt>
      <trkpt lat="39.72621641121805" lon="2.922017276287079">
        <ele>138</ele>
        <time>2021-04-29T10:14:51.000Z</time>
      </trkpt>
      <trkpt lat="39.72637373954058" lon="2.922240821644664">
        <ele>138.6</ele>
        <time>2021-04-29T10:14:55.000Z</time>
      </trkpt>
      <trkpt lat="39.726516315713525" lon="2.92247517965734">
        <ele>138.6</ele>
        <time>2021-04-29T10:14:59.000Z</time>
      </trkpt>
      <trkpt lat="39.72664657048881" lon="2.9227209370583296">
        <ele>139.2</ele>
        <time>2021-04-29T10:15:03.000Z</time>
      </trkpt>
      <trkpt lat="39.72673935815692" lon="2.922907182946801">
        <ele>139.4</ele>
        <time>2021-04-29T10:15:06.000Z</time>
      </trkpt>
      <trkpt lat="39.72699693404138" lon="2.923456449061632">
        <ele>140.2</ele>
        <time>2021-04-29T10:15:14.000Z</time>
      </trkpt>
      <trkpt lat="39.727030294016004" lon="2.9235270246863365">
        <ele>140.6</ele>
        <time>2021-04-29T10:15:15.000Z</time>
      </trkpt>
      <trkpt lat="39.72712794318795" lon="2.9237358178943396">
        <ele>141.2</ele>
        <time>2021-04-29T10:15:18.000Z</time>
      </trkpt>
      <trkpt lat="39.72729507833719" lon="2.9240886960178614">
        <ele>141.2</ele>
        <time>2021-04-29T10:15:23.000Z</time>
      </trkpt>
      <trkpt lat="39.72740060649812" lon="2.9243190307170153">
        <ele>141.2</ele>
        <time>2021-04-29T10:15:26.000Z</time>
      </trkpt>
      <trkpt lat="39.72754284739494" lon="2.9246362019330263">
        <ele>141</ele>
        <time>2021-04-29T10:15:30.000Z</time>
      </trkpt>
      <trkpt lat="39.727860605344176" lon="2.9253052454441786">
        <ele>140</ele>
        <time>2021-04-29T10:15:38.000Z</time>
      </trkpt>
      <trkpt lat="39.72789949737489" lon="2.9253874719142914">
        <ele>139.8</ele>
        <time>2021-04-29T10:15:39.000Z</time>
      </trkpt>
      <trkpt lat="39.727976359426975" lon="2.9255489073693752">
        <ele>139.6</ele>
        <time>2021-04-29T10:15:41.000Z</time>
      </trkpt>
      <trkpt lat="39.72822672687471" lon="2.9260798171162605">
        <ele>139.4</ele>
        <time>2021-04-29T10:15:48.000Z</time>
      </trkpt>
      <trkpt lat="39.72839830443263" lon="2.9264482017606497">
        <ele>139.8</ele>
        <time>2021-04-29T10:15:53.000Z</time>
      </trkpt>
      <trkpt lat="39.72850467078388" lon="2.926679626107216">
        <ele>140.2</ele>
        <time>2021-04-29T10:15:56.000Z</time>
      </trkpt>
      <trkpt lat="39.728816309943795" lon="2.9273476637899876">
        <ele>140</ele>
        <time>2021-04-29T10:16:04.000Z</time>
      </trkpt>
      <trkpt lat="39.7288559563458" lon="2.9274316504597664">
        <ele>140</ele>
        <time>2021-04-29T10:16:05.000Z</time>
      </trkpt>
      <trkpt lat="39.72914353944361" lon="2.9280504025518894">
        <ele>139.6</ele>
        <time>2021-04-29T10:16:13.000Z</time>
      </trkpt>
      <trkpt lat="39.72917513921857" lon="2.928120056167245">
        <ele>139.6</ele>
        <time>2021-04-29T10:16:14.000Z</time>
      </trkpt>
      <trkpt lat="39.72932458855212" lon="2.9284474533051252">
        <ele>140.2</ele>
        <time>2021-04-29T10:16:19.000Z</time>
      </trkpt>
      <trkpt lat="39.729411508888006" lon="2.9286373872309923">
        <ele>141</ele>
        <time>2021-04-29T10:16:22.000Z</time>
      </trkpt>
      <trkpt lat="39.72946951165795" lon="2.928760014474392">
        <ele>141.6</ele>
        <time>2021-04-29T10:16:24.000Z</time>
      </trkpt>
      <trkpt lat="39.72949532791972" lon="2.928820364177227">
        <ele>142</ele>
        <time>2021-04-29T10:16:25.000Z</time>
      </trkpt>
      <trkpt lat="39.72958082333207" lon="2.929001832380891">
        <ele>143</ele>
        <time>2021-04-29T10:16:28.000Z</time>
      </trkpt>
      <trkpt lat="39.7297000978142" lon="2.9292507749050856">
        <ele>143.8</ele>
        <time>2021-04-29T10:16:32.000Z</time>
      </trkpt>
      <trkpt lat="39.72973035648465" lon="2.929312800988555">
        <ele>144</ele>
        <time>2021-04-29T10:16:33.000Z</time>
      </trkpt>
      <trkpt lat="39.72976044751704" lon="2.9293748270720243">
        <ele>144.2</ele>
        <time>2021-04-29T10:16:34.000Z</time>
      </trkpt>
      <trkpt lat="39.729909896850586" lon="2.9296889808028936">
        <ele>145.2</ele>
        <time>2021-04-29T10:16:39.000Z</time>
      </trkpt>
      <trkpt lat="39.730153642594814" lon="2.930208323523402">
        <ele>146.4</ele>
        <time>2021-04-29T10:16:47.000Z</time>
      </trkpt>
      <trkpt lat="39.73036972805858" lon="2.9306747764348984">
        <ele>147.4</ele>
        <time>2021-04-29T10:16:54.000Z</time>
      </trkpt>
      <trkpt lat="39.730470310896635" lon="2.930889017879963">
        <ele>147.6</ele>
        <time>2021-04-29T10:16:57.000Z</time>
      </trkpt>
      <trkpt lat="39.73075781017542" lon="2.9314970411360264">
        <ele>147.4</ele>
        <time>2021-04-29T10:17:05.000Z</time>
      </trkpt>
      <trkpt lat="39.730793349444866" lon="2.931576333940029">
        <ele>147.4</ele>
        <time>2021-04-29T10:17:06.000Z</time>
      </trkpt>
      <trkpt lat="39.731056205928326" lon="2.932152673602104">
        <ele>146.8</ele>
        <time>2021-04-29T10:17:13.000Z</time>
      </trkpt>
      <trkpt lat="39.731222335249186" lon="2.9325050488114357">
        <ele>146.6</ele>
        <time>2021-04-29T10:17:17.000Z</time>
      </trkpt>
      <trkpt lat="39.73141713067889" lon="2.932956498116255">
        <ele>145.8</ele>
        <time>2021-04-29T10:17:22.000Z</time>
      </trkpt>
      <trkpt lat="39.73145753145218" lon="2.9330485314130783">
        <ele>145.6</ele>
        <time>2021-04-29T10:17:23.000Z</time>
      </trkpt>
      <trkpt lat="39.73172876983881" lon="2.9336318280547857">
        <ele>144.6</ele>
        <time>2021-04-29T10:17:29.000Z</time>
      </trkpt>
      <trkpt lat="39.731774032115936" lon="2.933730650693178">
        <ele>144.6</ele>
        <time>2021-04-29T10:17:30.000Z</time>
      </trkpt>
      <trkpt lat="39.7319570928812" lon="2.934113284572959">
        <ele>144.4</ele>
        <time>2021-04-29T10:17:34.000Z</time>
      </trkpt>
      <trkpt lat="39.732087682932615" lon="2.9343858640640974">
        <ele>143.4</ele>
        <time>2021-04-29T10:17:37.000Z</time>
      </trkpt>
      <trkpt lat="39.73212892189622" lon="2.934472616761923">
        <ele>143.4</ele>
        <time>2021-04-29T10:17:38.000Z</time>
      </trkpt>
      <trkpt lat="39.73235313780606" lon="2.934939656406641">
        <ele>143.4</ele>
        <time>2021-04-29T10:17:44.000Z</time>
      </trkpt>
      <trkpt lat="39.73248020745814" lon="2.9352021776139736">
        <ele>144</ele>
        <time>2021-04-29T10:17:48.000Z</time>
      </trkpt>
      <trkpt lat="39.73253804259002" lon="2.9353290796279907">
        <ele>145</ele>
        <time>2021-04-29T10:17:50.000Z</time>
      </trkpt>
      <trkpt lat="39.73259470425546" lon="2.9354548919945955">
        <ele>145.8</ele>
        <time>2021-04-29T10:17:52.000Z</time>
      </trkpt>
      <trkpt lat="39.73262404091656" lon="2.9355166666209698">
        <ele>146</ele>
        <time>2021-04-29T10:17:53.000Z</time>
      </trkpt>
      <trkpt lat="39.732707776129246" lon="2.9356935247778893">
        <ele>147</ele>
        <time>2021-04-29T10:17:56.000Z</time>
      </trkpt>
      <trkpt lat="39.73278757184744" lon="2.9358660243451595">
        <ele>148.6</ele>
        <time>2021-04-29T10:17:59.000Z</time>
      </trkpt>
      <trkpt lat="39.732843646779656" lon="2.935985466465354">
        <ele>149.4</ele>
        <time>2021-04-29T10:18:01.000Z</time>
      </trkpt>
      <trkpt lat="39.73287264816463" lon="2.936046738177538">
        <ele>149.8</ele>
        <time>2021-04-29T10:18:02.000Z</time>
      </trkpt>
      <trkpt lat="39.733061492443085" lon="2.9364470578730106">
        <ele>150.8</ele>
        <time>2021-04-29T10:18:08.000Z</time>
      </trkpt>
      <trkpt lat="39.733242290094495" lon="2.9368332121521235">
        <ele>150.8</ele>
        <time>2021-04-29T10:18:13.000Z</time>
      </trkpt>
      <trkpt lat="39.73328470252454" lon="2.93691317550838">
        <ele>150.8</ele>
        <time>2021-04-29T10:18:14.000Z</time>
      </trkpt>
      <trkpt lat="39.733438258990645" lon="2.9371494613587856">
        <ele>150.4</ele>
        <time>2021-04-29T10:18:17.000Z</time>
      </trkpt>
      <trkpt lat="39.73350204527378" lon="2.9372213780879974">
        <ele>150.2</ele>
        <time>2021-04-29T10:18:18.000Z</time>
      </trkpt>
      <trkpt lat="39.73364663310349" lon="2.937359930947423">
        <ele>149.4</ele>
        <time>2021-04-29T10:18:20.000Z</time>
      </trkpt>
      <trkpt lat="39.73379507660866" lon="2.93746629729867">
        <ele>148.6</ele>
        <time>2021-04-29T10:18:22.000Z</time>
      </trkpt>
      <trkpt lat="39.73402331583202" lon="2.9376015812158585">
        <ele>147.4</ele>
        <time>2021-04-29T10:18:25.000Z</time>
      </trkpt>
      <trkpt lat="39.73417620174587" lon="2.937686573714018">
        <ele>146</ele>
        <time>2021-04-29T10:18:27.000Z</time>
      </trkpt>
      <trkpt lat="39.734404692426324" lon="2.9378176666796207">
        <ele>145.4</ele>
        <time>2021-04-29T10:18:30.000Z</time>
      </trkpt>
      <trkpt lat="39.73463628441095" lon="2.9379534535109997">
        <ele>145.4</ele>
        <time>2021-04-29T10:18:33.000Z</time>
      </trkpt>
      <trkpt lat="39.7347926069051" lon="2.9380471631884575">
        <ele>145.4</ele>
        <time>2021-04-29T10:18:35.000Z</time>
      </trkpt>
      <trkpt lat="39.734864020720124" lon="2.9381083510816097">
        <ele>145.2</ele>
        <time>2021-04-29T10:18:36.000Z</time>
      </trkpt>
      <trkpt lat="39.734923113137484" lon="2.93818362057209">
        <ele>145.2</ele>
        <time>2021-04-29T10:18:37.000Z</time>
      </trkpt>
      <trkpt lat="39.73496820777655" lon="2.9382706247270107">
        <ele>145.2</ele>
        <time>2021-04-29T10:18:38.000Z</time>
      </trkpt>
      <trkpt lat="39.73499377258122" lon="2.9384701140224934">
        <ele>145</ele>
        <time>2021-04-29T10:18:40.000Z</time>
      </trkpt>
      <trkpt lat="39.73490383476019" lon="2.938697850331664">
        <ele>144.2</ele>
        <time>2021-04-29T10:18:43.000Z</time>
      </trkpt>
      <trkpt lat="39.734849436208606" lon="2.9387148655951023">
        <ele>143.8</ele>
        <time>2021-04-29T10:18:44.000Z</time>
      </trkpt>
      <trkpt lat="39.734791265800595" lon="2.938708830624819">
        <ele>143.2</ele>
        <time>2021-04-29T10:18:45.000Z</time>
      </trkpt>
      <trkpt lat="39.73473628051579" lon="2.938693994656205">
        <ele>142.6</ele>
        <time>2021-04-29T10:18:46.000Z</time>
      </trkpt>
      <trkpt lat="39.73468146286905" lon="2.938687540590763">
        <ele>142.2</ele>
        <time>2021-04-29T10:18:47.000Z</time>
      </trkpt>
      <trkpt lat="39.73457266576588" lon="2.938685864210129">
        <ele>141.4</ele>
        <time>2021-04-29T10:18:49.000Z</time>
      </trkpt>
      <trkpt lat="39.73451675847173" lon="2.9386938270181417">
        <ele>141</ele>
        <time>2021-04-29T10:18:50.000Z</time>
      </trkpt>
      <trkpt lat="39.73440167494118" lon="2.938734646886587">
        <ele>140.4</ele>
        <time>2021-04-29T10:18:52.000Z</time>
      </trkpt>
      <trkpt lat="39.73434425890446" lon="2.938774125650525">
        <ele>140.2</ele>
        <time>2021-04-29T10:18:53.000Z</time>
      </trkpt>
      <trkpt lat="39.734291872009635" lon="2.9388238303363323">
        <ele>140</ele>
        <time>2021-04-29T10:18:54.000Z</time>
      </trkpt>
      <trkpt lat="39.7341884393245" lon="2.9390204697847366">
        <ele>139.8</ele>
        <time>2021-04-29T10:18:57.000Z</time>
      </trkpt>
      <trkpt lat="39.73417519591749" lon="2.9393171053379774">
        <ele>139.8</ele>
        <time>2021-04-29T10:19:01.000Z</time>
      </trkpt>
      <trkpt lat="39.734212663024664" lon="2.9394690692424774">
        <ele>139.8</ele>
        <time>2021-04-29T10:19:03.000Z</time>
      </trkpt>
      <trkpt lat="39.73423143848777" lon="2.939545512199402">
        <ele>140</ele>
        <time>2021-04-29T10:19:04.000Z</time>
      </trkpt>
      <trkpt lat="39.73423646762967" lon="2.9396224580705166">
        <ele>140.2</ele>
        <time>2021-04-29T10:19:05.000Z</time>
      </trkpt>
      <trkpt lat="39.73417544737458" lon="2.9397420678287745">
        <ele>140.2</ele>
        <time>2021-04-29T10:19:07.000Z</time>
      </trkpt>
      <trkpt lat="39.73406195640564" lon="2.9397906828671694">
        <ele>140.4</ele>
        <time>2021-04-29T10:19:09.000Z</time>
      </trkpt>
      <trkpt lat="39.73400982096791" lon="2.939815577119589">
        <ele>140.4</ele>
        <time>2021-04-29T10:19:10.000Z</time>
      </trkpt>
      <trkpt lat="39.7339690849185" lon="2.9398557264357805">
        <ele>140.4</ele>
        <time>2021-04-29T10:19:11.000Z</time>
      </trkpt>
      <trkpt lat="39.73393404856324" lon="2.9399932734668255">
        <ele>140.4</ele>
        <time>2021-04-29T10:19:13.000Z</time>
      </trkpt>
      <trkpt lat="39.73394947126508" lon="2.940066698938608">
        <ele>140.4</ele>
        <time>2021-04-29T10:19:14.000Z</time>
      </trkpt>
      <trkpt lat="39.734038822352886" lon="2.940157223492861">
        <ele>139.8</ele>
        <time>2021-04-29T10:19:16.000Z</time>
      </trkpt>
      <trkpt lat="39.734096908941865" lon="2.9401640966534615">
        <ele>139.6</ele>
        <time>2021-04-29T10:19:17.000Z</time>
      </trkpt>
      <trkpt lat="39.73421425558627" lon="2.940141800791025">
        <ele>139</ele>
        <time>2021-04-29T10:19:19.000Z</time>
      </trkpt>
      <trkpt lat="39.734441824257374" lon="2.940185386687517">
        <ele>138.8</ele>
        <time>2021-04-29T10:19:23.000Z</time>
      </trkpt>
      <trkpt lat="39.734574342146516" lon="2.940242886543274">
        <ele>138.4</ele>
        <time>2021-04-29T10:19:25.000Z</time>
      </trkpt>
      <trkpt lat="39.73471616394818" lon="2.940329220145941">
        <ele>138.2</ele>
        <time>2021-04-29T10:19:27.000Z</time>
      </trkpt>
      <trkpt lat="39.73478891886771" lon="2.9403849598020315">
        <ele>138</ele>
        <time>2021-04-29T10:19:28.000Z</time>
      </trkpt>
      <trkpt lat="39.73493518307805" lon="2.9405261110514402">
        <ele>137.8</ele>
        <time>2021-04-29T10:19:30.000Z</time>
      </trkpt>
      <trkpt lat="39.73501078784466" lon="2.9406061582267284">
        <ele>137.4</ele>
        <time>2021-04-29T10:19:31.000Z</time>
      </trkpt>
      <trkpt lat="39.73516937345266" lon="2.9407790768891573">
        <ele>137.2</ele>
        <time>2021-04-29T10:19:33.000Z</time>
      </trkpt>
      <trkpt lat="39.73534011282027" lon="2.940962389111519">
        <ele>135.8</ele>
        <time>2021-04-29T10:19:35.000Z</time>
      </trkpt>
      <trkpt lat="39.735429463908076" lon="2.9410564340651035">
        <ele>135.2</ele>
        <time>2021-04-29T10:19:36.000Z</time>
      </trkpt>
      <trkpt lat="39.7355214972049" lon="2.9411509819328785">
        <ele>134.6</ele>
        <time>2021-04-29T10:19:37.000Z</time>
      </trkpt>
      <trkpt lat="39.73571411333978" lon="2.941343430429697">
        <ele>133</ele>
        <time>2021-04-29T10:19:39.000Z</time>
      </trkpt>
      <trkpt lat="39.73581452853978" lon="2.9414413310587406">
        <ele>132</ele>
        <time>2021-04-29T10:19:40.000Z</time>
      </trkpt>
      <trkpt lat="39.73591628484428" lon="2.941540740430355">
        <ele>131.2</ele>
        <time>2021-04-29T10:19:41.000Z</time>
      </trkpt>
      <trkpt lat="39.73601812496781" lon="2.94164065271616">
        <ele>130.6</ele>
        <time>2021-04-29T10:19:42.000Z</time>
      </trkpt>
      <trkpt lat="39.736120803281665" lon="2.9417400620877743">
        <ele>129.8</ele>
        <time>2021-04-29T10:19:43.000Z</time>
      </trkpt>
      <trkpt lat="39.7362226434052" lon="2.941837878897786">
        <ele>128.6</ele>
        <time>2021-04-29T10:19:44.000Z</time>
      </trkpt>
      <trkpt lat="39.73632331006229" lon="2.9419346898794174">
        <ele>127.4</ele>
        <time>2021-04-29T10:19:45.000Z</time>
      </trkpt>
      <trkpt lat="39.73651894368231" lon="2.9421254619956017">
        <ele>126</ele>
        <time>2021-04-29T10:19:47.000Z</time>
      </trkpt>
      <trkpt lat="39.736702255904675" lon="2.94231740757823">
        <ele>124.6</ele>
        <time>2021-04-29T10:19:49.000Z</time>
      </trkpt>
      <trkpt lat="39.73678842186928" lon="2.942414302378893">
        <ele>123.6</ele>
        <time>2021-04-29T10:19:50.000Z</time>
      </trkpt>
      <trkpt lat="39.736953461542726" lon="2.9426084272563457">
        <ele>122.6</ele>
        <time>2021-04-29T10:19:52.000Z</time>
      </trkpt>
      <trkpt lat="39.73735051229596" lon="2.9430791549384594">
        <ele>122</ele>
        <time>2021-04-29T10:19:57.000Z</time>
      </trkpt>
      <trkpt lat="39.73750691860914" lon="2.9432682506740093">
        <ele>121.8</ele>
        <time>2021-04-29T10:19:59.000Z</time>
      </trkpt>
      <trkpt lat="39.73789173178375" lon="2.9437497071921825">
        <ele>121.8</ele>
        <time>2021-04-29T10:20:04.000Z</time>
      </trkpt>
      <trkpt lat="39.73812541924417" lon="2.944037541747093">
        <ele>121.6</ele>
        <time>2021-04-29T10:20:07.000Z</time>
      </trkpt>
      <trkpt lat="39.738286351785064" lon="2.9442276433110237">
        <ele>121.4</ele>
        <time>2021-04-29T10:20:09.000Z</time>
      </trkpt>
      <trkpt lat="39.7386971488595" lon="2.9446977842599154">
        <ele>121.2</ele>
        <time>2021-04-29T10:20:14.000Z</time>
      </trkpt>
      <trkpt lat="39.7389511205256" lon="2.9449862893670797">
        <ele>120.8</ele>
        <time>2021-04-29T10:20:17.000Z</time>
      </trkpt>
      <trkpt lat="39.739036951214075" lon="2.945084609091282">
        <ele>120.4</ele>
        <time>2021-04-29T10:20:18.000Z</time>
      </trkpt>
      <trkpt lat="39.73921020515263" lon="2.9452831763774157">
        <ele>119.4</ele>
        <time>2021-04-29T10:20:20.000Z</time>
      </trkpt>
      <trkpt lat="39.739384381100535" lon="2.9454829171299934">
        <ele>118.2</ele>
        <time>2021-04-29T10:20:22.000Z</time>
      </trkpt>
      <trkpt lat="39.73972854204476" lon="2.945882985368371">
        <ele>116.6</ele>
        <time>2021-04-29T10:20:26.000Z</time>
      </trkpt>
      <trkpt lat="39.73998310044408" lon="2.946183392778039">
        <ele>115.2</ele>
        <time>2021-04-29T10:20:29.000Z</time>
      </trkpt>
      <trkpt lat="39.74039850756526" lon="2.946688737720251">
        <ele>114.8</ele>
        <time>2021-04-29T10:20:34.000Z</time>
      </trkpt>
      <trkpt lat="39.740732442587614" lon="2.9470995347946882">
        <ele>114</ele>
        <time>2021-04-29T10:20:38.000Z</time>
      </trkpt>
      <trkpt lat="39.74098247475922" lon="2.947410000488162">
        <ele>113</ele>
        <time>2021-04-29T10:20:41.000Z</time>
      </trkpt>
      <trkpt lat="39.741389667615294" lon="2.94791073538363">
        <ele>112</ele>
        <time>2021-04-29T10:20:46.000Z</time>
      </trkpt>
      <trkpt lat="39.74162947386503" lon="2.9482008330523968">
        <ele>110.8</ele>
        <time>2021-04-29T10:20:49.000Z</time>
      </trkpt>
      <trkpt lat="39.74170901812613" lon="2.9482969734817743">
        <ele>110.6</ele>
        <time>2021-04-29T10:20:50.000Z</time>
      </trkpt>
      <trkpt lat="39.74210288375616" lon="2.9487734008580446">
        <ele>110.2</ele>
        <time>2021-04-29T10:20:55.000Z</time>
      </trkpt>
      <trkpt lat="39.74241795949638" lon="2.9491500835865736">
        <ele>110.2</ele>
        <time>2021-04-29T10:20:59.000Z</time>
      </trkpt>
      <trkpt lat="39.74249725230038" lon="2.94924421235919">
        <ele>110.2</ele>
        <time>2021-04-29T10:21:00.000Z</time>
      </trkpt>
      <trkpt lat="39.74296228028834" lon="2.949801776558161">
        <ele>110</ele>
        <time>2021-04-29T10:21:06.000Z</time>
      </trkpt>
      <trkpt lat="39.74311290308833" lon="2.9499826580286026">
        <ele>110</ele>
        <time>2021-04-29T10:21:08.000Z</time>
      </trkpt>
      <trkpt lat="39.74326386116445" lon="2.9501603543758392">
        <ele>110</ele>
        <time>2021-04-29T10:21:10.000Z</time>
      </trkpt>
      <trkpt lat="39.743705755099654" lon="2.9506838880479336">
        <ele>109.6</ele>
        <time>2021-04-29T10:21:16.000Z</time>
      </trkpt>
      <trkpt lat="39.74405930377543" lon="2.9510980378836393">
        <ele>109.4</ele>
        <time>2021-04-29T10:21:21.000Z</time>
      </trkpt>
      <trkpt lat="39.74447479471564" lon="2.951593156903982">
        <ele>109.6</ele>
        <time>2021-04-29T10:21:27.000Z</time>
      </trkpt>
      <trkpt lat="39.744820380583405" lon="2.952006971463561">
        <ele>109.8</ele>
        <time>2021-04-29T10:21:32.000Z</time>
      </trkpt>
      <trkpt lat="39.74523746408522" lon="2.952509131282568">
        <ele>109.8</ele>
        <time>2021-04-29T10:21:38.000Z</time>
      </trkpt>
      <trkpt lat="39.74558673799038" lon="2.9529292322695255">
        <ele>109.2</ele>
        <time>2021-04-29T10:21:43.000Z</time>
      </trkpt>
      <trkpt lat="39.74565614014864" lon="2.953012967482209">
        <ele>108.8</ele>
        <time>2021-04-29T10:21:44.000Z</time>
      </trkpt>
      <trkpt lat="39.74606995470822" lon="2.9535196535289288">
        <ele>108</ele>
        <time>2021-04-29T10:21:50.000Z</time>
      </trkpt>
      <trkpt lat="39.74620842374861" lon="2.953687123954296">
        <ele>107.6</ele>
        <time>2021-04-29T10:21:52.000Z</time>
      </trkpt>
      <trkpt lat="39.74663112312555" lon="2.9541921336203814">
        <ele>107.2</ele>
        <time>2021-04-29T10:21:58.000Z</time>
      </trkpt>
      <trkpt lat="39.746914179995656" lon="2.9545365460217">
        <ele>107</ele>
        <time>2021-04-29T10:22:02.000Z</time>
      </trkpt>
      <trkpt lat="39.74720117636025" lon="2.9548854008316994">
        <ele>107</ele>
        <time>2021-04-29T10:22:06.000Z</time>
      </trkpt>
      <trkpt lat="39.747628066688776" lon="2.955398876219988">
        <ele>106.2</ele>
        <time>2021-04-29T10:22:12.000Z</time>
      </trkpt>
      <trkpt lat="39.74776670336723" lon="2.9555671848356724">
        <ele>105.8</ele>
        <time>2021-04-29T10:22:14.000Z</time>
      </trkpt>
      <trkpt lat="39.747906513512135" lon="2.955733733251691">
        <ele>105.6</ele>
        <time>2021-04-29T10:22:16.000Z</time>
      </trkpt>
      <trkpt lat="39.74818202666938" lon="2.9560692608356476">
        <ele>105.2</ele>
        <time>2021-04-29T10:22:20.000Z</time>
      </trkpt>
      <trkpt lat="39.748385371640325" lon="2.956319125369191">
        <ele>105</ele>
        <time>2021-04-29T10:22:23.000Z</time>
      </trkpt>
      <trkpt lat="39.74865677766502" lon="2.9566414933651686">
        <ele>104.6</ele>
        <time>2021-04-29T10:22:27.000Z</time>
      </trkpt>
      <trkpt lat="39.74885769188404" lon="2.956883395090699">
        <ele>103.8</ele>
        <time>2021-04-29T10:22:30.000Z</time>
      </trkpt>
      <trkpt lat="39.74906195886433" lon="2.9571326728910208">
        <ele>103.6</ele>
        <time>2021-04-29T10:22:33.000Z</time>
      </trkpt>
      <trkpt lat="39.749476443976164" lon="2.9576354194432497">
        <ele>103.4</ele>
        <time>2021-04-29T10:22:39.000Z</time>
      </trkpt>
      <trkpt lat="39.74974449723959" lon="2.957979664206505">
        <ele>103.4</ele>
        <time>2021-04-29T10:22:43.000Z</time>
      </trkpt>
      <trkpt lat="39.749798979610205" lon="2.958072954788804">
        <ele>103</ele>
        <time>2021-04-29T10:22:44.000Z</time>
      </trkpt>
      <trkpt lat="39.74984373897314" lon="2.958169598132372">
        <ele>103</ele>
        <time>2021-04-29T10:22:45.000Z</time>
      </trkpt>
      <trkpt lat="39.74987885914743" lon="2.958266157656908">
        <ele>102.8</ele>
        <time>2021-04-29T10:22:46.000Z</time>
      </trkpt>
      <trkpt lat="39.74993711337447" lon="2.9586138390004635">
        <ele>102.8</ele>
        <time>2021-04-29T10:22:50.000Z</time>
      </trkpt>
      <trkpt lat="39.7498563118279" lon="2.9588258173316717">
        <ele>103</ele>
        <time>2021-04-29T10:22:53.000Z</time>
      </trkpt>
      <trkpt lat="39.74983259104192" lon="2.958987085148692">
        <ele>104.2</ele>
        <time>2021-04-29T10:22:55.000Z</time>
      </trkpt>
      <trkpt lat="39.74985681474209" lon="2.9590629413723946">
        <ele>104.8</ele>
        <time>2021-04-29T10:22:56.000Z</time>
      </trkpt>
      <trkpt lat="39.74996108561754" lon="2.959145000204444">
        <ele>105.6</ele>
        <time>2021-04-29T10:22:58.000Z</time>
      </trkpt>
      <trkpt lat="39.750018334016204" lon="2.959169140085578">
        <ele>106</ele>
        <time>2021-04-29T10:22:59.000Z</time>
      </trkpt>
      <trkpt lat="39.750134255737066" lon="2.959216497838497">
        <ele>106.4</ele>
        <time>2021-04-29T10:23:01.000Z</time>
      </trkpt>
      <trkpt lat="39.75026451051235" lon="2.9592198505997658">
        <ele>106.8</ele>
        <time>2021-04-29T10:23:03.000Z</time>
      </trkpt>
      <trkpt lat="39.75048235617578" lon="2.959111724048853">
        <ele>107</ele>
        <time>2021-04-29T10:23:06.000Z</time>
      </trkpt>
      <trkpt lat="39.75056525319815" lon="2.959073083475232">
        <ele>107</ele>
        <time>2021-04-29T10:23:07.000Z</time>
      </trkpt>
      <trkpt lat="39.75074487738311" lon="2.9590746760368347">
        <ele>107</ele>
        <time>2021-04-29T10:23:09.000Z</time>
      </trkpt>
      <trkpt lat="39.75096699781716" lon="2.9592650290578604">
        <ele>106.4</ele>
        <time>2021-04-29T10:23:12.000Z</time>
      </trkpt>
      <trkpt lat="39.751083590090275" lon="2.9594205133616924">
        <ele>106.2</ele>
        <time>2021-04-29T10:23:14.000Z</time>
      </trkpt>
      <trkpt lat="39.751137318089604" lon="2.9595008119940758">
        <ele>105.8</ele>
        <time>2021-04-29T10:23:15.000Z</time>
      </trkpt>
      <trkpt lat="39.75124326534569" lon="2.959661828354001">
        <ele>104.2</ele>
        <time>2021-04-29T10:23:17.000Z</time>
      </trkpt>
      <trkpt lat="39.75129749625921" lon="2.9597418755292892">
        <ele>103.4</ele>
        <time>2021-04-29T10:23:18.000Z</time>
      </trkpt>
      <trkpt lat="39.751352900639176" lon="2.9598222579807043">
        <ele>103</ele>
        <time>2021-04-29T10:23:19.000Z</time>
      </trkpt>
      <trkpt lat="39.751681219786406" lon="2.960186619311571">
        <ele>102.4</ele>
        <time>2021-04-29T10:23:24.000Z</time>
      </trkpt>
      <trkpt lat="39.75207609124482" lon="2.9604426864534616">
        <ele>102</ele>
        <time>2021-04-29T10:23:29.000Z</time>
      </trkpt>
      <trkpt lat="39.75263172760606" lon="2.960745105519891">
        <ele>101.6</ele>
        <time>2021-04-29T10:23:36.000Z</time>
      </trkpt>
      <trkpt lat="39.75313497707248" lon="2.961132265627384">
        <ele>101.4</ele>
        <time>2021-04-29T10:23:43.000Z</time>
      </trkpt>
      <trkpt lat="39.75334896706045" lon="2.9612952936440706">
        <ele>101.6</ele>
        <time>2021-04-29T10:23:46.000Z</time>
      </trkpt>
      <trkpt lat="39.75384416989982" lon="2.9616381973028183">
        <ele>101.8</ele>
        <time>2021-04-29T10:23:53.000Z</time>
      </trkpt>
      <trkpt lat="39.75398297421634" lon="2.961731320247054">
        <ele>101.8</ele>
        <time>2021-04-29T10:23:55.000Z</time>
      </trkpt>
      <trkpt lat="39.75453936494887" lon="2.9620781634002924">
        <ele>102</ele>
        <time>2021-04-29T10:24:03.000Z</time>
      </trkpt>
      <trkpt lat="39.75475310347974" lon="2.962205233052373">
        <ele>102</ele>
        <time>2021-04-29T10:24:06.000Z</time>
      </trkpt>
      <trkpt lat="39.75526590831578" lon="2.9624732863157988">
        <ele>102.4</ele>
        <time>2021-04-29T10:24:13.000Z</time>
      </trkpt>
      <trkpt lat="39.75534025579691" lon="2.962509412318468">
        <ele>102.4</ele>
        <time>2021-04-29T10:24:14.000Z</time>
      </trkpt>
      <trkpt lat="39.75586127489805" lon="2.9627814050763845">
        <ele>102.4</ele>
        <time>2021-04-29T10:24:21.000Z</time>
      </trkpt>
      <trkpt lat="39.75601164624095" lon="2.96285399235785">
        <ele>102.4</ele>
        <time>2021-04-29T10:24:23.000Z</time>
      </trkpt>
      <trkpt lat="39.7565511893481" lon="2.9630889371037483">
        <ele>102.4</ele>
        <time>2021-04-29T10:24:30.000Z</time>
      </trkpt>
      <trkpt lat="39.756787391379476" lon="2.9631828982383013">
        <ele>102.4</ele>
        <time>2021-04-29T10:24:33.000Z</time>
      </trkpt>
      <trkpt lat="39.75734319537878" lon="2.963418262079358">
        <ele>102.8</ele>
        <time>2021-04-29T10:24:40.000Z</time>
      </trkpt>
      <trkpt lat="39.7575044631958" lon="2.9634719900786877">
        <ele>103</ele>
        <time>2021-04-29T10:24:42.000Z</time>
      </trkpt>
      <trkpt lat="39.75800494663417" lon="2.9636139795184135">
        <ele>103.2</ele>
        <time>2021-04-29T10:24:48.000Z</time>
      </trkpt>
      <trkpt lat="39.758345168083906" lon="2.9637270513921976">
        <ele>103.6</ele>
        <time>2021-04-29T10:24:52.000Z</time>
      </trkpt>
      <trkpt lat="39.75874733179808" lon="2.9639337491244078">
        <ele>103.6</ele>
        <time>2021-04-29T10:24:57.000Z</time>
      </trkpt>
      <trkpt lat="39.75882176309824" lon="2.963986052200198">
        <ele>103.6</ele>
        <time>2021-04-29T10:24:58.000Z</time>
      </trkpt>
      <trkpt lat="39.75932031869888" lon="2.964388718828559">
        <ele>102.8</ele>
        <time>2021-04-29T10:25:05.000Z</time>
      </trkpt>
      <trkpt lat="39.75938896648586" lon="2.9644489847123623">
        <ele>102.8</ele>
        <time>2021-04-29T10:25:06.000Z</time>
      </trkpt>
      <trkpt lat="39.759860280901194" lon="2.964878724887967">
        <ele>102.4</ele>
        <time>2021-04-29T10:25:13.000Z</time>
      </trkpt>
      <trkpt lat="39.75999682210386" lon="2.9649710934609175">
        <ele>102.4</ele>
        <time>2021-04-29T10:25:15.000Z</time>
      </trkpt>
      <trkpt lat="39.760192120447755" lon="2.965073771774769">
        <ele>102.4</ele>
        <time>2021-04-29T10:25:18.000Z</time>
      </trkpt>
      <trkpt lat="39.76030343212187" lon="2.965174103155732">
        <ele>102.4</ele>
        <time>2021-04-29T10:25:20.000Z</time>
      </trkpt>
      <trkpt lat="39.760442320257425" lon="2.9653716646134853">
        <ele>102.4</ele>
        <time>2021-04-29T10:25:23.000Z</time>
      </trkpt>
      <trkpt lat="39.76054659113288" lon="2.965496890246868">
        <ele>102.6</ele>
        <time>2021-04-29T10:25:25.000Z</time>
      </trkpt>
      <trkpt lat="39.760786732658744" lon="2.965718926861882">
        <ele>103.2</ele>
        <time>2021-04-29T10:25:29.000Z</time>
      </trkpt>
      <trkpt lat="39.76103684864938" lon="2.965938113629818">
        <ele>103.4</ele>
        <time>2021-04-29T10:25:33.000Z</time>
      </trkpt>
      <trkpt lat="39.761480167508125" lon="2.9663413669914007">
        <ele>103.4</ele>
        <time>2021-04-29T10:25:40.000Z</time>
      </trkpt>
      <trkpt lat="39.76172651164234" lon="2.966592153534293">
        <ele>103</ele>
        <time>2021-04-29T10:25:44.000Z</time>
      </trkpt>
      <trkpt lat="39.762134375050664" lon="2.9670738615095615">
        <ele>102.6</ele>
        <time>2021-04-29T10:25:51.000Z</time>
      </trkpt>
      <trkpt lat="39.76236621849239" lon="2.967353481799364">
        <ele>102.6</ele>
        <time>2021-04-29T10:25:55.000Z</time>
      </trkpt>
      <trkpt lat="39.762773076072335" lon="2.9678545519709587">
        <ele>102.4</ele>
        <time>2021-04-29T10:26:02.000Z</time>
      </trkpt>
      <trkpt lat="39.762952448800206" lon="2.9680758342146873">
        <ele>102.4</ele>
        <time>2021-04-29T10:26:05.000Z</time>
      </trkpt>
      <trkpt lat="39.7633705381304" lon="2.9686029721051455">
        <ele>102.2</ele>
        <time>2021-04-29T10:26:12.000Z</time>
      </trkpt>
      <trkpt lat="39.76354722864926" lon="2.9688311275094748">
        <ele>102.2</ele>
        <time>2021-04-29T10:26:15.000Z</time>
      </trkpt>
      <trkpt lat="39.763955594971776" lon="2.9693783819675446">
        <ele>102</ele>
        <time>2021-04-29T10:26:22.000Z</time>
      </trkpt>
      <trkpt lat="39.764014603570104" lon="2.969454489648342">
        <ele>102</ele>
        <time>2021-04-29T10:26:23.000Z</time>
      </trkpt>
      <trkpt lat="39.764421209692955" lon="2.9699966311454773">
        <ele>102</ele>
        <time>2021-04-29T10:26:30.000Z</time>
      </trkpt>
      <trkpt lat="39.76459622383118" lon="2.9702295642346144">
        <ele>102.2</ele>
        <time>2021-04-29T10:26:33.000Z</time>
      </trkpt>
      <trkpt lat="39.76497408002615" lon="2.9707911517471075">
        <ele>102.4</ele>
        <time>2021-04-29T10:26:40.000Z</time>
      </trkpt>
      <trkpt lat="39.76502210833132" lon="2.9708758927881718">
        <ele>102.4</ele>
        <time>2021-04-29T10:26:41.000Z</time>
      </trkpt>
      <trkpt lat="39.7653529420495" lon="2.9714747797697783">
        <ele>102.2</ele>
        <time>2021-04-29T10:26:48.000Z</time>
      </trkpt>
      <trkpt lat="39.7653997130692" lon="2.971563544124365">
        <ele>102.2</ele>
        <time>2021-04-29T10:26:49.000Z</time>
      </trkpt>
      <trkpt lat="39.765634490177035" lon="2.9720166698098183">
        <ele>102.2</ele>
        <time>2021-04-29T10:26:54.000Z</time>
      </trkpt>
      <trkpt lat="39.765812270343304" lon="2.972385725006461">
        <ele>102.4</ele>
        <time>2021-04-29T10:26:58.000Z</time>
      </trkpt>
      <trkpt lat="39.766067331656814" lon="2.9730524215847254">
        <ele>102.2</ele>
        <time>2021-04-29T10:27:05.000Z</time>
      </trkpt>
      <trkpt lat="39.76616037078202" lon="2.973441928625107">
        <ele>101.6</ele>
        <time>2021-04-29T10:27:09.000Z</time>
      </trkpt>
      <trkpt lat="39.766202615574" lon="2.9735288489609957">
        <ele>101.6</ele>
        <time>2021-04-29T10:27:10.000Z</time>
      </trkpt>
      <trkpt lat="39.76641836576164" lon="2.9736824054270983">
        <ele>101.2</ele>
        <time>2021-04-29T10:27:13.000Z</time>
      </trkpt>
      <trkpt lat="39.76650143042207" lon="2.97371132299304">
        <ele>101.2</ele>
        <time>2021-04-29T10:27:14.000Z</time>
      </trkpt>
      <trkpt lat="39.76666948758066" lon="2.9737910348922014">
        <ele>101</ele>
        <time>2021-04-29T10:27:16.000Z</time>
      </trkpt>
      <trkpt lat="39.766825810074806" lon="2.973910393193364">
        <ele>101</ele>
        <time>2021-04-29T10:27:18.000Z</time>
      </trkpt>
      <trkpt lat="39.767306093126535" lon="2.9743487667292356">
        <ele>100.4</ele>
        <time>2021-04-29T10:27:24.000Z</time>
      </trkpt>
      <trkpt lat="39.767387649044394" lon="2.974424371495843">
        <ele>100</ele>
        <time>2021-04-29T10:27:25.000Z</time>
      </trkpt>
      <trkpt lat="39.76755076088011" lon="2.9745725635439157">
        <ele>98.8</ele>
        <time>2021-04-29T10:27:27.000Z</time>
      </trkpt>
      <trkpt lat="39.76778796873987" lon="2.9747875593602657">
        <ele>97.8</ele>
        <time>2021-04-29T10:27:30.000Z</time>
      </trkpt>
      <trkpt lat="39.76801201701164" lon="2.974995095282793">
        <ele>96.8</ele>
        <time>2021-04-29T10:27:33.000Z</time>
      </trkpt>
      <trkpt lat="39.76848157122731" lon="2.9754546750336885">
        <ele>96.6</ele>
        <time>2021-04-29T10:27:40.000Z</time>
      </trkpt>
      <trkpt lat="39.76854317821562" lon="2.9755208920687437">
        <ele>96.6</ele>
        <time>2021-04-29T10:27:41.000Z</time>
      </trkpt>
      <trkpt lat="39.768773429095745" lon="2.9757948964834213">
        <ele>97.8</ele>
        <time>2021-04-29T10:27:45.000Z</time>
      </trkpt>
      <trkpt lat="39.768928326666355" lon="2.976028835400939">
        <ele>98.6</ele>
        <time>2021-04-29T10:27:48.000Z</time>
      </trkpt>
      <trkpt lat="39.76897710934281" lon="2.976111648604274">
        <ele>99</ele>
        <time>2021-04-29T10:27:49.000Z</time>
      </trkpt>
      <trkpt lat="39.76917089894414" lon="2.9764524567872286">
        <ele>99.8</ele>
        <time>2021-04-29T10:27:53.000Z</time>
      </trkpt>
      <trkpt lat="39.76921984925866" lon="2.976541891694069">
        <ele>100</ele>
        <time>2021-04-29T10:27:54.000Z</time>
      </trkpt>
      <trkpt lat="39.76936996914446" lon="2.9768250323832035">
        <ele>100.4</ele>
        <time>2021-04-29T10:27:57.000Z</time>
      </trkpt>
      <trkpt lat="39.76963793858886" lon="2.9773303773254156">
        <ele>100.4</ele>
        <time>2021-04-29T10:28:02.000Z</time>
      </trkpt>
      <trkpt lat="39.76974371820688" lon="2.9775426909327507">
        <ele>99.6</ele>
        <time>2021-04-29T10:28:04.000Z</time>
      </trkpt>
      <trkpt lat="39.76979828439653" lon="2.9776499792933464">
        <ele>99</ele>
        <time>2021-04-29T10:28:05.000Z</time>
      </trkpt>
      <trkpt lat="39.769911020994186" lon="2.977863885462284">
        <ele>98.2</ele>
        <time>2021-04-29T10:28:07.000Z</time>
      </trkpt>
      <trkpt lat="39.77008963935077" lon="2.978198155760765">
        <ele>97.2</ele>
        <time>2021-04-29T10:28:10.000Z</time>
      </trkpt>
      <trkpt lat="39.77014973759651" lon="2.9783132392913103">
        <ele>96.6</ele>
        <time>2021-04-29T10:28:11.000Z</time>
      </trkpt>
      <trkpt lat="39.77021176367998" lon="2.9784260597079992">
        <ele>95.8</ele>
        <time>2021-04-29T10:28:12.000Z</time>
      </trkpt>
      <trkpt lat="39.77033631876111" lon="2.9786545503884554">
        <ele>94.6</ele>
        <time>2021-04-29T10:28:14.000Z</time>
      </trkpt>
      <trkpt lat="39.77053572423756" lon="2.978990413248539">
        <ele>93.6</ele>
        <time>2021-04-29T10:28:17.000Z</time>
      </trkpt>
      <trkpt lat="39.770668325945735" lon="2.9792266990989447">
        <ele>92.6</ele>
        <time>2021-04-29T10:28:19.000Z</time>
      </trkpt>
      <trkpt lat="39.7707340400666" lon="2.979345889762044">
        <ele>92</ele>
        <time>2021-04-29T10:28:20.000Z</time>
      </trkpt>
      <trkpt lat="39.77079665288329" lon="2.979466002434492">
        <ele>91.4</ele>
        <time>2021-04-29T10:28:21.000Z</time>
      </trkpt>
      <trkpt lat="39.770925398916006" lon="2.979708155617118">
        <ele>90.2</ele>
        <time>2021-04-29T10:28:23.000Z</time>
      </trkpt>
      <trkpt lat="39.771125642582774" lon="2.980077126994729">
        <ele>89</ele>
        <time>2021-04-29T10:28:26.000Z</time>
      </trkpt>
      <trkpt lat="39.771196469664574" lon="2.9801953118294477">
        <ele>88.2</ele>
        <time>2021-04-29T10:28:27.000Z</time>
      </trkpt>
      <trkpt lat="39.77126310579479" lon="2.980323052033782">
        <ele>87.6</ele>
        <time>2021-04-29T10:28:28.000Z</time>
      </trkpt>
      <trkpt lat="39.77142697200179" lon="2.980721527710557">
        <ele>86.6</ele>
        <time>2021-04-29T10:28:31.000Z</time>
      </trkpt>
      <trkpt lat="39.77146569639444" lon="2.980868462473154">
        <ele>85.8</ele>
        <time>2021-04-29T10:28:32.000Z</time>
      </trkpt>
      <trkpt lat="39.771526800468564" lon="2.981170043349266">
        <ele>84.2</ele>
        <time>2021-04-29T10:28:34.000Z</time>
      </trkpt>
      <trkpt lat="39.77155135944486" lon="2.981321420520544">
        <ele>83.8</ele>
        <time>2021-04-29T10:28:35.000Z</time>
      </trkpt>
      <trkpt lat="39.77157642133534" lon="2.981474054977298">
        <ele>83.2</ele>
        <time>2021-04-29T10:28:36.000Z</time>
      </trkpt>
      <trkpt lat="39.77162922732532" lon="2.9817821737378836">
        <ele>82</ele>
        <time>2021-04-29T10:28:38.000Z</time>
      </trkpt>
      <trkpt lat="39.771693432703614" lon="2.982085682451725">
        <ele>80.6</ele>
        <time>2021-04-29T10:28:40.000Z</time>
      </trkpt>
      <trkpt lat="39.771761912852526" lon="2.982384916394949">
        <ele>79.8</ele>
        <time>2021-04-29T10:28:42.000Z</time>
      </trkpt>
      <trkpt lat="39.771797535941005" lon="2.9825314320623875">
        <ele>79.4</ele>
        <time>2021-04-29T10:28:43.000Z</time>
      </trkpt>
      <trkpt lat="39.771954361349344" lon="2.98309788107872">
        <ele>78.4</ele>
        <time>2021-04-29T10:28:47.000Z</time>
      </trkpt>
      <trkpt lat="39.772045304998755" lon="2.983367443084717">
        <ele>78</ele>
        <time>2021-04-29T10:28:49.000Z</time>
      </trkpt>
      <trkpt lat="39.7722846083343" lon="2.9840127658098936">
        <ele>77.8</ele>
        <time>2021-04-29T10:28:54.000Z</time>
      </trkpt>
      <trkpt lat="39.772334564477205" lon="2.9841361474245787">
        <ele>77.6</ele>
        <time>2021-04-29T10:28:55.000Z</time>
      </trkpt>
      <trkpt lat="39.772387370467186" lon="2.984256846830249">
        <ele>77.6</ele>
        <time>2021-04-29T10:28:56.000Z</time>
      </trkpt>
      <trkpt lat="39.77266573347151" lon="2.9848277382552624">
        <ele>77.2</ele>
        <time>2021-04-29T10:29:01.000Z</time>
      </trkpt>
      <trkpt lat="39.77303369902074" lon="2.98546283505857">
        <ele>76.8</ele>
        <time>2021-04-29T10:29:07.000Z</time>
      </trkpt>
      <trkpt lat="39.7730999160558" lon="2.9855648428201675">
        <ele>76.8</ele>
        <time>2021-04-29T10:29:08.000Z</time>
      </trkpt>
      <trkpt lat="39.773235535249114" lon="2.9857629910111427">
        <ele>76.4</ele>
        <time>2021-04-29T10:29:10.000Z</time>
      </trkpt>
      <trkpt lat="39.77343334816396" lon="2.9860633984208107">
        <ele>75</ele>
        <time>2021-04-29T10:29:13.000Z</time>
      </trkpt>
      <trkpt lat="39.77368539199233" lon="2.98643765039742">
        <ele>74.4</ele>
        <time>2021-04-29T10:29:17.000Z</time>
      </trkpt>
      <trkpt lat="39.7738491743803" lon="2.9867057874798775">
        <ele>74.2</ele>
        <time>2021-04-29T10:29:20.000Z</time>
      </trkpt>
      <trkpt lat="39.7739374358207" lon="2.9868918657302856">
        <ele>74</ele>
        <time>2021-04-29T10:29:22.000Z</time>
      </trkpt>
      <trkpt lat="39.77401404641569" lon="2.98709973692894">
        <ele>73.8</ele>
        <time>2021-04-29T10:29:24.000Z</time>
      </trkpt>
      <trkpt lat="39.77406048215926" lon="2.987333759665489">
        <ele>73.8</ele>
        <time>2021-04-29T10:29:26.000Z</time>
      </trkpt>
      <trkpt lat="39.774083364754915" lon="2.987584210932255">
        <ele>73.6</ele>
        <time>2021-04-29T10:29:28.000Z</time>
      </trkpt>
      <trkpt lat="39.77407867088914" lon="2.9878398589789867">
        <ele>73.2</ele>
        <time>2021-04-29T10:29:30.000Z</time>
      </trkpt>
      <trkpt lat="39.77406400255859" lon="2.987966760993004">
        <ele>73.2</ele>
        <time>2021-04-29T10:29:31.000Z</time>
      </trkpt>
      <trkpt lat="39.77404355071485" lon="2.9880903102457523">
        <ele>72.6</ele>
        <time>2021-04-29T10:29:32.000Z</time>
      </trkpt>
      <trkpt lat="39.77399569004774" lon="2.988322488963604">
        <ele>71.2</ele>
        <time>2021-04-29T10:29:34.000Z</time>
      </trkpt>
      <trkpt lat="39.773942129686475" lon="2.9885240737348795">
        <ele>69.2</ele>
        <time>2021-04-29T10:29:36.000Z</time>
      </trkpt>
      <trkpt lat="39.77385210804641" lon="2.988669080659747">
        <ele>68.4</ele>
        <time>2021-04-29T10:29:38.000Z</time>
      </trkpt>
      <trkpt lat="39.77379536256194" lon="2.9887260776013136">
        <ele>68.2</ele>
        <time>2021-04-29T10:29:39.000Z</time>
      </trkpt>
      <trkpt lat="39.77374993264675" lon="2.9888815619051456">
        <ele>67.8</ele>
        <time>2021-04-29T10:29:41.000Z</time>
      </trkpt>
      <trkpt lat="39.7738079354167" lon="2.9890196956694126">
        <ele>67.6</ele>
        <time>2021-04-29T10:29:43.000Z</time>
      </trkpt>
      <trkpt lat="39.77397465147078" lon="2.9890621919184923">
        <ele>67.6</ele>
        <time>2021-04-29T10:29:46.000Z</time>
      </trkpt>
      <trkpt lat="39.77409417741001" lon="2.98906990326941">
        <ele>67.6</ele>
        <time>2021-04-29T10:29:48.000Z</time>
      </trkpt>
      <trkpt lat="39.77422082796693" lon="2.9890466015785933">
        <ele>67.8</ele>
        <time>2021-04-29T10:29:50.000Z</time>
      </trkpt>
      <trkpt lat="39.77463916875422" lon="2.9889048635959625">
        <ele>67.8</ele>
        <time>2021-04-29T10:29:56.000Z</time>
      </trkpt>
      <trkpt lat="39.774802448228" lon="2.9888677317649126">
        <ele>67.6</ele>
        <time>2021-04-29T10:29:58.000Z</time>
      </trkpt>
      <trkpt lat="39.774970756843686" lon="2.9888559132814407">
        <ele>67.4</ele>
        <time>2021-04-29T10:30:00.000Z</time>
      </trkpt>
      <trkpt lat="39.77505440823734" lon="2.9888677317649126">
        <ele>67.4</ele>
        <time>2021-04-29T10:30:01.000Z</time>
      </trkpt>
      <trkpt lat="39.775137305259705" lon="2.988890027627349">
        <ele>67.2</ele>
        <time>2021-04-29T10:30:02.000Z</time>
      </trkpt>
      <trkpt lat="39.775295639410615" lon="2.9889699071645737">
        <ele>66.2</ele>
        <time>2021-04-29T10:30:04.000Z</time>
      </trkpt>
      <trkpt lat="39.77536923252046" lon="2.989024557173252">
        <ele>66.2</ele>
        <time>2021-04-29T10:30:05.000Z</time>
      </trkpt>
      <trkpt lat="39.77544408291578" lon="2.9890839010477066">
        <ele>66</ele>
        <time>2021-04-29T10:30:06.000Z</time>
      </trkpt>
      <trkpt lat="39.77551608346403" lon="2.9891516268253326">
        <ele>65.6</ele>
        <time>2021-04-29T10:30:07.000Z</time>
      </trkpt>
      <trkpt lat="39.77565161883831" lon="2.9893109668046236">
        <ele>65.4</ele>
        <time>2021-04-29T10:30:09.000Z</time>
      </trkpt>
      <trkpt lat="39.77578145451844" lon="2.989485813304782">
        <ele>65.2</ele>
        <time>2021-04-29T10:30:11.000Z</time>
      </trkpt>
      <trkpt lat="39.776034001260996" lon="2.989856628701091">
        <ele>64.2</ele>
        <time>2021-04-29T10:30:15.000Z</time>
      </trkpt>
      <trkpt lat="39.77609619498253" lon="2.989950254559517">
        <ele>63.6</ele>
        <time>2021-04-29T10:30:16.000Z</time>
      </trkpt>
      <trkpt lat="39.77622343227267" lon="2.9901373386383057">
        <ele>62.4</ele>
        <time>2021-04-29T10:30:18.000Z</time>
      </trkpt>
      <trkpt lat="39.77641294710338" lon="2.9904156178236008">
        <ele>61.2</ele>
        <time>2021-04-29T10:30:21.000Z</time>
      </trkpt>
      <trkpt lat="39.77660288102925" lon="2.990690963342786">
        <ele>60.2</ele>
        <time>2021-04-29T10:30:24.000Z</time>
      </trkpt>
      <trkpt lat="39.77685844525695" lon="2.9910627845674753">
        <ele>59.4</ele>
        <time>2021-04-29T10:30:28.000Z</time>
      </trkpt>
      <trkpt lat="39.77705407887697" lon="2.9913421534001827">
        <ele>59</ele>
        <time>2021-04-29T10:30:31.000Z</time>
      </trkpt>
      <trkpt lat="39.77744744159281" lon="2.9919035732746124">
        <ele>58</ele>
        <time>2021-04-29T10:30:37.000Z</time>
      </trkpt>
      <trkpt lat="39.77770342491567" lon="2.9922755621373653">
        <ele>57.2</ele>
        <time>2021-04-29T10:30:41.000Z</time>
      </trkpt>
      <trkpt lat="39.7778900898993" lon="2.9925502371042967">
        <ele>57</ele>
        <time>2021-04-29T10:30:44.000Z</time>
      </trkpt>
      <trkpt lat="39.77824271656573" lon="2.9930916242301464">
        <ele>56.2</ele>
        <time>2021-04-29T10:30:50.000Z</time>
      </trkpt>
      <trkpt lat="39.77829803712666" lon="2.9931816458702087">
        <ele>56.2</ele>
        <time>2021-04-29T10:30:51.000Z</time>
      </trkpt>
      <trkpt lat="39.77835260331631" lon="2.9932714998722076">
        <ele>56</ele>
        <time>2021-04-29T10:30:52.000Z</time>
      </trkpt>
      <trkpt lat="39.778459975495934" lon="2.9934497829526663">
        <ele>55.8</ele>
        <time>2021-04-29T10:30:54.000Z</time>
      </trkpt>
      <trkpt lat="39.77882659994066" lon="2.994057722389698">
        <ele>55.6</ele>
        <time>2021-04-29T10:31:01.000Z</time>
      </trkpt>
      <trkpt lat="39.77917989715934" lon="2.9946480598300695">
        <ele>55.6</ele>
        <time>2021-04-29T10:31:08.000Z</time>
      </trkpt>
      <trkpt lat="39.779518358409405" lon="2.9952223040163517">
        <ele>55.4</ele>
        <time>2021-04-29T10:31:15.000Z</time>
      </trkpt>
      <trkpt lat="39.77965431287885" lon="2.9954673908650875">
        <ele>55.4</ele>
        <time>2021-04-29T10:31:18.000Z</time>
      </trkpt>
      <trkpt lat="39.77977660484612" lon="2.9957925248891115">
        <ele>55.4</ele>
        <time>2021-04-29T10:31:22.000Z</time>
      </trkpt>
      <trkpt lat="39.779789596796036" lon="2.995873410254717">
        <ele>55.4</ele>
        <time>2021-04-29T10:31:23.000Z</time>
      </trkpt>
      <trkpt lat="39.77979940362275" lon="2.9961521085351706">
        <ele>55.6</ele>
        <time>2021-04-29T10:31:27.000Z</time>
      </trkpt>
      <trkpt lat="39.77979806251824" lon="2.996214972808957">
        <ele>55.6</ele>
        <time>2021-04-29T10:31:28.000Z</time>
      </trkpt>
      <trkpt lat="39.779801331460476" lon="2.996276244521141">
        <ele>55.6</ele>
        <time>2021-04-29T10:31:29.000Z</time>
      </trkpt>
      <trkpt lat="39.77984164841473" lon="2.9964855406433344">
        <ele>56.8</ele>
        <time>2021-04-29T10:31:33.000Z</time>
      </trkpt>
      <trkpt lat="39.77985732257366" lon="2.996526947245002">
        <ele>57.4</ele>
        <time>2021-04-29T10:31:34.000Z</time>
      </trkpt>
      <trkpt lat="39.77990618906915" lon="2.996651418507099">
        <ele>58.6</ele>
        <time>2021-04-29T10:31:37.000Z</time>
      </trkpt>
      <trkpt lat="39.77992965839803" lon="2.996750073507428">
        <ele>59.2</ele>
        <time>2021-04-29T10:31:39.000Z</time>
      </trkpt>
      <trkpt lat="39.779929742217064" lon="2.996810842305422">
        <ele>59.4</ele>
        <time>2021-04-29T10:31:40.000Z</time>
      </trkpt>
      <trkpt lat="39.77986813522875" lon="2.9970073141157627">
        <ele>59.6</ele>
        <time>2021-04-29T10:31:43.000Z</time>
      </trkpt>
      <trkpt lat="39.779833601787686" lon="2.9970819130539894">
        <ele>59.6</ele>
        <time>2021-04-29T10:31:44.000Z</time>
      </trkpt>
      <trkpt lat="39.77971198037267" lon="2.9973312746733427">
        <ele>59.6</ele>
        <time>2021-04-29T10:31:47.000Z</time>
      </trkpt>
      <trkpt lat="39.77966864593327" lon="2.9974217992275953">
        <ele>59.6</ele>
        <time>2021-04-29T10:31:48.000Z</time>
      </trkpt>
      <trkpt lat="39.77957921102643" lon="2.9976126551628113">
        <ele>59.4</ele>
        <time>2021-04-29T10:31:50.000Z</time>
      </trkpt>
      <trkpt lat="39.77944149635732" lon="2.99789453856647">
        <ele>57.4</ele>
        <time>2021-04-29T10:31:53.000Z</time>
      </trkpt>
      <trkpt lat="39.7793510556221" lon="2.998079862445593">
        <ele>55.8</ele>
        <time>2021-04-29T10:31:55.000Z</time>
      </trkpt>
      <trkpt lat="39.779261369258165" lon="2.998260073363781">
        <ele>54.2</ele>
        <time>2021-04-29T10:31:57.000Z</time>
      </trkpt>
      <trkpt lat="39.779130360111594" lon="2.998526869341731">
        <ele>53</ele>
        <time>2021-04-29T10:32:00.000Z</time>
      </trkpt>
      <trkpt lat="39.77895819582045" lon="2.998873461037874">
        <ele>52.2</ele>
        <time>2021-04-29T10:32:04.000Z</time>
      </trkpt>
      <trkpt lat="39.77878821082413" lon="2.9992203041911125">
        <ele>52</ele>
        <time>2021-04-29T10:32:08.000Z</time>
      </trkpt>
      <trkpt lat="39.77857790887356" lon="2.9996514692902565">
        <ele>52</ele>
        <time>2021-04-29T10:32:13.000Z</time>
      </trkpt>
      <trkpt lat="39.778373474255204" lon="3.0000725761055946">
        <ele>52</ele>
        <time>2021-04-29T10:32:18.000Z</time>
      </trkpt>
      <trkpt lat="39.778296779841185" lon="3.000225964933634">
        <ele>52</ele>
        <time>2021-04-29T10:32:20.000Z</time>
      </trkpt>
      <trkpt lat="39.77809871546924" lon="3.000623770058155">
        <ele>52</ele>
        <time>2021-04-29T10:32:25.000Z</time>
      </trkpt>
      <trkpt lat="39.77778942324221" lon="3.001263728365302">
        <ele>51.8</ele>
        <time>2021-04-29T10:32:33.000Z</time>
      </trkpt>
      <trkpt lat="39.77767408825457" lon="3.0014988407492638">
        <ele>51.8</ele>
        <time>2021-04-29T10:32:36.000Z</time>
      </trkpt>
      <trkpt lat="39.77736379019916" lon="3.0021409783512354">
        <ele>51.6</ele>
        <time>2021-04-29T10:32:44.000Z</time>
      </trkpt>
      <trkpt lat="39.77728525176644" lon="3.0023030005395412">
        <ele>51.6</ele>
        <time>2021-04-29T10:32:46.000Z</time>
      </trkpt>
      <trkpt lat="39.77724594064057" lon="3.002383802086115">
        <ele>51.6</ele>
        <time>2021-04-29T10:32:47.000Z</time>
      </trkpt>
      <trkpt lat="39.7771664801985" lon="3.0025438964366913">
        <ele>51.4</ele>
        <time>2021-04-29T10:32:49.000Z</time>
      </trkpt>
      <trkpt lat="39.77712792344391" lon="3.0026238597929478">
        <ele>51.4</ele>
        <time>2021-04-29T10:32:50.000Z</time>
      </trkpt>
      <trkpt lat="39.77690362371504" lon="3.0030868761241436">
        <ele>51.2</ele>
        <time>2021-04-29T10:32:56.000Z</time>
      </trkpt>
      <trkpt lat="39.7766138613224" lon="3.0036809016019106">
        <ele>51.2</ele>
        <time>2021-04-29T10:33:04.000Z</time>
      </trkpt>
      <trkpt lat="39.77647312916815" lon="3.0039695743471384">
        <ele>51.4</ele>
        <time>2021-04-29T10:33:08.000Z</time>
      </trkpt>
      <trkpt lat="39.776268443092704" lon="3.004389340057969">
        <ele>52</ele>
        <time>2021-04-29T10:33:14.000Z</time>
      </trkpt>
      <trkpt lat="39.77615939453244" lon="3.0046115443110466">
        <ele>52.4</ele>
        <time>2021-04-29T10:33:17.000Z</time>
      </trkpt>
      <trkpt lat="39.77585353888571" lon="3.005246976390481">
        <ele>52.2</ele>
        <time>2021-04-29T10:33:25.000Z</time>
      </trkpt>
      <trkpt lat="39.775813557207584" lon="3.0053281132131815">
        <ele>52.2</ele>
        <time>2021-04-29T10:33:26.000Z</time>
      </trkpt>
      <trkpt lat="39.77550837211311" lon="3.005954073742032">
        <ele>51.2</ele>
        <time>2021-04-29T10:33:34.000Z</time>
      </trkpt>
      <trkpt lat="39.77535833604634" lon="3.006258839741349">
        <ele>51</ele>
        <time>2021-04-29T10:33:38.000Z</time>
      </trkpt>
      <trkpt lat="39.77506438270211" lon="3.006850266829133">
        <ele>51</ele>
        <time>2021-04-29T10:33:46.000Z</time>
      </trkpt>
      <trkpt lat="39.77495390921831" lon="3.007078757509589">
        <ele>51</ele>
        <time>2021-04-29T10:33:49.000Z</time>
      </trkpt>
      <trkpt lat="39.774737572297454" lon="3.0075234174728394">
        <ele>51.2</ele>
        <time>2021-04-29T10:33:55.000Z</time>
      </trkpt>
      <trkpt lat="39.77466506883502" lon="3.007673704996705">
        <ele>51.2</ele>
        <time>2021-04-29T10:33:57.000Z</time>
      </trkpt>
      <trkpt lat="39.77440858259797" lon="3.008319614455104">
        <ele>51.2</ele>
        <time>2021-04-29T10:34:05.000Z</time>
      </trkpt>
      <trkpt lat="39.7741686925292" lon="3.008994525298476">
        <ele>51.6</ele>
        <time>2021-04-29T10:34:13.000Z</time>
      </trkpt>
      <trkpt lat="39.774138014763594" lon="3.0090791825205088">
        <ele>51.6</ele>
        <time>2021-04-29T10:34:14.000Z</time>
      </trkpt>
      <trkpt lat="39.773892844095826" lon="3.009756775572896">
        <ele>51.4</ele>
        <time>2021-04-29T10:34:22.000Z</time>
      </trkpt>
      <trkpt lat="39.77380223572254" lon="3.010007059201598">
        <ele>51.2</ele>
        <time>2021-04-29T10:34:25.000Z</time>
      </trkpt>
      <trkpt lat="39.77365219965577" lon="3.0104151740670204">
        <ele>51</ele>
        <time>2021-04-29T10:34:30.000Z</time>
      </trkpt>
      <trkpt lat="39.77347475476563" lon="3.010896546766162">
        <ele>50.8</ele>
        <time>2021-04-29T10:34:36.000Z</time>
      </trkpt>
      <trkpt lat="39.773329915478826" lon="3.0112992133945227">
        <ele>51</ele>
        <time>2021-04-29T10:34:41.000Z</time>
      </trkpt>
      <trkpt lat="39.77317912504077" lon="3.011706741526723">
        <ele>51.2</ele>
        <time>2021-04-29T10:34:46.000Z</time>
      </trkpt>
      <trkpt lat="39.77312011644244" lon="3.011873122304678">
        <ele>51.2</ele>
        <time>2021-04-29T10:34:48.000Z</time>
      </trkpt>
      <trkpt lat="39.77296949364245" lon="3.0122894514352083">
        <ele>51.2</ele>
        <time>2021-04-29T10:34:53.000Z</time>
      </trkpt>
      <trkpt lat="39.77290998212993" lon="3.0124537367373705">
        <ele>51.2</ele>
        <time>2021-04-29T10:34:55.000Z</time>
      </trkpt>
      <trkpt lat="39.77279003709555" lon="3.0127867497503757">
        <ele>51.2</ele>
        <time>2021-04-29T10:34:59.000Z</time>
      </trkpt>
      <trkpt lat="39.77258887141943" lon="3.0133358482271433">
        <ele>51.6</ele>
        <time>2021-04-29T10:35:06.000Z</time>
      </trkpt>
      <trkpt lat="39.772571017965674" lon="3.0133832059800625">
        <ele>51.6</ele>
        <time>2021-04-29T10:35:07.000Z</time>
      </trkpt>
      <trkpt lat="39.772526090964675" lon="3.0134904105216265">
        <ele>51.8</ele>
        <time>2021-04-29T10:35:10.000Z</time>
      </trkpt>
      <trkpt lat="39.772464986890554" lon="3.013569535687566">
        <ele>51.8</ele>
        <time>2021-04-29T10:35:13.000Z</time>
      </trkpt>
      <trkpt lat="39.772429279983044" lon="3.013582192361355">
        <ele>52.2</ele>
        <time>2021-04-29T10:35:16.000Z</time>
      </trkpt>
      <trkpt lat="39.77241528220475" lon="3.013586215674877">
        <ele>52.4</ele>
        <time>2021-04-29T10:35:17.000Z</time>
      </trkpt>
      <trkpt lat="39.772301288321614" lon="3.013654360547662">
        <ele>52.6</ele>
        <time>2021-04-29T10:35:21.000Z</time>
      </trkpt>
      <trkpt lat="39.77225158363581" lon="3.013752596452832">
        <ele>52.6</ele>
        <time>2021-04-29T10:35:23.000Z</time>
      </trkpt>
      <trkpt lat="39.7722452133894" lon="3.0138210766017437">
        <ele>52.6</ele>
        <time>2021-04-29T10:35:24.000Z</time>
      </trkpt>
      <trkpt lat="39.77226491086185" lon="3.0139737110584974">
        <ele>52.6</ele>
        <time>2021-04-29T10:35:26.000Z</time>
      </trkpt>
      <trkpt lat="39.77227605879307" lon="3.014048058539629">
        <ele>52.6</ele>
        <time>2021-04-29T10:35:27.000Z</time>
      </trkpt>
      <trkpt lat="39.77227505296469" lon="3.0141230765730143">
        <ele>52.6</ele>
        <time>2021-04-29T10:35:28.000Z</time>
      </trkpt>
      <trkpt lat="39.77218486368656" lon="3.014422310516238">
        <ele>52.2</ele>
        <time>2021-04-29T10:35:32.000Z</time>
      </trkpt>
      <trkpt lat="39.77201144210994" lon="3.0148808006197214">
        <ele>51.8</ele>
        <time>2021-04-29T10:35:38.000Z</time>
      </trkpt>
      <trkpt lat="39.77189904078841" lon="3.0151977203786373">
        <ele>51.4</ele>
        <time>2021-04-29T10:35:42.000Z</time>
      </trkpt>
      <trkpt lat="39.77169309742749" lon="3.0157371796667576">
        <ele>50.4</ele>
        <time>2021-04-29T10:35:49.000Z</time>
      </trkpt>
      <trkpt lat="39.77150953374803" lon="3.016213523223996">
        <ele>49.8</ele>
        <time>2021-04-29T10:35:55.000Z</time>
      </trkpt>
      <trkpt lat="39.771384727209806" lon="3.0165308620780706">
        <ele>49.6</ele>
        <time>2021-04-29T10:35:59.000Z</time>
      </trkpt>
      <trkpt lat="39.77123896591365" lon="3.016909556463361">
        <ele>49.6</ele>
        <time>2021-04-29T10:36:04.000Z</time>
      </trkpt>
      <trkpt lat="39.77109655737877" lon="3.017283473163843">
        <ele>50</ele>
        <time>2021-04-29T10:36:09.000Z</time>
      </trkpt>
      <trkpt lat="39.77101458236575" lon="3.0175097845494747">
        <ele>50</ele>
        <time>2021-04-29T10:36:12.000Z</time>
      </trkpt>
      <trkpt lat="39.77098700590432" lon="3.0175840482115746">
        <ele>50</ele>
        <time>2021-04-29T10:36:13.000Z</time>
      </trkpt>
      <trkpt lat="39.77081961929798" lon="3.018045723438263">
        <ele>50.2</ele>
        <time>2021-04-29T10:36:19.000Z</time>
      </trkpt>
      <trkpt lat="39.77075901813805" lon="3.0182024650275707">
        <ele>50.2</ele>
        <time>2021-04-29T10:36:21.000Z</time>
      </trkpt>
      <trkpt lat="39.770592134445906" lon="3.018668247386813">
        <ele>50.4</ele>
        <time>2021-04-29T10:36:27.000Z</time>
      </trkpt>
      <trkpt lat="39.77042374201119" lon="3.0191046092659235">
        <ele>50.6</ele>
        <time>2021-04-29T10:36:33.000Z</time>
      </trkpt>
      <trkpt lat="39.77039901539683" lon="3.0191776156425476">
        <ele>50.6</ele>
        <time>2021-04-29T10:36:34.000Z</time>
      </trkpt>
      <trkpt lat="39.77031033486128" lon="3.0193958804011345">
        <ele>50.6</ele>
        <time>2021-04-29T10:36:37.000Z</time>
      </trkpt>
      <trkpt lat="39.770277980715036" lon="3.0194657016545534">
        <ele>50.6</ele>
        <time>2021-04-29T10:36:38.000Z</time>
      </trkpt>
    </trkseg>
  </trk>
</gpx>
